<?xml version="1.0" encoding="UTF-8" standalone="no" ?>
<gpx xmlns="http://www.topografix.com/GPX/1/1" xmlns:xsi="http://www.w3.org/2001/XMLSchema-instance" xsi:schemaLocation="http://www.topografix.com/GPX/1/1 http://www.topografix.com/GPX/1/1/gpx.xsd" version="1.1" creator="VisuGPX - https://www.visugpx.com">
  <metadata>
    <name>130914ROBPourraquesChataigners</name>
    <desc><![CDATA[Bonne sortie - Excellente prestation de nos jeunes]]></desc>
  </metadata>
  <trk>
    <name><![CDATA[130914ROBPourraquesChataigners]]></name>
    <cmt><![CDATA[HR decrease; 120/82/38]]></cmt>
    <trkseg>
      <trkpt lat="43.40406" lon="6.06532">
        <ele>224</ele>
        <time>2013-09-14T12:03:42Z</time>
      </trkpt>
      <trkpt lat="43.40405" lon="6.06532">
        <ele>224</ele>
        <time>2013-09-14T12:03:43Z</time>
      </trkpt>
      <trkpt lat="43.40405" lon="6.06531">
        <ele>224.39999389648</ele>
        <time>2013-09-14T12:03:47Z</time>
      </trkpt>
      <trkpt lat="43.40405" lon="6.06526">
        <ele>224.39999389648</ele>
        <time>2013-09-14T12:03:50Z</time>
      </trkpt>
      <trkpt lat="43.40408" lon="6.06514">
        <ele>224.39999389648</ele>
        <time>2013-09-14T12:03:55Z</time>
      </trkpt>
      <trkpt lat="43.40409" lon="6.06511">
        <ele>224.39999389648</ele>
        <time>2013-09-14T12:03:56Z</time>
      </trkpt>
      <trkpt lat="43.40411" lon="6.06496">
        <ele>224.39999389648</ele>
        <time>2013-09-14T12:04:02Z</time>
      </trkpt>
      <trkpt lat="43.40406" lon="6.06481">
        <ele>224.39999389648</ele>
        <time>2013-09-14T12:04:07Z</time>
      </trkpt>
      <trkpt lat="43.40403" lon="6.06479">
        <ele>224.39999389648</ele>
        <time>2013-09-14T12:04:09Z</time>
      </trkpt>
      <trkpt lat="43.40399" lon="6.06481">
        <ele>224.39999389648</ele>
        <time>2013-09-14T12:04:11Z</time>
      </trkpt>
      <trkpt lat="43.40396" lon="6.06482">
        <ele>224.39999389648</ele>
        <time>2013-09-14T12:04:13Z</time>
      </trkpt>
      <trkpt lat="43.4039" lon="6.06487">
        <ele>224.39999389648</ele>
        <time>2013-09-14T12:04:17Z</time>
      </trkpt>
      <trkpt lat="43.40376" lon="6.06497">
        <ele>224.39999389648</ele>
        <time>2013-09-14T12:04:24Z</time>
      </trkpt>
      <trkpt lat="43.4037" lon="6.06501">
        <ele>224.39999389648</ele>
        <time>2013-09-14T12:04:28Z</time>
      </trkpt>
      <trkpt lat="43.40368" lon="6.06504">
        <ele>224.39999389648</ele>
        <time>2013-09-14T12:04:30Z</time>
      </trkpt>
      <trkpt lat="43.40356" lon="6.06515">
        <ele>224.39999389648</ele>
        <time>2013-09-14T12:04:36Z</time>
      </trkpt>
      <trkpt lat="43.40343" lon="6.06524">
        <ele>224.39999389648</ele>
        <time>2013-09-14T12:04:43Z</time>
      </trkpt>
      <trkpt lat="43.40333" lon="6.0653">
        <ele>224.39999389648</ele>
        <time>2013-09-14T12:04:48Z</time>
      </trkpt>
      <trkpt lat="43.40318" lon="6.06538">
        <ele>224.39999389648</ele>
        <time>2013-09-14T12:04:54Z</time>
      </trkpt>
      <trkpt lat="43.40299" lon="6.06544">
        <ele>224.39999389648</ele>
        <time>2013-09-14T12:05:01Z</time>
      </trkpt>
      <trkpt lat="43.40273" lon="6.06552">
        <ele>224.39999389648</ele>
        <time>2013-09-14T12:05:11Z</time>
      </trkpt>
      <trkpt lat="43.40254" lon="6.06561">
        <ele>224.39999389648</ele>
        <time>2013-09-14T12:05:18Z</time>
      </trkpt>
      <trkpt lat="43.40237" lon="6.06578">
        <ele>224.39999389648</ele>
        <time>2013-09-14T12:05:25Z</time>
      </trkpt>
      <trkpt lat="43.40232" lon="6.06601">
        <ele>224.39999389648</ele>
        <time>2013-09-14T12:05:30Z</time>
      </trkpt>
      <trkpt lat="43.40216" lon="6.06621">
        <ele>224.39999389648</ele>
        <time>2013-09-14T12:05:36Z</time>
      </trkpt>
      <trkpt lat="43.40205" lon="6.06641">
        <ele>224.39999389648</ele>
        <time>2013-09-14T12:05:42Z</time>
      </trkpt>
      <trkpt lat="43.402" lon="6.06656">
        <ele>224.39999389648</ele>
        <time>2013-09-14T12:05:46Z</time>
      </trkpt>
      <trkpt lat="43.40195" lon="6.06669">
        <ele>224.39999389648</ele>
        <time>2013-09-14T12:05:50Z</time>
      </trkpt>
      <trkpt lat="43.40186" lon="6.06691">
        <ele>224.39999389648</ele>
        <time>2013-09-14T12:05:57Z</time>
      </trkpt>
      <trkpt lat="43.40173" lon="6.0672">
        <ele>224.39999389648</ele>
        <time>2013-09-14T12:06:06Z</time>
      </trkpt>
      <trkpt lat="43.40168" lon="6.0673">
        <ele>224.80000305176</ele>
        <time>2013-09-14T12:06:09Z</time>
      </trkpt>
      <trkpt lat="43.40163" lon="6.06739">
        <ele>226</ele>
        <time>2013-09-14T12:06:12Z</time>
      </trkpt>
      <trkpt lat="43.40159" lon="6.06749">
        <ele>226.39999389648</ele>
        <time>2013-09-14T12:06:15Z</time>
      </trkpt>
      <trkpt lat="43.40152" lon="6.06766">
        <ele>226.39999389648</ele>
        <time>2013-09-14T12:06:21Z</time>
      </trkpt>
      <trkpt lat="43.40149" lon="6.06773">
        <ele>226.39999389648</ele>
        <time>2013-09-14T12:06:23Z</time>
      </trkpt>
      <trkpt lat="43.40143" lon="6.06796">
        <ele>228.39999389648</ele>
        <time>2013-09-14T12:06:30Z</time>
      </trkpt>
      <trkpt lat="43.40136" lon="6.06818">
        <ele>228.39999389648</ele>
        <time>2013-09-14T12:06:37Z</time>
      </trkpt>
      <trkpt lat="43.4013" lon="6.06834">
        <ele>228.39999389648</ele>
        <time>2013-09-14T12:06:42Z</time>
      </trkpt>
      <trkpt lat="43.40128" lon="6.0684">
        <ele>228.39999389648</ele>
        <time>2013-09-14T12:06:44Z</time>
      </trkpt>
      <trkpt lat="43.40124" lon="6.06847">
        <ele>229.60000610352</ele>
        <time>2013-09-14T12:06:47Z</time>
      </trkpt>
      <trkpt lat="43.40122" lon="6.06853">
        <ele>230.39999389648</ele>
        <time>2013-09-14T12:06:49Z</time>
      </trkpt>
      <trkpt lat="43.40113" lon="6.06878">
        <ele>230.80000305176</ele>
        <time>2013-09-14T12:06:57Z</time>
      </trkpt>
      <trkpt lat="43.40112" lon="6.06886">
        <ele>231.60000610352</ele>
        <time>2013-09-14T12:06:59Z</time>
      </trkpt>
      <trkpt lat="43.4011" lon="6.06903">
        <ele>232.60000610352</ele>
        <time>2013-09-14T12:07:03Z</time>
      </trkpt>
      <trkpt lat="43.4011" lon="6.06918">
        <ele>232.60000610352</ele>
        <time>2013-09-14T12:07:06Z</time>
      </trkpt>
      <trkpt lat="43.40113" lon="6.06933">
        <ele>232.60000610352</ele>
        <time>2013-09-14T12:07:09Z</time>
      </trkpt>
      <trkpt lat="43.40116" lon="6.06943">
        <ele>232.60000610352</ele>
        <time>2013-09-14T12:07:11Z</time>
      </trkpt>
      <trkpt lat="43.40119" lon="6.06963">
        <ele>232.60000610352</ele>
        <time>2013-09-14T12:07:15Z</time>
      </trkpt>
      <trkpt lat="43.40121" lon="6.06973">
        <ele>232.60000610352</ele>
        <time>2013-09-14T12:07:17Z</time>
      </trkpt>
      <trkpt lat="43.40124" lon="6.07001">
        <ele>232.60000610352</ele>
        <time>2013-09-14T12:07:23Z</time>
      </trkpt>
      <trkpt lat="43.40124" lon="6.0701">
        <ele>232.60000610352</ele>
        <time>2013-09-14T12:07:25Z</time>
      </trkpt>
      <trkpt lat="43.40121" lon="6.07042">
        <ele>232.19999694824</ele>
        <time>2013-09-14T12:07:32Z</time>
      </trkpt>
      <trkpt lat="43.4012" lon="6.07055">
        <ele>231</ele>
        <time>2013-09-14T12:07:35Z</time>
      </trkpt>
      <trkpt lat="43.4012" lon="6.07074">
        <ele>230.60000610352</ele>
        <time>2013-09-14T12:07:39Z</time>
      </trkpt>
      <trkpt lat="43.40122" lon="6.07099">
        <ele>230.60000610352</ele>
        <time>2013-09-14T12:07:45Z</time>
      </trkpt>
      <trkpt lat="43.40122" lon="6.07112">
        <ele>230.60000610352</ele>
        <time>2013-09-14T12:07:48Z</time>
      </trkpt>
      <trkpt lat="43.40126" lon="6.07142">
        <ele>230.60000610352</ele>
        <time>2013-09-14T12:07:56Z</time>
      </trkpt>
      <trkpt lat="43.40128" lon="6.07163">
        <ele>230.60000610352</ele>
        <time>2013-09-14T12:08:02Z</time>
      </trkpt>
      <trkpt lat="43.4013" lon="6.07177">
        <ele>230.60000610352</ele>
        <time>2013-09-14T12:08:07Z</time>
      </trkpt>
      <trkpt lat="43.40141" lon="6.07234">
        <ele>230.60000610352</ele>
        <time>2013-09-14T12:08:21Z</time>
      </trkpt>
      <trkpt lat="43.40146" lon="6.07268">
        <ele>230.60000610352</ele>
        <time>2013-09-14T12:08:29Z</time>
      </trkpt>
      <trkpt lat="43.40146" lon="6.07295">
        <ele>230.60000610352</ele>
        <time>2013-09-14T12:08:36Z</time>
      </trkpt>
      <trkpt lat="43.40144" lon="6.07318">
        <ele>230.60000610352</ele>
        <time>2013-09-14T12:08:42Z</time>
      </trkpt>
      <trkpt lat="43.40142" lon="6.07344">
        <ele>230.60000610352</ele>
        <time>2013-09-14T12:08:49Z</time>
      </trkpt>
      <trkpt lat="43.40139" lon="6.07375">
        <ele>230.60000610352</ele>
        <time>2013-09-14T12:08:57Z</time>
      </trkpt>
      <trkpt lat="43.4014" lon="6.07403">
        <ele>230.60000610352</ele>
        <time>2013-09-14T12:09:04Z</time>
      </trkpt>
      <trkpt lat="43.40146" lon="6.0743">
        <ele>230.60000610352</ele>
        <time>2013-09-14T12:09:11Z</time>
      </trkpt>
      <trkpt lat="43.40147" lon="6.07456">
        <ele>230.60000610352</ele>
        <time>2013-09-14T12:09:18Z</time>
      </trkpt>
      <trkpt lat="43.40145" lon="6.07479">
        <ele>231.39999389648</ele>
        <time>2013-09-14T12:09:24Z</time>
      </trkpt>
      <trkpt lat="43.40139" lon="6.075">
        <ele>232.60000610352</ele>
        <time>2013-09-14T12:09:30Z</time>
      </trkpt>
      <trkpt lat="43.40138" lon="6.07507">
        <ele>232.60000610352</ele>
        <time>2013-09-14T12:09:32Z</time>
      </trkpt>
      <trkpt lat="43.40133" lon="6.07524">
        <ele>234.80000305176</ele>
        <time>2013-09-14T12:09:37Z</time>
      </trkpt>
      <trkpt lat="43.40126" lon="6.07541">
        <ele>234.80000305176</ele>
        <time>2013-09-14T12:09:42Z</time>
      </trkpt>
      <trkpt lat="43.40122" lon="6.07546">
        <ele>234.80000305176</ele>
        <time>2013-09-14T12:09:44Z</time>
      </trkpt>
      <trkpt lat="43.4011" lon="6.07564">
        <ele>234.80000305176</ele>
        <time>2013-09-14T12:09:51Z</time>
      </trkpt>
      <trkpt lat="43.40097" lon="6.07584">
        <ele>235.19999694824</ele>
        <time>2013-09-14T12:09:58Z</time>
      </trkpt>
      <trkpt lat="43.40093" lon="6.07595">
        <ele>236.80000305176</ele>
        <time>2013-09-14T12:10:02Z</time>
      </trkpt>
      <trkpt lat="43.4009" lon="6.07648">
        <ele>236.80000305176</ele>
        <time>2013-09-14T12:10:18Z</time>
      </trkpt>
      <trkpt lat="43.40087" lon="6.07659">
        <ele>239</ele>
        <time>2013-09-14T12:10:22Z</time>
      </trkpt>
      <trkpt lat="43.40083" lon="6.0767">
        <ele>239</ele>
        <time>2013-09-14T12:10:26Z</time>
      </trkpt>
      <trkpt lat="43.40074" lon="6.07688">
        <ele>241.19999694824</ele>
        <time>2013-09-14T12:10:33Z</time>
      </trkpt>
      <trkpt lat="43.40071" lon="6.07692">
        <ele>241.19999694824</ele>
        <time>2013-09-14T12:10:35Z</time>
      </trkpt>
      <trkpt lat="43.40045" lon="6.07727">
        <ele>241.19999694824</ele>
        <time>2013-09-14T12:10:50Z</time>
      </trkpt>
      <trkpt lat="43.40035" lon="6.07748">
        <ele>242.60000610352</ele>
        <time>2013-09-14T12:10:57Z</time>
      </trkpt>
      <trkpt lat="43.40033" lon="6.07753">
        <ele>243.39999389648</ele>
        <time>2013-09-14T12:10:59Z</time>
      </trkpt>
      <trkpt lat="43.4003" lon="6.07762">
        <ele>243.39999389648</ele>
        <time>2013-09-14T12:11:02Z</time>
      </trkpt>
      <trkpt lat="43.40023" lon="6.07787">
        <ele>243.39999389648</ele>
        <time>2013-09-14T12:11:09Z</time>
      </trkpt>
      <trkpt lat="43.40017" lon="6.07807">
        <ele>243.39999389648</ele>
        <time>2013-09-14T12:11:16Z</time>
      </trkpt>
      <trkpt lat="43.40012" lon="6.07825">
        <ele>243.39999389648</ele>
        <time>2013-09-14T12:11:22Z</time>
      </trkpt>
      <trkpt lat="43.40006" lon="6.07844">
        <ele>243.39999389648</ele>
        <time>2013-09-14T12:11:28Z</time>
      </trkpt>
      <trkpt lat="43.4" lon="6.07869">
        <ele>243.39999389648</ele>
        <time>2013-09-14T12:11:36Z</time>
      </trkpt>
      <trkpt lat="43.39993" lon="6.07903">
        <ele>243.80000305176</ele>
        <time>2013-09-14T12:11:46Z</time>
      </trkpt>
      <trkpt lat="43.39992" lon="6.07909">
        <ele>244.60000610352</ele>
        <time>2013-09-14T12:11:48Z</time>
      </trkpt>
      <trkpt lat="43.39991" lon="6.07915">
        <ele>245.60000610352</ele>
        <time>2013-09-14T12:11:50Z</time>
      </trkpt>
      <trkpt lat="43.39987" lon="6.07931">
        <ele>245.60000610352</ele>
        <time>2013-09-14T12:11:55Z</time>
      </trkpt>
      <trkpt lat="43.39986" lon="6.07944">
        <ele>245.60000610352</ele>
        <time>2013-09-14T12:12:00Z</time>
      </trkpt>
      <trkpt lat="43.39985" lon="6.0795">
        <ele>246.80000305176</ele>
        <time>2013-09-14T12:12:03Z</time>
      </trkpt>
      <trkpt lat="43.39983" lon="6.07955">
        <ele>247.60000610352</ele>
        <time>2013-09-14T12:12:05Z</time>
      </trkpt>
      <trkpt lat="43.39981" lon="6.07959">
        <ele>247.60000610352</ele>
        <time>2013-09-14T12:12:07Z</time>
      </trkpt>
      <trkpt lat="43.39975" lon="6.07973">
        <ele>247.60000610352</ele>
        <time>2013-09-14T12:12:14Z</time>
      </trkpt>
      <trkpt lat="43.39973" lon="6.07975">
        <ele>248</ele>
        <time>2013-09-14T12:12:16Z</time>
      </trkpt>
      <trkpt lat="43.39971" lon="6.07977">
        <ele>248.80000305176</ele>
        <time>2013-09-14T12:12:18Z</time>
      </trkpt>
      <trkpt lat="43.39955" lon="6.07988">
        <ele>249.60000610352</ele>
        <time>2013-09-14T12:12:26Z</time>
      </trkpt>
      <trkpt lat="43.39941" lon="6.07997">
        <ele>249.60000610352</ele>
        <time>2013-09-14T12:12:33Z</time>
      </trkpt>
      <trkpt lat="43.39937" lon="6.07998">
        <ele>249.60000610352</ele>
        <time>2013-09-14T12:12:35Z</time>
      </trkpt>
      <trkpt lat="43.39922" lon="6.08008">
        <ele>249.60000610352</ele>
        <time>2013-09-14T12:12:41Z</time>
      </trkpt>
      <trkpt lat="43.39916" lon="6.08014">
        <ele>249.60000610352</ele>
        <time>2013-09-14T12:12:43Z</time>
      </trkpt>
      <trkpt lat="43.39908" lon="6.08025">
        <ele>249.60000610352</ele>
        <time>2013-09-14T12:12:46Z</time>
      </trkpt>
      <trkpt lat="43.39904" lon="6.08028">
        <ele>249.60000610352</ele>
        <time>2013-09-14T12:12:47Z</time>
      </trkpt>
      <trkpt lat="43.39895" lon="6.08032">
        <ele>249.60000610352</ele>
        <time>2013-09-14T12:12:50Z</time>
      </trkpt>
      <trkpt lat="43.39885" lon="6.08033">
        <ele>249.60000610352</ele>
        <time>2013-09-14T12:12:53Z</time>
      </trkpt>
      <trkpt lat="43.3987" lon="6.08028">
        <ele>249.60000610352</ele>
        <time>2013-09-14T12:12:57Z</time>
      </trkpt>
      <trkpt lat="43.39868" lon="6.08026">
        <ele>249.60000610352</ele>
        <time>2013-09-14T12:12:58Z</time>
      </trkpt>
      <trkpt lat="43.39853" lon="6.08015">
        <ele>249.60000610352</ele>
        <time>2013-09-14T12:13:03Z</time>
      </trkpt>
      <trkpt lat="43.39827" lon="6.07999">
        <ele>249.60000610352</ele>
        <time>2013-09-14T12:13:11Z</time>
      </trkpt>
      <trkpt lat="43.3981" lon="6.07991">
        <ele>249.60000610352</ele>
        <time>2013-09-14T12:13:17Z</time>
      </trkpt>
      <trkpt lat="43.3979" lon="6.07983">
        <ele>249.60000610352</ele>
        <time>2013-09-14T12:13:24Z</time>
      </trkpt>
      <trkpt lat="43.39774" lon="6.07975">
        <ele>249.60000610352</ele>
        <time>2013-09-14T12:13:31Z</time>
      </trkpt>
      <trkpt lat="43.39772" lon="6.07974">
        <ele>249.60000610352</ele>
        <time>2013-09-14T12:13:32Z</time>
      </trkpt>
      <trkpt lat="43.39766" lon="6.07969">
        <ele>249.60000610352</ele>
        <time>2013-09-14T12:13:35Z</time>
      </trkpt>
      <trkpt lat="43.39762" lon="6.07966">
        <ele>250</ele>
        <time>2013-09-14T12:13:37Z</time>
      </trkpt>
      <trkpt lat="43.39746" lon="6.07956">
        <ele>251.80000305176</ele>
        <time>2013-09-14T12:13:44Z</time>
      </trkpt>
      <trkpt lat="43.39731" lon="6.07943">
        <ele>251.80000305176</ele>
        <time>2013-09-14T12:13:51Z</time>
      </trkpt>
      <trkpt lat="43.39719" lon="6.07928">
        <ele>252.19999694824</ele>
        <time>2013-09-14T12:13:58Z</time>
      </trkpt>
      <trkpt lat="43.39711" lon="6.07917">
        <ele>253.80000305176</ele>
        <time>2013-09-14T12:14:05Z</time>
      </trkpt>
      <trkpt lat="43.39705" lon="6.07909">
        <ele>255.19999694824</ele>
        <time>2013-09-14T12:14:09Z</time>
      </trkpt>
      <trkpt lat="43.39695" lon="6.07899">
        <ele>256</ele>
        <time>2013-09-14T12:14:15Z</time>
      </trkpt>
      <trkpt lat="43.39692" lon="6.07896">
        <ele>256.39999389648</ele>
        <time>2013-09-14T12:14:17Z</time>
      </trkpt>
      <trkpt lat="43.39686" lon="6.07893">
        <ele>258.20001220703</ele>
        <time>2013-09-14T12:14:21Z</time>
      </trkpt>
      <trkpt lat="43.39677" lon="6.07891">
        <ele>258.20001220703</ele>
        <time>2013-09-14T12:14:26Z</time>
      </trkpt>
      <trkpt lat="43.39667" lon="6.0789">
        <ele>258.20001220703</ele>
        <time>2013-09-14T12:14:31Z</time>
      </trkpt>
      <trkpt lat="43.39656" lon="6.07891">
        <ele>258.60000610352</ele>
        <time>2013-09-14T12:14:36Z</time>
      </trkpt>
      <trkpt lat="43.39646" lon="6.07892">
        <ele>260.20001220703</ele>
        <time>2013-09-14T12:14:40Z</time>
      </trkpt>
      <trkpt lat="43.39639" lon="6.07893">
        <ele>260.20001220703</ele>
        <time>2013-09-14T12:14:44Z</time>
      </trkpt>
      <trkpt lat="43.39627" lon="6.07896">
        <ele>260.20001220703</ele>
        <time>2013-09-14T12:14:49Z</time>
      </trkpt>
      <trkpt lat="43.39613" lon="6.07903">
        <ele>260.60000610352</ele>
        <time>2013-09-14T12:14:57Z</time>
      </trkpt>
      <trkpt lat="43.39608" lon="6.07907">
        <ele>262.20001220703</ele>
        <time>2013-09-14T12:15:01Z</time>
      </trkpt>
      <trkpt lat="43.39603" lon="6.07907">
        <ele>262.60000610352</ele>
        <time>2013-09-14T12:15:04Z</time>
      </trkpt>
      <trkpt lat="43.396" lon="6.07908">
        <ele>263.60000610352</ele>
        <time>2013-09-14T12:15:06Z</time>
      </trkpt>
      <trkpt lat="43.39598" lon="6.07908">
        <ele>264</ele>
        <time>2013-09-14T12:15:07Z</time>
      </trkpt>
      <trkpt lat="43.39598" lon="6.07909">
        <ele>264.39999389648</ele>
        <time>2013-09-14T12:15:08Z</time>
      </trkpt>
      <trkpt lat="43.39596" lon="6.0791">
        <ele>264.39999389648</ele>
        <time>2013-09-14T12:15:10Z</time>
      </trkpt>
      <trkpt lat="43.39594" lon="6.07911">
        <ele>264.39999389648</ele>
        <time>2013-09-14T12:15:16Z</time>
      </trkpt>
      <trkpt lat="43.39594" lon="6.07911">
        <ele>264.39999389648</ele>
        <time>2013-09-14T12:15:31Z</time>
      </trkpt>
      <trkpt lat="43.39594" lon="6.07911">
        <ele>264.39999389648</ele>
        <time>2013-09-14T12:15:50Z</time>
      </trkpt>
      <trkpt lat="43.39594" lon="6.07911">
        <ele>264.39999389648</ele>
        <time>2013-09-14T12:15:55Z</time>
      </trkpt>
      <trkpt lat="43.39594" lon="6.07911">
        <ele>264.39999389648</ele>
        <time>2013-09-14T12:16:12Z</time>
      </trkpt>
      <trkpt lat="43.39594" lon="6.07911">
        <ele>264.39999389648</ele>
        <time>2013-09-14T12:16:32Z</time>
      </trkpt>
      <trkpt lat="43.39594" lon="6.07911">
        <ele>264.39999389648</ele>
        <time>2013-09-14T12:16:53Z</time>
      </trkpt>
      <trkpt lat="43.39593" lon="6.0791">
        <ele>264.39999389648</ele>
        <time>2013-09-14T12:18:19Z</time>
      </trkpt>
      <trkpt lat="43.39592" lon="6.07911">
        <ele>264.39999389648</ele>
        <time>2013-09-14T12:18:32Z</time>
      </trkpt>
      <trkpt lat="43.39589" lon="6.07913">
        <ele>264.39999389648</ele>
        <time>2013-09-14T12:18:41Z</time>
      </trkpt>
      <trkpt lat="43.39584" lon="6.07923">
        <ele>264.39999389648</ele>
        <time>2013-09-14T12:18:45Z</time>
      </trkpt>
      <trkpt lat="43.39582" lon="6.07929">
        <ele>264.39999389648</ele>
        <time>2013-09-14T12:18:47Z</time>
      </trkpt>
      <trkpt lat="43.39579" lon="6.07933">
        <ele>264.39999389648</ele>
        <time>2013-09-14T12:18:49Z</time>
      </trkpt>
      <trkpt lat="43.39574" lon="6.07936">
        <ele>265</ele>
        <time>2013-09-14T12:18:52Z</time>
      </trkpt>
      <trkpt lat="43.3957" lon="6.07938">
        <ele>266</ele>
        <time>2013-09-14T12:18:54Z</time>
      </trkpt>
      <trkpt lat="43.39563" lon="6.07941">
        <ele>266.79998779297</ele>
        <time>2013-09-14T12:18:59Z</time>
      </trkpt>
      <trkpt lat="43.39559" lon="6.07942">
        <ele>267.39999389648</ele>
        <time>2013-09-14T12:19:01Z</time>
      </trkpt>
      <trkpt lat="43.39549" lon="6.07949">
        <ele>269</ele>
        <time>2013-09-14T12:19:07Z</time>
      </trkpt>
      <trkpt lat="43.3954" lon="6.07952">
        <ele>269</ele>
        <time>2013-09-14T12:19:12Z</time>
      </trkpt>
      <trkpt lat="43.39535" lon="6.07954">
        <ele>270.39999389648</ele>
        <time>2013-09-14T12:19:15Z</time>
      </trkpt>
      <trkpt lat="43.39524" lon="6.07956">
        <ele>271.20001220703</ele>
        <time>2013-09-14T12:19:21Z</time>
      </trkpt>
      <trkpt lat="43.39514" lon="6.07959">
        <ele>271.20001220703</ele>
        <time>2013-09-14T12:19:28Z</time>
      </trkpt>
      <trkpt lat="43.39501" lon="6.07961">
        <ele>273.20001220703</ele>
        <time>2013-09-14T12:19:35Z</time>
      </trkpt>
      <trkpt lat="43.3949" lon="6.07966">
        <ele>273.20001220703</ele>
        <time>2013-09-14T12:19:42Z</time>
      </trkpt>
      <trkpt lat="43.39475" lon="6.07971">
        <ele>273.20001220703</ele>
        <time>2013-09-14T12:19:50Z</time>
      </trkpt>
      <trkpt lat="43.3945" lon="6.0798">
        <ele>275.20001220703</ele>
        <time>2013-09-14T12:20:04Z</time>
      </trkpt>
      <trkpt lat="43.39438" lon="6.07985">
        <ele>275.20001220703</ele>
        <time>2013-09-14T12:20:11Z</time>
      </trkpt>
      <trkpt lat="43.39433" lon="6.07988">
        <ele>275.60000610352</ele>
        <time>2013-09-14T12:20:14Z</time>
      </trkpt>
      <trkpt lat="43.39426" lon="6.0799">
        <ele>277.20001220703</ele>
        <time>2013-09-14T12:20:18Z</time>
      </trkpt>
      <trkpt lat="43.39418" lon="6.07993">
        <ele>277.20001220703</ele>
        <time>2013-09-14T12:20:23Z</time>
      </trkpt>
      <trkpt lat="43.39409" lon="6.07999">
        <ele>277.20001220703</ele>
        <time>2013-09-14T12:20:29Z</time>
      </trkpt>
      <trkpt lat="43.39404" lon="6.08002">
        <ele>278</ele>
        <time>2013-09-14T12:20:32Z</time>
      </trkpt>
      <trkpt lat="43.39398" lon="6.08008">
        <ele>279.39999389648</ele>
        <time>2013-09-14T12:20:36Z</time>
      </trkpt>
      <trkpt lat="43.3939" lon="6.08022">
        <ele>281</ele>
        <time>2013-09-14T12:20:43Z</time>
      </trkpt>
      <trkpt lat="43.39389" lon="6.08025">
        <ele>281.39999389648</ele>
        <time>2013-09-14T12:20:44Z</time>
      </trkpt>
      <trkpt lat="43.39385" lon="6.0803">
        <ele>281.39999389648</ele>
        <time>2013-09-14T12:20:47Z</time>
      </trkpt>
      <trkpt lat="43.39378" lon="6.08037">
        <ele>281.79998779297</ele>
        <time>2013-09-14T12:20:51Z</time>
      </trkpt>
      <trkpt lat="43.39372" lon="6.08046">
        <ele>283.39999389648</ele>
        <time>2013-09-14T12:20:55Z</time>
      </trkpt>
      <trkpt lat="43.39366" lon="6.0806">
        <ele>283.39999389648</ele>
        <time>2013-09-14T12:21:01Z</time>
      </trkpt>
      <trkpt lat="43.39359" lon="6.08071">
        <ele>283.39999389648</ele>
        <time>2013-09-14T12:21:07Z</time>
      </trkpt>
      <trkpt lat="43.39352" lon="6.08088">
        <ele>285.20001220703</ele>
        <time>2013-09-14T12:21:15Z</time>
      </trkpt>
      <trkpt lat="43.39346" lon="6.08095">
        <ele>285.60000610352</ele>
        <time>2013-09-14T12:21:19Z</time>
      </trkpt>
      <trkpt lat="43.39337" lon="6.08103">
        <ele>285.60000610352</ele>
        <time>2013-09-14T12:21:26Z</time>
      </trkpt>
      <trkpt lat="43.39334" lon="6.08106">
        <ele>286.39999389648</ele>
        <time>2013-09-14T12:21:28Z</time>
      </trkpt>
      <trkpt lat="43.39328" lon="6.08116">
        <ele>287.79998779297</ele>
        <time>2013-09-14T12:21:33Z</time>
      </trkpt>
      <trkpt lat="43.39325" lon="6.08135">
        <ele>287.79998779297</ele>
        <time>2013-09-14T12:21:39Z</time>
      </trkpt>
      <trkpt lat="43.39322" lon="6.08143">
        <ele>288.20001220703</ele>
        <time>2013-09-14T12:21:42Z</time>
      </trkpt>
      <trkpt lat="43.39319" lon="6.08152">
        <ele>289.79998779297</ele>
        <time>2013-09-14T12:21:46Z</time>
      </trkpt>
      <trkpt lat="43.39317" lon="6.08163">
        <ele>289.79998779297</ele>
        <time>2013-09-14T12:21:50Z</time>
      </trkpt>
      <trkpt lat="43.39315" lon="6.0818">
        <ele>291.79998779297</ele>
        <time>2013-09-14T12:21:57Z</time>
      </trkpt>
      <trkpt lat="43.39307" lon="6.08201">
        <ele>291.79998779297</ele>
        <time>2013-09-14T12:22:06Z</time>
      </trkpt>
      <trkpt lat="43.39304" lon="6.08207">
        <ele>292.20001220703</ele>
        <time>2013-09-14T12:22:09Z</time>
      </trkpt>
      <trkpt lat="43.39295" lon="6.08223">
        <ele>294</ele>
        <time>2013-09-14T12:22:17Z</time>
      </trkpt>
      <trkpt lat="43.39294" lon="6.08239">
        <ele>294</ele>
        <time>2013-09-14T12:22:23Z</time>
      </trkpt>
      <trkpt lat="43.39291" lon="6.08253">
        <ele>294.79998779297</ele>
        <time>2013-09-14T12:22:29Z</time>
      </trkpt>
      <trkpt lat="43.39289" lon="6.0826">
        <ele>296</ele>
        <time>2013-09-14T12:22:32Z</time>
      </trkpt>
      <trkpt lat="43.39275" lon="6.08292">
        <ele>298.20001220703</ele>
        <time>2013-09-14T12:22:48Z</time>
      </trkpt>
      <trkpt lat="43.39272" lon="6.08302">
        <ele>298.20001220703</ele>
        <time>2013-09-14T12:22:52Z</time>
      </trkpt>
      <trkpt lat="43.39271" lon="6.08306">
        <ele>298.60000610352</ele>
        <time>2013-09-14T12:22:54Z</time>
      </trkpt>
      <trkpt lat="43.3927" lon="6.08317">
        <ele>300.20001220703</ele>
        <time>2013-09-14T12:22:58Z</time>
      </trkpt>
      <trkpt lat="43.39269" lon="6.08321">
        <ele>300.20001220703</ele>
        <time>2013-09-14T12:23:00Z</time>
      </trkpt>
      <trkpt lat="43.39266" lon="6.08331">
        <ele>301.20001220703</ele>
        <time>2013-09-14T12:23:06Z</time>
      </trkpt>
      <trkpt lat="43.39266" lon="6.08337">
        <ele>302.39999389648</ele>
        <time>2013-09-14T12:23:09Z</time>
      </trkpt>
      <trkpt lat="43.39267" lon="6.08344">
        <ele>302.39999389648</ele>
        <time>2013-09-14T12:23:13Z</time>
      </trkpt>
      <trkpt lat="43.39268" lon="6.08345">
        <ele>302.39999389648</ele>
        <time>2013-09-14T12:23:17Z</time>
      </trkpt>
      <trkpt lat="43.39267" lon="6.08346">
        <ele>302.39999389648</ele>
        <time>2013-09-14T12:23:19Z</time>
      </trkpt>
      <trkpt lat="43.39267" lon="6.08346">
        <ele>302.39999389648</ele>
        <time>2013-09-14T12:23:25Z</time>
      </trkpt>
      <trkpt lat="43.39263" lon="6.08357">
        <ele>302.39999389648</ele>
        <time>2013-09-14T12:23:31Z</time>
      </trkpt>
      <trkpt lat="43.39261" lon="6.0836">
        <ele>302.79998779297</ele>
        <time>2013-09-14T12:23:33Z</time>
      </trkpt>
      <trkpt lat="43.3926" lon="6.08362">
        <ele>303.20001220703</ele>
        <time>2013-09-14T12:23:34Z</time>
      </trkpt>
      <trkpt lat="43.39259" lon="6.08369">
        <ele>304.60000610352</ele>
        <time>2013-09-14T12:23:37Z</time>
      </trkpt>
      <trkpt lat="43.39258" lon="6.08374">
        <ele>304.60000610352</ele>
        <time>2013-09-14T12:23:40Z</time>
      </trkpt>
      <trkpt lat="43.39251" lon="6.08382">
        <ele>304.60000610352</ele>
        <time>2013-09-14T12:23:45Z</time>
      </trkpt>
      <trkpt lat="43.39249" lon="6.08387">
        <ele>304.60000610352</ele>
        <time>2013-09-14T12:23:48Z</time>
      </trkpt>
      <trkpt lat="43.39248" lon="6.08394">
        <ele>304.60000610352</ele>
        <time>2013-09-14T12:23:51Z</time>
      </trkpt>
      <trkpt lat="43.39247" lon="6.08399">
        <ele>305</ele>
        <time>2013-09-14T12:23:53Z</time>
      </trkpt>
      <trkpt lat="43.39246" lon="6.0841">
        <ele>306.60000610352</ele>
        <time>2013-09-14T12:23:58Z</time>
      </trkpt>
      <trkpt lat="43.39245" lon="6.08421">
        <ele>307</ele>
        <time>2013-09-14T12:24:04Z</time>
      </trkpt>
      <trkpt lat="43.39244" lon="6.08428">
        <ele>308.39999389648</ele>
        <time>2013-09-14T12:24:07Z</time>
      </trkpt>
      <trkpt lat="43.39241" lon="6.08456">
        <ele>310.79998779297</ele>
        <time>2013-09-14T12:24:21Z</time>
      </trkpt>
      <trkpt lat="43.3924" lon="6.08463">
        <ele>310.79998779297</ele>
        <time>2013-09-14T12:24:25Z</time>
      </trkpt>
      <trkpt lat="43.39241" lon="6.08476">
        <ele>312.20001220703</ele>
        <time>2013-09-14T12:24:31Z</time>
      </trkpt>
      <trkpt lat="43.39241" lon="6.08484">
        <ele>313</ele>
        <time>2013-09-14T12:24:36Z</time>
      </trkpt>
      <trkpt lat="43.39238" lon="6.08488">
        <ele>313</ele>
        <time>2013-09-14T12:24:39Z</time>
      </trkpt>
      <trkpt lat="43.39236" lon="6.08492">
        <ele>314.20001220703</ele>
        <time>2013-09-14T12:24:42Z</time>
      </trkpt>
      <trkpt lat="43.39235" lon="6.08495">
        <ele>315</ele>
        <time>2013-09-14T12:24:44Z</time>
      </trkpt>
      <trkpt lat="43.39235" lon="6.08499">
        <ele>315</ele>
        <time>2013-09-14T12:24:46Z</time>
      </trkpt>
      <trkpt lat="43.39232" lon="6.08507">
        <ele>315</ele>
        <time>2013-09-14T12:24:51Z</time>
      </trkpt>
      <trkpt lat="43.39232" lon="6.08513">
        <ele>315</ele>
        <time>2013-09-14T12:24:55Z</time>
      </trkpt>
      <trkpt lat="43.39232" lon="6.08514">
        <ele>315</ele>
        <time>2013-09-14T12:24:58Z</time>
      </trkpt>
      <trkpt lat="43.39232" lon="6.08514">
        <ele>315</ele>
        <time>2013-09-14T12:25:05Z</time>
      </trkpt>
      <trkpt lat="43.39232" lon="6.08514">
        <ele>315</ele>
        <time>2013-09-14T12:25:12Z</time>
      </trkpt>
      <trkpt lat="43.39232" lon="6.08514">
        <ele>315</ele>
        <time>2013-09-14T12:25:23Z</time>
      </trkpt>
      <trkpt lat="43.39231" lon="6.08514">
        <ele>315</ele>
        <time>2013-09-14T12:25:26Z</time>
      </trkpt>
      <trkpt lat="43.39218" lon="6.08507">
        <ele>315</ele>
        <time>2013-09-14T12:25:28Z</time>
      </trkpt>
      <trkpt lat="43.39207" lon="6.08499">
        <ele>315</ele>
        <time>2013-09-14T12:25:34Z</time>
      </trkpt>
      <trkpt lat="43.39209" lon="6.08499">
        <ele>315</ele>
        <time>2013-09-14T12:25:38Z</time>
      </trkpt>
      <trkpt lat="43.39209" lon="6.08499">
        <ele>315</ele>
        <time>2013-09-14T12:25:40Z</time>
      </trkpt>
      <trkpt lat="43.3921" lon="6.085">
        <ele>315</ele>
        <time>2013-09-14T12:25:46Z</time>
      </trkpt>
      <trkpt lat="43.39209" lon="6.085">
        <ele>315</ele>
        <time>2013-09-14T12:25:53Z</time>
      </trkpt>
      <trkpt lat="43.39209" lon="6.085">
        <ele>315</ele>
        <time>2013-09-14T12:25:58Z</time>
      </trkpt>
      <trkpt lat="43.39206" lon="6.085">
        <ele>315</ele>
        <time>2013-09-14T12:26:04Z</time>
      </trkpt>
      <trkpt lat="43.39205" lon="6.085">
        <ele>315</ele>
        <time>2013-09-14T12:26:07Z</time>
      </trkpt>
      <trkpt lat="43.39206" lon="6.08501">
        <ele>315</ele>
        <time>2013-09-14T12:26:17Z</time>
      </trkpt>
      <trkpt lat="43.39204" lon="6.08503">
        <ele>315</ele>
        <time>2013-09-14T12:26:23Z</time>
      </trkpt>
      <trkpt lat="43.39203" lon="6.08504">
        <ele>315</ele>
        <time>2013-09-14T12:26:24Z</time>
      </trkpt>
      <trkpt lat="43.39196" lon="6.08512">
        <ele>315</ele>
        <time>2013-09-14T12:26:29Z</time>
      </trkpt>
      <trkpt lat="43.39193" lon="6.08515">
        <ele>315</ele>
        <time>2013-09-14T12:26:31Z</time>
      </trkpt>
      <trkpt lat="43.39192" lon="6.08517">
        <ele>315</ele>
        <time>2013-09-14T12:26:32Z</time>
      </trkpt>
      <trkpt lat="43.39186" lon="6.08532">
        <ele>315</ele>
        <time>2013-09-14T12:26:38Z</time>
      </trkpt>
      <trkpt lat="43.39182" lon="6.08547">
        <ele>315</ele>
        <time>2013-09-14T12:26:42Z</time>
      </trkpt>
      <trkpt lat="43.39175" lon="6.08559">
        <ele>315</ele>
        <time>2013-09-14T12:26:45Z</time>
      </trkpt>
      <trkpt lat="43.3917" lon="6.0858">
        <ele>315</ele>
        <time>2013-09-14T12:26:50Z</time>
      </trkpt>
      <trkpt lat="43.39167" lon="6.08603">
        <ele>315</ele>
        <time>2013-09-14T12:26:55Z</time>
      </trkpt>
      <trkpt lat="43.3916" lon="6.08636">
        <ele>315</ele>
        <time>2013-09-14T12:27:01Z</time>
      </trkpt>
      <trkpt lat="43.39156" lon="6.08656">
        <ele>315</ele>
        <time>2013-09-14T12:27:05Z</time>
      </trkpt>
      <trkpt lat="43.3915" lon="6.08676">
        <ele>315</ele>
        <time>2013-09-14T12:27:10Z</time>
      </trkpt>
      <trkpt lat="43.39151" lon="6.08681">
        <ele>315</ele>
        <time>2013-09-14T12:27:14Z</time>
      </trkpt>
      <trkpt lat="43.3915" lon="6.08683">
        <ele>315</ele>
        <time>2013-09-14T12:27:17Z</time>
      </trkpt>
      <trkpt lat="43.39149" lon="6.08688">
        <ele>315</ele>
        <time>2013-09-14T12:27:19Z</time>
      </trkpt>
      <trkpt lat="43.39146" lon="6.08702">
        <ele>315</ele>
        <time>2013-09-14T12:27:23Z</time>
      </trkpt>
      <trkpt lat="43.39144" lon="6.08722">
        <ele>315</ele>
        <time>2013-09-14T12:27:28Z</time>
      </trkpt>
      <trkpt lat="43.39142" lon="6.0873">
        <ele>315</ele>
        <time>2013-09-14T12:27:30Z</time>
      </trkpt>
      <trkpt lat="43.39137" lon="6.08751">
        <ele>315</ele>
        <time>2013-09-14T12:27:35Z</time>
      </trkpt>
      <trkpt lat="43.39136" lon="6.08755">
        <ele>315</ele>
        <time>2013-09-14T12:27:36Z</time>
      </trkpt>
      <trkpt lat="43.39131" lon="6.08778">
        <ele>315</ele>
        <time>2013-09-14T12:27:41Z</time>
      </trkpt>
      <trkpt lat="43.39128" lon="6.08788">
        <ele>315</ele>
        <time>2013-09-14T12:27:43Z</time>
      </trkpt>
      <trkpt lat="43.3912" lon="6.08819">
        <ele>315</ele>
        <time>2013-09-14T12:27:50Z</time>
      </trkpt>
      <trkpt lat="43.39115" lon="6.08849">
        <ele>315.79998779297</ele>
        <time>2013-09-14T12:27:57Z</time>
      </trkpt>
      <trkpt lat="43.39111" lon="6.08861">
        <ele>317</ele>
        <time>2013-09-14T12:28:00Z</time>
      </trkpt>
      <trkpt lat="43.39109" lon="6.08864">
        <ele>317</ele>
        <time>2013-09-14T12:28:01Z</time>
      </trkpt>
      <trkpt lat="43.39104" lon="6.08882">
        <ele>317</ele>
        <time>2013-09-14T12:28:06Z</time>
      </trkpt>
      <trkpt lat="43.391" lon="6.08909">
        <ele>317</ele>
        <time>2013-09-14T12:28:11Z</time>
      </trkpt>
      <trkpt lat="43.39093" lon="6.08938">
        <ele>317</ele>
        <time>2013-09-14T12:28:17Z</time>
      </trkpt>
      <trkpt lat="43.39087" lon="6.08961">
        <ele>317</ele>
        <time>2013-09-14T12:28:23Z</time>
      </trkpt>
      <trkpt lat="43.39081" lon="6.08983">
        <ele>317.39999389648</ele>
        <time>2013-09-14T12:28:30Z</time>
      </trkpt>
      <trkpt lat="43.39079" lon="6.08989">
        <ele>318.20001220703</ele>
        <time>2013-09-14T12:28:32Z</time>
      </trkpt>
      <trkpt lat="43.39078" lon="6.08992">
        <ele>318.79998779297</ele>
        <time>2013-09-14T12:28:33Z</time>
      </trkpt>
      <trkpt lat="43.39071" lon="6.09006">
        <ele>319.20001220703</ele>
        <time>2013-09-14T12:28:39Z</time>
      </trkpt>
      <trkpt lat="43.39064" lon="6.09022">
        <ele>319.20001220703</ele>
        <time>2013-09-14T12:28:45Z</time>
      </trkpt>
      <trkpt lat="43.39056" lon="6.09035">
        <ele>319.20001220703</ele>
        <time>2013-09-14T12:28:51Z</time>
      </trkpt>
      <trkpt lat="43.39054" lon="6.09046">
        <ele>319.20001220703</ele>
        <time>2013-09-14T12:28:56Z</time>
      </trkpt>
      <trkpt lat="43.39054" lon="6.09048">
        <ele>319.20001220703</ele>
        <time>2013-09-14T12:28:57Z</time>
      </trkpt>
      <trkpt lat="43.39051" lon="6.09055">
        <ele>319.20001220703</ele>
        <time>2013-09-14T12:29:00Z</time>
      </trkpt>
      <trkpt lat="43.39043" lon="6.09073">
        <ele>319.20001220703</ele>
        <time>2013-09-14T12:29:07Z</time>
      </trkpt>
      <trkpt lat="43.3904" lon="6.0908">
        <ele>319.20001220703</ele>
        <time>2013-09-14T12:29:09Z</time>
      </trkpt>
      <trkpt lat="43.39033" lon="6.09101">
        <ele>320</ele>
        <time>2013-09-14T12:29:15Z</time>
      </trkpt>
      <trkpt lat="43.3903" lon="6.09107">
        <ele>320.79998779297</ele>
        <time>2013-09-14T12:29:17Z</time>
      </trkpt>
      <trkpt lat="43.39027" lon="6.09115">
        <ele>321.20001220703</ele>
        <time>2013-09-14T12:29:19Z</time>
      </trkpt>
      <trkpt lat="43.3902" lon="6.09137">
        <ele>321.20001220703</ele>
        <time>2013-09-14T12:29:24Z</time>
      </trkpt>
      <trkpt lat="43.39012" lon="6.09171">
        <ele>321.20001220703</ele>
        <time>2013-09-14T12:29:33Z</time>
      </trkpt>
      <trkpt lat="43.39011" lon="6.09179">
        <ele>321.20001220703</ele>
        <time>2013-09-14T12:29:35Z</time>
      </trkpt>
      <trkpt lat="43.39009" lon="6.09195">
        <ele>323.20001220703</ele>
        <time>2013-09-14T12:29:39Z</time>
      </trkpt>
      <trkpt lat="43.39002" lon="6.09221">
        <ele>323.20001220703</ele>
        <time>2013-09-14T12:29:45Z</time>
      </trkpt>
      <trkpt lat="43.38995" lon="6.09251">
        <ele>323.20001220703</ele>
        <time>2013-09-14T12:29:52Z</time>
      </trkpt>
      <trkpt lat="43.38979" lon="6.09289">
        <ele>323.20001220703</ele>
        <time>2013-09-14T12:30:03Z</time>
      </trkpt>
      <trkpt lat="43.38971" lon="6.09305">
        <ele>324.60000610352</ele>
        <time>2013-09-14T12:30:08Z</time>
      </trkpt>
      <trkpt lat="43.38966" lon="6.09311">
        <ele>325.39999389648</ele>
        <time>2013-09-14T12:30:10Z</time>
      </trkpt>
      <trkpt lat="43.3896" lon="6.09331">
        <ele>325.39999389648</ele>
        <time>2013-09-14T12:30:17Z</time>
      </trkpt>
      <trkpt lat="43.38954" lon="6.0934">
        <ele>325.39999389648</ele>
        <time>2013-09-14T12:30:22Z</time>
      </trkpt>
      <trkpt lat="43.38938" lon="6.09355">
        <ele>327.39999389648</ele>
        <time>2013-09-14T12:30:31Z</time>
      </trkpt>
      <trkpt lat="43.38925" lon="6.09368">
        <ele>327.39999389648</ele>
        <time>2013-09-14T12:30:40Z</time>
      </trkpt>
      <trkpt lat="43.38916" lon="6.0938">
        <ele>327.39999389648</ele>
        <time>2013-09-14T12:30:47Z</time>
      </trkpt>
      <trkpt lat="43.38912" lon="6.09384">
        <ele>327.39999389648</ele>
        <time>2013-09-14T12:30:49Z</time>
      </trkpt>
      <trkpt lat="43.38905" lon="6.09394">
        <ele>329.60000610352</ele>
        <time>2013-09-14T12:30:54Z</time>
      </trkpt>
      <trkpt lat="43.38901" lon="6.09398">
        <ele>329.60000610352</ele>
        <time>2013-09-14T12:30:57Z</time>
      </trkpt>
      <trkpt lat="43.38899" lon="6.09404">
        <ele>330</ele>
        <time>2013-09-14T12:31:00Z</time>
      </trkpt>
      <trkpt lat="43.38897" lon="6.09415">
        <ele>331.79998779297</ele>
        <time>2013-09-14T12:31:04Z</time>
      </trkpt>
      <trkpt lat="43.38895" lon="6.09418">
        <ele>331.79998779297</ele>
        <time>2013-09-14T12:31:09Z</time>
      </trkpt>
      <trkpt lat="43.38894" lon="6.09419">
        <ele>331.79998779297</ele>
        <time>2013-09-14T12:31:16Z</time>
      </trkpt>
      <trkpt lat="43.38893" lon="6.09419">
        <ele>331.79998779297</ele>
        <time>2013-09-14T12:31:17Z</time>
      </trkpt>
      <trkpt lat="43.3889" lon="6.09421">
        <ele>332.60000610352</ele>
        <time>2013-09-14T12:31:23Z</time>
      </trkpt>
      <trkpt lat="43.3889" lon="6.09421">
        <ele>333.79998779297</ele>
        <time>2013-09-14T12:31:26Z</time>
      </trkpt>
      <trkpt lat="43.38889" lon="6.09423">
        <ele>333.79998779297</ele>
        <time>2013-09-14T12:31:35Z</time>
      </trkpt>
      <trkpt lat="43.38888" lon="6.09426">
        <ele>333.79998779297</ele>
        <time>2013-09-14T12:31:45Z</time>
      </trkpt>
      <trkpt lat="43.38888" lon="6.09427">
        <ele>333.79998779297</ele>
        <time>2013-09-14T12:31:49Z</time>
      </trkpt>
      <trkpt lat="43.38888" lon="6.09427">
        <ele>333.79998779297</ele>
        <time>2013-09-14T12:31:51Z</time>
      </trkpt>
      <trkpt lat="43.38888" lon="6.09427">
        <ele>333.79998779297</ele>
        <time>2013-09-14T12:32:05Z</time>
      </trkpt>
      <trkpt lat="43.38883" lon="6.09427">
        <ele>333.79998779297</ele>
        <time>2013-09-14T12:32:09Z</time>
      </trkpt>
      <trkpt lat="43.38878" lon="6.09428">
        <ele>333.79998779297</ele>
        <time>2013-09-14T12:32:11Z</time>
      </trkpt>
      <trkpt lat="43.38876" lon="6.09429">
        <ele>333.79998779297</ele>
        <time>2013-09-14T12:32:15Z</time>
      </trkpt>
      <trkpt lat="43.38876" lon="6.0943">
        <ele>333.79998779297</ele>
        <time>2013-09-14T12:32:21Z</time>
      </trkpt>
      <trkpt lat="43.38876" lon="6.0943">
        <ele>333.79998779297</ele>
        <time>2013-09-14T12:32:40Z</time>
      </trkpt>
      <trkpt lat="43.38876" lon="6.09429">
        <ele>333.79998779297</ele>
        <time>2013-09-14T12:33:14Z</time>
      </trkpt>
      <trkpt lat="43.38876" lon="6.09429">
        <ele>333.79998779297</ele>
        <time>2013-09-14T12:33:25Z</time>
      </trkpt>
      <trkpt lat="43.38875" lon="6.09429">
        <ele>333.79998779297</ele>
        <time>2013-09-14T12:33:27Z</time>
      </trkpt>
      <trkpt lat="43.38875" lon="6.09429">
        <ele>333.79998779297</ele>
        <time>2013-09-14T12:33:32Z</time>
      </trkpt>
      <trkpt lat="43.38874" lon="6.09429">
        <ele>333.79998779297</ele>
        <time>2013-09-14T12:33:34Z</time>
      </trkpt>
      <trkpt lat="43.38868" lon="6.09422">
        <ele>333.79998779297</ele>
        <time>2013-09-14T12:33:38Z</time>
      </trkpt>
      <trkpt lat="43.38866" lon="6.09419">
        <ele>333.79998779297</ele>
        <time>2013-09-14T12:33:39Z</time>
      </trkpt>
      <trkpt lat="43.38865" lon="6.09414">
        <ele>333.39999389648</ele>
        <time>2013-09-14T12:33:41Z</time>
      </trkpt>
      <trkpt lat="43.38863" lon="6.09412">
        <ele>333</ele>
        <time>2013-09-14T12:33:42Z</time>
      </trkpt>
      <trkpt lat="43.3886" lon="6.0941">
        <ele>332.60000610352</ele>
        <time>2013-09-14T12:33:43Z</time>
      </trkpt>
      <trkpt lat="43.38859" lon="6.09408">
        <ele>331.60000610352</ele>
        <time>2013-09-14T12:33:44Z</time>
      </trkpt>
      <trkpt lat="43.38857" lon="6.09405">
        <ele>331.60000610352</ele>
        <time>2013-09-14T12:33:45Z</time>
      </trkpt>
      <trkpt lat="43.38855" lon="6.09403">
        <ele>331.20001220703</ele>
        <time>2013-09-14T12:33:46Z</time>
      </trkpt>
      <trkpt lat="43.3885" lon="6.09394">
        <ele>330</ele>
        <time>2013-09-14T12:33:49Z</time>
      </trkpt>
      <trkpt lat="43.38845" lon="6.09388">
        <ele>329.20001220703</ele>
        <time>2013-09-14T12:33:52Z</time>
      </trkpt>
      <trkpt lat="43.38844" lon="6.09388">
        <ele>328.79998779297</ele>
        <time>2013-09-14T12:33:53Z</time>
      </trkpt>
      <trkpt lat="43.38842" lon="6.09392">
        <ele>328</ele>
        <time>2013-09-14T12:33:55Z</time>
      </trkpt>
      <trkpt lat="43.3884" lon="6.09405">
        <ele>326.60000610352</ele>
        <time>2013-09-14T12:33:59Z</time>
      </trkpt>
      <trkpt lat="43.38839" lon="6.09409">
        <ele>326</ele>
        <time>2013-09-14T12:34:00Z</time>
      </trkpt>
      <trkpt lat="43.38838" lon="6.09412">
        <ele>325.39999389648</ele>
        <time>2013-09-14T12:34:01Z</time>
      </trkpt>
      <trkpt lat="43.38838" lon="6.09414">
        <ele>325</ele>
        <time>2013-09-14T12:34:02Z</time>
      </trkpt>
      <trkpt lat="43.38836" lon="6.0942">
        <ele>324.60000610352</ele>
        <time>2013-09-14T12:34:04Z</time>
      </trkpt>
      <trkpt lat="43.38836" lon="6.09423">
        <ele>324.20001220703</ele>
        <time>2013-09-14T12:34:05Z</time>
      </trkpt>
      <trkpt lat="43.38834" lon="6.09425">
        <ele>323.79998779297</ele>
        <time>2013-09-14T12:34:06Z</time>
      </trkpt>
      <trkpt lat="43.38833" lon="6.09426">
        <ele>323.39999389648</ele>
        <time>2013-09-14T12:34:07Z</time>
      </trkpt>
      <trkpt lat="43.38832" lon="6.09426">
        <ele>322.79998779297</ele>
        <time>2013-09-14T12:34:08Z</time>
      </trkpt>
      <trkpt lat="43.38831" lon="6.09426">
        <ele>322</ele>
        <time>2013-09-14T12:34:09Z</time>
      </trkpt>
      <trkpt lat="43.38831" lon="6.09426">
        <ele>321.60000610352</ele>
        <time>2013-09-14T12:34:10Z</time>
      </trkpt>
      <trkpt lat="43.38831" lon="6.09426">
        <ele>320.79998779297</ele>
        <time>2013-09-14T12:34:35Z</time>
      </trkpt>
      <trkpt lat="43.38831" lon="6.09426">
        <ele>320.79998779297</ele>
        <time>2013-09-14T12:34:49Z</time>
      </trkpt>
      <trkpt lat="43.38831" lon="6.09426">
        <ele>320.79998779297</ele>
        <time>2013-09-14T12:35:03Z</time>
      </trkpt>
      <trkpt lat="43.38831" lon="6.09426">
        <ele>320.79998779297</ele>
        <time>2013-09-14T12:35:09Z</time>
      </trkpt>
      <trkpt lat="43.38831" lon="6.09424">
        <ele>320.79998779297</ele>
        <time>2013-09-14T12:35:21Z</time>
      </trkpt>
      <trkpt lat="43.3882" lon="6.09411">
        <ele>320.20001220703</ele>
        <time>2013-09-14T12:35:26Z</time>
      </trkpt>
      <trkpt lat="43.38818" lon="6.09409">
        <ele>319.79998779297</ele>
        <time>2013-09-14T12:35:27Z</time>
      </trkpt>
      <trkpt lat="43.38815" lon="6.09406">
        <ele>318.79998779297</ele>
        <time>2013-09-14T12:35:29Z</time>
      </trkpt>
      <trkpt lat="43.38814" lon="6.09404">
        <ele>318.20001220703</ele>
        <time>2013-09-14T12:35:30Z</time>
      </trkpt>
      <trkpt lat="43.38812" lon="6.09402">
        <ele>318.20001220703</ele>
        <time>2013-09-14T12:35:31Z</time>
      </trkpt>
      <trkpt lat="43.38808" lon="6.09393">
        <ele>317.79998779297</ele>
        <time>2013-09-14T12:35:34Z</time>
      </trkpt>
      <trkpt lat="43.38807" lon="6.0939">
        <ele>317.39999389648</ele>
        <time>2013-09-14T12:35:35Z</time>
      </trkpt>
      <trkpt lat="43.38805" lon="6.09386">
        <ele>317</ele>
        <time>2013-09-14T12:35:36Z</time>
      </trkpt>
      <trkpt lat="43.38802" lon="6.09381">
        <ele>316.60000610352</ele>
        <time>2013-09-14T12:35:37Z</time>
      </trkpt>
      <trkpt lat="43.38797" lon="6.09376">
        <ele>316.20001220703</ele>
        <time>2013-09-14T12:35:38Z</time>
      </trkpt>
      <trkpt lat="43.38781" lon="6.0936">
        <ele>315</ele>
        <time>2013-09-14T12:35:41Z</time>
      </trkpt>
      <trkpt lat="43.38776" lon="6.09355">
        <ele>314.20001220703</ele>
        <time>2013-09-14T12:35:42Z</time>
      </trkpt>
      <trkpt lat="43.3877" lon="6.09352">
        <ele>313.60000610352</ele>
        <time>2013-09-14T12:35:43Z</time>
      </trkpt>
      <trkpt lat="43.38764" lon="6.09348">
        <ele>312.79998779297</ele>
        <time>2013-09-14T12:35:44Z</time>
      </trkpt>
      <trkpt lat="43.38758" lon="6.09345">
        <ele>312</ele>
        <time>2013-09-14T12:35:45Z</time>
      </trkpt>
      <trkpt lat="43.38752" lon="6.09342">
        <ele>311</ele>
        <time>2013-09-14T12:35:46Z</time>
      </trkpt>
      <trkpt lat="43.38745" lon="6.09339">
        <ele>310.20001220703</ele>
        <time>2013-09-14T12:35:47Z</time>
      </trkpt>
      <trkpt lat="43.38737" lon="6.09338">
        <ele>308</ele>
        <time>2013-09-14T12:35:48Z</time>
      </trkpt>
      <trkpt lat="43.38729" lon="6.09336">
        <ele>306.79998779297</ele>
        <time>2013-09-14T12:35:49Z</time>
      </trkpt>
      <trkpt lat="43.38722" lon="6.09333">
        <ele>305.60000610352</ele>
        <time>2013-09-14T12:35:50Z</time>
      </trkpt>
      <trkpt lat="43.38715" lon="6.09329">
        <ele>304.39999389648</ele>
        <time>2013-09-14T12:35:51Z</time>
      </trkpt>
      <trkpt lat="43.38708" lon="6.09324">
        <ele>303.20001220703</ele>
        <time>2013-09-14T12:35:52Z</time>
      </trkpt>
      <trkpt lat="43.38701" lon="6.09319">
        <ele>302</ele>
        <time>2013-09-14T12:35:53Z</time>
      </trkpt>
      <trkpt lat="43.38694" lon="6.09314">
        <ele>300.79998779297</ele>
        <time>2013-09-14T12:35:54Z</time>
      </trkpt>
      <trkpt lat="43.38689" lon="6.09309">
        <ele>299.60000610352</ele>
        <time>2013-09-14T12:35:55Z</time>
      </trkpt>
      <trkpt lat="43.38685" lon="6.09305">
        <ele>298.20001220703</ele>
        <time>2013-09-14T12:35:56Z</time>
      </trkpt>
      <trkpt lat="43.38681" lon="6.09301">
        <ele>297</ele>
        <time>2013-09-14T12:35:57Z</time>
      </trkpt>
      <trkpt lat="43.38678" lon="6.09299">
        <ele>295.79998779297</ele>
        <time>2013-09-14T12:35:58Z</time>
      </trkpt>
      <trkpt lat="43.38675" lon="6.093">
        <ele>294.39999389648</ele>
        <time>2013-09-14T12:35:59Z</time>
      </trkpt>
      <trkpt lat="43.38671" lon="6.09303">
        <ele>292.39999389648</ele>
        <time>2013-09-14T12:36:01Z</time>
      </trkpt>
      <trkpt lat="43.3867" lon="6.09304">
        <ele>291.20001220703</ele>
        <time>2013-09-14T12:36:02Z</time>
      </trkpt>
      <trkpt lat="43.3867" lon="6.09306">
        <ele>290.39999389648</ele>
        <time>2013-09-14T12:36:03Z</time>
      </trkpt>
      <trkpt lat="43.38669" lon="6.09307">
        <ele>289.39999389648</ele>
        <time>2013-09-14T12:36:04Z</time>
      </trkpt>
      <trkpt lat="43.38668" lon="6.0931">
        <ele>288.60000610352</ele>
        <time>2013-09-14T12:36:05Z</time>
      </trkpt>
      <trkpt lat="43.38668" lon="6.09312">
        <ele>287.79998779297</ele>
        <time>2013-09-14T12:36:06Z</time>
      </trkpt>
      <trkpt lat="43.38668" lon="6.09314">
        <ele>286.79998779297</ele>
        <time>2013-09-14T12:36:07Z</time>
      </trkpt>
      <trkpt lat="43.38668" lon="6.09322">
        <ele>286.79998779297</ele>
        <time>2013-09-14T12:36:11Z</time>
      </trkpt>
      <trkpt lat="43.3867" lon="6.09327">
        <ele>286.79998779297</ele>
        <time>2013-09-14T12:36:13Z</time>
      </trkpt>
      <trkpt lat="43.3867" lon="6.09336">
        <ele>286.79998779297</ele>
        <time>2013-09-14T12:36:17Z</time>
      </trkpt>
      <trkpt lat="43.38675" lon="6.09358">
        <ele>286.79998779297</ele>
        <time>2013-09-14T12:36:23Z</time>
      </trkpt>
      <trkpt lat="43.38678" lon="6.09385">
        <ele>286.79998779297</ele>
        <time>2013-09-14T12:36:29Z</time>
      </trkpt>
      <trkpt lat="43.38677" lon="6.09392">
        <ele>286.79998779297</ele>
        <time>2013-09-14T12:36:30Z</time>
      </trkpt>
      <trkpt lat="43.38677" lon="6.09413">
        <ele>286.39999389648</ele>
        <time>2013-09-14T12:36:33Z</time>
      </trkpt>
      <trkpt lat="43.38679" lon="6.09433">
        <ele>285</ele>
        <time>2013-09-14T12:36:36Z</time>
      </trkpt>
      <trkpt lat="43.3868" lon="6.09444">
        <ele>284.39999389648</ele>
        <time>2013-09-14T12:36:38Z</time>
      </trkpt>
      <trkpt lat="43.38679" lon="6.09477">
        <ele>284.39999389648</ele>
        <time>2013-09-14T12:36:44Z</time>
      </trkpt>
      <trkpt lat="43.38672" lon="6.09512">
        <ele>284.39999389648</ele>
        <time>2013-09-14T12:36:50Z</time>
      </trkpt>
      <trkpt lat="43.38671" lon="6.09535">
        <ele>284.39999389648</ele>
        <time>2013-09-14T12:36:54Z</time>
      </trkpt>
      <trkpt lat="43.38669" lon="6.09556">
        <ele>284.39999389648</ele>
        <time>2013-09-14T12:36:58Z</time>
      </trkpt>
      <trkpt lat="43.38672" lon="6.09574">
        <ele>284.39999389648</ele>
        <time>2013-09-14T12:37:01Z</time>
      </trkpt>
      <trkpt lat="43.38671" lon="6.09592">
        <ele>284.39999389648</ele>
        <time>2013-09-14T12:37:05Z</time>
      </trkpt>
      <trkpt lat="43.38669" lon="6.09609">
        <ele>284.39999389648</ele>
        <time>2013-09-14T12:37:08Z</time>
      </trkpt>
      <trkpt lat="43.38662" lon="6.09649">
        <ele>284.39999389648</ele>
        <time>2013-09-14T12:37:15Z</time>
      </trkpt>
      <trkpt lat="43.38659" lon="6.09655">
        <ele>284.39999389648</ele>
        <time>2013-09-14T12:37:16Z</time>
      </trkpt>
      <trkpt lat="43.38651" lon="6.09667">
        <ele>284</ele>
        <time>2013-09-14T12:37:18Z</time>
      </trkpt>
      <trkpt lat="43.38643" lon="6.09682">
        <ele>283</ele>
        <time>2013-09-14T12:37:20Z</time>
      </trkpt>
      <trkpt lat="43.38639" lon="6.0969">
        <ele>282.39999389648</ele>
        <time>2013-09-14T12:37:21Z</time>
      </trkpt>
      <trkpt lat="43.38634" lon="6.09698">
        <ele>281.79998779297</ele>
        <time>2013-09-14T12:37:22Z</time>
      </trkpt>
      <trkpt lat="43.3863" lon="6.09707">
        <ele>281.39999389648</ele>
        <time>2013-09-14T12:37:23Z</time>
      </trkpt>
      <trkpt lat="43.38625" lon="6.09715">
        <ele>280.79998779297</ele>
        <time>2013-09-14T12:37:24Z</time>
      </trkpt>
      <trkpt lat="43.38621" lon="6.09723">
        <ele>280.20001220703</ele>
        <time>2013-09-14T12:37:25Z</time>
      </trkpt>
      <trkpt lat="43.38617" lon="6.09731">
        <ele>279.60000610352</ele>
        <time>2013-09-14T12:37:26Z</time>
      </trkpt>
      <trkpt lat="43.38614" lon="6.0974">
        <ele>279.60000610352</ele>
        <time>2013-09-14T12:37:27Z</time>
      </trkpt>
      <trkpt lat="43.38595" lon="6.09788">
        <ele>279.60000610352</ele>
        <time>2013-09-14T12:37:33Z</time>
      </trkpt>
      <trkpt lat="43.38595" lon="6.09802">
        <ele>279.20001220703</ele>
        <time>2013-09-14T12:37:35Z</time>
      </trkpt>
      <trkpt lat="43.38595" lon="6.09809">
        <ele>278.79998779297</ele>
        <time>2013-09-14T12:37:36Z</time>
      </trkpt>
      <trkpt lat="43.38596" lon="6.09836">
        <ele>277.60000610352</ele>
        <time>2013-09-14T12:37:41Z</time>
      </trkpt>
      <trkpt lat="43.38596" lon="6.09846">
        <ele>278</ele>
        <time>2013-09-14T12:37:43Z</time>
      </trkpt>
      <trkpt lat="43.38596" lon="6.09856">
        <ele>278.79998779297</ele>
        <time>2013-09-14T12:37:45Z</time>
      </trkpt>
      <trkpt lat="43.38597" lon="6.09866">
        <ele>279.60000610352</ele>
        <time>2013-09-14T12:37:47Z</time>
      </trkpt>
      <trkpt lat="43.38597" lon="6.09894">
        <ele>281.60000610352</ele>
        <time>2013-09-14T12:37:53Z</time>
      </trkpt>
      <trkpt lat="43.386" lon="6.09915">
        <ele>282</ele>
        <time>2013-09-14T12:37:58Z</time>
      </trkpt>
      <trkpt lat="43.38604" lon="6.09925">
        <ele>283.20001220703</ele>
        <time>2013-09-14T12:38:01Z</time>
      </trkpt>
      <trkpt lat="43.38606" lon="6.09929">
        <ele>283.60000610352</ele>
        <time>2013-09-14T12:38:02Z</time>
      </trkpt>
      <trkpt lat="43.38617" lon="6.09942">
        <ele>284.20001220703</ele>
        <time>2013-09-14T12:38:07Z</time>
      </trkpt>
      <trkpt lat="43.38628" lon="6.09956">
        <ele>285.39999389648</ele>
        <time>2013-09-14T12:38:13Z</time>
      </trkpt>
      <trkpt lat="43.38633" lon="6.09961">
        <ele>286.20001220703</ele>
        <time>2013-09-14T12:38:15Z</time>
      </trkpt>
      <trkpt lat="43.3864" lon="6.09968">
        <ele>286.20001220703</ele>
        <time>2013-09-14T12:38:19Z</time>
      </trkpt>
      <trkpt lat="43.38648" lon="6.09976">
        <ele>286.60000610352</ele>
        <time>2013-09-14T12:38:23Z</time>
      </trkpt>
      <trkpt lat="43.3865" lon="6.09978">
        <ele>287</ele>
        <time>2013-09-14T12:38:24Z</time>
      </trkpt>
      <trkpt lat="43.38658" lon="6.09983">
        <ele>288.39999389648</ele>
        <time>2013-09-14T12:38:27Z</time>
      </trkpt>
      <trkpt lat="43.38678" lon="6.09998">
        <ele>288.39999389648</ele>
        <time>2013-09-14T12:38:35Z</time>
      </trkpt>
      <trkpt lat="43.38692" lon="6.10009">
        <ele>288.39999389648</ele>
        <time>2013-09-14T12:38:41Z</time>
      </trkpt>
      <trkpt lat="43.38698" lon="6.10023">
        <ele>288.79998779297</ele>
        <time>2013-09-14T12:38:45Z</time>
      </trkpt>
      <trkpt lat="43.38702" lon="6.10034">
        <ele>290</ele>
        <time>2013-09-14T12:38:48Z</time>
      </trkpt>
      <trkpt lat="43.3871" lon="6.10051">
        <ele>290.39999389648</ele>
        <time>2013-09-14T12:38:53Z</time>
      </trkpt>
      <trkpt lat="43.38724" lon="6.10078">
        <ele>290.39999389648</ele>
        <time>2013-09-14T12:39:00Z</time>
      </trkpt>
      <trkpt lat="43.38735" lon="6.10098">
        <ele>290.39999389648</ele>
        <time>2013-09-14T12:39:06Z</time>
      </trkpt>
      <trkpt lat="43.38749" lon="6.10118">
        <ele>291.79998779297</ele>
        <time>2013-09-14T12:39:13Z</time>
      </trkpt>
      <trkpt lat="43.38752" lon="6.10122">
        <ele>292.60000610352</ele>
        <time>2013-09-14T12:39:15Z</time>
      </trkpt>
      <trkpt lat="43.38765" lon="6.10136">
        <ele>293.39999389648</ele>
        <time>2013-09-14T12:39:21Z</time>
      </trkpt>
      <trkpt lat="43.38769" lon="6.1014">
        <ele>294.20001220703</ele>
        <time>2013-09-14T12:39:23Z</time>
      </trkpt>
      <trkpt lat="43.38774" lon="6.10146">
        <ele>294.60000610352</ele>
        <time>2013-09-14T12:39:25Z</time>
      </trkpt>
      <trkpt lat="43.3878" lon="6.10151">
        <ele>295</ele>
        <time>2013-09-14T12:39:28Z</time>
      </trkpt>
      <trkpt lat="43.38782" lon="6.10153">
        <ele>295.39999389648</ele>
        <time>2013-09-14T12:39:29Z</time>
      </trkpt>
      <trkpt lat="43.38784" lon="6.10157">
        <ele>296.39999389648</ele>
        <time>2013-09-14T12:39:31Z</time>
      </trkpt>
      <trkpt lat="43.38786" lon="6.10158">
        <ele>296.79998779297</ele>
        <time>2013-09-14T12:39:32Z</time>
      </trkpt>
      <trkpt lat="43.38789" lon="6.10163">
        <ele>296.79998779297</ele>
        <time>2013-09-14T12:39:36Z</time>
      </trkpt>
      <trkpt lat="43.3879" lon="6.10164">
        <ele>296.79998779297</ele>
        <time>2013-09-14T12:39:37Z</time>
      </trkpt>
      <trkpt lat="43.3879" lon="6.10164">
        <ele>296.79998779297</ele>
        <time>2013-09-14T12:39:45Z</time>
      </trkpt>
      <trkpt lat="43.3879" lon="6.10164">
        <ele>296.79998779297</ele>
        <time>2013-09-14T12:39:54Z</time>
      </trkpt>
      <trkpt lat="43.38792" lon="6.10165">
        <ele>296.79998779297</ele>
        <time>2013-09-14T12:39:59Z</time>
      </trkpt>
      <trkpt lat="43.38797" lon="6.10167">
        <ele>296.79998779297</ele>
        <time>2013-09-14T12:40:01Z</time>
      </trkpt>
      <trkpt lat="43.38805" lon="6.10165">
        <ele>296.79998779297</ele>
        <time>2013-09-14T12:40:04Z</time>
      </trkpt>
      <trkpt lat="43.38812" lon="6.10162">
        <ele>296.79998779297</ele>
        <time>2013-09-14T12:40:07Z</time>
      </trkpt>
      <trkpt lat="43.38818" lon="6.10162">
        <ele>297.20001220703</ele>
        <time>2013-09-14T12:40:09Z</time>
      </trkpt>
      <trkpt lat="43.3882" lon="6.10165">
        <ele>297.60000610352</ele>
        <time>2013-09-14T12:40:10Z</time>
      </trkpt>
      <trkpt lat="43.38823" lon="6.10168">
        <ele>298</ele>
        <time>2013-09-14T12:40:11Z</time>
      </trkpt>
      <trkpt lat="43.38824" lon="6.10173">
        <ele>298.39999389648</ele>
        <time>2013-09-14T12:40:12Z</time>
      </trkpt>
      <trkpt lat="43.38825" lon="6.10176">
        <ele>298.79998779297</ele>
        <time>2013-09-14T12:40:13Z</time>
      </trkpt>
      <trkpt lat="43.38826" lon="6.10178">
        <ele>298.79998779297</ele>
        <time>2013-09-14T12:40:14Z</time>
      </trkpt>
      <trkpt lat="43.38825" lon="6.10179">
        <ele>298.79998779297</ele>
        <time>2013-09-14T12:40:15Z</time>
      </trkpt>
      <trkpt lat="43.38823" lon="6.10188">
        <ele>298.79998779297</ele>
        <time>2013-09-14T12:40:19Z</time>
      </trkpt>
      <trkpt lat="43.3882" lon="6.10198">
        <ele>298.79998779297</ele>
        <time>2013-09-14T12:40:23Z</time>
      </trkpt>
      <trkpt lat="43.38819" lon="6.10209">
        <ele>299.60000610352</ele>
        <time>2013-09-14T12:40:27Z</time>
      </trkpt>
      <trkpt lat="43.38819" lon="6.10217">
        <ele>301</ele>
        <time>2013-09-14T12:40:30Z</time>
      </trkpt>
      <trkpt lat="43.3882" lon="6.10223">
        <ele>301</ele>
        <time>2013-09-14T12:40:32Z</time>
      </trkpt>
      <trkpt lat="43.38823" lon="6.10231">
        <ele>301</ele>
        <time>2013-09-14T12:40:37Z</time>
      </trkpt>
      <trkpt lat="43.38828" lon="6.10247">
        <ele>301</ele>
        <time>2013-09-14T12:40:42Z</time>
      </trkpt>
      <trkpt lat="43.38831" lon="6.1027">
        <ele>301</ele>
        <time>2013-09-14T12:40:47Z</time>
      </trkpt>
      <trkpt lat="43.38831" lon="6.10275">
        <ele>300.39999389648</ele>
        <time>2013-09-14T12:40:48Z</time>
      </trkpt>
      <trkpt lat="43.38832" lon="6.1028">
        <ele>300</ele>
        <time>2013-09-14T12:40:49Z</time>
      </trkpt>
      <trkpt lat="43.38832" lon="6.10285">
        <ele>299.60000610352</ele>
        <time>2013-09-14T12:40:50Z</time>
      </trkpt>
      <trkpt lat="43.38832" lon="6.10291">
        <ele>299.20001220703</ele>
        <time>2013-09-14T12:40:51Z</time>
      </trkpt>
      <trkpt lat="43.38834" lon="6.10301">
        <ele>298.79998779297</ele>
        <time>2013-09-14T12:40:53Z</time>
      </trkpt>
      <trkpt lat="43.38834" lon="6.10343">
        <ele>298.79998779297</ele>
        <time>2013-09-14T12:41:01Z</time>
      </trkpt>
      <trkpt lat="43.38835" lon="6.10368">
        <ele>297.60000610352</ele>
        <time>2013-09-14T12:41:06Z</time>
      </trkpt>
      <trkpt lat="43.38836" lon="6.104">
        <ele>296.60000610352</ele>
        <time>2013-09-14T12:41:12Z</time>
      </trkpt>
      <trkpt lat="43.38835" lon="6.10406">
        <ele>296.60000610352</ele>
        <time>2013-09-14T12:41:13Z</time>
      </trkpt>
      <trkpt lat="43.38833" lon="6.10422">
        <ele>296.20001220703</ele>
        <time>2013-09-14T12:41:16Z</time>
      </trkpt>
      <trkpt lat="43.38831" lon="6.10433">
        <ele>295.39999389648</ele>
        <time>2013-09-14T12:41:18Z</time>
      </trkpt>
      <trkpt lat="43.38829" lon="6.10444">
        <ele>294.60000610352</ele>
        <time>2013-09-14T12:41:20Z</time>
      </trkpt>
      <trkpt lat="43.38829" lon="6.1045">
        <ele>294.60000610352</ele>
        <time>2013-09-14T12:41:21Z</time>
      </trkpt>
      <trkpt lat="43.38828" lon="6.10481">
        <ele>293.79998779297</ele>
        <time>2013-09-14T12:41:26Z</time>
      </trkpt>
      <trkpt lat="43.38827" lon="6.10486">
        <ele>293.39999389648</ele>
        <time>2013-09-14T12:41:27Z</time>
      </trkpt>
      <trkpt lat="43.38825" lon="6.10498">
        <ele>292.39999389648</ele>
        <time>2013-09-14T12:41:29Z</time>
      </trkpt>
      <trkpt lat="43.38816" lon="6.10529">
        <ele>292.39999389648</ele>
        <time>2013-09-14T12:41:35Z</time>
      </trkpt>
      <trkpt lat="43.38816" lon="6.10537">
        <ele>292</ele>
        <time>2013-09-14T12:41:37Z</time>
      </trkpt>
      <trkpt lat="43.38816" lon="6.10542">
        <ele>291.60000610352</ele>
        <time>2013-09-14T12:41:38Z</time>
      </trkpt>
      <trkpt lat="43.38816" lon="6.10547">
        <ele>291.20001220703</ele>
        <time>2013-09-14T12:41:39Z</time>
      </trkpt>
      <trkpt lat="43.38814" lon="6.10555">
        <ele>290.20001220703</ele>
        <time>2013-09-14T12:41:41Z</time>
      </trkpt>
      <trkpt lat="43.38809" lon="6.10564">
        <ele>290.20001220703</ele>
        <time>2013-09-14T12:41:44Z</time>
      </trkpt>
      <trkpt lat="43.38807" lon="6.10578">
        <ele>290.20001220703</ele>
        <time>2013-09-14T12:41:47Z</time>
      </trkpt>
      <trkpt lat="43.38806" lon="6.10602">
        <ele>290.20001220703</ele>
        <time>2013-09-14T12:41:52Z</time>
      </trkpt>
      <trkpt lat="43.38803" lon="6.10608">
        <ele>290.20001220703</ele>
        <time>2013-09-14T12:41:53Z</time>
      </trkpt>
      <trkpt lat="43.388" lon="6.10619">
        <ele>290.20001220703</ele>
        <time>2013-09-14T12:41:55Z</time>
      </trkpt>
      <trkpt lat="43.38798" lon="6.1063">
        <ele>289.39999389648</ele>
        <time>2013-09-14T12:41:57Z</time>
      </trkpt>
      <trkpt lat="43.38797" lon="6.10636">
        <ele>289</ele>
        <time>2013-09-14T12:41:58Z</time>
      </trkpt>
      <trkpt lat="43.38797" lon="6.1064">
        <ele>288.60000610352</ele>
        <time>2013-09-14T12:41:59Z</time>
      </trkpt>
      <trkpt lat="43.38796" lon="6.10645">
        <ele>288.20001220703</ele>
        <time>2013-09-14T12:42:00Z</time>
      </trkpt>
      <trkpt lat="43.38793" lon="6.10655">
        <ele>287.79998779297</ele>
        <time>2013-09-14T12:42:03Z</time>
      </trkpt>
      <trkpt lat="43.38792" lon="6.10659">
        <ele>287.39999389648</ele>
        <time>2013-09-14T12:42:04Z</time>
      </trkpt>
      <trkpt lat="43.38788" lon="6.10667">
        <ele>286.60000610352</ele>
        <time>2013-09-14T12:42:06Z</time>
      </trkpt>
      <trkpt lat="43.38788" lon="6.10669">
        <ele>286.20001220703</ele>
        <time>2013-09-14T12:42:07Z</time>
      </trkpt>
      <trkpt lat="43.38783" lon="6.1069">
        <ele>286.20001220703</ele>
        <time>2013-09-14T12:42:12Z</time>
      </trkpt>
      <trkpt lat="43.38778" lon="6.10717">
        <ele>286.20001220703</ele>
        <time>2013-09-14T12:42:18Z</time>
      </trkpt>
      <trkpt lat="43.38775" lon="6.10741">
        <ele>285.79998779297</ele>
        <time>2013-09-14T12:42:24Z</time>
      </trkpt>
      <trkpt lat="43.38774" lon="6.10742">
        <ele>285</ele>
        <time>2013-09-14T12:42:25Z</time>
      </trkpt>
      <trkpt lat="43.38774" lon="6.10743">
        <ele>284.60000610352</ele>
        <time>2013-09-14T12:42:26Z</time>
      </trkpt>
      <trkpt lat="43.38774" lon="6.10744">
        <ele>284.20001220703</ele>
        <time>2013-09-14T12:42:27Z</time>
      </trkpt>
      <trkpt lat="43.38775" lon="6.10745">
        <ele>284.20001220703</ele>
        <time>2013-09-14T12:42:29Z</time>
      </trkpt>
      <trkpt lat="43.38775" lon="6.10745">
        <ele>284.20001220703</ele>
        <time>2013-09-14T12:42:38Z</time>
      </trkpt>
      <trkpt lat="43.38776" lon="6.10745">
        <ele>284.20001220703</ele>
        <time>2013-09-14T12:42:46Z</time>
      </trkpt>
      <trkpt lat="43.38776" lon="6.10747">
        <ele>284.20001220703</ele>
        <time>2013-09-14T12:42:54Z</time>
      </trkpt>
      <trkpt lat="43.38776" lon="6.10748">
        <ele>284.20001220703</ele>
        <time>2013-09-14T12:42:55Z</time>
      </trkpt>
      <trkpt lat="43.38779" lon="6.10754">
        <ele>284.20001220703</ele>
        <time>2013-09-14T12:42:59Z</time>
      </trkpt>
      <trkpt lat="43.38781" lon="6.10755">
        <ele>284.20001220703</ele>
        <time>2013-09-14T12:43:00Z</time>
      </trkpt>
      <trkpt lat="43.38792" lon="6.10755">
        <ele>284.20001220703</ele>
        <time>2013-09-14T12:43:03Z</time>
      </trkpt>
      <trkpt lat="43.388" lon="6.10752">
        <ele>284.20001220703</ele>
        <time>2013-09-14T12:43:05Z</time>
      </trkpt>
      <trkpt lat="43.38805" lon="6.10751">
        <ele>283.79998779297</ele>
        <time>2013-09-14T12:43:06Z</time>
      </trkpt>
      <trkpt lat="43.3881" lon="6.10751">
        <ele>283.39999389648</ele>
        <time>2013-09-14T12:43:07Z</time>
      </trkpt>
      <trkpt lat="43.38815" lon="6.10751">
        <ele>283</ele>
        <time>2013-09-14T12:43:08Z</time>
      </trkpt>
      <trkpt lat="43.38821" lon="6.10751">
        <ele>282.39999389648</ele>
        <time>2013-09-14T12:43:09Z</time>
      </trkpt>
      <trkpt lat="43.38827" lon="6.10752">
        <ele>282</ele>
        <time>2013-09-14T12:43:10Z</time>
      </trkpt>
      <trkpt lat="43.38851" lon="6.10752">
        <ele>282</ele>
        <time>2013-09-14T12:43:15Z</time>
      </trkpt>
      <trkpt lat="43.38876" lon="6.10753">
        <ele>281.60000610352</ele>
        <time>2013-09-14T12:43:21Z</time>
      </trkpt>
      <trkpt lat="43.38884" lon="6.10756">
        <ele>280.79998779297</ele>
        <time>2013-09-14T12:43:23Z</time>
      </trkpt>
      <trkpt lat="43.38892" lon="6.10758">
        <ele>280</ele>
        <time>2013-09-14T12:43:25Z</time>
      </trkpt>
      <trkpt lat="43.38902" lon="6.1076">
        <ele>280</ele>
        <time>2013-09-14T12:43:28Z</time>
      </trkpt>
      <trkpt lat="43.38916" lon="6.10775">
        <ele>280</ele>
        <time>2013-09-14T12:43:33Z</time>
      </trkpt>
      <trkpt lat="43.38922" lon="6.10798">
        <ele>280</ele>
        <time>2013-09-14T12:43:38Z</time>
      </trkpt>
      <trkpt lat="43.38935" lon="6.10822">
        <ele>280</ele>
        <time>2013-09-14T12:43:44Z</time>
      </trkpt>
      <trkpt lat="43.38953" lon="6.10832">
        <ele>280</ele>
        <time>2013-09-14T12:43:49Z</time>
      </trkpt>
      <trkpt lat="43.38977" lon="6.10841">
        <ele>279.60000610352</ele>
        <time>2013-09-14T12:43:56Z</time>
      </trkpt>
      <trkpt lat="43.38984" lon="6.10843">
        <ele>278.79998779297</ele>
        <time>2013-09-14T12:43:58Z</time>
      </trkpt>
      <trkpt lat="43.38995" lon="6.10843">
        <ele>278</ele>
        <time>2013-09-14T12:44:02Z</time>
      </trkpt>
      <trkpt lat="43.39013" lon="6.10835">
        <ele>278</ele>
        <time>2013-09-14T12:44:07Z</time>
      </trkpt>
      <trkpt lat="43.39034" lon="6.10828">
        <ele>278</ele>
        <time>2013-09-14T12:44:13Z</time>
      </trkpt>
      <trkpt lat="43.39043" lon="6.10827">
        <ele>278</ele>
        <time>2013-09-14T12:44:19Z</time>
      </trkpt>
      <trkpt lat="43.39045" lon="6.10827">
        <ele>278</ele>
        <time>2013-09-14T12:44:27Z</time>
      </trkpt>
      <trkpt lat="43.3905" lon="6.10821">
        <ele>278</ele>
        <time>2013-09-14T12:44:32Z</time>
      </trkpt>
      <trkpt lat="43.39051" lon="6.1082">
        <ele>278</ele>
        <time>2013-09-14T12:44:33Z</time>
      </trkpt>
      <trkpt lat="43.39061" lon="6.10815">
        <ele>278</ele>
        <time>2013-09-14T12:44:39Z</time>
      </trkpt>
      <trkpt lat="43.39067" lon="6.10807">
        <ele>278</ele>
        <time>2013-09-14T12:44:43Z</time>
      </trkpt>
      <trkpt lat="43.39074" lon="6.1079">
        <ele>278</ele>
        <time>2013-09-14T12:44:49Z</time>
      </trkpt>
      <trkpt lat="43.39101" lon="6.10767">
        <ele>278</ele>
        <time>2013-09-14T12:44:55Z</time>
      </trkpt>
      <trkpt lat="43.39107" lon="6.10758">
        <ele>277.60000610352</ele>
        <time>2013-09-14T12:44:58Z</time>
      </trkpt>
      <trkpt lat="43.3911" lon="6.10753">
        <ele>276.79998779297</ele>
        <time>2013-09-14T12:45:00Z</time>
      </trkpt>
      <trkpt lat="43.39113" lon="6.1075">
        <ele>276.39999389648</ele>
        <time>2013-09-14T12:45:01Z</time>
      </trkpt>
      <trkpt lat="43.39116" lon="6.10745">
        <ele>276</ele>
        <time>2013-09-14T12:45:02Z</time>
      </trkpt>
      <trkpt lat="43.39137" lon="6.10731">
        <ele>276</ele>
        <time>2013-09-14T12:45:05Z</time>
      </trkpt>
      <trkpt lat="43.3915" lon="6.10712">
        <ele>275.60000610352</ele>
        <time>2013-09-14T12:45:08Z</time>
      </trkpt>
      <trkpt lat="43.39155" lon="6.10706">
        <ele>275.20001220703</ele>
        <time>2013-09-14T12:45:09Z</time>
      </trkpt>
      <trkpt lat="43.39161" lon="6.10701">
        <ele>274.79998779297</ele>
        <time>2013-09-14T12:45:10Z</time>
      </trkpt>
      <trkpt lat="43.39165" lon="6.10697">
        <ele>274.39999389648</ele>
        <time>2013-09-14T12:45:11Z</time>
      </trkpt>
      <trkpt lat="43.39169" lon="6.10694">
        <ele>274</ele>
        <time>2013-09-14T12:45:12Z</time>
      </trkpt>
      <trkpt lat="43.39173" lon="6.10689">
        <ele>274</ele>
        <time>2013-09-14T12:45:14Z</time>
      </trkpt>
      <trkpt lat="43.3918" lon="6.10677">
        <ele>274</ele>
        <time>2013-09-14T12:45:20Z</time>
      </trkpt>
      <trkpt lat="43.39181" lon="6.10676">
        <ele>274</ele>
        <time>2013-09-14T12:45:21Z</time>
      </trkpt>
      <trkpt lat="43.39188" lon="6.10658">
        <ele>274</ele>
        <time>2013-09-14T12:45:27Z</time>
      </trkpt>
      <trkpt lat="43.39201" lon="6.10644">
        <ele>274</ele>
        <time>2013-09-14T12:45:32Z</time>
      </trkpt>
      <trkpt lat="43.3922" lon="6.10621">
        <ele>274</ele>
        <time>2013-09-14T12:45:39Z</time>
      </trkpt>
      <trkpt lat="43.39229" lon="6.10608">
        <ele>274</ele>
        <time>2013-09-14T12:45:43Z</time>
      </trkpt>
      <trkpt lat="43.3924" lon="6.10597">
        <ele>274</ele>
        <time>2013-09-14T12:45:48Z</time>
      </trkpt>
      <trkpt lat="43.39257" lon="6.1058">
        <ele>274</ele>
        <time>2013-09-14T12:45:54Z</time>
      </trkpt>
      <trkpt lat="43.39271" lon="6.10554">
        <ele>274</ele>
        <time>2013-09-14T12:46:00Z</time>
      </trkpt>
      <trkpt lat="43.39281" lon="6.10524">
        <ele>274</ele>
        <time>2013-09-14T12:46:07Z</time>
      </trkpt>
      <trkpt lat="43.39293" lon="6.10497">
        <ele>274</ele>
        <time>2013-09-14T12:46:13Z</time>
      </trkpt>
      <trkpt lat="43.39307" lon="6.10472">
        <ele>272.60000610352</ele>
        <time>2013-09-14T12:46:18Z</time>
      </trkpt>
      <trkpt lat="43.39312" lon="6.10462">
        <ele>271.79998779297</ele>
        <time>2013-09-14T12:46:20Z</time>
      </trkpt>
      <trkpt lat="43.39325" lon="6.1044">
        <ele>271.79998779297</ele>
        <time>2013-09-14T12:46:24Z</time>
      </trkpt>
      <trkpt lat="43.39332" lon="6.1043">
        <ele>271</ele>
        <time>2013-09-14T12:46:26Z</time>
      </trkpt>
      <trkpt lat="43.39339" lon="6.10421">
        <ele>270.20001220703</ele>
        <time>2013-09-14T12:46:28Z</time>
      </trkpt>
      <trkpt lat="43.39342" lon="6.10418">
        <ele>269.79998779297</ele>
        <time>2013-09-14T12:46:29Z</time>
      </trkpt>
      <trkpt lat="43.39346" lon="6.10418">
        <ele>269.79998779297</ele>
        <time>2013-09-14T12:46:30Z</time>
      </trkpt>
      <trkpt lat="43.39357" lon="6.10422">
        <ele>269.79998779297</ele>
        <time>2013-09-14T12:46:33Z</time>
      </trkpt>
      <trkpt lat="43.39367" lon="6.10412">
        <ele>269.79998779297</ele>
        <time>2013-09-14T12:46:36Z</time>
      </trkpt>
      <trkpt lat="43.3937" lon="6.10402">
        <ele>269.39999389648</ele>
        <time>2013-09-14T12:46:38Z</time>
      </trkpt>
      <trkpt lat="43.3937" lon="6.10394">
        <ele>268.39999389648</ele>
        <time>2013-09-14T12:46:40Z</time>
      </trkpt>
      <trkpt lat="43.39371" lon="6.10389">
        <ele>268</ele>
        <time>2013-09-14T12:46:41Z</time>
      </trkpt>
      <trkpt lat="43.39372" lon="6.10387">
        <ele>267.60000610352</ele>
        <time>2013-09-14T12:46:42Z</time>
      </trkpt>
      <trkpt lat="43.39373" lon="6.10387">
        <ele>267.60000610352</ele>
        <time>2013-09-14T12:46:43Z</time>
      </trkpt>
      <trkpt lat="43.39375" lon="6.10388">
        <ele>267.60000610352</ele>
        <time>2013-09-14T12:46:44Z</time>
      </trkpt>
      <trkpt lat="43.39383" lon="6.10397">
        <ele>267.60000610352</ele>
        <time>2013-09-14T12:46:49Z</time>
      </trkpt>
      <trkpt lat="43.39389" lon="6.10401">
        <ele>267.60000610352</ele>
        <time>2013-09-14T12:46:52Z</time>
      </trkpt>
      <trkpt lat="43.39396" lon="6.10405">
        <ele>267.60000610352</ele>
        <time>2013-09-14T12:46:55Z</time>
      </trkpt>
      <trkpt lat="43.39407" lon="6.10414">
        <ele>267.60000610352</ele>
        <time>2013-09-14T12:47:02Z</time>
      </trkpt>
      <trkpt lat="43.39408" lon="6.10414">
        <ele>267.60000610352</ele>
        <time>2013-09-14T12:47:09Z</time>
      </trkpt>
      <trkpt lat="43.39408" lon="6.10414">
        <ele>267.60000610352</ele>
        <time>2013-09-14T12:47:28Z</time>
      </trkpt>
      <trkpt lat="43.39408" lon="6.10414">
        <ele>266.39999389648</ele>
        <time>2013-09-14T12:47:43Z</time>
      </trkpt>
      <trkpt lat="43.39409" lon="6.10414">
        <ele>265.60000610352</ele>
        <time>2013-09-14T12:47:46Z</time>
      </trkpt>
      <trkpt lat="43.39409" lon="6.10414">
        <ele>265.60000610352</ele>
        <time>2013-09-14T12:48:10Z</time>
      </trkpt>
      <trkpt lat="43.3941" lon="6.10414">
        <ele>265.60000610352</ele>
        <time>2013-09-14T12:48:11Z</time>
      </trkpt>
      <trkpt lat="43.39414" lon="6.1041">
        <ele>265.60000610352</ele>
        <time>2013-09-14T12:48:14Z</time>
      </trkpt>
      <trkpt lat="43.39419" lon="6.10403">
        <ele>265.60000610352</ele>
        <time>2013-09-14T12:48:17Z</time>
      </trkpt>
      <trkpt lat="43.39429" lon="6.10387">
        <ele>265.60000610352</ele>
        <time>2013-09-14T12:48:23Z</time>
      </trkpt>
      <trkpt lat="43.39439" lon="6.10376">
        <ele>265.60000610352</ele>
        <time>2013-09-14T12:48:28Z</time>
      </trkpt>
      <trkpt lat="43.39441" lon="6.10374">
        <ele>265.60000610352</ele>
        <time>2013-09-14T12:48:29Z</time>
      </trkpt>
      <trkpt lat="43.39452" lon="6.1037">
        <ele>265.60000610352</ele>
        <time>2013-09-14T12:48:33Z</time>
      </trkpt>
      <trkpt lat="43.3946" lon="6.1037">
        <ele>265.60000610352</ele>
        <time>2013-09-14T12:48:35Z</time>
      </trkpt>
      <trkpt lat="43.39467" lon="6.10372">
        <ele>265.60000610352</ele>
        <time>2013-09-14T12:48:37Z</time>
      </trkpt>
      <trkpt lat="43.39476" lon="6.10378">
        <ele>265.60000610352</ele>
        <time>2013-09-14T12:48:40Z</time>
      </trkpt>
      <trkpt lat="43.3948" lon="6.10379">
        <ele>266</ele>
        <time>2013-09-14T12:48:42Z</time>
      </trkpt>
      <trkpt lat="43.39482" lon="6.10379">
        <ele>266.39999389648</ele>
        <time>2013-09-14T12:48:43Z</time>
      </trkpt>
      <trkpt lat="43.39484" lon="6.1038">
        <ele>267</ele>
        <time>2013-09-14T12:48:44Z</time>
      </trkpt>
      <trkpt lat="43.39487" lon="6.1038">
        <ele>267.79998779297</ele>
        <time>2013-09-14T12:48:46Z</time>
      </trkpt>
      <trkpt lat="43.3949" lon="6.1038">
        <ele>267.79998779297</ele>
        <time>2013-09-14T12:48:48Z</time>
      </trkpt>
      <trkpt lat="43.39494" lon="6.10381">
        <ele>267.79998779297</ele>
        <time>2013-09-14T12:48:50Z</time>
      </trkpt>
      <trkpt lat="43.39496" lon="6.10381">
        <ele>267.79998779297</ele>
        <time>2013-09-14T12:48:55Z</time>
      </trkpt>
      <trkpt lat="43.39509" lon="6.10381">
        <ele>267.79998779297</ele>
        <time>2013-09-14T12:49:02Z</time>
      </trkpt>
      <trkpt lat="43.39517" lon="6.1038">
        <ele>267.79998779297</ele>
        <time>2013-09-14T12:49:07Z</time>
      </trkpt>
      <trkpt lat="43.39519" lon="6.1038">
        <ele>268.20001220703</ele>
        <time>2013-09-14T12:49:08Z</time>
      </trkpt>
      <trkpt lat="43.39521" lon="6.10382">
        <ele>268.60000610352</ele>
        <time>2013-09-14T12:49:09Z</time>
      </trkpt>
      <trkpt lat="43.39526" lon="6.10385">
        <ele>269.39999389648</ele>
        <time>2013-09-14T12:49:11Z</time>
      </trkpt>
      <trkpt lat="43.39528" lon="6.10386">
        <ele>269.79998779297</ele>
        <time>2013-09-14T12:49:12Z</time>
      </trkpt>
      <trkpt lat="43.39529" lon="6.10387">
        <ele>269.79998779297</ele>
        <time>2013-09-14T12:49:13Z</time>
      </trkpt>
      <trkpt lat="43.39538" lon="6.10398">
        <ele>269.79998779297</ele>
        <time>2013-09-14T12:49:19Z</time>
      </trkpt>
      <trkpt lat="43.39546" lon="6.10428">
        <ele>269.79998779297</ele>
        <time>2013-09-14T12:49:31Z</time>
      </trkpt>
      <trkpt lat="43.39553" lon="6.10455">
        <ele>272</ele>
        <time>2013-09-14T12:49:43Z</time>
      </trkpt>
      <trkpt lat="43.39556" lon="6.10466">
        <ele>272.79998779297</ele>
        <time>2013-09-14T12:49:49Z</time>
      </trkpt>
      <trkpt lat="43.39557" lon="6.10471">
        <ele>273.60000610352</ele>
        <time>2013-09-14T12:49:51Z</time>
      </trkpt>
      <trkpt lat="43.39558" lon="6.10472">
        <ele>274</ele>
        <time>2013-09-14T12:49:52Z</time>
      </trkpt>
      <trkpt lat="43.3956" lon="6.10479">
        <ele>274</ele>
        <time>2013-09-14T12:49:56Z</time>
      </trkpt>
      <trkpt lat="43.3956" lon="6.10481">
        <ele>274</ele>
        <time>2013-09-14T12:50:00Z</time>
      </trkpt>
      <trkpt lat="43.3956" lon="6.10482">
        <ele>274</ele>
        <time>2013-09-14T12:50:03Z</time>
      </trkpt>
      <trkpt lat="43.3956" lon="6.10482">
        <ele>274</ele>
        <time>2013-09-14T12:50:14Z</time>
      </trkpt>
      <trkpt lat="43.3956" lon="6.10482">
        <ele>274</ele>
        <time>2013-09-14T12:50:18Z</time>
      </trkpt>
      <trkpt lat="43.39558" lon="6.10486">
        <ele>274</ele>
        <time>2013-09-14T12:50:24Z</time>
      </trkpt>
      <trkpt lat="43.39561" lon="6.10503">
        <ele>274</ele>
        <time>2013-09-14T12:50:30Z</time>
      </trkpt>
      <trkpt lat="43.39561" lon="6.10518">
        <ele>274</ele>
        <time>2013-09-14T12:50:35Z</time>
      </trkpt>
      <trkpt lat="43.3956" lon="6.10524">
        <ele>274.79998779297</ele>
        <time>2013-09-14T12:50:37Z</time>
      </trkpt>
      <trkpt lat="43.39561" lon="6.10534">
        <ele>276.20001220703</ele>
        <time>2013-09-14T12:50:40Z</time>
      </trkpt>
      <trkpt lat="43.39563" lon="6.10542">
        <ele>276.20001220703</ele>
        <time>2013-09-14T12:50:43Z</time>
      </trkpt>
      <trkpt lat="43.39566" lon="6.10547">
        <ele>276.20001220703</ele>
        <time>2013-09-14T12:50:45Z</time>
      </trkpt>
      <trkpt lat="43.39575" lon="6.10566">
        <ele>277.39999389648</ele>
        <time>2013-09-14T12:50:52Z</time>
      </trkpt>
      <trkpt lat="43.39581" lon="6.1058">
        <ele>278.20001220703</ele>
        <time>2013-09-14T12:50:57Z</time>
      </trkpt>
      <trkpt lat="43.39584" lon="6.10593">
        <ele>278.20001220703</ele>
        <time>2013-09-14T12:51:02Z</time>
      </trkpt>
      <trkpt lat="43.3959" lon="6.10608">
        <ele>280.39999389648</ele>
        <time>2013-09-14T12:51:08Z</time>
      </trkpt>
      <trkpt lat="43.39594" lon="6.10625">
        <ele>280.39999389648</ele>
        <time>2013-09-14T12:51:15Z</time>
      </trkpt>
      <trkpt lat="43.39598" lon="6.10639">
        <ele>280.39999389648</ele>
        <time>2013-09-14T12:51:20Z</time>
      </trkpt>
      <trkpt lat="43.39599" lon="6.10658">
        <ele>282.39999389648</ele>
        <time>2013-09-14T12:51:29Z</time>
      </trkpt>
      <trkpt lat="43.396" lon="6.10662">
        <ele>282.39999389648</ele>
        <time>2013-09-14T12:51:31Z</time>
      </trkpt>
      <trkpt lat="43.39604" lon="6.10677">
        <ele>282.39999389648</ele>
        <time>2013-09-14T12:51:37Z</time>
      </trkpt>
      <trkpt lat="43.39604" lon="6.1068">
        <ele>282.79998779297</ele>
        <time>2013-09-14T12:51:38Z</time>
      </trkpt>
      <trkpt lat="43.39604" lon="6.10685">
        <ele>283.79998779297</ele>
        <time>2013-09-14T12:51:40Z</time>
      </trkpt>
      <trkpt lat="43.39604" lon="6.10688">
        <ele>284.20001220703</ele>
        <time>2013-09-14T12:51:41Z</time>
      </trkpt>
      <trkpt lat="43.39601" lon="6.10693">
        <ele>284.60000610352</ele>
        <time>2013-09-14T12:51:46Z</time>
      </trkpt>
      <trkpt lat="43.396" lon="6.10695">
        <ele>284.60000610352</ele>
        <time>2013-09-14T12:51:49Z</time>
      </trkpt>
      <trkpt lat="43.396" lon="6.10695">
        <ele>284.60000610352</ele>
        <time>2013-09-14T12:51:53Z</time>
      </trkpt>
      <trkpt lat="43.396" lon="6.10699">
        <ele>284.60000610352</ele>
        <time>2013-09-14T12:51:59Z</time>
      </trkpt>
      <trkpt lat="43.39599" lon="6.10701">
        <ele>284.60000610352</ele>
        <time>2013-09-14T12:52:00Z</time>
      </trkpt>
      <trkpt lat="43.396" lon="6.10704">
        <ele>284.60000610352</ele>
        <time>2013-09-14T12:52:02Z</time>
      </trkpt>
      <trkpt lat="43.396" lon="6.10707">
        <ele>284.60000610352</ele>
        <time>2013-09-14T12:52:04Z</time>
      </trkpt>
      <trkpt lat="43.39601" lon="6.10713">
        <ele>284.60000610352</ele>
        <time>2013-09-14T12:52:07Z</time>
      </trkpt>
      <trkpt lat="43.39601" lon="6.1072">
        <ele>284.60000610352</ele>
        <time>2013-09-14T12:52:09Z</time>
      </trkpt>
      <trkpt lat="43.39602" lon="6.10725">
        <ele>285.60000610352</ele>
        <time>2013-09-14T12:52:11Z</time>
      </trkpt>
      <trkpt lat="43.39602" lon="6.10727">
        <ele>286</ele>
        <time>2013-09-14T12:52:12Z</time>
      </trkpt>
      <trkpt lat="43.39602" lon="6.10729">
        <ele>286.39999389648</ele>
        <time>2013-09-14T12:52:13Z</time>
      </trkpt>
      <trkpt lat="43.39602" lon="6.1073">
        <ele>287</ele>
        <time>2013-09-14T12:52:14Z</time>
      </trkpt>
      <trkpt lat="43.39603" lon="6.10734">
        <ele>287</ele>
        <time>2013-09-14T12:52:21Z</time>
      </trkpt>
      <trkpt lat="43.39604" lon="6.10737">
        <ele>287</ele>
        <time>2013-09-14T12:52:29Z</time>
      </trkpt>
      <trkpt lat="43.39604" lon="6.10737">
        <ele>287</ele>
        <time>2013-09-14T12:52:41Z</time>
      </trkpt>
      <trkpt lat="43.39604" lon="6.10737">
        <ele>287</ele>
        <time>2013-09-14T12:52:53Z</time>
      </trkpt>
      <trkpt lat="43.39603" lon="6.10737">
        <ele>287</ele>
        <time>2013-09-14T12:52:58Z</time>
      </trkpt>
      <trkpt lat="43.39602" lon="6.10745">
        <ele>287</ele>
        <time>2013-09-14T12:53:02Z</time>
      </trkpt>
      <trkpt lat="43.39603" lon="6.10747">
        <ele>287</ele>
        <time>2013-09-14T12:53:03Z</time>
      </trkpt>
      <trkpt lat="43.39607" lon="6.10758">
        <ele>287</ele>
        <time>2013-09-14T12:53:07Z</time>
      </trkpt>
      <trkpt lat="43.39609" lon="6.10766">
        <ele>287</ele>
        <time>2013-09-14T12:53:10Z</time>
      </trkpt>
      <trkpt lat="43.39615" lon="6.10778">
        <ele>287</ele>
        <time>2013-09-14T12:53:16Z</time>
      </trkpt>
      <trkpt lat="43.39614" lon="6.10779">
        <ele>287.79998779297</ele>
        <time>2013-09-14T12:53:18Z</time>
      </trkpt>
      <trkpt lat="43.39614" lon="6.10783">
        <ele>289</ele>
        <time>2013-09-14T12:53:21Z</time>
      </trkpt>
      <trkpt lat="43.39615" lon="6.10785">
        <ele>289</ele>
        <time>2013-09-14T12:53:22Z</time>
      </trkpt>
      <trkpt lat="43.39616" lon="6.10789">
        <ele>289</ele>
        <time>2013-09-14T12:53:24Z</time>
      </trkpt>
      <trkpt lat="43.39621" lon="6.10804">
        <ele>289</ele>
        <time>2013-09-14T12:53:30Z</time>
      </trkpt>
      <trkpt lat="43.39625" lon="6.10815">
        <ele>289.39999389648</ele>
        <time>2013-09-14T12:53:34Z</time>
      </trkpt>
      <trkpt lat="43.39629" lon="6.10823">
        <ele>290.60000610352</ele>
        <time>2013-09-14T12:53:37Z</time>
      </trkpt>
      <trkpt lat="43.39632" lon="6.10835">
        <ele>291</ele>
        <time>2013-09-14T12:53:42Z</time>
      </trkpt>
      <trkpt lat="43.39635" lon="6.10848">
        <ele>291</ele>
        <time>2013-09-14T12:53:48Z</time>
      </trkpt>
      <trkpt lat="43.3964" lon="6.10859">
        <ele>291</ele>
        <time>2013-09-14T12:53:52Z</time>
      </trkpt>
      <trkpt lat="43.39647" lon="6.10876">
        <ele>292.39999389648</ele>
        <time>2013-09-14T12:53:59Z</time>
      </trkpt>
      <trkpt lat="43.39662" lon="6.10902">
        <ele>293.20001220703</ele>
        <time>2013-09-14T12:54:10Z</time>
      </trkpt>
      <trkpt lat="43.39663" lon="6.10915">
        <ele>293.20001220703</ele>
        <time>2013-09-14T12:54:15Z</time>
      </trkpt>
      <trkpt lat="43.39666" lon="6.10934">
        <ele>295.39999389648</ele>
        <time>2013-09-14T12:54:22Z</time>
      </trkpt>
      <trkpt lat="43.39666" lon="6.10946">
        <ele>295.39999389648</ele>
        <time>2013-09-14T12:54:27Z</time>
      </trkpt>
      <trkpt lat="43.39669" lon="6.10951">
        <ele>295.39999389648</ele>
        <time>2013-09-14T12:54:30Z</time>
      </trkpt>
      <trkpt lat="43.39673" lon="6.10956">
        <ele>295.39999389648</ele>
        <time>2013-09-14T12:54:33Z</time>
      </trkpt>
      <trkpt lat="43.39678" lon="6.1097">
        <ele>295.39999389648</ele>
        <time>2013-09-14T12:54:39Z</time>
      </trkpt>
      <trkpt lat="43.39681" lon="6.1099">
        <ele>297</ele>
        <time>2013-09-14T12:54:47Z</time>
      </trkpt>
      <trkpt lat="43.39688" lon="6.11016">
        <ele>297.39999389648</ele>
        <time>2013-09-14T12:54:57Z</time>
      </trkpt>
      <trkpt lat="43.39692" lon="6.11034">
        <ele>297.39999389648</ele>
        <time>2013-09-14T12:55:04Z</time>
      </trkpt>
      <trkpt lat="43.39692" lon="6.11062">
        <ele>299.39999389648</ele>
        <time>2013-09-14T12:55:15Z</time>
      </trkpt>
      <trkpt lat="43.39693" lon="6.11076">
        <ele>299.39999389648</ele>
        <time>2013-09-14T12:55:21Z</time>
      </trkpt>
      <trkpt lat="43.39695" lon="6.11091">
        <ele>299.39999389648</ele>
        <time>2013-09-14T12:55:27Z</time>
      </trkpt>
      <trkpt lat="43.39694" lon="6.11104">
        <ele>299.79998779297</ele>
        <time>2013-09-14T12:55:32Z</time>
      </trkpt>
      <trkpt lat="43.39692" lon="6.11111">
        <ele>301.39999389648</ele>
        <time>2013-09-14T12:55:35Z</time>
      </trkpt>
      <trkpt lat="43.39689" lon="6.1112">
        <ele>301.39999389648</ele>
        <time>2013-09-14T12:55:39Z</time>
      </trkpt>
      <trkpt lat="43.39682" lon="6.11136">
        <ele>301.39999389648</ele>
        <time>2013-09-14T12:55:47Z</time>
      </trkpt>
      <trkpt lat="43.39682" lon="6.11141">
        <ele>301.39999389648</ele>
        <time>2013-09-14T12:55:49Z</time>
      </trkpt>
      <trkpt lat="43.3968" lon="6.11149">
        <ele>302.20001220703</ele>
        <time>2013-09-14T12:55:53Z</time>
      </trkpt>
      <trkpt lat="43.39677" lon="6.11163">
        <ele>303.39999389648</ele>
        <time>2013-09-14T12:55:58Z</time>
      </trkpt>
      <trkpt lat="43.39677" lon="6.11166">
        <ele>303.39999389648</ele>
        <time>2013-09-14T12:55:59Z</time>
      </trkpt>
      <trkpt lat="43.39674" lon="6.11182">
        <ele>303.39999389648</ele>
        <time>2013-09-14T12:56:06Z</time>
      </trkpt>
      <trkpt lat="43.39672" lon="6.11192">
        <ele>304</ele>
        <time>2013-09-14T12:56:09Z</time>
      </trkpt>
      <trkpt lat="43.39668" lon="6.11198">
        <ele>304.79998779297</ele>
        <time>2013-09-14T12:56:11Z</time>
      </trkpt>
      <trkpt lat="43.39664" lon="6.11205">
        <ele>305.79998779297</ele>
        <time>2013-09-14T12:56:13Z</time>
      </trkpt>
      <trkpt lat="43.39664" lon="6.11216">
        <ele>305.79998779297</ele>
        <time>2013-09-14T12:56:16Z</time>
      </trkpt>
      <trkpt lat="43.39663" lon="6.11219">
        <ele>306.20001220703</ele>
        <time>2013-09-14T12:56:17Z</time>
      </trkpt>
      <trkpt lat="43.39662" lon="6.11221">
        <ele>306.60000610352</ele>
        <time>2013-09-14T12:56:18Z</time>
      </trkpt>
      <trkpt lat="43.39661" lon="6.11223">
        <ele>307</ele>
        <time>2013-09-14T12:56:19Z</time>
      </trkpt>
      <trkpt lat="43.3966" lon="6.11227">
        <ele>307.79998779297</ele>
        <time>2013-09-14T12:56:21Z</time>
      </trkpt>
      <trkpt lat="43.39658" lon="6.11232">
        <ele>307.79998779297</ele>
        <time>2013-09-14T12:56:24Z</time>
      </trkpt>
      <trkpt lat="43.39657" lon="6.11242">
        <ele>307.79998779297</ele>
        <time>2013-09-14T12:56:29Z</time>
      </trkpt>
      <trkpt lat="43.39655" lon="6.11263">
        <ele>307.79998779297</ele>
        <time>2013-09-14T12:56:39Z</time>
      </trkpt>
      <trkpt lat="43.39651" lon="6.11282">
        <ele>309.79998779297</ele>
        <time>2013-09-14T12:56:50Z</time>
      </trkpt>
      <trkpt lat="43.39651" lon="6.11289">
        <ele>309.79998779297</ele>
        <time>2013-09-14T12:56:54Z</time>
      </trkpt>
      <trkpt lat="43.39651" lon="6.11296">
        <ele>309.79998779297</ele>
        <time>2013-09-14T12:56:58Z</time>
      </trkpt>
      <trkpt lat="43.39649" lon="6.11308">
        <ele>309.79998779297</ele>
        <time>2013-09-14T12:57:04Z</time>
      </trkpt>
      <trkpt lat="43.39647" lon="6.11326">
        <ele>309.79998779297</ele>
        <time>2013-09-14T12:57:12Z</time>
      </trkpt>
      <trkpt lat="43.39647" lon="6.11329">
        <ele>309.79998779297</ele>
        <time>2013-09-14T12:57:13Z</time>
      </trkpt>
      <trkpt lat="43.39644" lon="6.1134">
        <ele>309.79998779297</ele>
        <time>2013-09-14T12:57:17Z</time>
      </trkpt>
      <trkpt lat="43.39642" lon="6.11354">
        <ele>309.79998779297</ele>
        <time>2013-09-14T12:57:21Z</time>
      </trkpt>
      <trkpt lat="43.39639" lon="6.11368">
        <ele>309.79998779297</ele>
        <time>2013-09-14T12:57:24Z</time>
      </trkpt>
      <trkpt lat="43.39636" lon="6.11386">
        <ele>309.79998779297</ele>
        <time>2013-09-14T12:57:27Z</time>
      </trkpt>
      <trkpt lat="43.39633" lon="6.11401">
        <ele>309.79998779297</ele>
        <time>2013-09-14T12:57:29Z</time>
      </trkpt>
      <trkpt lat="43.39628" lon="6.11414">
        <ele>309.79998779297</ele>
        <time>2013-09-14T12:57:31Z</time>
      </trkpt>
      <trkpt lat="43.39621" lon="6.11434">
        <ele>309.79998779297</ele>
        <time>2013-09-14T12:57:34Z</time>
      </trkpt>
      <trkpt lat="43.39618" lon="6.1144">
        <ele>309.39999389648</ele>
        <time>2013-09-14T12:57:35Z</time>
      </trkpt>
      <trkpt lat="43.39616" lon="6.11447">
        <ele>309</ele>
        <time>2013-09-14T12:57:36Z</time>
      </trkpt>
      <trkpt lat="43.39614" lon="6.11454">
        <ele>308.60000610352</ele>
        <time>2013-09-14T12:57:37Z</time>
      </trkpt>
      <trkpt lat="43.39611" lon="6.11461">
        <ele>307.60000610352</ele>
        <time>2013-09-14T12:57:38Z</time>
      </trkpt>
      <trkpt lat="43.39609" lon="6.11468">
        <ele>307.60000610352</ele>
        <time>2013-09-14T12:57:39Z</time>
      </trkpt>
      <trkpt lat="43.39596" lon="6.11499">
        <ele>307.20001220703</ele>
        <time>2013-09-14T12:57:44Z</time>
      </trkpt>
      <trkpt lat="43.39592" lon="6.11504">
        <ele>306.79998779297</ele>
        <time>2013-09-14T12:57:45Z</time>
      </trkpt>
      <trkpt lat="43.39589" lon="6.11509">
        <ele>306.39999389648</ele>
        <time>2013-09-14T12:57:46Z</time>
      </trkpt>
      <trkpt lat="43.39585" lon="6.11513">
        <ele>306</ele>
        <time>2013-09-14T12:57:47Z</time>
      </trkpt>
      <trkpt lat="43.39581" lon="6.11517">
        <ele>305.60000610352</ele>
        <time>2013-09-14T12:57:48Z</time>
      </trkpt>
      <trkpt lat="43.39573" lon="6.11523">
        <ele>305.60000610352</ele>
        <time>2013-09-14T12:57:50Z</time>
      </trkpt>
      <trkpt lat="43.39569" lon="6.11523">
        <ele>305.60000610352</ele>
        <time>2013-09-14T12:57:51Z</time>
      </trkpt>
      <trkpt lat="43.39566" lon="6.1153">
        <ele>305.60000610352</ele>
        <time>2013-09-14T12:57:54Z</time>
      </trkpt>
      <trkpt lat="43.39568" lon="6.11531">
        <ele>305.60000610352</ele>
        <time>2013-09-14T12:57:56Z</time>
      </trkpt>
      <trkpt lat="43.39569" lon="6.11532">
        <ele>305.20001220703</ele>
        <time>2013-09-14T12:57:57Z</time>
      </trkpt>
      <trkpt lat="43.3957" lon="6.11532">
        <ele>304.79998779297</ele>
        <time>2013-09-14T12:57:58Z</time>
      </trkpt>
      <trkpt lat="43.39572" lon="6.11533">
        <ele>304.39999389648</ele>
        <time>2013-09-14T12:57:59Z</time>
      </trkpt>
      <trkpt lat="43.39574" lon="6.11535">
        <ele>304</ele>
        <time>2013-09-14T12:58:00Z</time>
      </trkpt>
      <trkpt lat="43.39576" lon="6.11536">
        <ele>303.60000610352</ele>
        <time>2013-09-14T12:58:01Z</time>
      </trkpt>
      <trkpt lat="43.3959" lon="6.11545">
        <ele>303.60000610352</ele>
        <time>2013-09-14T12:58:07Z</time>
      </trkpt>
      <trkpt lat="43.39602" lon="6.11554">
        <ele>303.60000610352</ele>
        <time>2013-09-14T12:58:13Z</time>
      </trkpt>
      <trkpt lat="43.39622" lon="6.11571">
        <ele>303.60000610352</ele>
        <time>2013-09-14T12:58:25Z</time>
      </trkpt>
      <trkpt lat="43.39635" lon="6.11583">
        <ele>305.60000610352</ele>
        <time>2013-09-14T12:58:34Z</time>
      </trkpt>
      <trkpt lat="43.39643" lon="6.11587">
        <ele>305.60000610352</ele>
        <time>2013-09-14T12:58:38Z</time>
      </trkpt>
      <trkpt lat="43.39647" lon="6.11589">
        <ele>305.60000610352</ele>
        <time>2013-09-14T12:58:40Z</time>
      </trkpt>
      <trkpt lat="43.39657" lon="6.11596">
        <ele>307.79998779297</ele>
        <time>2013-09-14T12:58:47Z</time>
      </trkpt>
      <trkpt lat="43.39666" lon="6.11605">
        <ele>307.79998779297</ele>
        <time>2013-09-14T12:58:53Z</time>
      </trkpt>
      <trkpt lat="43.39675" lon="6.11614">
        <ele>309</ele>
        <time>2013-09-14T12:59:00Z</time>
      </trkpt>
      <trkpt lat="43.39677" lon="6.11616">
        <ele>309.39999389648</ele>
        <time>2013-09-14T12:59:01Z</time>
      </trkpt>
      <trkpt lat="43.39684" lon="6.11627">
        <ele>309.79998779297</ele>
        <time>2013-09-14T12:59:06Z</time>
      </trkpt>
      <trkpt lat="43.39687" lon="6.11646">
        <ele>309.79998779297</ele>
        <time>2013-09-14T12:59:13Z</time>
      </trkpt>
      <trkpt lat="43.39695" lon="6.11657">
        <ele>309.79998779297</ele>
        <time>2013-09-14T12:59:19Z</time>
      </trkpt>
      <trkpt lat="43.39709" lon="6.11667">
        <ele>309.79998779297</ele>
        <time>2013-09-14T12:59:25Z</time>
      </trkpt>
      <trkpt lat="43.39722" lon="6.11676">
        <ele>309.79998779297</ele>
        <time>2013-09-14T12:59:29Z</time>
      </trkpt>
      <trkpt lat="43.3973" lon="6.11682">
        <ele>309.79998779297</ele>
        <time>2013-09-14T12:59:31Z</time>
      </trkpt>
      <trkpt lat="43.39742" lon="6.11684">
        <ele>309.79998779297</ele>
        <time>2013-09-14T12:59:34Z</time>
      </trkpt>
      <trkpt lat="43.39748" lon="6.11681">
        <ele>309.20001220703</ele>
        <time>2013-09-14T12:59:36Z</time>
      </trkpt>
      <trkpt lat="43.39751" lon="6.1168">
        <ele>308.79998779297</ele>
        <time>2013-09-14T12:59:37Z</time>
      </trkpt>
      <trkpt lat="43.39756" lon="6.11677">
        <ele>308</ele>
        <time>2013-09-14T12:59:39Z</time>
      </trkpt>
      <trkpt lat="43.39763" lon="6.1167">
        <ele>307.60000610352</ele>
        <time>2013-09-14T12:59:42Z</time>
      </trkpt>
      <trkpt lat="43.39768" lon="6.11665">
        <ele>307.60000610352</ele>
        <time>2013-09-14T12:59:44Z</time>
      </trkpt>
      <trkpt lat="43.39771" lon="6.11654">
        <ele>307.60000610352</ele>
        <time>2013-09-14T12:59:48Z</time>
      </trkpt>
      <trkpt lat="43.3977" lon="6.11644">
        <ele>307.60000610352</ele>
        <time>2013-09-14T12:59:51Z</time>
      </trkpt>
      <trkpt lat="43.39767" lon="6.11623">
        <ele>307.60000610352</ele>
        <time>2013-09-14T12:59:56Z</time>
      </trkpt>
      <trkpt lat="43.39767" lon="6.11615">
        <ele>308</ele>
        <time>2013-09-14T12:59:58Z</time>
      </trkpt>
      <trkpt lat="43.39766" lon="6.11611">
        <ele>308.39999389648</ele>
        <time>2013-09-14T12:59:59Z</time>
      </trkpt>
      <trkpt lat="43.39766" lon="6.11607">
        <ele>308.79998779297</ele>
        <time>2013-09-14T13:00:00Z</time>
      </trkpt>
      <trkpt lat="43.39767" lon="6.11599">
        <ele>309.60000610352</ele>
        <time>2013-09-14T13:00:02Z</time>
      </trkpt>
      <trkpt lat="43.39767" lon="6.11596">
        <ele>309.60000610352</ele>
        <time>2013-09-14T13:00:03Z</time>
      </trkpt>
      <trkpt lat="43.39767" lon="6.11578">
        <ele>309.60000610352</ele>
        <time>2013-09-14T13:00:10Z</time>
      </trkpt>
      <trkpt lat="43.39769" lon="6.11568">
        <ele>309.60000610352</ele>
        <time>2013-09-14T13:00:14Z</time>
      </trkpt>
      <trkpt lat="43.39769" lon="6.11563">
        <ele>309.60000610352</ele>
        <time>2013-09-14T13:00:16Z</time>
      </trkpt>
      <trkpt lat="43.3977" lon="6.11556">
        <ele>311</ele>
        <time>2013-09-14T13:00:19Z</time>
      </trkpt>
      <trkpt lat="43.39771" lon="6.11545">
        <ele>311.79998779297</ele>
        <time>2013-09-14T13:00:23Z</time>
      </trkpt>
      <trkpt lat="43.39773" lon="6.11526">
        <ele>311.79998779297</ele>
        <time>2013-09-14T13:00:30Z</time>
      </trkpt>
      <trkpt lat="43.39775" lon="6.11475">
        <ele>311.79998779297</ele>
        <time>2013-09-14T13:00:47Z</time>
      </trkpt>
      <trkpt lat="43.39779" lon="6.11451">
        <ele>311.79998779297</ele>
        <time>2013-09-14T13:00:55Z</time>
      </trkpt>
      <trkpt lat="43.39782" lon="6.1143">
        <ele>311.79998779297</ele>
        <time>2013-09-14T13:01:02Z</time>
      </trkpt>
      <trkpt lat="43.39787" lon="6.11407">
        <ele>311.79998779297</ele>
        <time>2013-09-14T13:01:09Z</time>
      </trkpt>
      <trkpt lat="43.39795" lon="6.11381">
        <ele>311.79998779297</ele>
        <time>2013-09-14T13:01:16Z</time>
      </trkpt>
      <trkpt lat="43.39799" lon="6.1136">
        <ele>311.79998779297</ele>
        <time>2013-09-14T13:01:21Z</time>
      </trkpt>
      <trkpt lat="43.398" lon="6.11356">
        <ele>311.79998779297</ele>
        <time>2013-09-14T13:01:22Z</time>
      </trkpt>
      <trkpt lat="43.39799" lon="6.11333">
        <ele>311.79998779297</ele>
        <time>2013-09-14T13:01:27Z</time>
      </trkpt>
      <trkpt lat="43.398" lon="6.11328">
        <ele>311.79998779297</ele>
        <time>2013-09-14T13:01:28Z</time>
      </trkpt>
      <trkpt lat="43.39801" lon="6.11307">
        <ele>311.79998779297</ele>
        <time>2013-09-14T13:01:33Z</time>
      </trkpt>
      <trkpt lat="43.39799" lon="6.11288">
        <ele>311.39999389648</ele>
        <time>2013-09-14T13:01:38Z</time>
      </trkpt>
      <trkpt lat="43.39798" lon="6.11278">
        <ele>310</ele>
        <time>2013-09-14T13:01:41Z</time>
      </trkpt>
      <trkpt lat="43.39796" lon="6.1126">
        <ele>309.60000610352</ele>
        <time>2013-09-14T13:01:47Z</time>
      </trkpt>
      <trkpt lat="43.39795" lon="6.11249">
        <ele>309.60000610352</ele>
        <time>2013-09-14T13:01:51Z</time>
      </trkpt>
      <trkpt lat="43.39795" lon="6.11242">
        <ele>309.60000610352</ele>
        <time>2013-09-14T13:01:54Z</time>
      </trkpt>
      <trkpt lat="43.39794" lon="6.11237">
        <ele>309.60000610352</ele>
        <time>2013-09-14T13:01:56Z</time>
      </trkpt>
      <trkpt lat="43.39788" lon="6.11215">
        <ele>311.60000610352</ele>
        <time>2013-09-14T13:02:04Z</time>
      </trkpt>
      <trkpt lat="43.39785" lon="6.1119">
        <ele>311.60000610352</ele>
        <time>2013-09-14T13:02:13Z</time>
      </trkpt>
      <trkpt lat="43.39786" lon="6.11179">
        <ele>311.60000610352</ele>
        <time>2013-09-14T13:02:17Z</time>
      </trkpt>
      <trkpt lat="43.39787" lon="6.1117">
        <ele>311.60000610352</ele>
        <time>2013-09-14T13:02:20Z</time>
      </trkpt>
      <trkpt lat="43.39785" lon="6.11149">
        <ele>311.60000610352</ele>
        <time>2013-09-14T13:02:26Z</time>
      </trkpt>
      <trkpt lat="43.39785" lon="6.11133">
        <ele>312.20001220703</ele>
        <time>2013-09-14T13:02:31Z</time>
      </trkpt>
      <trkpt lat="43.39786" lon="6.11107">
        <ele>313.79998779297</ele>
        <time>2013-09-14T13:02:40Z</time>
      </trkpt>
      <trkpt lat="43.39787" lon="6.1109">
        <ele>313.79998779297</ele>
        <time>2013-09-14T13:02:46Z</time>
      </trkpt>
      <trkpt lat="43.39788" lon="6.11071">
        <ele>313.79998779297</ele>
        <time>2013-09-14T13:02:52Z</time>
      </trkpt>
      <trkpt lat="43.39787" lon="6.11055">
        <ele>313.79998779297</ele>
        <time>2013-09-14T13:02:59Z</time>
      </trkpt>
      <trkpt lat="43.39783" lon="6.11039">
        <ele>313.79998779297</ele>
        <time>2013-09-14T13:03:06Z</time>
      </trkpt>
      <trkpt lat="43.3978" lon="6.11027">
        <ele>313.79998779297</ele>
        <time>2013-09-14T13:03:12Z</time>
      </trkpt>
      <trkpt lat="43.39774" lon="6.11001">
        <ele>315.79998779297</ele>
        <time>2013-09-14T13:03:23Z</time>
      </trkpt>
      <trkpt lat="43.3977" lon="6.10982">
        <ele>315.79998779297</ele>
        <time>2013-09-14T13:03:30Z</time>
      </trkpt>
      <trkpt lat="43.39766" lon="6.10965">
        <ele>315.79998779297</ele>
        <time>2013-09-14T13:03:38Z</time>
      </trkpt>
      <trkpt lat="43.39765" lon="6.10958">
        <ele>315.79998779297</ele>
        <time>2013-09-14T13:03:41Z</time>
      </trkpt>
      <trkpt lat="43.39766" lon="6.10933">
        <ele>315.79998779297</ele>
        <time>2013-09-14T13:03:48Z</time>
      </trkpt>
      <trkpt lat="43.39762" lon="6.10909">
        <ele>315.79998779297</ele>
        <time>2013-09-14T13:03:54Z</time>
      </trkpt>
      <trkpt lat="43.39757" lon="6.10889">
        <ele>315.79998779297</ele>
        <time>2013-09-14T13:04:00Z</time>
      </trkpt>
      <trkpt lat="43.39755" lon="6.10879">
        <ele>315.79998779297</ele>
        <time>2013-09-14T13:04:03Z</time>
      </trkpt>
      <trkpt lat="43.39753" lon="6.10869">
        <ele>316.79998779297</ele>
        <time>2013-09-14T13:04:06Z</time>
      </trkpt>
      <trkpt lat="43.3975" lon="6.10848">
        <ele>318</ele>
        <time>2013-09-14T13:04:12Z</time>
      </trkpt>
      <trkpt lat="43.39748" lon="6.10843">
        <ele>319.20001220703</ele>
        <time>2013-09-14T13:04:14Z</time>
      </trkpt>
      <trkpt lat="43.39747" lon="6.1084">
        <ele>319.60000610352</ele>
        <time>2013-09-14T13:04:15Z</time>
      </trkpt>
      <trkpt lat="43.39746" lon="6.10835">
        <ele>320</ele>
        <time>2013-09-14T13:04:17Z</time>
      </trkpt>
      <trkpt lat="43.39745" lon="6.10825">
        <ele>320</ele>
        <time>2013-09-14T13:04:21Z</time>
      </trkpt>
      <trkpt lat="43.39744" lon="6.10804">
        <ele>320</ele>
        <time>2013-09-14T13:04:26Z</time>
      </trkpt>
      <trkpt lat="43.39743" lon="6.10795">
        <ele>320</ele>
        <time>2013-09-14T13:04:28Z</time>
      </trkpt>
      <trkpt lat="43.39739" lon="6.10774">
        <ele>320</ele>
        <time>2013-09-14T13:04:34Z</time>
      </trkpt>
      <trkpt lat="43.39739" lon="6.10753">
        <ele>320</ele>
        <time>2013-09-14T13:04:41Z</time>
      </trkpt>
      <trkpt lat="43.39737" lon="6.10737">
        <ele>320</ele>
        <time>2013-09-14T13:04:47Z</time>
      </trkpt>
      <trkpt lat="43.39734" lon="6.10728">
        <ele>320</ele>
        <time>2013-09-14T13:04:49Z</time>
      </trkpt>
      <trkpt lat="43.39729" lon="6.10717">
        <ele>320</ele>
        <time>2013-09-14T13:04:52Z</time>
      </trkpt>
      <trkpt lat="43.39721" lon="6.10677">
        <ele>320</ele>
        <time>2013-09-14T13:05:04Z</time>
      </trkpt>
      <trkpt lat="43.39721" lon="6.10673">
        <ele>320</ele>
        <time>2013-09-14T13:05:05Z</time>
      </trkpt>
      <trkpt lat="43.39722" lon="6.10641">
        <ele>320</ele>
        <time>2013-09-14T13:05:12Z</time>
      </trkpt>
      <trkpt lat="43.3972" lon="6.10629">
        <ele>319.20001220703</ele>
        <time>2013-09-14T13:05:14Z</time>
      </trkpt>
      <trkpt lat="43.39719" lon="6.10625">
        <ele>318.79998779297</ele>
        <time>2013-09-14T13:05:15Z</time>
      </trkpt>
      <trkpt lat="43.39716" lon="6.10616">
        <ele>317.79998779297</ele>
        <time>2013-09-14T13:05:17Z</time>
      </trkpt>
      <trkpt lat="43.39709" lon="6.10593">
        <ele>317.79998779297</ele>
        <time>2013-09-14T13:05:23Z</time>
      </trkpt>
      <trkpt lat="43.39709" lon="6.10576">
        <ele>317.79998779297</ele>
        <time>2013-09-14T13:05:28Z</time>
      </trkpt>
      <trkpt lat="43.39709" lon="6.10573">
        <ele>317.79998779297</ele>
        <time>2013-09-14T13:05:29Z</time>
      </trkpt>
      <trkpt lat="43.39708" lon="6.10562">
        <ele>317.79998779297</ele>
        <time>2013-09-14T13:05:33Z</time>
      </trkpt>
      <trkpt lat="43.39701" lon="6.10549">
        <ele>317.79998779297</ele>
        <time>2013-09-14T13:05:38Z</time>
      </trkpt>
      <trkpt lat="43.397" lon="6.10546">
        <ele>317.79998779297</ele>
        <time>2013-09-14T13:05:39Z</time>
      </trkpt>
      <trkpt lat="43.39699" lon="6.10533">
        <ele>317.79998779297</ele>
        <time>2013-09-14T13:05:43Z</time>
      </trkpt>
      <trkpt lat="43.39699" lon="6.10528">
        <ele>318.39999389648</ele>
        <time>2013-09-14T13:05:45Z</time>
      </trkpt>
      <trkpt lat="43.397" lon="6.10525">
        <ele>318.79998779297</ele>
        <time>2013-09-14T13:05:46Z</time>
      </trkpt>
      <trkpt lat="43.39698" lon="6.10519">
        <ele>319.60000610352</ele>
        <time>2013-09-14T13:05:48Z</time>
      </trkpt>
      <trkpt lat="43.39697" lon="6.1051">
        <ele>320.20001220703</ele>
        <time>2013-09-14T13:05:52Z</time>
      </trkpt>
      <trkpt lat="43.39697" lon="6.10505">
        <ele>320.60000610352</ele>
        <time>2013-09-14T13:05:54Z</time>
      </trkpt>
      <trkpt lat="43.39698" lon="6.10497">
        <ele>322.20001220703</ele>
        <time>2013-09-14T13:05:58Z</time>
      </trkpt>
      <trkpt lat="43.39697" lon="6.10486">
        <ele>322.20001220703</ele>
        <time>2013-09-14T13:06:04Z</time>
      </trkpt>
      <trkpt lat="43.39697" lon="6.10474">
        <ele>322.20001220703</ele>
        <time>2013-09-14T13:06:09Z</time>
      </trkpt>
      <trkpt lat="43.39703" lon="6.10457">
        <ele>322.20001220703</ele>
        <time>2013-09-14T13:06:15Z</time>
      </trkpt>
      <trkpt lat="43.39705" lon="6.1044">
        <ele>322.20001220703</ele>
        <time>2013-09-14T13:06:20Z</time>
      </trkpt>
      <trkpt lat="43.39706" lon="6.1043">
        <ele>321.60000610352</ele>
        <time>2013-09-14T13:06:22Z</time>
      </trkpt>
      <trkpt lat="43.39706" lon="6.10424">
        <ele>321.20001220703</ele>
        <time>2013-09-14T13:06:23Z</time>
      </trkpt>
      <trkpt lat="43.39707" lon="6.10419">
        <ele>320.60000610352</ele>
        <time>2013-09-14T13:06:24Z</time>
      </trkpt>
      <trkpt lat="43.39707" lon="6.10414">
        <ele>320</ele>
        <time>2013-09-14T13:06:25Z</time>
      </trkpt>
      <trkpt lat="43.39707" lon="6.1041">
        <ele>319.39999389648</ele>
        <time>2013-09-14T13:06:26Z</time>
      </trkpt>
      <trkpt lat="43.39706" lon="6.10407">
        <ele>318.79998779297</ele>
        <time>2013-09-14T13:06:27Z</time>
      </trkpt>
      <trkpt lat="43.39706" lon="6.10403">
        <ele>318.20001220703</ele>
        <time>2013-09-14T13:06:28Z</time>
      </trkpt>
      <trkpt lat="43.39706" lon="6.10402">
        <ele>317.60000610352</ele>
        <time>2013-09-14T13:06:29Z</time>
      </trkpt>
      <trkpt lat="43.39706" lon="6.10401">
        <ele>317.20001220703</ele>
        <time>2013-09-14T13:06:30Z</time>
      </trkpt>
      <trkpt lat="43.39706" lon="6.10401">
        <ele>316.60000610352</ele>
        <time>2013-09-14T13:06:31Z</time>
      </trkpt>
      <trkpt lat="43.39706" lon="6.10401">
        <ele>315.60000610352</ele>
        <time>2013-09-14T13:06:46Z</time>
      </trkpt>
      <trkpt lat="43.39706" lon="6.10401">
        <ele>315.60000610352</ele>
        <time>2013-09-14T13:07:10Z</time>
      </trkpt>
      <trkpt lat="43.39706" lon="6.10401">
        <ele>315.60000610352</ele>
        <time>2013-09-14T13:07:15Z</time>
      </trkpt>
      <trkpt lat="43.39706" lon="6.10401">
        <ele>315.60000610352</ele>
        <time>2013-09-14T13:07:33Z</time>
      </trkpt>
      <trkpt lat="43.39706" lon="6.10401">
        <ele>315.60000610352</ele>
        <time>2013-09-14T13:08:35Z</time>
      </trkpt>
      <trkpt lat="43.39706" lon="6.10401">
        <ele>315.60000610352</ele>
        <time>2013-09-14T13:08:56Z</time>
      </trkpt>
      <trkpt lat="43.39706" lon="6.10399">
        <ele>315.60000610352</ele>
        <time>2013-09-14T13:09:00Z</time>
      </trkpt>
      <trkpt lat="43.39706" lon="6.10399">
        <ele>315.60000610352</ele>
        <time>2013-09-14T13:09:13Z</time>
      </trkpt>
      <trkpt lat="43.39706" lon="6.10399">
        <ele>315.60000610352</ele>
        <time>2013-09-14T13:09:34Z</time>
      </trkpt>
      <trkpt lat="43.39706" lon="6.10399">
        <ele>315.60000610352</ele>
        <time>2013-09-14T13:09:44Z</time>
      </trkpt>
      <trkpt lat="43.39706" lon="6.10398">
        <ele>315.60000610352</ele>
        <time>2013-09-14T13:09:48Z</time>
      </trkpt>
      <trkpt lat="43.39705" lon="6.10398">
        <ele>315.60000610352</ele>
        <time>2013-09-14T13:09:57Z</time>
      </trkpt>
      <trkpt lat="43.39706" lon="6.10396">
        <ele>315.60000610352</ele>
        <time>2013-09-14T13:10:04Z</time>
      </trkpt>
      <trkpt lat="43.39705" lon="6.10386">
        <ele>315.60000610352</ele>
        <time>2013-09-14T13:10:10Z</time>
      </trkpt>
      <trkpt lat="43.39703" lon="6.10385">
        <ele>315.60000610352</ele>
        <time>2013-09-14T13:10:11Z</time>
      </trkpt>
      <trkpt lat="43.39699" lon="6.1038">
        <ele>315.20001220703</ele>
        <time>2013-09-14T13:10:14Z</time>
      </trkpt>
      <trkpt lat="43.39694" lon="6.10377">
        <ele>314</ele>
        <time>2013-09-14T13:10:17Z</time>
      </trkpt>
      <trkpt lat="43.39692" lon="6.10377">
        <ele>313.60000610352</ele>
        <time>2013-09-14T13:10:18Z</time>
      </trkpt>
      <trkpt lat="43.3969" lon="6.10375">
        <ele>312.79998779297</ele>
        <time>2013-09-14T13:10:20Z</time>
      </trkpt>
      <trkpt lat="43.39689" lon="6.10373">
        <ele>312.39999389648</ele>
        <time>2013-09-14T13:10:21Z</time>
      </trkpt>
      <trkpt lat="43.39689" lon="6.10368">
        <ele>311.60000610352</ele>
        <time>2013-09-14T13:10:23Z</time>
      </trkpt>
      <trkpt lat="43.3969" lon="6.10366">
        <ele>311.60000610352</ele>
        <time>2013-09-14T13:10:24Z</time>
      </trkpt>
      <trkpt lat="43.39691" lon="6.10363">
        <ele>311</ele>
        <time>2013-09-14T13:10:25Z</time>
      </trkpt>
      <trkpt lat="43.39693" lon="6.10359">
        <ele>310.20001220703</ele>
        <time>2013-09-14T13:10:27Z</time>
      </trkpt>
      <trkpt lat="43.39694" lon="6.10357">
        <ele>309.60000610352</ele>
        <time>2013-09-14T13:10:28Z</time>
      </trkpt>
      <trkpt lat="43.39695" lon="6.10354">
        <ele>308.79998779297</ele>
        <time>2013-09-14T13:10:30Z</time>
      </trkpt>
      <trkpt lat="43.39695" lon="6.10353">
        <ele>308.39999389648</ele>
        <time>2013-09-14T13:10:31Z</time>
      </trkpt>
      <trkpt lat="43.39695" lon="6.10351">
        <ele>308</ele>
        <time>2013-09-14T13:10:32Z</time>
      </trkpt>
      <trkpt lat="43.39693" lon="6.10349">
        <ele>307.60000610352</ele>
        <time>2013-09-14T13:10:33Z</time>
      </trkpt>
      <trkpt lat="43.39685" lon="6.10346">
        <ele>306</ele>
        <time>2013-09-14T13:10:36Z</time>
      </trkpt>
      <trkpt lat="43.39682" lon="6.10345">
        <ele>305.39999389648</ele>
        <time>2013-09-14T13:10:37Z</time>
      </trkpt>
      <trkpt lat="43.39675" lon="6.10343">
        <ele>304</ele>
        <time>2013-09-14T13:10:41Z</time>
      </trkpt>
      <trkpt lat="43.39673" lon="6.10343">
        <ele>303.60000610352</ele>
        <time>2013-09-14T13:10:42Z</time>
      </trkpt>
      <trkpt lat="43.39671" lon="6.10337">
        <ele>302.79998779297</ele>
        <time>2013-09-14T13:10:45Z</time>
      </trkpt>
      <trkpt lat="43.39664" lon="6.10329">
        <ele>300.39999389648</ele>
        <time>2013-09-14T13:10:49Z</time>
      </trkpt>
      <trkpt lat="43.3966" lon="6.10329">
        <ele>300</ele>
        <time>2013-09-14T13:10:51Z</time>
      </trkpt>
      <trkpt lat="43.39658" lon="6.10329">
        <ele>299.60000610352</ele>
        <time>2013-09-14T13:10:52Z</time>
      </trkpt>
      <trkpt lat="43.39656" lon="6.10329">
        <ele>299.20001220703</ele>
        <time>2013-09-14T13:10:53Z</time>
      </trkpt>
      <trkpt lat="43.39651" lon="6.1033">
        <ele>298</ele>
        <time>2013-09-14T13:10:55Z</time>
      </trkpt>
      <trkpt lat="43.39649" lon="6.1033">
        <ele>297.39999389648</ele>
        <time>2013-09-14T13:10:56Z</time>
      </trkpt>
      <trkpt lat="43.39647" lon="6.10331">
        <ele>296.79998779297</ele>
        <time>2013-09-14T13:10:57Z</time>
      </trkpt>
      <trkpt lat="43.39646" lon="6.10331">
        <ele>296.20001220703</ele>
        <time>2013-09-14T13:10:58Z</time>
      </trkpt>
      <trkpt lat="43.39645" lon="6.10332">
        <ele>295.60000610352</ele>
        <time>2013-09-14T13:10:59Z</time>
      </trkpt>
      <trkpt lat="43.39645" lon="6.10332">
        <ele>295</ele>
        <time>2013-09-14T13:11:00Z</time>
      </trkpt>
      <trkpt lat="43.39646" lon="6.10331">
        <ele>294.39999389648</ele>
        <time>2013-09-14T13:11:01Z</time>
      </trkpt>
      <trkpt lat="43.39646" lon="6.10331">
        <ele>294</ele>
        <time>2013-09-14T13:11:02Z</time>
      </trkpt>
      <trkpt lat="43.39646" lon="6.10331">
        <ele>294</ele>
        <time>2013-09-14T13:11:05Z</time>
      </trkpt>
      <trkpt lat="43.39642" lon="6.10333">
        <ele>294</ele>
        <time>2013-09-14T13:11:09Z</time>
      </trkpt>
      <trkpt lat="43.3964" lon="6.10336">
        <ele>294</ele>
        <time>2013-09-14T13:11:10Z</time>
      </trkpt>
      <trkpt lat="43.3963" lon="6.10342">
        <ele>293</ele>
        <time>2013-09-14T13:11:14Z</time>
      </trkpt>
      <trkpt lat="43.39627" lon="6.10343">
        <ele>292</ele>
        <time>2013-09-14T13:11:16Z</time>
      </trkpt>
      <trkpt lat="43.39625" lon="6.10343">
        <ele>291.60000610352</ele>
        <time>2013-09-14T13:11:17Z</time>
      </trkpt>
      <trkpt lat="43.39623" lon="6.10344">
        <ele>291.20001220703</ele>
        <time>2013-09-14T13:11:18Z</time>
      </trkpt>
      <trkpt lat="43.39621" lon="6.10345">
        <ele>290.79998779297</ele>
        <time>2013-09-14T13:11:19Z</time>
      </trkpt>
      <trkpt lat="43.39614" lon="6.10348">
        <ele>289.60000610352</ele>
        <time>2013-09-14T13:11:22Z</time>
      </trkpt>
      <trkpt lat="43.39603" lon="6.10351">
        <ele>288.20001220703</ele>
        <time>2013-09-14T13:11:27Z</time>
      </trkpt>
      <trkpt lat="43.396" lon="6.10352">
        <ele>287.39999389648</ele>
        <time>2013-09-14T13:11:29Z</time>
      </trkpt>
      <trkpt lat="43.39596" lon="6.10355">
        <ele>287.39999389648</ele>
        <time>2013-09-14T13:11:31Z</time>
      </trkpt>
      <trkpt lat="43.3959" lon="6.10361">
        <ele>286</ele>
        <time>2013-09-14T13:11:34Z</time>
      </trkpt>
      <trkpt lat="43.39587" lon="6.10367">
        <ele>285.20001220703</ele>
        <time>2013-09-14T13:11:36Z</time>
      </trkpt>
      <trkpt lat="43.39586" lon="6.10369">
        <ele>285.20001220703</ele>
        <time>2013-09-14T13:11:37Z</time>
      </trkpt>
      <trkpt lat="43.39585" lon="6.10371">
        <ele>284</ele>
        <time>2013-09-14T13:11:39Z</time>
      </trkpt>
      <trkpt lat="43.39583" lon="6.10377">
        <ele>283.20001220703</ele>
        <time>2013-09-14T13:11:41Z</time>
      </trkpt>
      <trkpt lat="43.39579" lon="6.10386">
        <ele>282.79998779297</ele>
        <time>2013-09-14T13:11:46Z</time>
      </trkpt>
      <trkpt lat="43.39576" lon="6.10385">
        <ele>281.79998779297</ele>
        <time>2013-09-14T13:11:48Z</time>
      </trkpt>
      <trkpt lat="43.39573" lon="6.10383">
        <ele>280.20001220703</ele>
        <time>2013-09-14T13:11:52Z</time>
      </trkpt>
      <trkpt lat="43.3957" lon="6.10382">
        <ele>279.20001220703</ele>
        <time>2013-09-14T13:11:54Z</time>
      </trkpt>
      <trkpt lat="43.39569" lon="6.10383">
        <ele>278.79998779297</ele>
        <time>2013-09-14T13:11:55Z</time>
      </trkpt>
      <trkpt lat="43.39566" lon="6.10384">
        <ele>278.39999389648</ele>
        <time>2013-09-14T13:11:57Z</time>
      </trkpt>
      <trkpt lat="43.39565" lon="6.10385">
        <ele>278</ele>
        <time>2013-09-14T13:11:58Z</time>
      </trkpt>
      <trkpt lat="43.39559" lon="6.10386">
        <ele>276.60000610352</ele>
        <time>2013-09-14T13:12:01Z</time>
      </trkpt>
      <trkpt lat="43.39558" lon="6.10386">
        <ele>276</ele>
        <time>2013-09-14T13:12:02Z</time>
      </trkpt>
      <trkpt lat="43.39558" lon="6.10386">
        <ele>275</ele>
        <time>2013-09-14T13:12:03Z</time>
      </trkpt>
      <trkpt lat="43.39557" lon="6.10386">
        <ele>274.39999389648</ele>
        <time>2013-09-14T13:12:04Z</time>
      </trkpt>
      <trkpt lat="43.39556" lon="6.10387">
        <ele>274</ele>
        <time>2013-09-14T13:12:07Z</time>
      </trkpt>
      <trkpt lat="43.39556" lon="6.10387">
        <ele>272.39999389648</ele>
        <time>2013-09-14T13:12:21Z</time>
      </trkpt>
      <trkpt lat="43.39555" lon="6.10387">
        <ele>272.39999389648</ele>
        <time>2013-09-14T13:12:57Z</time>
      </trkpt>
      <trkpt lat="43.39555" lon="6.10387">
        <ele>272.39999389648</ele>
        <time>2013-09-14T13:13:01Z</time>
      </trkpt>
      <trkpt lat="43.39555" lon="6.10387">
        <ele>272.39999389648</ele>
        <time>2013-09-14T13:13:05Z</time>
      </trkpt>
      <trkpt lat="43.39554" lon="6.10388">
        <ele>272.39999389648</ele>
        <time>2013-09-14T13:13:06Z</time>
      </trkpt>
      <trkpt lat="43.3955" lon="6.10394">
        <ele>272.39999389648</ele>
        <time>2013-09-14T13:13:10Z</time>
      </trkpt>
      <trkpt lat="43.39548" lon="6.10395">
        <ele>272.39999389648</ele>
        <time>2013-09-14T13:13:11Z</time>
      </trkpt>
      <trkpt lat="43.39545" lon="6.10397">
        <ele>272.39999389648</ele>
        <time>2013-09-14T13:13:14Z</time>
      </trkpt>
      <trkpt lat="43.39542" lon="6.10397">
        <ele>272.39999389648</ele>
        <time>2013-09-14T13:13:16Z</time>
      </trkpt>
      <trkpt lat="43.39539" lon="6.10396">
        <ele>272.39999389648</ele>
        <time>2013-09-14T13:13:20Z</time>
      </trkpt>
      <trkpt lat="43.39536" lon="6.10394">
        <ele>272.39999389648</ele>
        <time>2013-09-14T13:13:26Z</time>
      </trkpt>
      <trkpt lat="43.39536" lon="6.10394">
        <ele>272.39999389648</ele>
        <time>2013-09-14T13:13:35Z</time>
      </trkpt>
      <trkpt lat="43.39533" lon="6.10391">
        <ele>272.39999389648</ele>
        <time>2013-09-14T13:13:42Z</time>
      </trkpt>
      <trkpt lat="43.39532" lon="6.1039">
        <ele>272.39999389648</ele>
        <time>2013-09-14T13:13:43Z</time>
      </trkpt>
      <trkpt lat="43.39526" lon="6.10387">
        <ele>272.39999389648</ele>
        <time>2013-09-14T13:13:47Z</time>
      </trkpt>
      <trkpt lat="43.39517" lon="6.10383">
        <ele>272.39999389648</ele>
        <time>2013-09-14T13:13:52Z</time>
      </trkpt>
      <trkpt lat="43.39502" lon="6.10382">
        <ele>272.39999389648</ele>
        <time>2013-09-14T13:13:58Z</time>
      </trkpt>
      <trkpt lat="43.39491" lon="6.10381">
        <ele>272</ele>
        <time>2013-09-14T13:14:02Z</time>
      </trkpt>
      <trkpt lat="43.39485" lon="6.10381">
        <ele>271.20001220703</ele>
        <time>2013-09-14T13:14:04Z</time>
      </trkpt>
      <trkpt lat="43.3948" lon="6.1038">
        <ele>270.39999389648</ele>
        <time>2013-09-14T13:14:06Z</time>
      </trkpt>
      <trkpt lat="43.39477" lon="6.10378">
        <ele>270.39999389648</ele>
        <time>2013-09-14T13:14:09Z</time>
      </trkpt>
      <trkpt lat="43.39475" lon="6.10376">
        <ele>270.39999389648</ele>
        <time>2013-09-14T13:14:12Z</time>
      </trkpt>
      <trkpt lat="43.39473" lon="6.10374">
        <ele>270.39999389648</ele>
        <time>2013-09-14T13:14:14Z</time>
      </trkpt>
      <trkpt lat="43.39473" lon="6.10374">
        <ele>270.39999389648</ele>
        <time>2013-09-14T13:14:21Z</time>
      </trkpt>
      <trkpt lat="43.3947" lon="6.10372">
        <ele>270.39999389648</ele>
        <time>2013-09-14T13:14:25Z</time>
      </trkpt>
      <trkpt lat="43.39468" lon="6.10372">
        <ele>270.39999389648</ele>
        <time>2013-09-14T13:14:26Z</time>
      </trkpt>
      <trkpt lat="43.39463" lon="6.10372">
        <ele>270</ele>
        <time>2013-09-14T13:14:29Z</time>
      </trkpt>
      <trkpt lat="43.39457" lon="6.10372">
        <ele>268.60000610352</ele>
        <time>2013-09-14T13:14:31Z</time>
      </trkpt>
      <trkpt lat="43.39454" lon="6.10373">
        <ele>268.20001220703</ele>
        <time>2013-09-14T13:14:32Z</time>
      </trkpt>
      <trkpt lat="43.39442" lon="6.10382">
        <ele>268.20001220703</ele>
        <time>2013-09-14T13:14:36Z</time>
      </trkpt>
      <trkpt lat="43.39433" lon="6.10396">
        <ele>268.20001220703</ele>
        <time>2013-09-14T13:14:41Z</time>
      </trkpt>
      <trkpt lat="43.39426" lon="6.10408">
        <ele>268.20001220703</ele>
        <time>2013-09-14T13:14:46Z</time>
      </trkpt>
      <trkpt lat="43.39421" lon="6.10421">
        <ele>268.20001220703</ele>
        <time>2013-09-14T13:14:52Z</time>
      </trkpt>
      <trkpt lat="43.39421" lon="6.10426">
        <ele>268.20001220703</ele>
        <time>2013-09-14T13:14:54Z</time>
      </trkpt>
      <trkpt lat="43.39419" lon="6.10433">
        <ele>268.20001220703</ele>
        <time>2013-09-14T13:14:57Z</time>
      </trkpt>
      <trkpt lat="43.39418" lon="6.1044">
        <ele>268.20001220703</ele>
        <time>2013-09-14T13:14:59Z</time>
      </trkpt>
      <trkpt lat="43.39415" lon="6.10448">
        <ele>268.20001220703</ele>
        <time>2013-09-14T13:15:02Z</time>
      </trkpt>
      <trkpt lat="43.39408" lon="6.10467">
        <ele>268.20001220703</ele>
        <time>2013-09-14T13:15:08Z</time>
      </trkpt>
      <trkpt lat="43.39404" lon="6.10487">
        <ele>268.20001220703</ele>
        <time>2013-09-14T13:15:14Z</time>
      </trkpt>
      <trkpt lat="43.39389" lon="6.10537">
        <ele>268.20001220703</ele>
        <time>2013-09-14T13:15:30Z</time>
      </trkpt>
      <trkpt lat="43.39384" lon="6.10558">
        <ele>268.20001220703</ele>
        <time>2013-09-14T13:15:37Z</time>
      </trkpt>
      <trkpt lat="43.39383" lon="6.10571">
        <ele>268.20001220703</ele>
        <time>2013-09-14T13:15:41Z</time>
      </trkpt>
      <trkpt lat="43.39379" lon="6.10606">
        <ele>268.60000610352</ele>
        <time>2013-09-14T13:15:51Z</time>
      </trkpt>
      <trkpt lat="43.39376" lon="6.1062">
        <ele>270.39999389648</ele>
        <time>2013-09-14T13:15:55Z</time>
      </trkpt>
      <trkpt lat="43.39374" lon="6.10633">
        <ele>270.39999389648</ele>
        <time>2013-09-14T13:15:59Z</time>
      </trkpt>
      <trkpt lat="43.39368" lon="6.10661">
        <ele>270.39999389648</ele>
        <time>2013-09-14T13:16:06Z</time>
      </trkpt>
      <trkpt lat="43.39361" lon="6.10685">
        <ele>270.39999389648</ele>
        <time>2013-09-14T13:16:13Z</time>
      </trkpt>
      <trkpt lat="43.39346" lon="6.10716">
        <ele>270.39999389648</ele>
        <time>2013-09-14T13:16:23Z</time>
      </trkpt>
      <trkpt lat="43.39336" lon="6.10725">
        <ele>270.39999389648</ele>
        <time>2013-09-14T13:16:28Z</time>
      </trkpt>
      <trkpt lat="43.39308" lon="6.10725">
        <ele>270.39999389648</ele>
        <time>2013-09-14T13:16:39Z</time>
      </trkpt>
      <trkpt lat="43.39294" lon="6.10723">
        <ele>270.39999389648</ele>
        <time>2013-09-14T13:16:45Z</time>
      </trkpt>
      <trkpt lat="43.3928" lon="6.10715">
        <ele>270.39999389648</ele>
        <time>2013-09-14T13:16:51Z</time>
      </trkpt>
      <trkpt lat="43.39266" lon="6.10707">
        <ele>270.39999389648</ele>
        <time>2013-09-14T13:16:57Z</time>
      </trkpt>
      <trkpt lat="43.39255" lon="6.10701">
        <ele>271.60000610352</ele>
        <time>2013-09-14T13:17:02Z</time>
      </trkpt>
      <trkpt lat="43.39241" lon="6.1069">
        <ele>272.39999389648</ele>
        <time>2013-09-14T13:17:09Z</time>
      </trkpt>
      <trkpt lat="43.39225" lon="6.10678">
        <ele>272.39999389648</ele>
        <time>2013-09-14T13:17:16Z</time>
      </trkpt>
      <trkpt lat="43.39215" lon="6.10677">
        <ele>272.39999389648</ele>
        <time>2013-09-14T13:17:21Z</time>
      </trkpt>
      <trkpt lat="43.39213" lon="6.10678">
        <ele>272.39999389648</ele>
        <time>2013-09-14T13:17:22Z</time>
      </trkpt>
      <trkpt lat="43.39209" lon="6.10684">
        <ele>272.39999389648</ele>
        <time>2013-09-14T13:17:25Z</time>
      </trkpt>
      <trkpt lat="43.39204" lon="6.10703">
        <ele>274.39999389648</ele>
        <time>2013-09-14T13:17:33Z</time>
      </trkpt>
      <trkpt lat="43.39206" lon="6.10708">
        <ele>274.39999389648</ele>
        <time>2013-09-14T13:17:36Z</time>
      </trkpt>
      <trkpt lat="43.39214" lon="6.10729">
        <ele>276.60000610352</ele>
        <time>2013-09-14T13:17:47Z</time>
      </trkpt>
      <trkpt lat="43.3922" lon="6.10739">
        <ele>276.60000610352</ele>
        <time>2013-09-14T13:17:54Z</time>
      </trkpt>
      <trkpt lat="43.3922" lon="6.10746">
        <ele>276.60000610352</ele>
        <time>2013-09-14T13:17:59Z</time>
      </trkpt>
      <trkpt lat="43.39218" lon="6.10752">
        <ele>276.60000610352</ele>
        <time>2013-09-14T13:18:04Z</time>
      </trkpt>
      <trkpt lat="43.39217" lon="6.10754">
        <ele>276.60000610352</ele>
        <time>2013-09-14T13:18:06Z</time>
      </trkpt>
      <trkpt lat="43.39217" lon="6.10755">
        <ele>276.60000610352</ele>
        <time>2013-09-14T13:18:14Z</time>
      </trkpt>
      <trkpt lat="43.39217" lon="6.10757">
        <ele>276.60000610352</ele>
        <time>2013-09-14T13:18:17Z</time>
      </trkpt>
      <trkpt lat="43.39218" lon="6.10762">
        <ele>276.60000610352</ele>
        <time>2013-09-14T13:18:19Z</time>
      </trkpt>
      <trkpt lat="43.3922" lon="6.10773">
        <ele>276.60000610352</ele>
        <time>2013-09-14T13:18:23Z</time>
      </trkpt>
      <trkpt lat="43.3922" lon="6.10776">
        <ele>276.60000610352</ele>
        <time>2013-09-14T13:18:24Z</time>
      </trkpt>
      <trkpt lat="43.39219" lon="6.1079">
        <ele>276.60000610352</ele>
        <time>2013-09-14T13:18:28Z</time>
      </trkpt>
      <trkpt lat="43.39222" lon="6.1081">
        <ele>276.60000610352</ele>
        <time>2013-09-14T13:18:33Z</time>
      </trkpt>
      <trkpt lat="43.39224" lon="6.10821">
        <ele>276.60000610352</ele>
        <time>2013-09-14T13:18:37Z</time>
      </trkpt>
      <trkpt lat="43.39224" lon="6.10831">
        <ele>276.60000610352</ele>
        <time>2013-09-14T13:18:41Z</time>
      </trkpt>
      <trkpt lat="43.39225" lon="6.10834">
        <ele>276.60000610352</ele>
        <time>2013-09-14T13:18:42Z</time>
      </trkpt>
      <trkpt lat="43.39228" lon="6.10839">
        <ele>277.39999389648</ele>
        <time>2013-09-14T13:18:44Z</time>
      </trkpt>
      <trkpt lat="43.3923" lon="6.10844">
        <ele>278.20001220703</ele>
        <time>2013-09-14T13:18:46Z</time>
      </trkpt>
      <trkpt lat="43.3923" lon="6.10849">
        <ele>278.60000610352</ele>
        <time>2013-09-14T13:18:48Z</time>
      </trkpt>
      <trkpt lat="43.39229" lon="6.10866">
        <ele>278.60000610352</ele>
        <time>2013-09-14T13:18:53Z</time>
      </trkpt>
      <trkpt lat="43.39229" lon="6.1087">
        <ele>278.60000610352</ele>
        <time>2013-09-14T13:18:54Z</time>
      </trkpt>
      <trkpt lat="43.39224" lon="6.10888">
        <ele>278.60000610352</ele>
        <time>2013-09-14T13:19:01Z</time>
      </trkpt>
      <trkpt lat="43.39212" lon="6.10906">
        <ele>278.60000610352</ele>
        <time>2013-09-14T13:19:07Z</time>
      </trkpt>
      <trkpt lat="43.39209" lon="6.10914">
        <ele>278.60000610352</ele>
        <time>2013-09-14T13:19:11Z</time>
      </trkpt>
      <trkpt lat="43.39201" lon="6.10922">
        <ele>278.60000610352</ele>
        <time>2013-09-14T13:19:16Z</time>
      </trkpt>
      <trkpt lat="43.39195" lon="6.10924">
        <ele>278.60000610352</ele>
        <time>2013-09-14T13:19:19Z</time>
      </trkpt>
      <trkpt lat="43.39191" lon="6.10926">
        <ele>278.60000610352</ele>
        <time>2013-09-14T13:19:21Z</time>
      </trkpt>
      <trkpt lat="43.39184" lon="6.10936">
        <ele>278.60000610352</ele>
        <time>2013-09-14T13:19:26Z</time>
      </trkpt>
      <trkpt lat="43.39175" lon="6.10959">
        <ele>278.60000610352</ele>
        <time>2013-09-14T13:19:35Z</time>
      </trkpt>
      <trkpt lat="43.39166" lon="6.10967">
        <ele>279</ele>
        <time>2013-09-14T13:19:40Z</time>
      </trkpt>
      <trkpt lat="43.39161" lon="6.10972">
        <ele>280.39999389648</ele>
        <time>2013-09-14T13:19:43Z</time>
      </trkpt>
      <trkpt lat="43.39159" lon="6.10973">
        <ele>280.79998779297</ele>
        <time>2013-09-14T13:19:44Z</time>
      </trkpt>
      <trkpt lat="43.39156" lon="6.10976">
        <ele>280.79998779297</ele>
        <time>2013-09-14T13:19:46Z</time>
      </trkpt>
      <trkpt lat="43.39154" lon="6.10982">
        <ele>280.79998779297</ele>
        <time>2013-09-14T13:19:48Z</time>
      </trkpt>
      <trkpt lat="43.39151" lon="6.10998">
        <ele>281.20001220703</ele>
        <time>2013-09-14T13:19:53Z</time>
      </trkpt>
      <trkpt lat="43.39151" lon="6.11001">
        <ele>282</ele>
        <time>2013-09-14T13:19:54Z</time>
      </trkpt>
      <trkpt lat="43.39152" lon="6.11009">
        <ele>282.79998779297</ele>
        <time>2013-09-14T13:19:56Z</time>
      </trkpt>
      <trkpt lat="43.39154" lon="6.11018">
        <ele>282.79998779297</ele>
        <time>2013-09-14T13:19:58Z</time>
      </trkpt>
      <trkpt lat="43.39153" lon="6.11034">
        <ele>282.79998779297</ele>
        <time>2013-09-14T13:20:02Z</time>
      </trkpt>
      <trkpt lat="43.39152" lon="6.11037">
        <ele>282.79998779297</ele>
        <time>2013-09-14T13:20:03Z</time>
      </trkpt>
      <trkpt lat="43.39148" lon="6.11053">
        <ele>282.79998779297</ele>
        <time>2013-09-14T13:20:09Z</time>
      </trkpt>
      <trkpt lat="43.39147" lon="6.11069">
        <ele>282.79998779297</ele>
        <time>2013-09-14T13:20:15Z</time>
      </trkpt>
      <trkpt lat="43.39148" lon="6.11073">
        <ele>282.79998779297</ele>
        <time>2013-09-14T13:20:17Z</time>
      </trkpt>
      <trkpt lat="43.39148" lon="6.11083">
        <ele>282.79998779297</ele>
        <time>2013-09-14T13:20:21Z</time>
      </trkpt>
      <trkpt lat="43.39144" lon="6.11116">
        <ele>282.79998779297</ele>
        <time>2013-09-14T13:20:35Z</time>
      </trkpt>
      <trkpt lat="43.39142" lon="6.11134">
        <ele>282.79998779297</ele>
        <time>2013-09-14T13:20:42Z</time>
      </trkpt>
      <trkpt lat="43.39141" lon="6.1115">
        <ele>282.79998779297</ele>
        <time>2013-09-14T13:20:49Z</time>
      </trkpt>
      <trkpt lat="43.39139" lon="6.1116">
        <ele>283.20001220703</ele>
        <time>2013-09-14T13:20:54Z</time>
      </trkpt>
      <trkpt lat="43.39134" lon="6.11164">
        <ele>284.60000610352</ele>
        <time>2013-09-14T13:20:57Z</time>
      </trkpt>
      <trkpt lat="43.39134" lon="6.11166">
        <ele>285</ele>
        <time>2013-09-14T13:20:58Z</time>
      </trkpt>
      <trkpt lat="43.39132" lon="6.11167">
        <ele>285</ele>
        <time>2013-09-14T13:21:00Z</time>
      </trkpt>
      <trkpt lat="43.39123" lon="6.1117">
        <ele>285.79998779297</ele>
        <time>2013-09-14T13:21:05Z</time>
      </trkpt>
      <trkpt lat="43.39122" lon="6.11171">
        <ele>286.20001220703</ele>
        <time>2013-09-14T13:21:06Z</time>
      </trkpt>
      <trkpt lat="43.39122" lon="6.11171">
        <ele>287.20001220703</ele>
        <time>2013-09-14T13:21:07Z</time>
      </trkpt>
      <trkpt lat="43.39122" lon="6.11171">
        <ele>287.20001220703</ele>
        <time>2013-09-14T13:21:09Z</time>
      </trkpt>
      <trkpt lat="43.39121" lon="6.11171">
        <ele>287.20001220703</ele>
        <time>2013-09-14T13:21:13Z</time>
      </trkpt>
      <trkpt lat="43.39119" lon="6.1117">
        <ele>287.60000610352</ele>
        <time>2013-09-14T13:21:18Z</time>
      </trkpt>
      <trkpt lat="43.39119" lon="6.1117">
        <ele>289.20001220703</ele>
        <time>2013-09-14T13:21:27Z</time>
      </trkpt>
      <trkpt lat="43.39119" lon="6.1117">
        <ele>289.20001220703</ele>
        <time>2013-09-14T13:21:30Z</time>
      </trkpt>
      <trkpt lat="43.39117" lon="6.1117">
        <ele>289.20001220703</ele>
        <time>2013-09-14T13:21:40Z</time>
      </trkpt>
      <trkpt lat="43.39115" lon="6.11172">
        <ele>289.20001220703</ele>
        <time>2013-09-14T13:21:43Z</time>
      </trkpt>
      <trkpt lat="43.39115" lon="6.11173">
        <ele>289.20001220703</ele>
        <time>2013-09-14T13:21:45Z</time>
      </trkpt>
      <trkpt lat="43.39114" lon="6.11173">
        <ele>289.20001220703</ele>
        <time>2013-09-14T13:21:48Z</time>
      </trkpt>
      <trkpt lat="43.39114" lon="6.11173">
        <ele>289.20001220703</ele>
        <time>2013-09-14T13:22:13Z</time>
      </trkpt>
      <trkpt lat="43.39114" lon="6.11173">
        <ele>289.20001220703</ele>
        <time>2013-09-14T13:22:38Z</time>
      </trkpt>
      <trkpt lat="43.39113" lon="6.11175">
        <ele>289.20001220703</ele>
        <time>2013-09-14T13:22:46Z</time>
      </trkpt>
      <trkpt lat="43.39112" lon="6.11179">
        <ele>289.20001220703</ele>
        <time>2013-09-14T13:22:48Z</time>
      </trkpt>
      <trkpt lat="43.39111" lon="6.11191">
        <ele>289.20001220703</ele>
        <time>2013-09-14T13:22:54Z</time>
      </trkpt>
      <trkpt lat="43.39112" lon="6.11199">
        <ele>289.20001220703</ele>
        <time>2013-09-14T13:22:58Z</time>
      </trkpt>
      <trkpt lat="43.3911" lon="6.1121">
        <ele>289.20001220703</ele>
        <time>2013-09-14T13:23:03Z</time>
      </trkpt>
      <trkpt lat="43.39109" lon="6.11222">
        <ele>290.79998779297</ele>
        <time>2013-09-14T13:23:07Z</time>
      </trkpt>
      <trkpt lat="43.39108" lon="6.11228">
        <ele>291.20001220703</ele>
        <time>2013-09-14T13:23:09Z</time>
      </trkpt>
      <trkpt lat="43.39104" lon="6.11246">
        <ele>291.20001220703</ele>
        <time>2013-09-14T13:23:15Z</time>
      </trkpt>
      <trkpt lat="43.39104" lon="6.11258">
        <ele>291.20001220703</ele>
        <time>2013-09-14T13:23:19Z</time>
      </trkpt>
      <trkpt lat="43.391" lon="6.11274">
        <ele>291.20001220703</ele>
        <time>2013-09-14T13:23:23Z</time>
      </trkpt>
      <trkpt lat="43.39099" lon="6.11277">
        <ele>291.20001220703</ele>
        <time>2013-09-14T13:23:24Z</time>
      </trkpt>
      <trkpt lat="43.39096" lon="6.11283">
        <ele>291.20001220703</ele>
        <time>2013-09-14T13:23:26Z</time>
      </trkpt>
      <trkpt lat="43.39095" lon="6.1129">
        <ele>291.20001220703</ele>
        <time>2013-09-14T13:23:28Z</time>
      </trkpt>
      <trkpt lat="43.39091" lon="6.11296">
        <ele>291.20001220703</ele>
        <time>2013-09-14T13:23:31Z</time>
      </trkpt>
      <trkpt lat="43.39088" lon="6.11296">
        <ele>291.20001220703</ele>
        <time>2013-09-14T13:23:33Z</time>
      </trkpt>
      <trkpt lat="43.39082" lon="6.11291">
        <ele>291.20001220703</ele>
        <time>2013-09-14T13:23:37Z</time>
      </trkpt>
      <trkpt lat="43.39077" lon="6.11285">
        <ele>291.20001220703</ele>
        <time>2013-09-14T13:23:41Z</time>
      </trkpt>
      <trkpt lat="43.39072" lon="6.11278">
        <ele>291.20001220703</ele>
        <time>2013-09-14T13:23:46Z</time>
      </trkpt>
      <trkpt lat="43.39071" lon="6.11276">
        <ele>291.60000610352</ele>
        <time>2013-09-14T13:23:47Z</time>
      </trkpt>
      <trkpt lat="43.39069" lon="6.11274">
        <ele>292.39999389648</ele>
        <time>2013-09-14T13:23:49Z</time>
      </trkpt>
      <trkpt lat="43.39067" lon="6.11272">
        <ele>293.20001220703</ele>
        <time>2013-09-14T13:23:51Z</time>
      </trkpt>
      <trkpt lat="43.39065" lon="6.11269">
        <ele>293.20001220703</ele>
        <time>2013-09-14T13:23:54Z</time>
      </trkpt>
      <trkpt lat="43.39065" lon="6.11269">
        <ele>293.20001220703</ele>
        <time>2013-09-14T13:23:58Z</time>
      </trkpt>
      <trkpt lat="43.39065" lon="6.11269">
        <ele>293.20001220703</ele>
        <time>2013-09-14T13:24:23Z</time>
      </trkpt>
      <trkpt lat="43.39065" lon="6.11269">
        <ele>293.20001220703</ele>
        <time>2013-09-14T13:24:45Z</time>
      </trkpt>
      <trkpt lat="43.39065" lon="6.11269">
        <ele>293.20001220703</ele>
        <time>2013-09-14T13:25:15Z</time>
      </trkpt>
      <trkpt lat="43.39062" lon="6.11261">
        <ele>293.20001220703</ele>
        <time>2013-09-14T13:25:22Z</time>
      </trkpt>
      <trkpt lat="43.39056" lon="6.11252">
        <ele>293.20001220703</ele>
        <time>2013-09-14T13:25:26Z</time>
      </trkpt>
      <trkpt lat="43.39055" lon="6.1125">
        <ele>293.20001220703</ele>
        <time>2013-09-14T13:25:27Z</time>
      </trkpt>
      <trkpt lat="43.39046" lon="6.1124">
        <ele>293.20001220703</ele>
        <time>2013-09-14T13:25:31Z</time>
      </trkpt>
      <trkpt lat="43.3904" lon="6.1123">
        <ele>293.20001220703</ele>
        <time>2013-09-14T13:25:34Z</time>
      </trkpt>
      <trkpt lat="43.3903" lon="6.11208">
        <ele>293.20001220703</ele>
        <time>2013-09-14T13:25:40Z</time>
      </trkpt>
      <trkpt lat="43.39019" lon="6.11194">
        <ele>292.39999389648</ele>
        <time>2013-09-14T13:25:45Z</time>
      </trkpt>
      <trkpt lat="43.39009" lon="6.1119">
        <ele>291.20001220703</ele>
        <time>2013-09-14T13:25:48Z</time>
      </trkpt>
      <trkpt lat="43.39004" lon="6.1119">
        <ele>291.20001220703</ele>
        <time>2013-09-14T13:25:50Z</time>
      </trkpt>
      <trkpt lat="43.39001" lon="6.11189">
        <ele>290.79998779297</ele>
        <time>2013-09-14T13:25:51Z</time>
      </trkpt>
      <trkpt lat="43.38997" lon="6.11188">
        <ele>290.39999389648</ele>
        <time>2013-09-14T13:25:52Z</time>
      </trkpt>
      <trkpt lat="43.3899" lon="6.11189">
        <ele>289.60000610352</ele>
        <time>2013-09-14T13:25:54Z</time>
      </trkpt>
      <trkpt lat="43.38987" lon="6.11189">
        <ele>289.20001220703</ele>
        <time>2013-09-14T13:25:55Z</time>
      </trkpt>
      <trkpt lat="43.38983" lon="6.11189">
        <ele>288.60000610352</ele>
        <time>2013-09-14T13:25:56Z</time>
      </trkpt>
      <trkpt lat="43.38979" lon="6.11189">
        <ele>287.60000610352</ele>
        <time>2013-09-14T13:25:57Z</time>
      </trkpt>
      <trkpt lat="43.38974" lon="6.11188">
        <ele>287.20001220703</ele>
        <time>2013-09-14T13:25:58Z</time>
      </trkpt>
      <trkpt lat="43.38969" lon="6.11188">
        <ele>286.60000610352</ele>
        <time>2013-09-14T13:25:59Z</time>
      </trkpt>
      <trkpt lat="43.3896" lon="6.1119">
        <ele>285.60000610352</ele>
        <time>2013-09-14T13:26:01Z</time>
      </trkpt>
      <trkpt lat="43.38953" lon="6.11191">
        <ele>285.20001220703</ele>
        <time>2013-09-14T13:26:02Z</time>
      </trkpt>
      <trkpt lat="43.38948" lon="6.11191">
        <ele>284.60000610352</ele>
        <time>2013-09-14T13:26:03Z</time>
      </trkpt>
      <trkpt lat="43.38945" lon="6.11191">
        <ele>284.20001220703</ele>
        <time>2013-09-14T13:26:04Z</time>
      </trkpt>
      <trkpt lat="43.38942" lon="6.1119">
        <ele>283.79998779297</ele>
        <time>2013-09-14T13:26:07Z</time>
      </trkpt>
      <trkpt lat="43.38942" lon="6.1119">
        <ele>282</ele>
        <time>2013-09-14T13:26:20Z</time>
      </trkpt>
      <trkpt lat="43.38939" lon="6.11189">
        <ele>282</ele>
        <time>2013-09-14T13:26:33Z</time>
      </trkpt>
      <trkpt lat="43.38926" lon="6.11185">
        <ele>282</ele>
        <time>2013-09-14T13:26:38Z</time>
      </trkpt>
      <trkpt lat="43.38908" lon="6.1118">
        <ele>282</ele>
        <time>2013-09-14T13:26:44Z</time>
      </trkpt>
      <trkpt lat="43.38889" lon="6.11176">
        <ele>282</ele>
        <time>2013-09-14T13:26:51Z</time>
      </trkpt>
      <trkpt lat="43.38876" lon="6.11175">
        <ele>282</ele>
        <time>2013-09-14T13:26:56Z</time>
      </trkpt>
      <trkpt lat="43.38863" lon="6.11173">
        <ele>282</ele>
        <time>2013-09-14T13:27:01Z</time>
      </trkpt>
      <trkpt lat="43.38851" lon="6.11171">
        <ele>282</ele>
        <time>2013-09-14T13:27:05Z</time>
      </trkpt>
      <trkpt lat="43.38841" lon="6.11167">
        <ele>282.79998779297</ele>
        <time>2013-09-14T13:27:09Z</time>
      </trkpt>
      <trkpt lat="43.38836" lon="6.11163">
        <ele>283.60000610352</ele>
        <time>2013-09-14T13:27:11Z</time>
      </trkpt>
      <trkpt lat="43.38813" lon="6.11149">
        <ele>284.20001220703</ele>
        <time>2013-09-14T13:27:20Z</time>
      </trkpt>
      <trkpt lat="43.38801" lon="6.11141">
        <ele>284.20001220703</ele>
        <time>2013-09-14T13:27:25Z</time>
      </trkpt>
      <trkpt lat="43.38789" lon="6.1113">
        <ele>284.20001220703</ele>
        <time>2013-09-14T13:27:30Z</time>
      </trkpt>
      <trkpt lat="43.38778" lon="6.11124">
        <ele>284.60000610352</ele>
        <time>2013-09-14T13:27:34Z</time>
      </trkpt>
      <trkpt lat="43.38773" lon="6.11122">
        <ele>285.79998779297</ele>
        <time>2013-09-14T13:27:36Z</time>
      </trkpt>
      <trkpt lat="43.38753" lon="6.11118">
        <ele>286.20001220703</ele>
        <time>2013-09-14T13:27:43Z</time>
      </trkpt>
      <trkpt lat="43.38736" lon="6.11111">
        <ele>286.20001220703</ele>
        <time>2013-09-14T13:27:49Z</time>
      </trkpt>
      <trkpt lat="43.3872" lon="6.11106">
        <ele>286.20001220703</ele>
        <time>2013-09-14T13:27:55Z</time>
      </trkpt>
      <trkpt lat="43.38712" lon="6.11101">
        <ele>286.20001220703</ele>
        <time>2013-09-14T13:27:59Z</time>
      </trkpt>
      <trkpt lat="43.38712" lon="6.11099">
        <ele>286.20001220703</ele>
        <time>2013-09-14T13:28:00Z</time>
      </trkpt>
      <trkpt lat="43.38711" lon="6.1109">
        <ele>286.20001220703</ele>
        <time>2013-09-14T13:28:05Z</time>
      </trkpt>
      <trkpt lat="43.38709" lon="6.11075">
        <ele>286.20001220703</ele>
        <time>2013-09-14T13:28:10Z</time>
      </trkpt>
      <trkpt lat="43.38706" lon="6.11069">
        <ele>286.20001220703</ele>
        <time>2013-09-14T13:28:12Z</time>
      </trkpt>
      <trkpt lat="43.38699" lon="6.11063">
        <ele>286.20001220703</ele>
        <time>2013-09-14T13:28:16Z</time>
      </trkpt>
      <trkpt lat="43.38692" lon="6.11057">
        <ele>286.20001220703</ele>
        <time>2013-09-14T13:28:20Z</time>
      </trkpt>
      <trkpt lat="43.38681" lon="6.11046">
        <ele>287</ele>
        <time>2013-09-14T13:28:26Z</time>
      </trkpt>
      <trkpt lat="43.38678" lon="6.11044">
        <ele>287.79998779297</ele>
        <time>2013-09-14T13:28:28Z</time>
      </trkpt>
      <trkpt lat="43.38662" lon="6.1103">
        <ele>288.20001220703</ele>
        <time>2013-09-14T13:28:37Z</time>
      </trkpt>
      <trkpt lat="43.38654" lon="6.11023">
        <ele>288.20001220703</ele>
        <time>2013-09-14T13:28:43Z</time>
      </trkpt>
      <trkpt lat="43.38649" lon="6.11017">
        <ele>289</ele>
        <time>2013-09-14T13:28:46Z</time>
      </trkpt>
      <trkpt lat="43.38641" lon="6.11014">
        <ele>290.39999389648</ele>
        <time>2013-09-14T13:28:50Z</time>
      </trkpt>
      <trkpt lat="43.38633" lon="6.11007">
        <ele>290.79998779297</ele>
        <time>2013-09-14T13:28:55Z</time>
      </trkpt>
      <trkpt lat="43.3863" lon="6.11003">
        <ele>291.60000610352</ele>
        <time>2013-09-14T13:28:57Z</time>
      </trkpt>
      <trkpt lat="43.38629" lon="6.11002">
        <ele>292</ele>
        <time>2013-09-14T13:28:58Z</time>
      </trkpt>
      <trkpt lat="43.38622" lon="6.10997">
        <ele>292.39999389648</ele>
        <time>2013-09-14T13:29:02Z</time>
      </trkpt>
      <trkpt lat="43.38618" lon="6.10994">
        <ele>292.39999389648</ele>
        <time>2013-09-14T13:29:04Z</time>
      </trkpt>
      <trkpt lat="43.38605" lon="6.10987">
        <ele>292.39999389648</ele>
        <time>2013-09-14T13:29:09Z</time>
      </trkpt>
      <trkpt lat="43.38601" lon="6.10987">
        <ele>292.39999389648</ele>
        <time>2013-09-14T13:29:11Z</time>
      </trkpt>
      <trkpt lat="43.38589" lon="6.10988">
        <ele>292.39999389648</ele>
        <time>2013-09-14T13:29:14Z</time>
      </trkpt>
      <trkpt lat="43.3857" lon="6.10988">
        <ele>292.39999389648</ele>
        <time>2013-09-14T13:29:19Z</time>
      </trkpt>
      <trkpt lat="43.3856" lon="6.10987">
        <ele>292.39999389648</ele>
        <time>2013-09-14T13:29:21Z</time>
      </trkpt>
      <trkpt lat="43.38551" lon="6.10984">
        <ele>291.60000610352</ele>
        <time>2013-09-14T13:29:23Z</time>
      </trkpt>
      <trkpt lat="43.38546" lon="6.10981">
        <ele>291</ele>
        <time>2013-09-14T13:29:24Z</time>
      </trkpt>
      <trkpt lat="43.3854" lon="6.10978">
        <ele>290.60000610352</ele>
        <time>2013-09-14T13:29:25Z</time>
      </trkpt>
      <trkpt lat="43.38535" lon="6.10975">
        <ele>290.20001220703</ele>
        <time>2013-09-14T13:29:26Z</time>
      </trkpt>
      <trkpt lat="43.3853" lon="6.10973">
        <ele>290.20001220703</ele>
        <time>2013-09-14T13:29:27Z</time>
      </trkpt>
      <trkpt lat="43.38519" lon="6.10969">
        <ele>290.20001220703</ele>
        <time>2013-09-14T13:29:29Z</time>
      </trkpt>
      <trkpt lat="43.38511" lon="6.10968">
        <ele>289.79998779297</ele>
        <time>2013-09-14T13:29:30Z</time>
      </trkpt>
      <trkpt lat="43.38504" lon="6.10966">
        <ele>289.20001220703</ele>
        <time>2013-09-14T13:29:31Z</time>
      </trkpt>
      <trkpt lat="43.38498" lon="6.10965">
        <ele>288.79998779297</ele>
        <time>2013-09-14T13:29:32Z</time>
      </trkpt>
      <trkpt lat="43.38493" lon="6.10963">
        <ele>288.39999389648</ele>
        <time>2013-09-14T13:29:33Z</time>
      </trkpt>
      <trkpt lat="43.38489" lon="6.10962">
        <ele>287.79998779297</ele>
        <time>2013-09-14T13:29:34Z</time>
      </trkpt>
      <trkpt lat="43.38481" lon="6.1096">
        <ele>286.79998779297</ele>
        <time>2013-09-14T13:29:36Z</time>
      </trkpt>
      <trkpt lat="43.38478" lon="6.10959">
        <ele>286.20001220703</ele>
        <time>2013-09-14T13:29:37Z</time>
      </trkpt>
      <trkpt lat="43.38476" lon="6.10958">
        <ele>285.60000610352</ele>
        <time>2013-09-14T13:29:38Z</time>
      </trkpt>
      <trkpt lat="43.38474" lon="6.10958">
        <ele>285.60000610352</ele>
        <time>2013-09-14T13:29:40Z</time>
      </trkpt>
      <trkpt lat="43.38471" lon="6.10957">
        <ele>285.60000610352</ele>
        <time>2013-09-14T13:29:43Z</time>
      </trkpt>
      <trkpt lat="43.38456" lon="6.10956">
        <ele>285.20001220703</ele>
        <time>2013-09-14T13:29:49Z</time>
      </trkpt>
      <trkpt lat="43.38449" lon="6.10956">
        <ele>284.39999389648</ele>
        <time>2013-09-14T13:29:51Z</time>
      </trkpt>
      <trkpt lat="43.38446" lon="6.10955">
        <ele>284</ele>
        <time>2013-09-14T13:29:52Z</time>
      </trkpt>
      <trkpt lat="43.38442" lon="6.10955">
        <ele>283.60000610352</ele>
        <time>2013-09-14T13:29:53Z</time>
      </trkpt>
      <trkpt lat="43.38427" lon="6.10952">
        <ele>283.60000610352</ele>
        <time>2013-09-14T13:29:57Z</time>
      </trkpt>
      <trkpt lat="43.384" lon="6.10945">
        <ele>283.60000610352</ele>
        <time>2013-09-14T13:30:04Z</time>
      </trkpt>
      <trkpt lat="43.38391" lon="6.10943">
        <ele>283.60000610352</ele>
        <time>2013-09-14T13:30:06Z</time>
      </trkpt>
      <trkpt lat="43.38379" lon="6.1094">
        <ele>283.20001220703</ele>
        <time>2013-09-14T13:30:09Z</time>
      </trkpt>
      <trkpt lat="43.38354" lon="6.10935">
        <ele>281.60000610352</ele>
        <time>2013-09-14T13:30:17Z</time>
      </trkpt>
      <trkpt lat="43.38334" lon="6.10929">
        <ele>281.60000610352</ele>
        <time>2013-09-14T13:30:23Z</time>
      </trkpt>
      <trkpt lat="43.38305" lon="6.10918">
        <ele>281.60000610352</ele>
        <time>2013-09-14T13:30:31Z</time>
      </trkpt>
      <trkpt lat="43.38271" lon="6.10907">
        <ele>281.60000610352</ele>
        <time>2013-09-14T13:30:41Z</time>
      </trkpt>
      <trkpt lat="43.38243" lon="6.10899">
        <ele>281.60000610352</ele>
        <time>2013-09-14T13:30:49Z</time>
      </trkpt>
      <trkpt lat="43.38234" lon="6.10896">
        <ele>280.39999389648</ele>
        <time>2013-09-14T13:30:52Z</time>
      </trkpt>
      <trkpt lat="43.38231" lon="6.10895">
        <ele>280</ele>
        <time>2013-09-14T13:30:53Z</time>
      </trkpt>
      <trkpt lat="43.38219" lon="6.10891">
        <ele>279.60000610352</ele>
        <time>2013-09-14T13:30:57Z</time>
      </trkpt>
      <trkpt lat="43.38201" lon="6.10886">
        <ele>279.60000610352</ele>
        <time>2013-09-14T13:31:04Z</time>
      </trkpt>
      <trkpt lat="43.38198" lon="6.10887">
        <ele>279.60000610352</ele>
        <time>2013-09-14T13:31:05Z</time>
      </trkpt>
      <trkpt lat="43.38197" lon="6.10891">
        <ele>279.60000610352</ele>
        <time>2013-09-14T13:31:06Z</time>
      </trkpt>
      <trkpt lat="43.38195" lon="6.10898">
        <ele>279.60000610352</ele>
        <time>2013-09-14T13:31:08Z</time>
      </trkpt>
      <trkpt lat="43.38191" lon="6.10926">
        <ele>279.60000610352</ele>
        <time>2013-09-14T13:31:16Z</time>
      </trkpt>
      <trkpt lat="43.38187" lon="6.10953">
        <ele>280.39999389648</ele>
        <time>2013-09-14T13:31:23Z</time>
      </trkpt>
      <trkpt lat="43.38184" lon="6.10964">
        <ele>281.60000610352</ele>
        <time>2013-09-14T13:31:26Z</time>
      </trkpt>
      <trkpt lat="43.38178" lon="6.10993">
        <ele>281.60000610352</ele>
        <time>2013-09-14T13:31:34Z</time>
      </trkpt>
      <trkpt lat="43.38172" lon="6.11026">
        <ele>282</ele>
        <time>2013-09-14T13:31:44Z</time>
      </trkpt>
      <trkpt lat="43.38171" lon="6.11036">
        <ele>283.39999389648</ele>
        <time>2013-09-14T13:31:47Z</time>
      </trkpt>
      <trkpt lat="43.3817" lon="6.11039">
        <ele>283.79998779297</ele>
        <time>2013-09-14T13:31:48Z</time>
      </trkpt>
      <trkpt lat="43.38165" lon="6.1106">
        <ele>283.79998779297</ele>
        <time>2013-09-14T13:31:54Z</time>
      </trkpt>
      <trkpt lat="43.38158" lon="6.11082">
        <ele>283.79998779297</ele>
        <time>2013-09-14T13:32:01Z</time>
      </trkpt>
      <trkpt lat="43.38148" lon="6.11106">
        <ele>285</ele>
        <time>2013-09-14T13:32:09Z</time>
      </trkpt>
      <trkpt lat="43.38145" lon="6.11112">
        <ele>285.79998779297</ele>
        <time>2013-09-14T13:32:11Z</time>
      </trkpt>
      <trkpt lat="43.38131" lon="6.11129">
        <ele>285.79998779297</ele>
        <time>2013-09-14T13:32:19Z</time>
      </trkpt>
      <trkpt lat="43.38121" lon="6.11138">
        <ele>285.79998779297</ele>
        <time>2013-09-14T13:32:26Z</time>
      </trkpt>
      <trkpt lat="43.38118" lon="6.11151">
        <ele>286.20001220703</ele>
        <time>2013-09-14T13:32:32Z</time>
      </trkpt>
      <trkpt lat="43.38118" lon="6.11153">
        <ele>286.60000610352</ele>
        <time>2013-09-14T13:32:33Z</time>
      </trkpt>
      <trkpt lat="43.3812" lon="6.1116">
        <ele>287.79998779297</ele>
        <time>2013-09-14T13:32:36Z</time>
      </trkpt>
      <trkpt lat="43.38122" lon="6.11183">
        <ele>287.79998779297</ele>
        <time>2013-09-14T13:32:45Z</time>
      </trkpt>
      <trkpt lat="43.38122" lon="6.11202">
        <ele>287.79998779297</ele>
        <time>2013-09-14T13:32:52Z</time>
      </trkpt>
      <trkpt lat="43.38122" lon="6.11217">
        <ele>287.79998779297</ele>
        <time>2013-09-14T13:32:58Z</time>
      </trkpt>
      <trkpt lat="43.38121" lon="6.11232">
        <ele>288.20001220703</ele>
        <time>2013-09-14T13:33:03Z</time>
      </trkpt>
      <trkpt lat="43.3812" lon="6.11239">
        <ele>289.39999389648</ele>
        <time>2013-09-14T13:33:06Z</time>
      </trkpt>
      <trkpt lat="43.38119" lon="6.11261">
        <ele>289.79998779297</ele>
        <time>2013-09-14T13:33:15Z</time>
      </trkpt>
      <trkpt lat="43.38117" lon="6.11276">
        <ele>289.79998779297</ele>
        <time>2013-09-14T13:33:21Z</time>
      </trkpt>
      <trkpt lat="43.38117" lon="6.11291">
        <ele>289.79998779297</ele>
        <time>2013-09-14T13:33:26Z</time>
      </trkpt>
      <trkpt lat="43.38117" lon="6.11304">
        <ele>290.20001220703</ele>
        <time>2013-09-14T13:33:31Z</time>
      </trkpt>
      <trkpt lat="43.38117" lon="6.11315">
        <ele>292</ele>
        <time>2013-09-14T13:33:35Z</time>
      </trkpt>
      <trkpt lat="43.38114" lon="6.11346">
        <ele>292</ele>
        <time>2013-09-14T13:33:46Z</time>
      </trkpt>
      <trkpt lat="43.38112" lon="6.11361">
        <ele>292</ele>
        <time>2013-09-14T13:33:51Z</time>
      </trkpt>
      <trkpt lat="43.38111" lon="6.11375">
        <ele>292</ele>
        <time>2013-09-14T13:33:56Z</time>
      </trkpt>
      <trkpt lat="43.38108" lon="6.11387">
        <ele>292.79998779297</ele>
        <time>2013-09-14T13:34:01Z</time>
      </trkpt>
      <trkpt lat="43.38107" lon="6.11395">
        <ele>294</ele>
        <time>2013-09-14T13:34:04Z</time>
      </trkpt>
      <trkpt lat="43.38102" lon="6.11424">
        <ele>294</ele>
        <time>2013-09-14T13:34:15Z</time>
      </trkpt>
      <trkpt lat="43.38097" lon="6.11439">
        <ele>294</ele>
        <time>2013-09-14T13:34:21Z</time>
      </trkpt>
      <trkpt lat="43.38091" lon="6.11465">
        <ele>294.79998779297</ele>
        <time>2013-09-14T13:34:31Z</time>
      </trkpt>
      <trkpt lat="43.3809" lon="6.11475">
        <ele>296</ele>
        <time>2013-09-14T13:34:34Z</time>
      </trkpt>
      <trkpt lat="43.38089" lon="6.11492">
        <ele>296</ele>
        <time>2013-09-14T13:34:40Z</time>
      </trkpt>
      <trkpt lat="43.38085" lon="6.11513">
        <ele>296</ele>
        <time>2013-09-14T13:34:47Z</time>
      </trkpt>
      <trkpt lat="43.38083" lon="6.11551">
        <ele>296.79998779297</ele>
        <time>2013-09-14T13:35:00Z</time>
      </trkpt>
      <trkpt lat="43.38083" lon="6.11577">
        <ele>298.20001220703</ele>
        <time>2013-09-14T13:35:09Z</time>
      </trkpt>
      <trkpt lat="43.38082" lon="6.11601">
        <ele>298.20001220703</ele>
        <time>2013-09-14T13:35:17Z</time>
      </trkpt>
      <trkpt lat="43.38081" lon="6.11625">
        <ele>298.20001220703</ele>
        <time>2013-09-14T13:35:25Z</time>
      </trkpt>
      <trkpt lat="43.38078" lon="6.11646">
        <ele>300.20001220703</ele>
        <time>2013-09-14T13:35:33Z</time>
      </trkpt>
      <trkpt lat="43.38076" lon="6.11659">
        <ele>300.20001220703</ele>
        <time>2013-09-14T13:35:38Z</time>
      </trkpt>
      <trkpt lat="43.38074" lon="6.11673">
        <ele>300.20001220703</ele>
        <time>2013-09-14T13:35:44Z</time>
      </trkpt>
      <trkpt lat="43.38073" lon="6.11691">
        <ele>300.60000610352</ele>
        <time>2013-09-14T13:35:51Z</time>
      </trkpt>
      <trkpt lat="43.38071" lon="6.117">
        <ele>301.79998779297</ele>
        <time>2013-09-14T13:35:54Z</time>
      </trkpt>
      <trkpt lat="43.3807" lon="6.11712">
        <ele>302.39999389648</ele>
        <time>2013-09-14T13:35:59Z</time>
      </trkpt>
      <trkpt lat="43.38069" lon="6.11731">
        <ele>302.39999389648</ele>
        <time>2013-09-14T13:36:07Z</time>
      </trkpt>
      <trkpt lat="43.3807" lon="6.11752">
        <ele>303.20001220703</ele>
        <time>2013-09-14T13:36:16Z</time>
      </trkpt>
      <trkpt lat="43.38069" lon="6.11757">
        <ele>304</ele>
        <time>2013-09-14T13:36:18Z</time>
      </trkpt>
      <trkpt lat="43.38072" lon="6.11776">
        <ele>304.39999389648</ele>
        <time>2013-09-14T13:36:27Z</time>
      </trkpt>
      <trkpt lat="43.38076" lon="6.11788">
        <ele>304.39999389648</ele>
        <time>2013-09-14T13:36:33Z</time>
      </trkpt>
      <trkpt lat="43.38078" lon="6.11801">
        <ele>305.60000610352</ele>
        <time>2013-09-14T13:36:39Z</time>
      </trkpt>
      <trkpt lat="43.38079" lon="6.11806">
        <ele>306.39999389648</ele>
        <time>2013-09-14T13:36:41Z</time>
      </trkpt>
      <trkpt lat="43.38079" lon="6.11814">
        <ele>306.39999389648</ele>
        <time>2013-09-14T13:36:45Z</time>
      </trkpt>
      <trkpt lat="43.38078" lon="6.11848">
        <ele>307.60000610352</ele>
        <time>2013-09-14T13:37:01Z</time>
      </trkpt>
      <trkpt lat="43.38079" lon="6.11857">
        <ele>308.60000610352</ele>
        <time>2013-09-14T13:37:06Z</time>
      </trkpt>
      <trkpt lat="43.38079" lon="6.11871">
        <ele>308.60000610352</ele>
        <time>2013-09-14T13:37:13Z</time>
      </trkpt>
      <trkpt lat="43.38078" lon="6.11883">
        <ele>308.60000610352</ele>
        <time>2013-09-14T13:37:19Z</time>
      </trkpt>
      <trkpt lat="43.38077" lon="6.1189">
        <ele>309</ele>
        <time>2013-09-14T13:37:23Z</time>
      </trkpt>
      <trkpt lat="43.38078" lon="6.11892">
        <ele>309.39999389648</ele>
        <time>2013-09-14T13:37:24Z</time>
      </trkpt>
      <trkpt lat="43.38078" lon="6.11901">
        <ele>310.60000610352</ele>
        <time>2013-09-14T13:37:27Z</time>
      </trkpt>
      <trkpt lat="43.38077" lon="6.11913">
        <ele>310.60000610352</ele>
        <time>2013-09-14T13:37:32Z</time>
      </trkpt>
      <trkpt lat="43.38077" lon="6.11918">
        <ele>310.60000610352</ele>
        <time>2013-09-14T13:37:34Z</time>
      </trkpt>
      <trkpt lat="43.38077" lon="6.11925">
        <ele>310.60000610352</ele>
        <time>2013-09-14T13:37:38Z</time>
      </trkpt>
      <trkpt lat="43.38076" lon="6.11928">
        <ele>310.60000610352</ele>
        <time>2013-09-14T13:37:39Z</time>
      </trkpt>
      <trkpt lat="43.38076" lon="6.11949">
        <ele>312.79998779297</ele>
        <time>2013-09-14T13:37:48Z</time>
      </trkpt>
      <trkpt lat="43.38075" lon="6.11956">
        <ele>312.79998779297</ele>
        <time>2013-09-14T13:37:51Z</time>
      </trkpt>
      <trkpt lat="43.38076" lon="6.11972">
        <ele>313.20001220703</ele>
        <time>2013-09-14T13:37:58Z</time>
      </trkpt>
      <trkpt lat="43.38074" lon="6.11979">
        <ele>314.79998779297</ele>
        <time>2013-09-14T13:38:02Z</time>
      </trkpt>
      <trkpt lat="43.38072" lon="6.11986">
        <ele>314.79998779297</ele>
        <time>2013-09-14T13:38:06Z</time>
      </trkpt>
      <trkpt lat="43.3807" lon="6.11993">
        <ele>315.20001220703</ele>
        <time>2013-09-14T13:38:09Z</time>
      </trkpt>
      <trkpt lat="43.3807" lon="6.11997">
        <ele>316.20001220703</ele>
        <time>2013-09-14T13:38:11Z</time>
      </trkpt>
      <trkpt lat="43.38069" lon="6.12002">
        <ele>317</ele>
        <time>2013-09-14T13:38:13Z</time>
      </trkpt>
      <trkpt lat="43.38068" lon="6.12017">
        <ele>317.79998779297</ele>
        <time>2013-09-14T13:38:19Z</time>
      </trkpt>
      <trkpt lat="43.38067" lon="6.12023">
        <ele>319.20001220703</ele>
        <time>2013-09-14T13:38:22Z</time>
      </trkpt>
      <trkpt lat="43.38067" lon="6.12027">
        <ele>319.20001220703</ele>
        <time>2013-09-14T13:38:24Z</time>
      </trkpt>
      <trkpt lat="43.38068" lon="6.12033">
        <ele>319.60000610352</ele>
        <time>2013-09-14T13:38:28Z</time>
      </trkpt>
      <trkpt lat="43.38068" lon="6.12035">
        <ele>320</ele>
        <time>2013-09-14T13:38:29Z</time>
      </trkpt>
      <trkpt lat="43.38068" lon="6.12037">
        <ele>320.39999389648</ele>
        <time>2013-09-14T13:38:30Z</time>
      </trkpt>
      <trkpt lat="43.38067" lon="6.1204">
        <ele>321.20001220703</ele>
        <time>2013-09-14T13:38:32Z</time>
      </trkpt>
      <trkpt lat="43.38065" lon="6.12051">
        <ele>321.20001220703</ele>
        <time>2013-09-14T13:38:39Z</time>
      </trkpt>
      <trkpt lat="43.38063" lon="6.12066">
        <ele>322.79998779297</ele>
        <time>2013-09-14T13:38:48Z</time>
      </trkpt>
      <trkpt lat="43.38059" lon="6.12097">
        <ele>323.20001220703</ele>
        <time>2013-09-14T13:39:03Z</time>
      </trkpt>
      <trkpt lat="43.38056" lon="6.12112">
        <ele>323.20001220703</ele>
        <time>2013-09-14T13:39:10Z</time>
      </trkpt>
      <trkpt lat="43.38052" lon="6.12121">
        <ele>323.60000610352</ele>
        <time>2013-09-14T13:39:15Z</time>
      </trkpt>
      <trkpt lat="43.38048" lon="6.12124">
        <ele>324.39999389648</ele>
        <time>2013-09-14T13:39:17Z</time>
      </trkpt>
      <trkpt lat="43.38046" lon="6.12127">
        <ele>324.79998779297</ele>
        <time>2013-09-14T13:39:18Z</time>
      </trkpt>
      <trkpt lat="43.38042" lon="6.12135">
        <ele>325.20001220703</ele>
        <time>2013-09-14T13:39:21Z</time>
      </trkpt>
      <trkpt lat="43.38041" lon="6.12139">
        <ele>325.60000610352</ele>
        <time>2013-09-14T13:39:22Z</time>
      </trkpt>
      <trkpt lat="43.38041" lon="6.12141">
        <ele>326</ele>
        <time>2013-09-14T13:39:23Z</time>
      </trkpt>
      <trkpt lat="43.3804" lon="6.12146">
        <ele>326.79998779297</ele>
        <time>2013-09-14T13:39:25Z</time>
      </trkpt>
      <trkpt lat="43.38036" lon="6.12166">
        <ele>327.20001220703</ele>
        <time>2013-09-14T13:39:34Z</time>
      </trkpt>
      <trkpt lat="43.38034" lon="6.12179">
        <ele>327.60000610352</ele>
        <time>2013-09-14T13:39:40Z</time>
      </trkpt>
      <trkpt lat="43.38033" lon="6.12184">
        <ele>328.79998779297</ele>
        <time>2013-09-14T13:39:43Z</time>
      </trkpt>
      <trkpt lat="43.38032" lon="6.12188">
        <ele>329.20001220703</ele>
        <time>2013-09-14T13:39:45Z</time>
      </trkpt>
      <trkpt lat="43.38034" lon="6.12199">
        <ele>329.20001220703</ele>
        <time>2013-09-14T13:39:51Z</time>
      </trkpt>
      <trkpt lat="43.38037" lon="6.12216">
        <ele>329.20001220703</ele>
        <time>2013-09-14T13:39:58Z</time>
      </trkpt>
      <trkpt lat="43.38039" lon="6.12223">
        <ele>329.20001220703</ele>
        <time>2013-09-14T13:40:01Z</time>
      </trkpt>
      <trkpt lat="43.38043" lon="6.12231">
        <ele>329.20001220703</ele>
        <time>2013-09-14T13:40:05Z</time>
      </trkpt>
      <trkpt lat="43.38048" lon="6.12243">
        <ele>331</ele>
        <time>2013-09-14T13:40:10Z</time>
      </trkpt>
      <trkpt lat="43.3805" lon="6.12248">
        <ele>331.39999389648</ele>
        <time>2013-09-14T13:40:12Z</time>
      </trkpt>
      <trkpt lat="43.3805" lon="6.1225">
        <ele>331.39999389648</ele>
        <time>2013-09-14T13:40:13Z</time>
      </trkpt>
      <trkpt lat="43.3805" lon="6.12258">
        <ele>331.39999389648</ele>
        <time>2013-09-14T13:40:17Z</time>
      </trkpt>
      <trkpt lat="43.3805" lon="6.1227">
        <ele>331.39999389648</ele>
        <time>2013-09-14T13:40:21Z</time>
      </trkpt>
      <trkpt lat="43.3805" lon="6.12281">
        <ele>332.20001220703</ele>
        <time>2013-09-14T13:40:24Z</time>
      </trkpt>
      <trkpt lat="43.3805" lon="6.12289">
        <ele>333</ele>
        <time>2013-09-14T13:40:26Z</time>
      </trkpt>
      <trkpt lat="43.3805" lon="6.12292">
        <ele>333.60000610352</ele>
        <time>2013-09-14T13:40:27Z</time>
      </trkpt>
      <trkpt lat="43.3805" lon="6.12297">
        <ele>333.60000610352</ele>
        <time>2013-09-14T13:40:29Z</time>
      </trkpt>
      <trkpt lat="43.3805" lon="6.12303">
        <ele>334.39999389648</ele>
        <time>2013-09-14T13:40:31Z</time>
      </trkpt>
      <trkpt lat="43.38052" lon="6.12311">
        <ele>335.60000610352</ele>
        <time>2013-09-14T13:40:34Z</time>
      </trkpt>
      <trkpt lat="43.38051" lon="6.12317">
        <ele>335.60000610352</ele>
        <time>2013-09-14T13:40:37Z</time>
      </trkpt>
      <trkpt lat="43.3805" lon="6.12321">
        <ele>335.60000610352</ele>
        <time>2013-09-14T13:40:39Z</time>
      </trkpt>
      <trkpt lat="43.38049" lon="6.12326">
        <ele>335.60000610352</ele>
        <time>2013-09-14T13:40:42Z</time>
      </trkpt>
      <trkpt lat="43.38047" lon="6.1233">
        <ele>335.60000610352</ele>
        <time>2013-09-14T13:40:44Z</time>
      </trkpt>
      <trkpt lat="43.38047" lon="6.1234">
        <ele>336</ele>
        <time>2013-09-14T13:40:48Z</time>
      </trkpt>
      <trkpt lat="43.38048" lon="6.12346">
        <ele>337.20001220703</ele>
        <time>2013-09-14T13:40:51Z</time>
      </trkpt>
      <trkpt lat="43.38048" lon="6.12361">
        <ele>337.60000610352</ele>
        <time>2013-09-14T13:40:58Z</time>
      </trkpt>
      <trkpt lat="43.38053" lon="6.12381">
        <ele>337.60000610352</ele>
        <time>2013-09-14T13:41:06Z</time>
      </trkpt>
      <trkpt lat="43.38054" lon="6.12386">
        <ele>338.79998779297</ele>
        <time>2013-09-14T13:41:08Z</time>
      </trkpt>
      <trkpt lat="43.38056" lon="6.12392">
        <ele>339.79998779297</ele>
        <time>2013-09-14T13:41:10Z</time>
      </trkpt>
      <trkpt lat="43.38058" lon="6.12402">
        <ele>340.20001220703</ele>
        <time>2013-09-14T13:41:14Z</time>
      </trkpt>
      <trkpt lat="43.38059" lon="6.12415">
        <ele>342.20001220703</ele>
        <time>2013-09-14T13:41:21Z</time>
      </trkpt>
      <trkpt lat="43.38059" lon="6.12417">
        <ele>342.60000610352</ele>
        <time>2013-09-14T13:41:22Z</time>
      </trkpt>
      <trkpt lat="43.38063" lon="6.12436">
        <ele>343.79998779297</ele>
        <time>2013-09-14T13:41:32Z</time>
      </trkpt>
      <trkpt lat="43.38063" lon="6.12443">
        <ele>344.20001220703</ele>
        <time>2013-09-14T13:41:35Z</time>
      </trkpt>
      <trkpt lat="43.38066" lon="6.12456">
        <ele>345.79998779297</ele>
        <time>2013-09-14T13:41:44Z</time>
      </trkpt>
      <trkpt lat="43.38066" lon="6.12457">
        <ele>345.79998779297</ele>
        <time>2013-09-14T13:41:45Z</time>
      </trkpt>
      <trkpt lat="43.38067" lon="6.12477">
        <ele>345.79998779297</ele>
        <time>2013-09-14T13:41:58Z</time>
      </trkpt>
      <trkpt lat="43.38066" lon="6.12492">
        <ele>346.60000610352</ele>
        <time>2013-09-14T13:42:08Z</time>
      </trkpt>
      <trkpt lat="43.38067" lon="6.12503">
        <ele>347.79998779297</ele>
        <time>2013-09-14T13:42:14Z</time>
      </trkpt>
      <trkpt lat="43.38066" lon="6.12512">
        <ele>347.79998779297</ele>
        <time>2013-09-14T13:42:19Z</time>
      </trkpt>
      <trkpt lat="43.38066" lon="6.12513">
        <ele>347.79998779297</ele>
        <time>2013-09-14T13:42:20Z</time>
      </trkpt>
      <trkpt lat="43.38064" lon="6.12521">
        <ele>347.79998779297</ele>
        <time>2013-09-14T13:42:24Z</time>
      </trkpt>
      <trkpt lat="43.38063" lon="6.12525">
        <ele>347.79998779297</ele>
        <time>2013-09-14T13:42:26Z</time>
      </trkpt>
      <trkpt lat="43.38063" lon="6.12532">
        <ele>348.20001220703</ele>
        <time>2013-09-14T13:42:31Z</time>
      </trkpt>
      <trkpt lat="43.38063" lon="6.12536">
        <ele>349.79998779297</ele>
        <time>2013-09-14T13:42:35Z</time>
      </trkpt>
      <trkpt lat="43.38061" lon="6.12548">
        <ele>349.79998779297</ele>
        <time>2013-09-14T13:42:44Z</time>
      </trkpt>
      <trkpt lat="43.3806" lon="6.12552">
        <ele>349.79998779297</ele>
        <time>2013-09-14T13:42:48Z</time>
      </trkpt>
      <trkpt lat="43.3806" lon="6.12553">
        <ele>349.79998779297</ele>
        <time>2013-09-14T13:42:55Z</time>
      </trkpt>
      <trkpt lat="43.38058" lon="6.12557">
        <ele>349.79998779297</ele>
        <time>2013-09-14T13:42:58Z</time>
      </trkpt>
      <trkpt lat="43.38058" lon="6.12563">
        <ele>349.79998779297</ele>
        <time>2013-09-14T13:43:01Z</time>
      </trkpt>
      <trkpt lat="43.38057" lon="6.1257">
        <ele>350.20001220703</ele>
        <time>2013-09-14T13:43:04Z</time>
      </trkpt>
      <trkpt lat="43.38057" lon="6.12574">
        <ele>351.20001220703</ele>
        <time>2013-09-14T13:43:06Z</time>
      </trkpt>
      <trkpt lat="43.38057" lon="6.12577">
        <ele>352</ele>
        <time>2013-09-14T13:43:08Z</time>
      </trkpt>
      <trkpt lat="43.38054" lon="6.12589">
        <ele>352</ele>
        <time>2013-09-14T13:43:14Z</time>
      </trkpt>
      <trkpt lat="43.38053" lon="6.12594">
        <ele>352.39999389648</ele>
        <time>2013-09-14T13:43:16Z</time>
      </trkpt>
      <trkpt lat="43.38052" lon="6.12598">
        <ele>353.20001220703</ele>
        <time>2013-09-14T13:43:18Z</time>
      </trkpt>
      <trkpt lat="43.38052" lon="6.12599">
        <ele>353.60000610352</ele>
        <time>2013-09-14T13:43:19Z</time>
      </trkpt>
      <trkpt lat="43.38052" lon="6.12602">
        <ele>354</ele>
        <time>2013-09-14T13:43:21Z</time>
      </trkpt>
      <trkpt lat="43.38051" lon="6.12603">
        <ele>354</ele>
        <time>2013-09-14T13:43:26Z</time>
      </trkpt>
      <trkpt lat="43.38051" lon="6.12603">
        <ele>354</ele>
        <time>2013-09-14T13:43:47Z</time>
      </trkpt>
      <trkpt lat="43.38052" lon="6.12603">
        <ele>354</ele>
        <time>2013-09-14T13:44:08Z</time>
      </trkpt>
      <trkpt lat="43.38052" lon="6.12603">
        <ele>354</ele>
        <time>2013-09-14T13:44:12Z</time>
      </trkpt>
      <trkpt lat="43.38052" lon="6.12606">
        <ele>354</ele>
        <time>2013-09-14T13:44:17Z</time>
      </trkpt>
      <trkpt lat="43.3805" lon="6.12618">
        <ele>354</ele>
        <time>2013-09-14T13:44:22Z</time>
      </trkpt>
      <trkpt lat="43.38047" lon="6.12627">
        <ele>354.39999389648</ele>
        <time>2013-09-14T13:44:26Z</time>
      </trkpt>
      <trkpt lat="43.38046" lon="6.1263">
        <ele>355.20001220703</ele>
        <time>2013-09-14T13:44:28Z</time>
      </trkpt>
      <trkpt lat="43.38044" lon="6.12634">
        <ele>356.20001220703</ele>
        <time>2013-09-14T13:44:30Z</time>
      </trkpt>
      <trkpt lat="43.3804" lon="6.12656">
        <ele>356.20001220703</ele>
        <time>2013-09-14T13:44:40Z</time>
      </trkpt>
      <trkpt lat="43.38037" lon="6.12665">
        <ele>357.39999389648</ele>
        <time>2013-09-14T13:44:44Z</time>
      </trkpt>
      <trkpt lat="43.38037" lon="6.12667">
        <ele>358</ele>
        <time>2013-09-14T13:44:45Z</time>
      </trkpt>
      <trkpt lat="43.38027" lon="6.12693">
        <ele>359.20001220703</ele>
        <time>2013-09-14T13:44:58Z</time>
      </trkpt>
      <trkpt lat="43.38023" lon="6.12708">
        <ele>360.39999389648</ele>
        <time>2013-09-14T13:45:05Z</time>
      </trkpt>
      <trkpt lat="43.38021" lon="6.1272">
        <ele>360.39999389648</ele>
        <time>2013-09-14T13:45:11Z</time>
      </trkpt>
      <trkpt lat="43.38016" lon="6.1274">
        <ele>362.60000610352</ele>
        <time>2013-09-14T13:45:22Z</time>
      </trkpt>
      <trkpt lat="43.38012" lon="6.1275">
        <ele>362.60000610352</ele>
        <time>2013-09-14T13:45:28Z</time>
      </trkpt>
      <trkpt lat="43.3801" lon="6.12758">
        <ele>362.60000610352</ele>
        <time>2013-09-14T13:45:32Z</time>
      </trkpt>
      <trkpt lat="43.38009" lon="6.12765">
        <ele>363</ele>
        <time>2013-09-14T13:45:35Z</time>
      </trkpt>
      <trkpt lat="43.38005" lon="6.12779">
        <ele>364.60000610352</ele>
        <time>2013-09-14T13:45:43Z</time>
      </trkpt>
      <trkpt lat="43.38002" lon="6.12795">
        <ele>364.60000610352</ele>
        <time>2013-09-14T13:45:50Z</time>
      </trkpt>
      <trkpt lat="43.37999" lon="6.12814">
        <ele>366.20001220703</ele>
        <time>2013-09-14T13:45:59Z</time>
      </trkpt>
      <trkpt lat="43.37995" lon="6.1282">
        <ele>366.60000610352</ele>
        <time>2013-09-14T13:46:03Z</time>
      </trkpt>
      <trkpt lat="43.37992" lon="6.12831">
        <ele>366.60000610352</ele>
        <time>2013-09-14T13:46:08Z</time>
      </trkpt>
      <trkpt lat="43.37992" lon="6.12833">
        <ele>366.60000610352</ele>
        <time>2013-09-14T13:46:09Z</time>
      </trkpt>
      <trkpt lat="43.37991" lon="6.12845">
        <ele>367.39999389648</ele>
        <time>2013-09-14T13:46:15Z</time>
      </trkpt>
      <trkpt lat="43.37989" lon="6.12857">
        <ele>368.60000610352</ele>
        <time>2013-09-14T13:46:21Z</time>
      </trkpt>
      <trkpt lat="43.37986" lon="6.12867">
        <ele>368.60000610352</ele>
        <time>2013-09-14T13:46:27Z</time>
      </trkpt>
      <trkpt lat="43.37986" lon="6.12871">
        <ele>369.60000610352</ele>
        <time>2013-09-14T13:46:29Z</time>
      </trkpt>
      <trkpt lat="43.37984" lon="6.12879">
        <ele>370.79998779297</ele>
        <time>2013-09-14T13:46:33Z</time>
      </trkpt>
      <trkpt lat="43.37982" lon="6.12888">
        <ele>370.79998779297</ele>
        <time>2013-09-14T13:46:39Z</time>
      </trkpt>
      <trkpt lat="43.37981" lon="6.12892">
        <ele>371.20001220703</ele>
        <time>2013-09-14T13:46:42Z</time>
      </trkpt>
      <trkpt lat="43.37981" lon="6.12894">
        <ele>371.60000610352</ele>
        <time>2013-09-14T13:46:43Z</time>
      </trkpt>
      <trkpt lat="43.37981" lon="6.12896">
        <ele>372</ele>
        <time>2013-09-14T13:46:44Z</time>
      </trkpt>
      <trkpt lat="43.37981" lon="6.12898">
        <ele>372.39999389648</ele>
        <time>2013-09-14T13:46:45Z</time>
      </trkpt>
      <trkpt lat="43.37981" lon="6.12899">
        <ele>372.79998779297</ele>
        <time>2013-09-14T13:46:46Z</time>
      </trkpt>
      <trkpt lat="43.37981" lon="6.129">
        <ele>372.79998779297</ele>
        <time>2013-09-14T13:46:50Z</time>
      </trkpt>
      <trkpt lat="43.37981" lon="6.129">
        <ele>372.79998779297</ele>
        <time>2013-09-14T13:46:53Z</time>
      </trkpt>
      <trkpt lat="43.37981" lon="6.129">
        <ele>372.79998779297</ele>
        <time>2013-09-14T13:47:02Z</time>
      </trkpt>
      <trkpt lat="43.3798" lon="6.12903">
        <ele>372.79998779297</ele>
        <time>2013-09-14T13:47:07Z</time>
      </trkpt>
      <trkpt lat="43.37979" lon="6.12907">
        <ele>372.79998779297</ele>
        <time>2013-09-14T13:47:09Z</time>
      </trkpt>
      <trkpt lat="43.37975" lon="6.12915">
        <ele>372.79998779297</ele>
        <time>2013-09-14T13:47:14Z</time>
      </trkpt>
      <trkpt lat="43.37971" lon="6.12926">
        <ele>372.79998779297</ele>
        <time>2013-09-14T13:47:20Z</time>
      </trkpt>
      <trkpt lat="43.37967" lon="6.12935">
        <ele>374</ele>
        <time>2013-09-14T13:47:24Z</time>
      </trkpt>
      <trkpt lat="43.3796" lon="6.12945">
        <ele>375</ele>
        <time>2013-09-14T13:47:30Z</time>
      </trkpt>
      <trkpt lat="43.37959" lon="6.12947">
        <ele>375</ele>
        <time>2013-09-14T13:47:31Z</time>
      </trkpt>
      <trkpt lat="43.37958" lon="6.12956">
        <ele>375.79998779297</ele>
        <time>2013-09-14T13:47:36Z</time>
      </trkpt>
      <trkpt lat="43.37959" lon="6.1296">
        <ele>376.79998779297</ele>
        <time>2013-09-14T13:47:38Z</time>
      </trkpt>
      <trkpt lat="43.37958" lon="6.12976">
        <ele>377.20001220703</ele>
        <time>2013-09-14T13:47:43Z</time>
      </trkpt>
      <trkpt lat="43.37957" lon="6.12979">
        <ele>377.20001220703</ele>
        <time>2013-09-14T13:47:44Z</time>
      </trkpt>
      <trkpt lat="43.37952" lon="6.12989">
        <ele>377.20001220703</ele>
        <time>2013-09-14T13:47:50Z</time>
      </trkpt>
      <trkpt lat="43.37949" lon="6.12995">
        <ele>377.20001220703</ele>
        <time>2013-09-14T13:47:53Z</time>
      </trkpt>
      <trkpt lat="43.37948" lon="6.13">
        <ele>377.60000610352</ele>
        <time>2013-09-14T13:47:55Z</time>
      </trkpt>
      <trkpt lat="43.37948" lon="6.13004">
        <ele>378.79998779297</ele>
        <time>2013-09-14T13:47:58Z</time>
      </trkpt>
      <trkpt lat="43.37937" lon="6.13024">
        <ele>379.20001220703</ele>
        <time>2013-09-14T13:48:08Z</time>
      </trkpt>
      <trkpt lat="43.37933" lon="6.13028">
        <ele>379.20001220703</ele>
        <time>2013-09-14T13:48:11Z</time>
      </trkpt>
      <trkpt lat="43.37926" lon="6.13037">
        <ele>380.79998779297</ele>
        <time>2013-09-14T13:48:16Z</time>
      </trkpt>
      <trkpt lat="43.37922" lon="6.13045">
        <ele>381.20001220703</ele>
        <time>2013-09-14T13:48:21Z</time>
      </trkpt>
      <trkpt lat="43.37918" lon="6.13055">
        <ele>381.20001220703</ele>
        <time>2013-09-14T13:48:26Z</time>
      </trkpt>
      <trkpt lat="43.37914" lon="6.13075">
        <ele>383.39999389648</ele>
        <time>2013-09-14T13:48:35Z</time>
      </trkpt>
      <trkpt lat="43.37913" lon="6.13079">
        <ele>383.39999389648</ele>
        <time>2013-09-14T13:48:37Z</time>
      </trkpt>
      <trkpt lat="43.37913" lon="6.13084">
        <ele>383.39999389648</ele>
        <time>2013-09-14T13:48:39Z</time>
      </trkpt>
      <trkpt lat="43.37911" lon="6.13099">
        <ele>383.39999389648</ele>
        <time>2013-09-14T13:48:46Z</time>
      </trkpt>
      <trkpt lat="43.3791" lon="6.13114">
        <ele>383.39999389648</ele>
        <time>2013-09-14T13:48:52Z</time>
      </trkpt>
      <trkpt lat="43.3791" lon="6.13118">
        <ele>384.20001220703</ele>
        <time>2013-09-14T13:48:54Z</time>
      </trkpt>
      <trkpt lat="43.37908" lon="6.13124">
        <ele>385.60000610352</ele>
        <time>2013-09-14T13:48:57Z</time>
      </trkpt>
      <trkpt lat="43.37906" lon="6.13139">
        <ele>385.60000610352</ele>
        <time>2013-09-14T13:49:03Z</time>
      </trkpt>
      <trkpt lat="43.37903" lon="6.13152">
        <ele>386</ele>
        <time>2013-09-14T13:49:09Z</time>
      </trkpt>
      <trkpt lat="43.37901" lon="6.13161">
        <ele>387.60000610352</ele>
        <time>2013-09-14T13:49:13Z</time>
      </trkpt>
      <trkpt lat="43.379" lon="6.13166">
        <ele>387.60000610352</ele>
        <time>2013-09-14T13:49:16Z</time>
      </trkpt>
      <trkpt lat="43.37899" lon="6.13181">
        <ele>387.60000610352</ele>
        <time>2013-09-14T13:49:23Z</time>
      </trkpt>
      <trkpt lat="43.37898" lon="6.1319">
        <ele>388</ele>
        <time>2013-09-14T13:49:27Z</time>
      </trkpt>
      <trkpt lat="43.37897" lon="6.13194">
        <ele>388.79998779297</ele>
        <time>2013-09-14T13:49:29Z</time>
      </trkpt>
      <trkpt lat="43.37895" lon="6.13203">
        <ele>389.60000610352</ele>
        <time>2013-09-14T13:49:34Z</time>
      </trkpt>
      <trkpt lat="43.37893" lon="6.13211">
        <ele>389.60000610352</ele>
        <time>2013-09-14T13:49:38Z</time>
      </trkpt>
      <trkpt lat="43.37892" lon="6.13225">
        <ele>391.79998779297</ele>
        <time>2013-09-14T13:49:46Z</time>
      </trkpt>
      <trkpt lat="43.37889" lon="6.13231">
        <ele>391.79998779297</ele>
        <time>2013-09-14T13:49:50Z</time>
      </trkpt>
      <trkpt lat="43.37885" lon="6.13246">
        <ele>391.79998779297</ele>
        <time>2013-09-14T13:49:58Z</time>
      </trkpt>
      <trkpt lat="43.37885" lon="6.1325">
        <ele>392.60000610352</ele>
        <time>2013-09-14T13:50:00Z</time>
      </trkpt>
      <trkpt lat="43.37886" lon="6.13257">
        <ele>393.79998779297</ele>
        <time>2013-09-14T13:50:03Z</time>
      </trkpt>
      <trkpt lat="43.37886" lon="6.13262">
        <ele>393.79998779297</ele>
        <time>2013-09-14T13:50:05Z</time>
      </trkpt>
      <trkpt lat="43.37886" lon="6.13273">
        <ele>393.79998779297</ele>
        <time>2013-09-14T13:50:09Z</time>
      </trkpt>
      <trkpt lat="43.37887" lon="6.13281">
        <ele>394.60000610352</ele>
        <time>2013-09-14T13:50:11Z</time>
      </trkpt>
      <trkpt lat="43.37888" lon="6.1329">
        <ele>395.60000610352</ele>
        <time>2013-09-14T13:50:13Z</time>
      </trkpt>
      <trkpt lat="43.37888" lon="6.13293">
        <ele>396</ele>
        <time>2013-09-14T13:50:14Z</time>
      </trkpt>
      <trkpt lat="43.37886" lon="6.133">
        <ele>396</ele>
        <time>2013-09-14T13:50:16Z</time>
      </trkpt>
      <trkpt lat="43.37884" lon="6.13306">
        <ele>397</ele>
        <time>2013-09-14T13:50:18Z</time>
      </trkpt>
      <trkpt lat="43.37882" lon="6.13309">
        <ele>397.39999389648</ele>
        <time>2013-09-14T13:50:19Z</time>
      </trkpt>
      <trkpt lat="43.37879" lon="6.13314">
        <ele>398.20001220703</ele>
        <time>2013-09-14T13:50:21Z</time>
      </trkpt>
      <trkpt lat="43.37878" lon="6.13322">
        <ele>398.79998779297</ele>
        <time>2013-09-14T13:50:24Z</time>
      </trkpt>
      <trkpt lat="43.37877" lon="6.13325">
        <ele>399.60000610352</ele>
        <time>2013-09-14T13:50:26Z</time>
      </trkpt>
      <trkpt lat="43.37876" lon="6.1333">
        <ele>400.39999389648</ele>
        <time>2013-09-14T13:50:28Z</time>
      </trkpt>
      <trkpt lat="43.37875" lon="6.13342">
        <ele>400.39999389648</ele>
        <time>2013-09-14T13:50:34Z</time>
      </trkpt>
      <trkpt lat="43.37875" lon="6.13344">
        <ele>400.79998779297</ele>
        <time>2013-09-14T13:50:35Z</time>
      </trkpt>
      <trkpt lat="43.37876" lon="6.13347">
        <ele>401.60000610352</ele>
        <time>2013-09-14T13:50:37Z</time>
      </trkpt>
      <trkpt lat="43.37875" lon="6.13349">
        <ele>402.39999389648</ele>
        <time>2013-09-14T13:50:39Z</time>
      </trkpt>
      <trkpt lat="43.37875" lon="6.1335">
        <ele>402.39999389648</ele>
        <time>2013-09-14T13:50:41Z</time>
      </trkpt>
      <trkpt lat="43.37875" lon="6.1335">
        <ele>402.39999389648</ele>
        <time>2013-09-14T13:50:57Z</time>
      </trkpt>
      <trkpt lat="43.37875" lon="6.13351">
        <ele>402.39999389648</ele>
        <time>2013-09-14T13:52:58Z</time>
      </trkpt>
      <trkpt lat="43.37875" lon="6.13351">
        <ele>402.39999389648</ele>
        <time>2013-09-14T13:53:05Z</time>
      </trkpt>
      <trkpt lat="43.37874" lon="6.13352">
        <ele>402.39999389648</ele>
        <time>2013-09-14T13:53:16Z</time>
      </trkpt>
      <trkpt lat="43.37874" lon="6.13353">
        <ele>402.39999389648</ele>
        <time>2013-09-14T13:53:17Z</time>
      </trkpt>
      <trkpt lat="43.37874" lon="6.13359">
        <ele>402.39999389648</ele>
        <time>2013-09-14T13:53:19Z</time>
      </trkpt>
      <trkpt lat="43.37872" lon="6.13364">
        <ele>402.39999389648</ele>
        <time>2013-09-14T13:53:21Z</time>
      </trkpt>
      <trkpt lat="43.37868" lon="6.13379">
        <ele>402.39999389648</ele>
        <time>2013-09-14T13:53:27Z</time>
      </trkpt>
      <trkpt lat="43.37865" lon="6.13401">
        <ele>402.39999389648</ele>
        <time>2013-09-14T13:53:35Z</time>
      </trkpt>
      <trkpt lat="43.3786" lon="6.13443">
        <ele>404.39999389648</ele>
        <time>2013-09-14T13:53:52Z</time>
      </trkpt>
      <trkpt lat="43.37859" lon="6.1345">
        <ele>404.39999389648</ele>
        <time>2013-09-14T13:53:55Z</time>
      </trkpt>
      <trkpt lat="43.3786" lon="6.13472">
        <ele>404.39999389648</ele>
        <time>2013-09-14T13:54:05Z</time>
      </trkpt>
      <trkpt lat="43.37861" lon="6.13475">
        <ele>405</ele>
        <time>2013-09-14T13:54:07Z</time>
      </trkpt>
      <trkpt lat="43.37861" lon="6.13477">
        <ele>405.39999389648</ele>
        <time>2013-09-14T13:54:08Z</time>
      </trkpt>
      <trkpt lat="43.37859" lon="6.13486">
        <ele>406.60000610352</ele>
        <time>2013-09-14T13:54:12Z</time>
      </trkpt>
      <trkpt lat="43.37859" lon="6.13493">
        <ele>406.60000610352</ele>
        <time>2013-09-14T13:54:15Z</time>
      </trkpt>
      <trkpt lat="43.3786" lon="6.13501">
        <ele>406.60000610352</ele>
        <time>2013-09-14T13:54:18Z</time>
      </trkpt>
      <trkpt lat="43.3786" lon="6.13509">
        <ele>407.39999389648</ele>
        <time>2013-09-14T13:54:22Z</time>
      </trkpt>
      <trkpt lat="43.3786" lon="6.13515">
        <ele>408.79998779297</ele>
        <time>2013-09-14T13:54:25Z</time>
      </trkpt>
      <trkpt lat="43.37857" lon="6.13522">
        <ele>408.79998779297</ele>
        <time>2013-09-14T13:54:30Z</time>
      </trkpt>
      <trkpt lat="43.37856" lon="6.13527">
        <ele>408.79998779297</ele>
        <time>2013-09-14T13:54:33Z</time>
      </trkpt>
      <trkpt lat="43.37855" lon="6.13532">
        <ele>408.79998779297</ele>
        <time>2013-09-14T13:54:36Z</time>
      </trkpt>
      <trkpt lat="43.37851" lon="6.13543">
        <ele>408.79998779297</ele>
        <time>2013-09-14T13:54:42Z</time>
      </trkpt>
      <trkpt lat="43.3785" lon="6.13551">
        <ele>408.79998779297</ele>
        <time>2013-09-14T13:54:46Z</time>
      </trkpt>
      <trkpt lat="43.37847" lon="6.13558">
        <ele>408.79998779297</ele>
        <time>2013-09-14T13:54:49Z</time>
      </trkpt>
      <trkpt lat="43.37844" lon="6.13562">
        <ele>408.79998779297</ele>
        <time>2013-09-14T13:54:52Z</time>
      </trkpt>
      <trkpt lat="43.37841" lon="6.13565">
        <ele>408.79998779297</ele>
        <time>2013-09-14T13:54:54Z</time>
      </trkpt>
      <trkpt lat="43.37839" lon="6.13567">
        <ele>408.79998779297</ele>
        <time>2013-09-14T13:54:56Z</time>
      </trkpt>
      <trkpt lat="43.37838" lon="6.13566">
        <ele>408.79998779297</ele>
        <time>2013-09-14T13:54:59Z</time>
      </trkpt>
      <trkpt lat="43.37835" lon="6.13566">
        <ele>408.79998779297</ele>
        <time>2013-09-14T13:55:03Z</time>
      </trkpt>
      <trkpt lat="43.37835" lon="6.13566">
        <ele>408.79998779297</ele>
        <time>2013-09-14T13:55:20Z</time>
      </trkpt>
      <trkpt lat="43.37835" lon="6.13566">
        <ele>408.79998779297</ele>
        <time>2013-09-14T13:56:28Z</time>
      </trkpt>
      <trkpt lat="43.37835" lon="6.13566">
        <ele>408.79998779297</ele>
        <time>2013-09-14T13:56:38Z</time>
      </trkpt>
      <trkpt lat="43.37833" lon="6.13567">
        <ele>408.79998779297</ele>
        <time>2013-09-14T13:56:48Z</time>
      </trkpt>
      <trkpt lat="43.37821" lon="6.13566">
        <ele>408.79998779297</ele>
        <time>2013-09-14T13:56:52Z</time>
      </trkpt>
      <trkpt lat="43.37801" lon="6.13567">
        <ele>408.79998779297</ele>
        <time>2013-09-14T13:56:57Z</time>
      </trkpt>
      <trkpt lat="43.37788" lon="6.13574">
        <ele>408.79998779297</ele>
        <time>2013-09-14T13:57:01Z</time>
      </trkpt>
      <trkpt lat="43.37784" lon="6.13574">
        <ele>408.79998779297</ele>
        <time>2013-09-14T13:57:02Z</time>
      </trkpt>
      <trkpt lat="43.37769" lon="6.13584">
        <ele>408.39999389648</ele>
        <time>2013-09-14T13:57:07Z</time>
      </trkpt>
      <trkpt lat="43.37762" lon="6.13594">
        <ele>406.79998779297</ele>
        <time>2013-09-14T13:57:11Z</time>
      </trkpt>
      <trkpt lat="43.37757" lon="6.13602">
        <ele>406.79998779297</ele>
        <time>2013-09-14T13:57:14Z</time>
      </trkpt>
      <trkpt lat="43.37751" lon="6.13608">
        <ele>406.79998779297</ele>
        <time>2013-09-14T13:57:17Z</time>
      </trkpt>
      <trkpt lat="43.37748" lon="6.1361">
        <ele>406.79998779297</ele>
        <time>2013-09-14T13:57:19Z</time>
      </trkpt>
      <trkpt lat="43.37735" lon="6.13618">
        <ele>406.79998779297</ele>
        <time>2013-09-14T13:57:23Z</time>
      </trkpt>
      <trkpt lat="43.37731" lon="6.13623">
        <ele>406.20001220703</ele>
        <time>2013-09-14T13:57:24Z</time>
      </trkpt>
      <trkpt lat="43.37728" lon="6.13628">
        <ele>405.79998779297</ele>
        <time>2013-09-14T13:57:25Z</time>
      </trkpt>
      <trkpt lat="43.37724" lon="6.13634">
        <ele>405.39999389648</ele>
        <time>2013-09-14T13:57:26Z</time>
      </trkpt>
      <trkpt lat="43.3772" lon="6.13639">
        <ele>405</ele>
        <time>2013-09-14T13:57:27Z</time>
      </trkpt>
      <trkpt lat="43.37716" lon="6.13645">
        <ele>404.39999389648</ele>
        <time>2013-09-14T13:57:28Z</time>
      </trkpt>
      <trkpt lat="43.37712" lon="6.13652">
        <ele>403.39999389648</ele>
        <time>2013-09-14T13:57:29Z</time>
      </trkpt>
      <trkpt lat="43.37708" lon="6.13658">
        <ele>403</ele>
        <time>2013-09-14T13:57:30Z</time>
      </trkpt>
      <trkpt lat="43.37703" lon="6.13663">
        <ele>402.39999389648</ele>
        <time>2013-09-14T13:57:31Z</time>
      </trkpt>
      <trkpt lat="43.37698" lon="6.13667">
        <ele>402</ele>
        <time>2013-09-14T13:57:32Z</time>
      </trkpt>
      <trkpt lat="43.37695" lon="6.13672">
        <ele>401.39999389648</ele>
        <time>2013-09-14T13:57:33Z</time>
      </trkpt>
      <trkpt lat="43.37692" lon="6.13676">
        <ele>401</ele>
        <time>2013-09-14T13:57:34Z</time>
      </trkpt>
      <trkpt lat="43.37689" lon="6.13677">
        <ele>400.39999389648</ele>
        <time>2013-09-14T13:57:35Z</time>
      </trkpt>
      <trkpt lat="43.37687" lon="6.13677">
        <ele>400</ele>
        <time>2013-09-14T13:57:36Z</time>
      </trkpt>
      <trkpt lat="43.37683" lon="6.13675">
        <ele>399</ele>
        <time>2013-09-14T13:57:38Z</time>
      </trkpt>
      <trkpt lat="43.37682" lon="6.13673">
        <ele>398.39999389648</ele>
        <time>2013-09-14T13:57:39Z</time>
      </trkpt>
      <trkpt lat="43.37682" lon="6.13671">
        <ele>398.39999389648</ele>
        <time>2013-09-14T13:57:40Z</time>
      </trkpt>
      <trkpt lat="43.37677" lon="6.13663">
        <ele>398</ele>
        <time>2013-09-14T13:57:44Z</time>
      </trkpt>
      <trkpt lat="43.37675" lon="6.13661">
        <ele>397.60000610352</ele>
        <time>2013-09-14T13:57:45Z</time>
      </trkpt>
      <trkpt lat="43.3767" lon="6.13654">
        <ele>396.20001220703</ele>
        <time>2013-09-14T13:57:48Z</time>
      </trkpt>
      <trkpt lat="43.37667" lon="6.13649">
        <ele>396.20001220703</ele>
        <time>2013-09-14T13:57:50Z</time>
      </trkpt>
      <trkpt lat="43.37666" lon="6.13645">
        <ele>395.79998779297</ele>
        <time>2013-09-14T13:57:51Z</time>
      </trkpt>
      <trkpt lat="43.37663" lon="6.1364">
        <ele>395</ele>
        <time>2013-09-14T13:57:53Z</time>
      </trkpt>
      <trkpt lat="43.37655" lon="6.13621">
        <ele>393.60000610352</ele>
        <time>2013-09-14T13:57:57Z</time>
      </trkpt>
      <trkpt lat="43.37653" lon="6.13616">
        <ele>393</ele>
        <time>2013-09-14T13:57:58Z</time>
      </trkpt>
      <trkpt lat="43.37651" lon="6.13611">
        <ele>392.39999389648</ele>
        <time>2013-09-14T13:57:59Z</time>
      </trkpt>
      <trkpt lat="43.37645" lon="6.13594">
        <ele>390.79998779297</ele>
        <time>2013-09-14T13:58:02Z</time>
      </trkpt>
      <trkpt lat="43.3764" lon="6.1358">
        <ele>389.60000610352</ele>
        <time>2013-09-14T13:58:04Z</time>
      </trkpt>
      <trkpt lat="43.37631" lon="6.13564">
        <ele>387.39999389648</ele>
        <time>2013-09-14T13:58:07Z</time>
      </trkpt>
      <trkpt lat="43.3763" lon="6.13557">
        <ele>386.79998779297</ele>
        <time>2013-09-14T13:58:08Z</time>
      </trkpt>
      <trkpt lat="43.37629" lon="6.1355">
        <ele>386.20001220703</ele>
        <time>2013-09-14T13:58:09Z</time>
      </trkpt>
      <trkpt lat="43.37628" lon="6.13543">
        <ele>385.79998779297</ele>
        <time>2013-09-14T13:58:10Z</time>
      </trkpt>
      <trkpt lat="43.37626" lon="6.13535">
        <ele>385.20001220703</ele>
        <time>2013-09-14T13:58:11Z</time>
      </trkpt>
      <trkpt lat="43.37624" lon="6.13528">
        <ele>384.60000610352</ele>
        <time>2013-09-14T13:58:12Z</time>
      </trkpt>
      <trkpt lat="43.37621" lon="6.13519">
        <ele>384</ele>
        <time>2013-09-14T13:58:13Z</time>
      </trkpt>
      <trkpt lat="43.37619" lon="6.1351">
        <ele>383.39999389648</ele>
        <time>2013-09-14T13:58:14Z</time>
      </trkpt>
      <trkpt lat="43.37616" lon="6.13502">
        <ele>382.60000610352</ele>
        <time>2013-09-14T13:58:15Z</time>
      </trkpt>
      <trkpt lat="43.37614" lon="6.13494">
        <ele>382</ele>
        <time>2013-09-14T13:58:16Z</time>
      </trkpt>
      <trkpt lat="43.37611" lon="6.13488">
        <ele>381.20001220703</ele>
        <time>2013-09-14T13:58:17Z</time>
      </trkpt>
      <trkpt lat="43.37605" lon="6.13476">
        <ele>378.79998779297</ele>
        <time>2013-09-14T13:58:19Z</time>
      </trkpt>
      <trkpt lat="43.37602" lon="6.13471">
        <ele>378</ele>
        <time>2013-09-14T13:58:20Z</time>
      </trkpt>
      <trkpt lat="43.376" lon="6.13465">
        <ele>377</ele>
        <time>2013-09-14T13:58:21Z</time>
      </trkpt>
      <trkpt lat="43.37598" lon="6.13462">
        <ele>376.20001220703</ele>
        <time>2013-09-14T13:58:22Z</time>
      </trkpt>
      <trkpt lat="43.37595" lon="6.13461">
        <ele>375.39999389648</ele>
        <time>2013-09-14T13:58:23Z</time>
      </trkpt>
      <trkpt lat="43.37594" lon="6.13461">
        <ele>374.60000610352</ele>
        <time>2013-09-14T13:58:24Z</time>
      </trkpt>
      <trkpt lat="43.37594" lon="6.13463">
        <ele>374</ele>
        <time>2013-09-14T13:58:25Z</time>
      </trkpt>
      <trkpt lat="43.37593" lon="6.13464">
        <ele>373.20001220703</ele>
        <time>2013-09-14T13:58:26Z</time>
      </trkpt>
      <trkpt lat="43.37592" lon="6.13466">
        <ele>372.39999389648</ele>
        <time>2013-09-14T13:58:27Z</time>
      </trkpt>
      <trkpt lat="43.37592" lon="6.13466">
        <ele>372.39999389648</ele>
        <time>2013-09-14T13:58:30Z</time>
      </trkpt>
      <trkpt lat="43.37591" lon="6.13467">
        <ele>372.39999389648</ele>
        <time>2013-09-14T13:58:38Z</time>
      </trkpt>
      <trkpt lat="43.3759" lon="6.13469">
        <ele>372</ele>
        <time>2013-09-14T13:58:39Z</time>
      </trkpt>
      <trkpt lat="43.37589" lon="6.13471">
        <ele>371.60000610352</ele>
        <time>2013-09-14T13:58:40Z</time>
      </trkpt>
      <trkpt lat="43.37587" lon="6.13475">
        <ele>371</ele>
        <time>2013-09-14T13:58:41Z</time>
      </trkpt>
      <trkpt lat="43.37585" lon="6.13478">
        <ele>370.60000610352</ele>
        <time>2013-09-14T13:58:42Z</time>
      </trkpt>
      <trkpt lat="43.37583" lon="6.13482">
        <ele>370.20001220703</ele>
        <time>2013-09-14T13:58:43Z</time>
      </trkpt>
      <trkpt lat="43.37582" lon="6.13487">
        <ele>370.20001220703</ele>
        <time>2013-09-14T13:58:44Z</time>
      </trkpt>
      <trkpt lat="43.37577" lon="6.13501">
        <ele>369.79998779297</ele>
        <time>2013-09-14T13:58:47Z</time>
      </trkpt>
      <trkpt lat="43.3757" lon="6.13518">
        <ele>368.20001220703</ele>
        <time>2013-09-14T13:58:51Z</time>
      </trkpt>
      <trkpt lat="43.37567" lon="6.13518">
        <ele>368.20001220703</ele>
        <time>2013-09-14T13:58:52Z</time>
      </trkpt>
      <trkpt lat="43.37565" lon="6.13514">
        <ele>367.60000610352</ele>
        <time>2013-09-14T13:58:54Z</time>
      </trkpt>
      <trkpt lat="43.37564" lon="6.13504">
        <ele>366.79998779297</ele>
        <time>2013-09-14T13:58:56Z</time>
      </trkpt>
      <trkpt lat="43.37562" lon="6.13493">
        <ele>366</ele>
        <time>2013-09-14T13:58:58Z</time>
      </trkpt>
      <trkpt lat="43.3756" lon="6.13488">
        <ele>366</ele>
        <time>2013-09-14T13:58:59Z</time>
      </trkpt>
      <trkpt lat="43.37555" lon="6.13476">
        <ele>365</ele>
        <time>2013-09-14T13:59:02Z</time>
      </trkpt>
      <trkpt lat="43.37553" lon="6.13472">
        <ele>364.60000610352</ele>
        <time>2013-09-14T13:59:03Z</time>
      </trkpt>
      <trkpt lat="43.37551" lon="6.13469">
        <ele>364</ele>
        <time>2013-09-14T13:59:04Z</time>
      </trkpt>
      <trkpt lat="43.37549" lon="6.13465">
        <ele>363.39999389648</ele>
        <time>2013-09-14T13:59:05Z</time>
      </trkpt>
      <trkpt lat="43.37547" lon="6.13461">
        <ele>362.79998779297</ele>
        <time>2013-09-14T13:59:06Z</time>
      </trkpt>
      <trkpt lat="43.37544" lon="6.13459">
        <ele>362.20001220703</ele>
        <time>2013-09-14T13:59:07Z</time>
      </trkpt>
      <trkpt lat="43.37539" lon="6.13458">
        <ele>360.39999389648</ele>
        <time>2013-09-14T13:59:09Z</time>
      </trkpt>
      <trkpt lat="43.37536" lon="6.13458">
        <ele>359.79998779297</ele>
        <time>2013-09-14T13:59:10Z</time>
      </trkpt>
      <trkpt lat="43.37532" lon="6.13461">
        <ele>359.20001220703</ele>
        <time>2013-09-14T13:59:11Z</time>
      </trkpt>
      <trkpt lat="43.37528" lon="6.13464">
        <ele>358.20001220703</ele>
        <time>2013-09-14T13:59:13Z</time>
      </trkpt>
      <trkpt lat="43.37526" lon="6.13466">
        <ele>357.79998779297</ele>
        <time>2013-09-14T13:59:14Z</time>
      </trkpt>
      <trkpt lat="43.37524" lon="6.13467">
        <ele>357.20001220703</ele>
        <time>2013-09-14T13:59:15Z</time>
      </trkpt>
      <trkpt lat="43.37525" lon="6.13467">
        <ele>356.79998779297</ele>
        <time>2013-09-14T13:59:16Z</time>
      </trkpt>
      <trkpt lat="43.37525" lon="6.13467">
        <ele>356.79998779297</ele>
        <time>2013-09-14T13:59:17Z</time>
      </trkpt>
      <trkpt lat="43.37525" lon="6.13466">
        <ele>356.79998779297</ele>
        <time>2013-09-14T13:59:28Z</time>
      </trkpt>
      <trkpt lat="43.37525" lon="6.13466">
        <ele>356.79998779297</ele>
        <time>2013-09-14T13:59:48Z</time>
      </trkpt>
      <trkpt lat="43.37525" lon="6.13466">
        <ele>356.79998779297</ele>
        <time>2013-09-14T13:59:59Z</time>
      </trkpt>
      <trkpt lat="43.37525" lon="6.13466">
        <ele>356.79998779297</ele>
        <time>2013-09-14T14:00:12Z</time>
      </trkpt>
      <trkpt lat="43.37523" lon="6.13471">
        <ele>356.79998779297</ele>
        <time>2013-09-14T14:00:16Z</time>
      </trkpt>
      <trkpt lat="43.37523" lon="6.13474">
        <ele>356.79998779297</ele>
        <time>2013-09-14T14:00:17Z</time>
      </trkpt>
      <trkpt lat="43.37524" lon="6.13482">
        <ele>356.79998779297</ele>
        <time>2013-09-14T14:00:21Z</time>
      </trkpt>
      <trkpt lat="43.37525" lon="6.13493">
        <ele>356.79998779297</ele>
        <time>2013-09-14T14:00:26Z</time>
      </trkpt>
      <trkpt lat="43.37531" lon="6.13519">
        <ele>356.79998779297</ele>
        <time>2013-09-14T14:00:38Z</time>
      </trkpt>
      <trkpt lat="43.37531" lon="6.13521">
        <ele>356.79998779297</ele>
        <time>2013-09-14T14:00:39Z</time>
      </trkpt>
      <trkpt lat="43.37531" lon="6.13536">
        <ele>356.79998779297</ele>
        <time>2013-09-14T14:00:46Z</time>
      </trkpt>
      <trkpt lat="43.37531" lon="6.13549">
        <ele>356.79998779297</ele>
        <time>2013-09-14T14:00:52Z</time>
      </trkpt>
      <trkpt lat="43.37533" lon="6.13562">
        <ele>357.20001220703</ele>
        <time>2013-09-14T14:00:59Z</time>
      </trkpt>
      <trkpt lat="43.37537" lon="6.13577">
        <ele>358.79998779297</ele>
        <time>2013-09-14T14:01:07Z</time>
      </trkpt>
      <trkpt lat="43.37541" lon="6.13592">
        <ele>358.79998779297</ele>
        <time>2013-09-14T14:01:16Z</time>
      </trkpt>
      <trkpt lat="43.37544" lon="6.13604">
        <ele>358.79998779297</ele>
        <time>2013-09-14T14:01:23Z</time>
      </trkpt>
      <trkpt lat="43.3755" lon="6.13621">
        <ele>360.39999389648</ele>
        <time>2013-09-14T14:01:32Z</time>
      </trkpt>
      <trkpt lat="43.37555" lon="6.13633">
        <ele>360.79998779297</ele>
        <time>2013-09-14T14:01:37Z</time>
      </trkpt>
      <trkpt lat="43.37555" lon="6.13641">
        <ele>360.79998779297</ele>
        <time>2013-09-14T14:01:40Z</time>
      </trkpt>
      <trkpt lat="43.37556" lon="6.13645">
        <ele>360.79998779297</ele>
        <time>2013-09-14T14:01:42Z</time>
      </trkpt>
      <trkpt lat="43.37558" lon="6.13653">
        <ele>360.79998779297</ele>
        <time>2013-09-14T14:01:45Z</time>
      </trkpt>
      <trkpt lat="43.37558" lon="6.1368">
        <ele>360.79998779297</ele>
        <time>2013-09-14T14:01:55Z</time>
      </trkpt>
      <trkpt lat="43.37559" lon="6.13696">
        <ele>361.60000610352</ele>
        <time>2013-09-14T14:02:01Z</time>
      </trkpt>
      <trkpt lat="43.3756" lon="6.13698">
        <ele>362</ele>
        <time>2013-09-14T14:02:02Z</time>
      </trkpt>
      <trkpt lat="43.37563" lon="6.13715">
        <ele>363</ele>
        <time>2013-09-14T14:02:10Z</time>
      </trkpt>
      <trkpt lat="43.37567" lon="6.13737">
        <ele>364.20001220703</ele>
        <time>2013-09-14T14:02:20Z</time>
      </trkpt>
      <trkpt lat="43.37567" lon="6.13739">
        <ele>364.60000610352</ele>
        <time>2013-09-14T14:02:21Z</time>
      </trkpt>
      <trkpt lat="43.37569" lon="6.13754">
        <ele>365</ele>
        <time>2013-09-14T14:02:28Z</time>
      </trkpt>
      <trkpt lat="43.3757" lon="6.13767">
        <ele>365</ele>
        <time>2013-09-14T14:02:34Z</time>
      </trkpt>
      <trkpt lat="43.3757" lon="6.13782">
        <ele>365.79998779297</ele>
        <time>2013-09-14T14:02:41Z</time>
      </trkpt>
      <trkpt lat="43.37572" lon="6.13797">
        <ele>367</ele>
        <time>2013-09-14T14:02:48Z</time>
      </trkpt>
      <trkpt lat="43.37571" lon="6.13817">
        <ele>367</ele>
        <time>2013-09-14T14:02:56Z</time>
      </trkpt>
      <trkpt lat="43.37568" lon="6.13836">
        <ele>367</ele>
        <time>2013-09-14T14:03:03Z</time>
      </trkpt>
      <trkpt lat="43.37565" lon="6.13877">
        <ele>367</ele>
        <time>2013-09-14T14:03:20Z</time>
      </trkpt>
      <trkpt lat="43.37563" lon="6.13897">
        <ele>367</ele>
        <time>2013-09-14T14:03:29Z</time>
      </trkpt>
      <trkpt lat="43.3756" lon="6.1391">
        <ele>367.39999389648</ele>
        <time>2013-09-14T14:03:35Z</time>
      </trkpt>
      <trkpt lat="43.37558" lon="6.13916">
        <ele>368.60000610352</ele>
        <time>2013-09-14T14:03:38Z</time>
      </trkpt>
      <trkpt lat="43.37552" lon="6.13939">
        <ele>369.20001220703</ele>
        <time>2013-09-14T14:03:49Z</time>
      </trkpt>
      <trkpt lat="43.37547" lon="6.13953">
        <ele>369.20001220703</ele>
        <time>2013-09-14T14:03:56Z</time>
      </trkpt>
      <trkpt lat="43.37542" lon="6.13966">
        <ele>369.60000610352</ele>
        <time>2013-09-14T14:04:03Z</time>
      </trkpt>
      <trkpt lat="43.37538" lon="6.13976">
        <ele>371.20001220703</ele>
        <time>2013-09-14T14:04:08Z</time>
      </trkpt>
      <trkpt lat="43.37537" lon="6.13981">
        <ele>371.20001220703</ele>
        <time>2013-09-14T14:04:10Z</time>
      </trkpt>
      <trkpt lat="43.37536" lon="6.14013">
        <ele>371.20001220703</ele>
        <time>2013-09-14T14:04:25Z</time>
      </trkpt>
      <trkpt lat="43.37535" lon="6.14016">
        <ele>371.20001220703</ele>
        <time>2013-09-14T14:04:26Z</time>
      </trkpt>
      <trkpt lat="43.37524" lon="6.14041">
        <ele>373.20001220703</ele>
        <time>2013-09-14T14:04:40Z</time>
      </trkpt>
      <trkpt lat="43.37519" lon="6.14053">
        <ele>373.20001220703</ele>
        <time>2013-09-14T14:04:46Z</time>
      </trkpt>
      <trkpt lat="43.37517" lon="6.14065">
        <ele>373.20001220703</ele>
        <time>2013-09-14T14:04:52Z</time>
      </trkpt>
      <trkpt lat="43.37517" lon="6.14078">
        <ele>375.20001220703</ele>
        <time>2013-09-14T14:04:59Z</time>
      </trkpt>
      <trkpt lat="43.37514" lon="6.14102">
        <ele>375.20001220703</ele>
        <time>2013-09-14T14:05:11Z</time>
      </trkpt>
      <trkpt lat="43.37504" lon="6.14114">
        <ele>376</ele>
        <time>2013-09-14T14:05:20Z</time>
      </trkpt>
      <trkpt lat="43.37503" lon="6.14118">
        <ele>377</ele>
        <time>2013-09-14T14:05:22Z</time>
      </trkpt>
      <trkpt lat="43.37498" lon="6.14128">
        <ele>377.39999389648</ele>
        <time>2013-09-14T14:05:28Z</time>
      </trkpt>
      <trkpt lat="43.37489" lon="6.14137">
        <ele>377.79998779297</ele>
        <time>2013-09-14T14:05:34Z</time>
      </trkpt>
      <trkpt lat="43.37487" lon="6.14139">
        <ele>378.20001220703</ele>
        <time>2013-09-14T14:05:35Z</time>
      </trkpt>
      <trkpt lat="43.37486" lon="6.14143">
        <ele>379</ele>
        <time>2013-09-14T14:05:37Z</time>
      </trkpt>
      <trkpt lat="43.37483" lon="6.14145">
        <ele>379.39999389648</ele>
        <time>2013-09-14T14:05:39Z</time>
      </trkpt>
      <trkpt lat="43.37476" lon="6.14154">
        <ele>379.39999389648</ele>
        <time>2013-09-14T14:05:44Z</time>
      </trkpt>
      <trkpt lat="43.37474" lon="6.14157">
        <ele>380.39999389648</ele>
        <time>2013-09-14T14:05:46Z</time>
      </trkpt>
      <trkpt lat="43.37468" lon="6.14158">
        <ele>381.60000610352</ele>
        <time>2013-09-14T14:05:50Z</time>
      </trkpt>
      <trkpt lat="43.37459" lon="6.1416">
        <ele>381.60000610352</ele>
        <time>2013-09-14T14:05:55Z</time>
      </trkpt>
      <trkpt lat="43.37447" lon="6.14168">
        <ele>383.79998779297</ele>
        <time>2013-09-14T14:06:04Z</time>
      </trkpt>
      <trkpt lat="43.37441" lon="6.14171">
        <ele>383.79998779297</ele>
        <time>2013-09-14T14:06:08Z</time>
      </trkpt>
      <trkpt lat="43.37432" lon="6.14175">
        <ele>384.20001220703</ele>
        <time>2013-09-14T14:06:14Z</time>
      </trkpt>
      <trkpt lat="43.37429" lon="6.14177">
        <ele>385</ele>
        <time>2013-09-14T14:06:16Z</time>
      </trkpt>
      <trkpt lat="43.3742" lon="6.14182">
        <ele>386.39999389648</ele>
        <time>2013-09-14T14:06:22Z</time>
      </trkpt>
      <trkpt lat="43.37419" lon="6.14183">
        <ele>386.79998779297</ele>
        <time>2013-09-14T14:06:23Z</time>
      </trkpt>
      <trkpt lat="43.37413" lon="6.14184">
        <ele>388</ele>
        <time>2013-09-14T14:06:28Z</time>
      </trkpt>
      <trkpt lat="43.37408" lon="6.14185">
        <ele>388.79998779297</ele>
        <time>2013-09-14T14:06:33Z</time>
      </trkpt>
      <trkpt lat="43.37404" lon="6.14187">
        <ele>390</ele>
        <time>2013-09-14T14:06:36Z</time>
      </trkpt>
      <trkpt lat="43.37398" lon="6.14191">
        <ele>390</ele>
        <time>2013-09-14T14:06:42Z</time>
      </trkpt>
      <trkpt lat="43.37393" lon="6.1419">
        <ele>390</ele>
        <time>2013-09-14T14:06:46Z</time>
      </trkpt>
      <trkpt lat="43.37391" lon="6.14191">
        <ele>390</ele>
        <time>2013-09-14T14:06:48Z</time>
      </trkpt>
      <trkpt lat="43.37389" lon="6.14191">
        <ele>390.79998779297</ele>
        <time>2013-09-14T14:06:50Z</time>
      </trkpt>
      <trkpt lat="43.37389" lon="6.14191">
        <ele>391.20001220703</ele>
        <time>2013-09-14T14:06:51Z</time>
      </trkpt>
      <trkpt lat="43.37386" lon="6.1419">
        <ele>392</ele>
        <time>2013-09-14T14:06:53Z</time>
      </trkpt>
      <trkpt lat="43.37384" lon="6.14189">
        <ele>392</ele>
        <time>2013-09-14T14:06:55Z</time>
      </trkpt>
      <trkpt lat="43.37384" lon="6.14189">
        <ele>392</ele>
        <time>2013-09-14T14:07:12Z</time>
      </trkpt>
      <trkpt lat="43.37384" lon="6.14189">
        <ele>392</ele>
        <time>2013-09-14T14:07:51Z</time>
      </trkpt>
      <trkpt lat="43.37383" lon="6.1419">
        <ele>392</ele>
        <time>2013-09-14T14:07:56Z</time>
      </trkpt>
      <trkpt lat="43.37375" lon="6.14195">
        <ele>392</ele>
        <time>2013-09-14T14:08:03Z</time>
      </trkpt>
      <trkpt lat="43.37371" lon="6.14198">
        <ele>392</ele>
        <time>2013-09-14T14:08:07Z</time>
      </trkpt>
      <trkpt lat="43.3737" lon="6.14201">
        <ele>392</ele>
        <time>2013-09-14T14:08:09Z</time>
      </trkpt>
      <trkpt lat="43.37368" lon="6.14205">
        <ele>392</ele>
        <time>2013-09-14T14:08:11Z</time>
      </trkpt>
      <trkpt lat="43.37363" lon="6.14212">
        <ele>392</ele>
        <time>2013-09-14T14:08:15Z</time>
      </trkpt>
      <trkpt lat="43.37362" lon="6.14218">
        <ele>392.79998779297</ele>
        <time>2013-09-14T14:08:18Z</time>
      </trkpt>
      <trkpt lat="43.37359" lon="6.14227">
        <ele>394</ele>
        <time>2013-09-14T14:08:22Z</time>
      </trkpt>
      <trkpt lat="43.37358" lon="6.14228">
        <ele>394</ele>
        <time>2013-09-14T14:08:23Z</time>
      </trkpt>
      <trkpt lat="43.37354" lon="6.14234">
        <ele>394</ele>
        <time>2013-09-14T14:08:27Z</time>
      </trkpt>
      <trkpt lat="43.37349" lon="6.14241">
        <ele>394</ele>
        <time>2013-09-14T14:08:31Z</time>
      </trkpt>
      <trkpt lat="43.37348" lon="6.14243">
        <ele>394</ele>
        <time>2013-09-14T14:08:32Z</time>
      </trkpt>
      <trkpt lat="43.37341" lon="6.1425">
        <ele>394</ele>
        <time>2013-09-14T14:08:36Z</time>
      </trkpt>
      <trkpt lat="43.37333" lon="6.14255">
        <ele>394</ele>
        <time>2013-09-14T14:08:40Z</time>
      </trkpt>
      <trkpt lat="43.37329" lon="6.14258">
        <ele>394</ele>
        <time>2013-09-14T14:08:42Z</time>
      </trkpt>
      <trkpt lat="43.3732" lon="6.14272">
        <ele>391.79998779297</ele>
        <time>2013-09-14T14:08:47Z</time>
      </trkpt>
      <trkpt lat="43.37313" lon="6.14279">
        <ele>390.79998779297</ele>
        <time>2013-09-14T14:08:50Z</time>
      </trkpt>
      <trkpt lat="43.37297" lon="6.14287">
        <ele>388.60000610352</ele>
        <time>2013-09-14T14:08:55Z</time>
      </trkpt>
      <trkpt lat="43.37291" lon="6.1429">
        <ele>387.60000610352</ele>
        <time>2013-09-14T14:08:57Z</time>
      </trkpt>
      <trkpt lat="43.37288" lon="6.14293">
        <ele>387.20001220703</ele>
        <time>2013-09-14T14:08:58Z</time>
      </trkpt>
      <trkpt lat="43.37285" lon="6.14296">
        <ele>386.60000610352</ele>
        <time>2013-09-14T14:08:59Z</time>
      </trkpt>
      <trkpt lat="43.37283" lon="6.14299">
        <ele>386</ele>
        <time>2013-09-14T14:09:00Z</time>
      </trkpt>
      <trkpt lat="43.3728" lon="6.14302">
        <ele>385</ele>
        <time>2013-09-14T14:09:01Z</time>
      </trkpt>
      <trkpt lat="43.3727" lon="6.14312">
        <ele>383.60000610352</ele>
        <time>2013-09-14T14:09:04Z</time>
      </trkpt>
      <trkpt lat="43.37257" lon="6.1432">
        <ele>382.20001220703</ele>
        <time>2013-09-14T14:09:08Z</time>
      </trkpt>
      <trkpt lat="43.37255" lon="6.14321">
        <ele>381.79998779297</ele>
        <time>2013-09-14T14:09:09Z</time>
      </trkpt>
      <trkpt lat="43.37254" lon="6.14321">
        <ele>381.39999389648</ele>
        <time>2013-09-14T14:09:10Z</time>
      </trkpt>
      <trkpt lat="43.37254" lon="6.1432">
        <ele>380.79998779297</ele>
        <time>2013-09-14T14:09:11Z</time>
      </trkpt>
      <trkpt lat="43.37252" lon="6.14319">
        <ele>380.39999389648</ele>
        <time>2013-09-14T14:09:12Z</time>
      </trkpt>
      <trkpt lat="43.37245" lon="6.14313">
        <ele>380.39999389648</ele>
        <time>2013-09-14T14:09:15Z</time>
      </trkpt>
      <trkpt lat="43.37231" lon="6.14319">
        <ele>380.39999389648</ele>
        <time>2013-09-14T14:09:19Z</time>
      </trkpt>
      <trkpt lat="43.37224" lon="6.14324">
        <ele>379.60000610352</ele>
        <time>2013-09-14T14:09:21Z</time>
      </trkpt>
      <trkpt lat="43.37221" lon="6.14325">
        <ele>379.20001220703</ele>
        <time>2013-09-14T14:09:22Z</time>
      </trkpt>
      <trkpt lat="43.37218" lon="6.14326">
        <ele>378.79998779297</ele>
        <time>2013-09-14T14:09:23Z</time>
      </trkpt>
      <trkpt lat="43.37215" lon="6.14328">
        <ele>378.20001220703</ele>
        <time>2013-09-14T14:09:24Z</time>
      </trkpt>
      <trkpt lat="43.37204" lon="6.14338">
        <ele>378.20001220703</ele>
        <time>2013-09-14T14:09:28Z</time>
      </trkpt>
      <trkpt lat="43.37191" lon="6.14345">
        <ele>377.39999389648</ele>
        <time>2013-09-14T14:09:32Z</time>
      </trkpt>
      <trkpt lat="43.37186" lon="6.1435">
        <ele>376.60000610352</ele>
        <time>2013-09-14T14:09:34Z</time>
      </trkpt>
      <trkpt lat="43.37177" lon="6.14366">
        <ele>376</ele>
        <time>2013-09-14T14:09:42Z</time>
      </trkpt>
      <trkpt lat="43.37175" lon="6.14367">
        <ele>376</ele>
        <time>2013-09-14T14:09:43Z</time>
      </trkpt>
      <trkpt lat="43.37168" lon="6.1437">
        <ele>376</ele>
        <time>2013-09-14T14:09:48Z</time>
      </trkpt>
      <trkpt lat="43.37162" lon="6.14368">
        <ele>376</ele>
        <time>2013-09-14T14:09:52Z</time>
      </trkpt>
      <trkpt lat="43.37154" lon="6.14366">
        <ele>376</ele>
        <time>2013-09-14T14:09:58Z</time>
      </trkpt>
      <trkpt lat="43.37151" lon="6.14366">
        <ele>376</ele>
        <time>2013-09-14T14:10:00Z</time>
      </trkpt>
      <trkpt lat="43.37145" lon="6.14367">
        <ele>376</ele>
        <time>2013-09-14T14:10:04Z</time>
      </trkpt>
      <trkpt lat="43.37138" lon="6.14367">
        <ele>376</ele>
        <time>2013-09-14T14:10:09Z</time>
      </trkpt>
      <trkpt lat="43.37127" lon="6.14366">
        <ele>376</ele>
        <time>2013-09-14T14:10:15Z</time>
      </trkpt>
      <trkpt lat="43.3712" lon="6.14364">
        <ele>376</ele>
        <time>2013-09-14T14:10:19Z</time>
      </trkpt>
      <trkpt lat="43.37107" lon="6.14356">
        <ele>376</ele>
        <time>2013-09-14T14:10:26Z</time>
      </trkpt>
      <trkpt lat="43.37103" lon="6.14353">
        <ele>376</ele>
        <time>2013-09-14T14:10:28Z</time>
      </trkpt>
      <trkpt lat="43.37092" lon="6.14343">
        <ele>375.60000610352</ele>
        <time>2013-09-14T14:10:33Z</time>
      </trkpt>
      <trkpt lat="43.3709" lon="6.1434">
        <ele>375.20001220703</ele>
        <time>2013-09-14T14:10:34Z</time>
      </trkpt>
      <trkpt lat="43.37087" lon="6.14332">
        <ele>374.20001220703</ele>
        <time>2013-09-14T14:10:36Z</time>
      </trkpt>
      <trkpt lat="43.37086" lon="6.14328">
        <ele>373.79998779297</ele>
        <time>2013-09-14T14:10:37Z</time>
      </trkpt>
      <trkpt lat="43.37084" lon="6.14319">
        <ele>373.79998779297</ele>
        <time>2013-09-14T14:10:39Z</time>
      </trkpt>
      <trkpt lat="43.37075" lon="6.1429">
        <ele>373.79998779297</ele>
        <time>2013-09-14T14:10:45Z</time>
      </trkpt>
      <trkpt lat="43.37071" lon="6.1428">
        <ele>373</ele>
        <time>2013-09-14T14:10:47Z</time>
      </trkpt>
      <trkpt lat="43.3707" lon="6.14275">
        <ele>372.60000610352</ele>
        <time>2013-09-14T14:10:48Z</time>
      </trkpt>
      <trkpt lat="43.37069" lon="6.14271">
        <ele>372.20001220703</ele>
        <time>2013-09-14T14:10:49Z</time>
      </trkpt>
      <trkpt lat="43.37069" lon="6.14266">
        <ele>371.79998779297</ele>
        <time>2013-09-14T14:10:50Z</time>
      </trkpt>
      <trkpt lat="43.37066" lon="6.14246">
        <ele>371.79998779297</ele>
        <time>2013-09-14T14:10:55Z</time>
      </trkpt>
      <trkpt lat="43.37062" lon="6.14219">
        <ele>371.79998779297</ele>
        <time>2013-09-14T14:11:02Z</time>
      </trkpt>
      <trkpt lat="43.37059" lon="6.14212">
        <ele>371.79998779297</ele>
        <time>2013-09-14T14:11:04Z</time>
      </trkpt>
      <trkpt lat="43.3705" lon="6.14192">
        <ele>371.79998779297</ele>
        <time>2013-09-14T14:11:11Z</time>
      </trkpt>
      <trkpt lat="43.37044" lon="6.14181">
        <ele>371.79998779297</ele>
        <time>2013-09-14T14:11:16Z</time>
      </trkpt>
      <trkpt lat="43.3703" lon="6.14155">
        <ele>370.60000610352</ele>
        <time>2013-09-14T14:11:22Z</time>
      </trkpt>
      <trkpt lat="43.37027" lon="6.14149">
        <ele>370.20001220703</ele>
        <time>2013-09-14T14:11:23Z</time>
      </trkpt>
      <trkpt lat="43.37023" lon="6.14137">
        <ele>369.60000610352</ele>
        <time>2013-09-14T14:11:25Z</time>
      </trkpt>
      <trkpt lat="43.37003" lon="6.14109">
        <ele>369.20001220703</ele>
        <time>2013-09-14T14:11:31Z</time>
      </trkpt>
      <trkpt lat="43.36999" lon="6.14105">
        <ele>368.79998779297</ele>
        <time>2013-09-14T14:11:32Z</time>
      </trkpt>
      <trkpt lat="43.36995" lon="6.14101">
        <ele>368.39999389648</ele>
        <time>2013-09-14T14:11:33Z</time>
      </trkpt>
      <trkpt lat="43.36985" lon="6.14096">
        <ele>367.39999389648</ele>
        <time>2013-09-14T14:11:35Z</time>
      </trkpt>
      <trkpt lat="43.36974" lon="6.14096">
        <ele>367.39999389648</ele>
        <time>2013-09-14T14:11:38Z</time>
      </trkpt>
      <trkpt lat="43.36961" lon="6.141">
        <ele>367.39999389648</ele>
        <time>2013-09-14T14:11:43Z</time>
      </trkpt>
      <trkpt lat="43.36957" lon="6.14102">
        <ele>367.39999389648</ele>
        <time>2013-09-14T14:11:45Z</time>
      </trkpt>
      <trkpt lat="43.36952" lon="6.14104">
        <ele>367.39999389648</ele>
        <time>2013-09-14T14:11:48Z</time>
      </trkpt>
      <trkpt lat="43.36951" lon="6.14105">
        <ele>367.39999389648</ele>
        <time>2013-09-14T14:11:49Z</time>
      </trkpt>
      <trkpt lat="43.36948" lon="6.14107">
        <ele>367.39999389648</ele>
        <time>2013-09-14T14:11:51Z</time>
      </trkpt>
      <trkpt lat="43.36944" lon="6.14111">
        <ele>367.39999389648</ele>
        <time>2013-09-14T14:11:54Z</time>
      </trkpt>
      <trkpt lat="43.36943" lon="6.14112">
        <ele>367.39999389648</ele>
        <time>2013-09-14T14:11:55Z</time>
      </trkpt>
      <trkpt lat="43.36936" lon="6.14115">
        <ele>367.39999389648</ele>
        <time>2013-09-14T14:11:59Z</time>
      </trkpt>
      <trkpt lat="43.36934" lon="6.14114">
        <ele>367.39999389648</ele>
        <time>2013-09-14T14:12:01Z</time>
      </trkpt>
      <trkpt lat="43.36929" lon="6.14112">
        <ele>367.39999389648</ele>
        <time>2013-09-14T14:12:04Z</time>
      </trkpt>
      <trkpt lat="43.36926" lon="6.1411">
        <ele>367.79998779297</ele>
        <time>2013-09-14T14:12:06Z</time>
      </trkpt>
      <trkpt lat="43.36921" lon="6.14108">
        <ele>368.60000610352</ele>
        <time>2013-09-14T14:12:08Z</time>
      </trkpt>
      <trkpt lat="43.36919" lon="6.14108">
        <ele>369</ele>
        <time>2013-09-14T14:12:09Z</time>
      </trkpt>
      <trkpt lat="43.36914" lon="6.1411">
        <ele>369.39999389648</ele>
        <time>2013-09-14T14:12:13Z</time>
      </trkpt>
      <trkpt lat="43.36908" lon="6.14113">
        <ele>369.39999389648</ele>
        <time>2013-09-14T14:12:17Z</time>
      </trkpt>
      <trkpt lat="43.36906" lon="6.14115">
        <ele>369.39999389648</ele>
        <time>2013-09-14T14:12:19Z</time>
      </trkpt>
      <trkpt lat="43.36901" lon="6.14119">
        <ele>369.39999389648</ele>
        <time>2013-09-14T14:12:22Z</time>
      </trkpt>
      <trkpt lat="43.36887" lon="6.14108">
        <ele>369.39999389648</ele>
        <time>2013-09-14T14:12:28Z</time>
      </trkpt>
      <trkpt lat="43.36885" lon="6.14103">
        <ele>369</ele>
        <time>2013-09-14T14:12:29Z</time>
      </trkpt>
      <trkpt lat="43.36883" lon="6.14098">
        <ele>368.60000610352</ele>
        <time>2013-09-14T14:12:30Z</time>
      </trkpt>
      <trkpt lat="43.36881" lon="6.14092">
        <ele>368.20001220703</ele>
        <time>2013-09-14T14:12:31Z</time>
      </trkpt>
      <trkpt lat="43.3688" lon="6.14085">
        <ele>367.60000610352</ele>
        <time>2013-09-14T14:12:32Z</time>
      </trkpt>
      <trkpt lat="43.36879" lon="6.14078">
        <ele>367.20001220703</ele>
        <time>2013-09-14T14:12:33Z</time>
      </trkpt>
      <trkpt lat="43.36875" lon="6.14057">
        <ele>366.79998779297</ele>
        <time>2013-09-14T14:12:36Z</time>
      </trkpt>
      <trkpt lat="43.36873" lon="6.1405">
        <ele>366.20001220703</ele>
        <time>2013-09-14T14:12:37Z</time>
      </trkpt>
      <trkpt lat="43.36871" lon="6.14044">
        <ele>365.79998779297</ele>
        <time>2013-09-14T14:12:38Z</time>
      </trkpt>
      <trkpt lat="43.36868" lon="6.14038">
        <ele>365.39999389648</ele>
        <time>2013-09-14T14:12:39Z</time>
      </trkpt>
      <trkpt lat="43.36866" lon="6.14031">
        <ele>364.79998779297</ele>
        <time>2013-09-14T14:12:40Z</time>
      </trkpt>
      <trkpt lat="43.36866" lon="6.14024">
        <ele>364.20001220703</ele>
        <time>2013-09-14T14:12:41Z</time>
      </trkpt>
      <trkpt lat="43.36865" lon="6.14008">
        <ele>362.39999389648</ele>
        <time>2013-09-14T14:12:43Z</time>
      </trkpt>
      <trkpt lat="43.36865" lon="6.14001">
        <ele>361.79998779297</ele>
        <time>2013-09-14T14:12:44Z</time>
      </trkpt>
      <trkpt lat="43.36865" lon="6.13994">
        <ele>361.20001220703</ele>
        <time>2013-09-14T14:12:45Z</time>
      </trkpt>
      <trkpt lat="43.36864" lon="6.13989">
        <ele>360.39999389648</ele>
        <time>2013-09-14T14:12:46Z</time>
      </trkpt>
      <trkpt lat="43.36862" lon="6.13985">
        <ele>359.79998779297</ele>
        <time>2013-09-14T14:12:47Z</time>
      </trkpt>
      <trkpt lat="43.3686" lon="6.13981">
        <ele>359</ele>
        <time>2013-09-14T14:12:48Z</time>
      </trkpt>
      <trkpt lat="43.36858" lon="6.13979">
        <ele>358.39999389648</ele>
        <time>2013-09-14T14:12:49Z</time>
      </trkpt>
      <trkpt lat="43.36845" lon="6.13968">
        <ele>357.79998779297</ele>
        <time>2013-09-14T14:12:54Z</time>
      </trkpt>
      <trkpt lat="43.36841" lon="6.13962">
        <ele>357</ele>
        <time>2013-09-14T14:12:56Z</time>
      </trkpt>
      <trkpt lat="43.36837" lon="6.13956">
        <ele>356.20001220703</ele>
        <time>2013-09-14T14:12:58Z</time>
      </trkpt>
      <trkpt lat="43.3683" lon="6.13955">
        <ele>356.20001220703</ele>
        <time>2013-09-14T14:13:01Z</time>
      </trkpt>
      <trkpt lat="43.36828" lon="6.13957">
        <ele>356.20001220703</ele>
        <time>2013-09-14T14:13:02Z</time>
      </trkpt>
      <trkpt lat="43.36825" lon="6.13967">
        <ele>356.20001220703</ele>
        <time>2013-09-14T14:13:07Z</time>
      </trkpt>
      <trkpt lat="43.36824" lon="6.13973">
        <ele>356.20001220703</ele>
        <time>2013-09-14T14:13:10Z</time>
      </trkpt>
      <trkpt lat="43.36822" lon="6.13976">
        <ele>356.20001220703</ele>
        <time>2013-09-14T14:13:12Z</time>
      </trkpt>
      <trkpt lat="43.3682" lon="6.13979">
        <ele>356.60000610352</ele>
        <time>2013-09-14T14:13:14Z</time>
      </trkpt>
      <trkpt lat="43.36814" lon="6.13981">
        <ele>358.39999389648</ele>
        <time>2013-09-14T14:13:18Z</time>
      </trkpt>
      <trkpt lat="43.3681" lon="6.13982">
        <ele>358.39999389648</ele>
        <time>2013-09-14T14:13:22Z</time>
      </trkpt>
      <trkpt lat="43.36798" lon="6.13988">
        <ele>358.39999389648</ele>
        <time>2013-09-14T14:13:29Z</time>
      </trkpt>
      <trkpt lat="43.36786" lon="6.13997">
        <ele>358.39999389648</ele>
        <time>2013-09-14T14:13:37Z</time>
      </trkpt>
      <trkpt lat="43.36779" lon="6.14003">
        <ele>360.39999389648</ele>
        <time>2013-09-14T14:13:43Z</time>
      </trkpt>
      <trkpt lat="43.36767" lon="6.14013">
        <ele>362.20001220703</ele>
        <time>2013-09-14T14:13:52Z</time>
      </trkpt>
      <trkpt lat="43.36766" lon="6.14013">
        <ele>362.60000610352</ele>
        <time>2013-09-14T14:13:53Z</time>
      </trkpt>
      <trkpt lat="43.36762" lon="6.14013">
        <ele>362.60000610352</ele>
        <time>2013-09-14T14:13:56Z</time>
      </trkpt>
      <trkpt lat="43.36756" lon="6.14016">
        <ele>363</ele>
        <time>2013-09-14T14:14:02Z</time>
      </trkpt>
      <trkpt lat="43.36752" lon="6.14016">
        <ele>364.60000610352</ele>
        <time>2013-09-14T14:14:06Z</time>
      </trkpt>
      <trkpt lat="43.36751" lon="6.14016">
        <ele>364.60000610352</ele>
        <time>2013-09-14T14:14:07Z</time>
      </trkpt>
      <trkpt lat="43.36744" lon="6.14014">
        <ele>364.60000610352</ele>
        <time>2013-09-14T14:14:14Z</time>
      </trkpt>
      <trkpt lat="43.36741" lon="6.14012">
        <ele>364.60000610352</ele>
        <time>2013-09-14T14:14:19Z</time>
      </trkpt>
      <trkpt lat="43.36736" lon="6.14009">
        <ele>364.60000610352</ele>
        <time>2013-09-14T14:14:24Z</time>
      </trkpt>
      <trkpt lat="43.36731" lon="6.14004">
        <ele>364.60000610352</ele>
        <time>2013-09-14T14:14:33Z</time>
      </trkpt>
      <trkpt lat="43.36724" lon="6.14003">
        <ele>364.60000610352</ele>
        <time>2013-09-14T14:14:40Z</time>
      </trkpt>
      <trkpt lat="43.36723" lon="6.14003">
        <ele>364.60000610352</ele>
        <time>2013-09-14T14:14:42Z</time>
      </trkpt>
      <trkpt lat="43.3672" lon="6.14003">
        <ele>364.60000610352</ele>
        <time>2013-09-14T14:14:46Z</time>
      </trkpt>
      <trkpt lat="43.36719" lon="6.14002">
        <ele>364.60000610352</ele>
        <time>2013-09-14T14:14:48Z</time>
      </trkpt>
      <trkpt lat="43.36717" lon="6.14003">
        <ele>364.60000610352</ele>
        <time>2013-09-14T14:14:50Z</time>
      </trkpt>
      <trkpt lat="43.36716" lon="6.14004">
        <ele>364.60000610352</ele>
        <time>2013-09-14T14:14:51Z</time>
      </trkpt>
      <trkpt lat="43.36708" lon="6.14012">
        <ele>364.60000610352</ele>
        <time>2013-09-14T14:14:55Z</time>
      </trkpt>
      <trkpt lat="43.36705" lon="6.14017">
        <ele>364.60000610352</ele>
        <time>2013-09-14T14:14:58Z</time>
      </trkpt>
      <trkpt lat="43.36703" lon="6.1402">
        <ele>364.60000610352</ele>
        <time>2013-09-14T14:15:00Z</time>
      </trkpt>
      <trkpt lat="43.36702" lon="6.14022">
        <ele>364.60000610352</ele>
        <time>2013-09-14T14:15:01Z</time>
      </trkpt>
      <trkpt lat="43.3669" lon="6.14036">
        <ele>364.60000610352</ele>
        <time>2013-09-14T14:15:09Z</time>
      </trkpt>
      <trkpt lat="43.36681" lon="6.14044">
        <ele>364.60000610352</ele>
        <time>2013-09-14T14:15:15Z</time>
      </trkpt>
      <trkpt lat="43.36676" lon="6.14054">
        <ele>364.60000610352</ele>
        <time>2013-09-14T14:15:21Z</time>
      </trkpt>
      <trkpt lat="43.36672" lon="6.14063">
        <ele>364.60000610352</ele>
        <time>2013-09-14T14:15:25Z</time>
      </trkpt>
      <trkpt lat="43.3667" lon="6.14068">
        <ele>364.60000610352</ele>
        <time>2013-09-14T14:15:28Z</time>
      </trkpt>
      <trkpt lat="43.36666" lon="6.14085">
        <ele>364.60000610352</ele>
        <time>2013-09-14T14:15:34Z</time>
      </trkpt>
      <trkpt lat="43.36666" lon="6.14092">
        <ele>364.60000610352</ele>
        <time>2013-09-14T14:15:37Z</time>
      </trkpt>
      <trkpt lat="43.36665" lon="6.14099">
        <ele>364.60000610352</ele>
        <time>2013-09-14T14:15:40Z</time>
      </trkpt>
      <trkpt lat="43.36665" lon="6.14108">
        <ele>364.60000610352</ele>
        <time>2013-09-14T14:15:45Z</time>
      </trkpt>
      <trkpt lat="43.36665" lon="6.14115">
        <ele>364.60000610352</ele>
        <time>2013-09-14T14:15:48Z</time>
      </trkpt>
      <trkpt lat="43.36666" lon="6.1413">
        <ele>364.60000610352</ele>
        <time>2013-09-14T14:15:55Z</time>
      </trkpt>
      <trkpt lat="43.36667" lon="6.14137">
        <ele>365.39999389648</ele>
        <time>2013-09-14T14:15:58Z</time>
      </trkpt>
      <trkpt lat="43.36667" lon="6.1414">
        <ele>366.60000610352</ele>
        <time>2013-09-14T14:16:00Z</time>
      </trkpt>
      <trkpt lat="43.36668" lon="6.14147">
        <ele>366.60000610352</ele>
        <time>2013-09-14T14:16:04Z</time>
      </trkpt>
      <trkpt lat="43.36668" lon="6.14157">
        <ele>366.60000610352</ele>
        <time>2013-09-14T14:16:10Z</time>
      </trkpt>
      <trkpt lat="43.3667" lon="6.14165">
        <ele>367</ele>
        <time>2013-09-14T14:16:15Z</time>
      </trkpt>
      <trkpt lat="43.3667" lon="6.14169">
        <ele>367.79998779297</ele>
        <time>2013-09-14T14:16:17Z</time>
      </trkpt>
      <trkpt lat="43.3667" lon="6.1417">
        <ele>368.20001220703</ele>
        <time>2013-09-14T14:16:18Z</time>
      </trkpt>
      <trkpt lat="43.36672" lon="6.14177">
        <ele>368.79998779297</ele>
        <time>2013-09-14T14:16:22Z</time>
      </trkpt>
      <trkpt lat="43.36676" lon="6.14191">
        <ele>368.79998779297</ele>
        <time>2013-09-14T14:16:29Z</time>
      </trkpt>
      <trkpt lat="43.36679" lon="6.142">
        <ele>368.79998779297</ele>
        <time>2013-09-14T14:16:34Z</time>
      </trkpt>
      <trkpt lat="43.36678" lon="6.14204">
        <ele>369.60000610352</ele>
        <time>2013-09-14T14:16:36Z</time>
      </trkpt>
      <trkpt lat="43.36679" lon="6.14217">
        <ele>370.79998779297</ele>
        <time>2013-09-14T14:16:43Z</time>
      </trkpt>
      <trkpt lat="43.36681" lon="6.14244">
        <ele>370.79998779297</ele>
        <time>2013-09-14T14:16:56Z</time>
      </trkpt>
      <trkpt lat="43.36681" lon="6.14253">
        <ele>370.79998779297</ele>
        <time>2013-09-14T14:17:00Z</time>
      </trkpt>
      <trkpt lat="43.36679" lon="6.1427">
        <ele>370.79998779297</ele>
        <time>2013-09-14T14:17:07Z</time>
      </trkpt>
      <trkpt lat="43.36678" lon="6.14286">
        <ele>371.79998779297</ele>
        <time>2013-09-14T14:17:14Z</time>
      </trkpt>
      <trkpt lat="43.36678" lon="6.14285">
        <ele>372.20001220703</ele>
        <time>2013-09-14T14:17:15Z</time>
      </trkpt>
      <trkpt lat="43.36678" lon="6.14285">
        <ele>373</ele>
        <time>2013-09-14T14:17:39Z</time>
      </trkpt>
      <trkpt lat="43.36678" lon="6.14285">
        <ele>373</ele>
        <time>2013-09-14T14:18:07Z</time>
      </trkpt>
      <trkpt lat="43.36678" lon="6.14286">
        <ele>373</ele>
        <time>2013-09-14T14:18:29Z</time>
      </trkpt>
      <trkpt lat="43.36678" lon="6.14291">
        <ele>373</ele>
        <time>2013-09-14T14:18:35Z</time>
      </trkpt>
      <trkpt lat="43.36676" lon="6.14303">
        <ele>373</ele>
        <time>2013-09-14T14:18:40Z</time>
      </trkpt>
      <trkpt lat="43.36675" lon="6.14308">
        <ele>373</ele>
        <time>2013-09-14T14:18:42Z</time>
      </trkpt>
      <trkpt lat="43.36671" lon="6.14326">
        <ele>373</ele>
        <time>2013-09-14T14:18:49Z</time>
      </trkpt>
      <trkpt lat="43.36662" lon="6.14348">
        <ele>373</ele>
        <time>2013-09-14T14:19:01Z</time>
      </trkpt>
      <trkpt lat="43.3666" lon="6.14352">
        <ele>373.79998779297</ele>
        <time>2013-09-14T14:19:03Z</time>
      </trkpt>
      <trkpt lat="43.36653" lon="6.14365">
        <ele>375</ele>
        <time>2013-09-14T14:19:11Z</time>
      </trkpt>
      <trkpt lat="43.36652" lon="6.14367">
        <ele>375</ele>
        <time>2013-09-14T14:19:12Z</time>
      </trkpt>
      <trkpt lat="43.36644" lon="6.14377">
        <ele>375</ele>
        <time>2013-09-14T14:19:18Z</time>
      </trkpt>
      <trkpt lat="43.36635" lon="6.14386">
        <ele>375</ele>
        <time>2013-09-14T14:19:25Z</time>
      </trkpt>
      <trkpt lat="43.36623" lon="6.144">
        <ele>376.60000610352</ele>
        <time>2013-09-14T14:19:34Z</time>
      </trkpt>
      <trkpt lat="43.36622" lon="6.14402">
        <ele>377</ele>
        <time>2013-09-14T14:19:35Z</time>
      </trkpt>
      <trkpt lat="43.36619" lon="6.14406">
        <ele>377</ele>
        <time>2013-09-14T14:19:37Z</time>
      </trkpt>
      <trkpt lat="43.36611" lon="6.1442">
        <ele>377</ele>
        <time>2013-09-14T14:19:44Z</time>
      </trkpt>
      <trkpt lat="43.36605" lon="6.14434">
        <ele>378</ele>
        <time>2013-09-14T14:19:51Z</time>
      </trkpt>
      <trkpt lat="43.36603" lon="6.1444">
        <ele>379.20001220703</ele>
        <time>2013-09-14T14:19:54Z</time>
      </trkpt>
      <trkpt lat="43.366" lon="6.14451">
        <ele>379.20001220703</ele>
        <time>2013-09-14T14:19:59Z</time>
      </trkpt>
      <trkpt lat="43.36592" lon="6.14459">
        <ele>379.20001220703</ele>
        <time>2013-09-14T14:20:05Z</time>
      </trkpt>
      <trkpt lat="43.36589" lon="6.14458">
        <ele>379.20001220703</ele>
        <time>2013-09-14T14:20:06Z</time>
      </trkpt>
      <trkpt lat="43.36586" lon="6.14454">
        <ele>379.20001220703</ele>
        <time>2013-09-14T14:20:08Z</time>
      </trkpt>
      <trkpt lat="43.36584" lon="6.14443">
        <ele>379.20001220703</ele>
        <time>2013-09-14T14:20:13Z</time>
      </trkpt>
      <trkpt lat="43.36582" lon="6.1443">
        <ele>379.20001220703</ele>
        <time>2013-09-14T14:20:18Z</time>
      </trkpt>
      <trkpt lat="43.36581" lon="6.14417">
        <ele>380.60000610352</ele>
        <time>2013-09-14T14:20:22Z</time>
      </trkpt>
      <trkpt lat="43.36581" lon="6.14411">
        <ele>381.39999389648</ele>
        <time>2013-09-14T14:20:24Z</time>
      </trkpt>
      <trkpt lat="43.36581" lon="6.14407">
        <ele>381.39999389648</ele>
        <time>2013-09-14T14:20:25Z</time>
      </trkpt>
      <trkpt lat="43.36578" lon="6.14399">
        <ele>381.39999389648</ele>
        <time>2013-09-14T14:20:28Z</time>
      </trkpt>
      <trkpt lat="43.36577" lon="6.14397">
        <ele>381.39999389648</ele>
        <time>2013-09-14T14:20:29Z</time>
      </trkpt>
      <trkpt lat="43.36574" lon="6.14394">
        <ele>381.79998779297</ele>
        <time>2013-09-14T14:20:31Z</time>
      </trkpt>
      <trkpt lat="43.36571" lon="6.14391">
        <ele>383.20001220703</ele>
        <time>2013-09-14T14:20:33Z</time>
      </trkpt>
      <trkpt lat="43.36563" lon="6.14388">
        <ele>384.39999389648</ele>
        <time>2013-09-14T14:20:38Z</time>
      </trkpt>
      <trkpt lat="43.36548" lon="6.14384">
        <ele>387.39999389648</ele>
        <time>2013-09-14T14:20:48Z</time>
      </trkpt>
      <trkpt lat="43.36537" lon="6.14381">
        <ele>388.60000610352</ele>
        <time>2013-09-14T14:20:57Z</time>
      </trkpt>
      <trkpt lat="43.36535" lon="6.14379">
        <ele>389.60000610352</ele>
        <time>2013-09-14T14:20:59Z</time>
      </trkpt>
      <trkpt lat="43.36534" lon="6.14379">
        <ele>390</ele>
        <time>2013-09-14T14:21:00Z</time>
      </trkpt>
      <trkpt lat="43.36531" lon="6.14376">
        <ele>390</ele>
        <time>2013-09-14T14:21:05Z</time>
      </trkpt>
      <trkpt lat="43.36531" lon="6.14376">
        <ele>392</ele>
        <time>2013-09-14T14:21:24Z</time>
      </trkpt>
      <trkpt lat="43.36531" lon="6.14376">
        <ele>392</ele>
        <time>2013-09-14T14:21:43Z</time>
      </trkpt>
      <trkpt lat="43.36531" lon="6.14376">
        <ele>392</ele>
        <time>2013-09-14T14:21:46Z</time>
      </trkpt>
      <trkpt lat="43.36531" lon="6.14376">
        <ele>392</ele>
        <time>2013-09-14T14:21:55Z</time>
      </trkpt>
      <trkpt lat="43.36531" lon="6.14375">
        <ele>392</ele>
        <time>2013-09-14T14:22:01Z</time>
      </trkpt>
      <trkpt lat="43.36531" lon="6.14375">
        <ele>392</ele>
        <time>2013-09-14T14:22:20Z</time>
      </trkpt>
      <trkpt lat="43.36531" lon="6.14375">
        <ele>393.39999389648</ele>
        <time>2013-09-14T14:22:34Z</time>
      </trkpt>
      <trkpt lat="43.36531" lon="6.14375">
        <ele>393</ele>
        <time>2013-09-14T14:22:35Z</time>
      </trkpt>
      <trkpt lat="43.3653" lon="6.14373">
        <ele>392.60000610352</ele>
        <time>2013-09-14T14:22:36Z</time>
      </trkpt>
      <trkpt lat="43.36529" lon="6.14371">
        <ele>392.20001220703</ele>
        <time>2013-09-14T14:22:37Z</time>
      </trkpt>
      <trkpt lat="43.36526" lon="6.14365">
        <ele>392.20001220703</ele>
        <time>2013-09-14T14:22:39Z</time>
      </trkpt>
      <trkpt lat="43.36524" lon="6.14361">
        <ele>392.20001220703</ele>
        <time>2013-09-14T14:22:40Z</time>
      </trkpt>
      <trkpt lat="43.36521" lon="6.14337">
        <ele>392.20001220703</ele>
        <time>2013-09-14T14:22:45Z</time>
      </trkpt>
      <trkpt lat="43.36522" lon="6.14331">
        <ele>392.20001220703</ele>
        <time>2013-09-14T14:22:46Z</time>
      </trkpt>
      <trkpt lat="43.36523" lon="6.14312">
        <ele>392.20001220703</ele>
        <time>2013-09-14T14:22:50Z</time>
      </trkpt>
      <trkpt lat="43.36528" lon="6.14305">
        <ele>392.20001220703</ele>
        <time>2013-09-14T14:22:53Z</time>
      </trkpt>
      <trkpt lat="43.36528" lon="6.14302">
        <ele>392.20001220703</ele>
        <time>2013-09-14T14:22:54Z</time>
      </trkpt>
      <trkpt lat="43.36533" lon="6.14283">
        <ele>392.20001220703</ele>
        <time>2013-09-14T14:22:59Z</time>
      </trkpt>
      <trkpt lat="43.36536" lon="6.1426">
        <ele>392.20001220703</ele>
        <time>2013-09-14T14:23:05Z</time>
      </trkpt>
      <trkpt lat="43.3654" lon="6.1423">
        <ele>391.79998779297</ele>
        <time>2013-09-14T14:23:12Z</time>
      </trkpt>
      <trkpt lat="43.36542" lon="6.1421">
        <ele>390</ele>
        <time>2013-09-14T14:23:17Z</time>
      </trkpt>
      <trkpt lat="43.3654" lon="6.14176">
        <ele>389.60000610352</ele>
        <time>2013-09-14T14:23:24Z</time>
      </trkpt>
      <trkpt lat="43.36539" lon="6.14162">
        <ele>387.79998779297</ele>
        <time>2013-09-14T14:23:27Z</time>
      </trkpt>
      <trkpt lat="43.36533" lon="6.14133">
        <ele>387.79998779297</ele>
        <time>2013-09-14T14:23:34Z</time>
      </trkpt>
      <trkpt lat="43.3653" lon="6.14116">
        <ele>387.39999389648</ele>
        <time>2013-09-14T14:23:38Z</time>
      </trkpt>
      <trkpt lat="43.36528" lon="6.14106">
        <ele>386.60000610352</ele>
        <time>2013-09-14T14:23:41Z</time>
      </trkpt>
      <trkpt lat="43.36526" lon="6.14097">
        <ele>385.79998779297</ele>
        <time>2013-09-14T14:23:43Z</time>
      </trkpt>
      <trkpt lat="43.36523" lon="6.14084">
        <ele>385.79998779297</ele>
        <time>2013-09-14T14:23:46Z</time>
      </trkpt>
      <trkpt lat="43.36524" lon="6.14061">
        <ele>383.79998779297</ele>
        <time>2013-09-14T14:23:51Z</time>
      </trkpt>
      <trkpt lat="43.36527" lon="6.14037">
        <ele>381.39999389648</ele>
        <time>2013-09-14T14:23:57Z</time>
      </trkpt>
      <trkpt lat="43.36527" lon="6.14028">
        <ele>381.39999389648</ele>
        <time>2013-09-14T14:23:59Z</time>
      </trkpt>
      <trkpt lat="43.3653" lon="6.14016">
        <ele>381.39999389648</ele>
        <time>2013-09-14T14:24:02Z</time>
      </trkpt>
      <trkpt lat="43.36532" lon="6.13999">
        <ele>381.39999389648</ele>
        <time>2013-09-14T14:24:06Z</time>
      </trkpt>
      <trkpt lat="43.36528" lon="6.13969">
        <ele>381.39999389648</ele>
        <time>2013-09-14T14:24:12Z</time>
      </trkpt>
      <trkpt lat="43.36525" lon="6.13938">
        <ele>381</ele>
        <time>2013-09-14T14:24:17Z</time>
      </trkpt>
      <trkpt lat="43.36524" lon="6.13927">
        <ele>380.20001220703</ele>
        <time>2013-09-14T14:24:19Z</time>
      </trkpt>
      <trkpt lat="43.36525" lon="6.13913">
        <ele>379.20001220703</ele>
        <time>2013-09-14T14:24:21Z</time>
      </trkpt>
      <trkpt lat="43.36529" lon="6.13877">
        <ele>378.39999389648</ele>
        <time>2013-09-14T14:24:26Z</time>
      </trkpt>
      <trkpt lat="43.36531" lon="6.13854">
        <ele>377.20001220703</ele>
        <time>2013-09-14T14:24:29Z</time>
      </trkpt>
      <trkpt lat="43.36533" lon="6.13822">
        <ele>376.79998779297</ele>
        <time>2013-09-14T14:24:33Z</time>
      </trkpt>
      <trkpt lat="43.36541" lon="6.1379">
        <ele>375.20001220703</ele>
        <time>2013-09-14T14:24:37Z</time>
      </trkpt>
      <trkpt lat="43.36545" lon="6.13773">
        <ele>375.20001220703</ele>
        <time>2013-09-14T14:24:39Z</time>
      </trkpt>
      <trkpt lat="43.36546" lon="6.13765">
        <ele>374.60000610352</ele>
        <time>2013-09-14T14:24:40Z</time>
      </trkpt>
      <trkpt lat="43.36547" lon="6.13756">
        <ele>374.20001220703</ele>
        <time>2013-09-14T14:24:41Z</time>
      </trkpt>
      <trkpt lat="43.36555" lon="6.13695">
        <ele>371.39999389648</ele>
        <time>2013-09-14T14:24:48Z</time>
      </trkpt>
      <trkpt lat="43.36559" lon="6.13675">
        <ele>370.39999389648</ele>
        <time>2013-09-14T14:24:50Z</time>
      </trkpt>
      <trkpt lat="43.36562" lon="6.13653">
        <ele>369.60000610352</ele>
        <time>2013-09-14T14:24:52Z</time>
      </trkpt>
      <trkpt lat="43.36564" lon="6.13641">
        <ele>369.20001220703</ele>
        <time>2013-09-14T14:24:53Z</time>
      </trkpt>
      <trkpt lat="43.36568" lon="6.13618">
        <ele>368.20001220703</ele>
        <time>2013-09-14T14:24:55Z</time>
      </trkpt>
      <trkpt lat="43.36573" lon="6.13597">
        <ele>367.20001220703</ele>
        <time>2013-09-14T14:24:57Z</time>
      </trkpt>
      <trkpt lat="43.36576" lon="6.13587">
        <ele>366.60000610352</ele>
        <time>2013-09-14T14:24:58Z</time>
      </trkpt>
      <trkpt lat="43.36579" lon="6.13577">
        <ele>366</ele>
        <time>2013-09-14T14:24:59Z</time>
      </trkpt>
      <trkpt lat="43.36584" lon="6.13556">
        <ele>365.60000610352</ele>
        <time>2013-09-14T14:25:01Z</time>
      </trkpt>
      <trkpt lat="43.36593" lon="6.13526">
        <ele>363.79998779297</ele>
        <time>2013-09-14T14:25:04Z</time>
      </trkpt>
      <trkpt lat="43.36602" lon="6.13474">
        <ele>360.79998779297</ele>
        <time>2013-09-14T14:25:09Z</time>
      </trkpt>
      <trkpt lat="43.36608" lon="6.13446">
        <ele>360.39999389648</ele>
        <time>2013-09-14T14:25:12Z</time>
      </trkpt>
      <trkpt lat="43.36619" lon="6.1341">
        <ele>358.60000610352</ele>
        <time>2013-09-14T14:25:16Z</time>
      </trkpt>
      <trkpt lat="43.36627" lon="6.13386">
        <ele>358.60000610352</ele>
        <time>2013-09-14T14:25:19Z</time>
      </trkpt>
      <trkpt lat="43.36641" lon="6.13327">
        <ele>358.60000610352</ele>
        <time>2013-09-14T14:25:26Z</time>
      </trkpt>
      <trkpt lat="43.36645" lon="6.1331">
        <ele>357.79998779297</ele>
        <time>2013-09-14T14:25:28Z</time>
      </trkpt>
      <trkpt lat="43.36647" lon="6.13301">
        <ele>357.39999389648</ele>
        <time>2013-09-14T14:25:29Z</time>
      </trkpt>
      <trkpt lat="43.36648" lon="6.13291">
        <ele>356.39999389648</ele>
        <time>2013-09-14T14:25:30Z</time>
      </trkpt>
      <trkpt lat="43.3665" lon="6.13281">
        <ele>356</ele>
        <time>2013-09-14T14:25:31Z</time>
      </trkpt>
      <trkpt lat="43.36652" lon="6.13262">
        <ele>355.20001220703</ele>
        <time>2013-09-14T14:25:33Z</time>
      </trkpt>
      <trkpt lat="43.36654" lon="6.13253">
        <ele>354.79998779297</ele>
        <time>2013-09-14T14:25:34Z</time>
      </trkpt>
      <trkpt lat="43.36655" lon="6.13243">
        <ele>354.39999389648</ele>
        <time>2013-09-14T14:25:35Z</time>
      </trkpt>
      <trkpt lat="43.36656" lon="6.13233">
        <ele>354.39999389648</ele>
        <time>2013-09-14T14:25:36Z</time>
      </trkpt>
      <trkpt lat="43.36657" lon="6.13216">
        <ele>353.60000610352</ele>
        <time>2013-09-14T14:25:38Z</time>
      </trkpt>
      <trkpt lat="43.36658" lon="6.13208">
        <ele>353.20001220703</ele>
        <time>2013-09-14T14:25:39Z</time>
      </trkpt>
      <trkpt lat="43.36661" lon="6.13182">
        <ele>352.20001220703</ele>
        <time>2013-09-14T14:25:43Z</time>
      </trkpt>
      <trkpt lat="43.36661" lon="6.13168">
        <ele>351.79998779297</ele>
        <time>2013-09-14T14:25:45Z</time>
      </trkpt>
      <trkpt lat="43.36661" lon="6.13161">
        <ele>351.39999389648</ele>
        <time>2013-09-14T14:25:46Z</time>
      </trkpt>
      <trkpt lat="43.36663" lon="6.13154">
        <ele>350.79998779297</ele>
        <time>2013-09-14T14:25:47Z</time>
      </trkpt>
      <trkpt lat="43.36666" lon="6.13149">
        <ele>350.39999389648</ele>
        <time>2013-09-14T14:25:48Z</time>
      </trkpt>
      <trkpt lat="43.3667" lon="6.13145">
        <ele>350</ele>
        <time>2013-09-14T14:25:49Z</time>
      </trkpt>
      <trkpt lat="43.36684" lon="6.1314">
        <ele>349.20001220703</ele>
        <time>2013-09-14T14:25:52Z</time>
      </trkpt>
      <trkpt lat="43.3669" lon="6.13136">
        <ele>348.60000610352</ele>
        <time>2013-09-14T14:25:53Z</time>
      </trkpt>
      <trkpt lat="43.36694" lon="6.1313">
        <ele>348.20001220703</ele>
        <time>2013-09-14T14:25:54Z</time>
      </trkpt>
      <trkpt lat="43.36699" lon="6.13124">
        <ele>347.79998779297</ele>
        <time>2013-09-14T14:25:55Z</time>
      </trkpt>
      <trkpt lat="43.36707" lon="6.13098">
        <ele>346</ele>
        <time>2013-09-14T14:25:58Z</time>
      </trkpt>
      <trkpt lat="43.36717" lon="6.13063">
        <ele>343.20001220703</ele>
        <time>2013-09-14T14:26:02Z</time>
      </trkpt>
      <trkpt lat="43.36737" lon="6.13027">
        <ele>342.20001220703</ele>
        <time>2013-09-14T14:26:07Z</time>
      </trkpt>
      <trkpt lat="43.36745" lon="6.13012">
        <ele>341.39999389648</ele>
        <time>2013-09-14T14:26:09Z</time>
      </trkpt>
      <trkpt lat="43.36767" lon="6.12982">
        <ele>340.39999389648</ele>
        <time>2013-09-14T14:26:13Z</time>
      </trkpt>
      <trkpt lat="43.36773" lon="6.12975">
        <ele>340</ele>
        <time>2013-09-14T14:26:14Z</time>
      </trkpt>
      <trkpt lat="43.36806" lon="6.12943">
        <ele>337.20001220703</ele>
        <time>2013-09-14T14:26:19Z</time>
      </trkpt>
      <trkpt lat="43.36818" lon="6.12929">
        <ele>336.20001220703</ele>
        <time>2013-09-14T14:26:21Z</time>
      </trkpt>
      <trkpt lat="43.36824" lon="6.12922">
        <ele>335.79998779297</ele>
        <time>2013-09-14T14:26:22Z</time>
      </trkpt>
      <trkpt lat="43.36831" lon="6.12915">
        <ele>335.20001220703</ele>
        <time>2013-09-14T14:26:23Z</time>
      </trkpt>
      <trkpt lat="43.36845" lon="6.12903">
        <ele>334.20001220703</ele>
        <time>2013-09-14T14:26:25Z</time>
      </trkpt>
      <trkpt lat="43.36888" lon="6.12863">
        <ele>331.79998779297</ele>
        <time>2013-09-14T14:26:31Z</time>
      </trkpt>
      <trkpt lat="43.36894" lon="6.12857">
        <ele>331.39999389648</ele>
        <time>2013-09-14T14:26:32Z</time>
      </trkpt>
      <trkpt lat="43.369" lon="6.12851">
        <ele>330.79998779297</ele>
        <time>2013-09-14T14:26:33Z</time>
      </trkpt>
      <trkpt lat="43.36905" lon="6.12844">
        <ele>330.39999389648</ele>
        <time>2013-09-14T14:26:34Z</time>
      </trkpt>
      <trkpt lat="43.36909" lon="6.12836">
        <ele>329.79998779297</ele>
        <time>2013-09-14T14:26:35Z</time>
      </trkpt>
      <trkpt lat="43.36951" lon="6.12749">
        <ele>326.79998779297</ele>
        <time>2013-09-14T14:26:45Z</time>
      </trkpt>
      <trkpt lat="43.36958" lon="6.12735">
        <ele>325.79998779297</ele>
        <time>2013-09-14T14:26:47Z</time>
      </trkpt>
      <trkpt lat="43.36986" lon="6.12674">
        <ele>324.79998779297</ele>
        <time>2013-09-14T14:26:56Z</time>
      </trkpt>
      <trkpt lat="43.37003" lon="6.12637">
        <ele>324.79998779297</ele>
        <time>2013-09-14T14:27:02Z</time>
      </trkpt>
      <trkpt lat="43.37009" lon="6.12625">
        <ele>324.79998779297</ele>
        <time>2013-09-14T14:27:04Z</time>
      </trkpt>
      <trkpt lat="43.37021" lon="6.12599">
        <ele>324.39999389648</ele>
        <time>2013-09-14T14:27:08Z</time>
      </trkpt>
      <trkpt lat="43.37031" lon="6.12581">
        <ele>322.39999389648</ele>
        <time>2013-09-14T14:27:11Z</time>
      </trkpt>
      <trkpt lat="43.37043" lon="6.12563">
        <ele>322.39999389648</ele>
        <time>2013-09-14T14:27:14Z</time>
      </trkpt>
      <trkpt lat="43.37053" lon="6.12553">
        <ele>322.39999389648</ele>
        <time>2013-09-14T14:27:16Z</time>
      </trkpt>
      <trkpt lat="43.37066" lon="6.1254">
        <ele>322</ele>
        <time>2013-09-14T14:27:19Z</time>
      </trkpt>
      <trkpt lat="43.37076" lon="6.12531">
        <ele>321.20001220703</ele>
        <time>2013-09-14T14:27:21Z</time>
      </trkpt>
      <trkpt lat="43.37086" lon="6.12522">
        <ele>320.39999389648</ele>
        <time>2013-09-14T14:27:23Z</time>
      </trkpt>
      <trkpt lat="43.37099" lon="6.12508">
        <ele>320.39999389648</ele>
        <time>2013-09-14T14:27:26Z</time>
      </trkpt>
      <trkpt lat="43.37111" lon="6.12493">
        <ele>320.39999389648</ele>
        <time>2013-09-14T14:27:29Z</time>
      </trkpt>
      <trkpt lat="43.37127" lon="6.12457">
        <ele>320.39999389648</ele>
        <time>2013-09-14T14:27:35Z</time>
      </trkpt>
      <trkpt lat="43.37147" lon="6.12411">
        <ele>320.39999389648</ele>
        <time>2013-09-14T14:27:43Z</time>
      </trkpt>
      <trkpt lat="43.37169" lon="6.12379">
        <ele>320.39999389648</ele>
        <time>2013-09-14T14:27:50Z</time>
      </trkpt>
      <trkpt lat="43.37183" lon="6.12362">
        <ele>320.39999389648</ele>
        <time>2013-09-14T14:27:55Z</time>
      </trkpt>
      <trkpt lat="43.37187" lon="6.12357">
        <ele>320.39999389648</ele>
        <time>2013-09-14T14:27:57Z</time>
      </trkpt>
      <trkpt lat="43.37194" lon="6.12348">
        <ele>320.39999389648</ele>
        <time>2013-09-14T14:28:00Z</time>
      </trkpt>
      <trkpt lat="43.372" lon="6.12339">
        <ele>320.39999389648</ele>
        <time>2013-09-14T14:28:03Z</time>
      </trkpt>
      <trkpt lat="43.37203" lon="6.12332">
        <ele>320.39999389648</ele>
        <time>2013-09-14T14:28:05Z</time>
      </trkpt>
      <trkpt lat="43.37212" lon="6.12313">
        <ele>320.79998779297</ele>
        <time>2013-09-14T14:28:11Z</time>
      </trkpt>
      <trkpt lat="43.37216" lon="6.12305">
        <ele>322</ele>
        <time>2013-09-14T14:28:14Z</time>
      </trkpt>
      <trkpt lat="43.37218" lon="6.12302">
        <ele>322.39999389648</ele>
        <time>2013-09-14T14:28:15Z</time>
      </trkpt>
      <trkpt lat="43.37226" lon="6.12277">
        <ele>323.60000610352</ele>
        <time>2013-09-14T14:28:23Z</time>
      </trkpt>
      <trkpt lat="43.37229" lon="6.12268">
        <ele>324.39999389648</ele>
        <time>2013-09-14T14:28:26Z</time>
      </trkpt>
      <trkpt lat="43.37247" lon="6.12219">
        <ele>326.60000610352</ele>
        <time>2013-09-14T14:28:46Z</time>
      </trkpt>
      <trkpt lat="43.37254" lon="6.12205">
        <ele>327</ele>
        <time>2013-09-14T14:28:52Z</time>
      </trkpt>
      <trkpt lat="43.37257" lon="6.12199">
        <ele>328.20001220703</ele>
        <time>2013-09-14T14:28:55Z</time>
      </trkpt>
      <trkpt lat="43.3726" lon="6.12191">
        <ele>328.60000610352</ele>
        <time>2013-09-14T14:28:59Z</time>
      </trkpt>
      <trkpt lat="43.37265" lon="6.12183">
        <ele>328.60000610352</ele>
        <time>2013-09-14T14:29:05Z</time>
      </trkpt>
      <trkpt lat="43.37275" lon="6.12165">
        <ele>330.79998779297</ele>
        <time>2013-09-14T14:29:17Z</time>
      </trkpt>
      <trkpt lat="43.37281" lon="6.12156">
        <ele>330.79998779297</ele>
        <time>2013-09-14T14:29:24Z</time>
      </trkpt>
      <trkpt lat="43.37282" lon="6.12154">
        <ele>331.20001220703</ele>
        <time>2013-09-14T14:29:25Z</time>
      </trkpt>
      <trkpt lat="43.37288" lon="6.12147">
        <ele>332.79998779297</ele>
        <time>2013-09-14T14:29:31Z</time>
      </trkpt>
      <trkpt lat="43.37296" lon="6.1214">
        <ele>333.60000610352</ele>
        <time>2013-09-14T14:29:39Z</time>
      </trkpt>
      <trkpt lat="43.373" lon="6.12138">
        <ele>335</ele>
        <time>2013-09-14T14:29:42Z</time>
      </trkpt>
      <trkpt lat="43.37302" lon="6.12137">
        <ele>335</ele>
        <time>2013-09-14T14:29:44Z</time>
      </trkpt>
      <trkpt lat="43.37308" lon="6.12132">
        <ele>335.79998779297</ele>
        <time>2013-09-14T14:29:50Z</time>
      </trkpt>
      <trkpt lat="43.37315" lon="6.12129">
        <ele>337</ele>
        <time>2013-09-14T14:29:55Z</time>
      </trkpt>
      <trkpt lat="43.37316" lon="6.12128">
        <ele>337</ele>
        <time>2013-09-14T14:29:56Z</time>
      </trkpt>
      <trkpt lat="43.37321" lon="6.12122">
        <ele>337</ele>
        <time>2013-09-14T14:30:01Z</time>
      </trkpt>
      <trkpt lat="43.37322" lon="6.12121">
        <ele>337</ele>
        <time>2013-09-14T14:30:02Z</time>
      </trkpt>
      <trkpt lat="43.37326" lon="6.12119">
        <ele>337.79998779297</ele>
        <time>2013-09-14T14:30:06Z</time>
      </trkpt>
      <trkpt lat="43.3733" lon="6.12117">
        <ele>339.20001220703</ele>
        <time>2013-09-14T14:30:10Z</time>
      </trkpt>
      <trkpt lat="43.37334" lon="6.12116">
        <ele>339.20001220703</ele>
        <time>2013-09-14T14:30:13Z</time>
      </trkpt>
      <trkpt lat="43.37344" lon="6.12106">
        <ele>339.20001220703</ele>
        <time>2013-09-14T14:30:23Z</time>
      </trkpt>
      <trkpt lat="43.37361" lon="6.12094">
        <ele>341.20001220703</ele>
        <time>2013-09-14T14:30:40Z</time>
      </trkpt>
      <trkpt lat="43.37363" lon="6.12093">
        <ele>342.20001220703</ele>
        <time>2013-09-14T14:30:42Z</time>
      </trkpt>
      <trkpt lat="43.37365" lon="6.12093">
        <ele>343</ele>
        <time>2013-09-14T14:30:44Z</time>
      </trkpt>
      <trkpt lat="43.37368" lon="6.12092">
        <ele>343.39999389648</ele>
        <time>2013-09-14T14:30:47Z</time>
      </trkpt>
      <trkpt lat="43.37371" lon="6.12092">
        <ele>343.39999389648</ele>
        <time>2013-09-14T14:30:51Z</time>
      </trkpt>
      <trkpt lat="43.37372" lon="6.1209">
        <ele>343.39999389648</ele>
        <time>2013-09-14T14:30:52Z</time>
      </trkpt>
      <trkpt lat="43.37384" lon="6.1209">
        <ele>343.39999389648</ele>
        <time>2013-09-14T14:31:00Z</time>
      </trkpt>
      <trkpt lat="43.37391" lon="6.1209">
        <ele>345.39999389648</ele>
        <time>2013-09-14T14:31:05Z</time>
      </trkpt>
      <trkpt lat="43.37407" lon="6.12089">
        <ele>345.39999389648</ele>
        <time>2013-09-14T14:31:17Z</time>
      </trkpt>
      <trkpt lat="43.37414" lon="6.12087">
        <ele>345.79998779297</ele>
        <time>2013-09-14T14:31:23Z</time>
      </trkpt>
      <trkpt lat="43.37416" lon="6.12088">
        <ele>346.60000610352</ele>
        <time>2013-09-14T14:31:25Z</time>
      </trkpt>
      <trkpt lat="43.37419" lon="6.12087">
        <ele>347.39999389648</ele>
        <time>2013-09-14T14:31:27Z</time>
      </trkpt>
      <trkpt lat="43.37423" lon="6.12087">
        <ele>347.39999389648</ele>
        <time>2013-09-14T14:31:30Z</time>
      </trkpt>
      <trkpt lat="43.37427" lon="6.12085">
        <ele>347.39999389648</ele>
        <time>2013-09-14T14:31:36Z</time>
      </trkpt>
      <trkpt lat="43.37428" lon="6.12085">
        <ele>347.39999389648</ele>
        <time>2013-09-14T14:31:37Z</time>
      </trkpt>
      <trkpt lat="43.37428" lon="6.12085">
        <ele>347.39999389648</ele>
        <time>2013-09-14T14:32:03Z</time>
      </trkpt>
      <trkpt lat="43.37428" lon="6.12085">
        <ele>347.39999389648</ele>
        <time>2013-09-14T14:32:55Z</time>
      </trkpt>
      <trkpt lat="43.37428" lon="6.12085">
        <ele>347.39999389648</ele>
        <time>2013-09-14T14:33:26Z</time>
      </trkpt>
      <trkpt lat="43.3743" lon="6.12084">
        <ele>347.39999389648</ele>
        <time>2013-09-14T14:33:31Z</time>
      </trkpt>
      <trkpt lat="43.37431" lon="6.12084">
        <ele>347.39999389648</ele>
        <time>2013-09-14T14:33:32Z</time>
      </trkpt>
      <trkpt lat="43.37443" lon="6.12085">
        <ele>347.39999389648</ele>
        <time>2013-09-14T14:33:36Z</time>
      </trkpt>
      <trkpt lat="43.37456" lon="6.12081">
        <ele>347.39999389648</ele>
        <time>2013-09-14T14:33:39Z</time>
      </trkpt>
      <trkpt lat="43.37461" lon="6.12079">
        <ele>347.39999389648</ele>
        <time>2013-09-14T14:33:40Z</time>
      </trkpt>
      <trkpt lat="43.37466" lon="6.12076">
        <ele>347.39999389648</ele>
        <time>2013-09-14T14:33:41Z</time>
      </trkpt>
      <trkpt lat="43.3747" lon="6.12073">
        <ele>347</ele>
        <time>2013-09-14T14:33:42Z</time>
      </trkpt>
      <trkpt lat="43.37475" lon="6.12069">
        <ele>346.60000610352</ele>
        <time>2013-09-14T14:33:43Z</time>
      </trkpt>
      <trkpt lat="43.37481" lon="6.12064">
        <ele>346.20001220703</ele>
        <time>2013-09-14T14:33:44Z</time>
      </trkpt>
      <trkpt lat="43.37486" lon="6.12058">
        <ele>345</ele>
        <time>2013-09-14T14:33:45Z</time>
      </trkpt>
      <trkpt lat="43.37506" lon="6.12038">
        <ele>342.20001220703</ele>
        <time>2013-09-14T14:33:49Z</time>
      </trkpt>
      <trkpt lat="43.37514" lon="6.12029">
        <ele>340.39999389648</ele>
        <time>2013-09-14T14:33:51Z</time>
      </trkpt>
      <trkpt lat="43.37539" lon="6.12005">
        <ele>336.20001220703</ele>
        <time>2013-09-14T14:33:56Z</time>
      </trkpt>
      <trkpt lat="43.37568" lon="6.11981">
        <ele>332</ele>
        <time>2013-09-14T14:34:01Z</time>
      </trkpt>
      <trkpt lat="43.37574" lon="6.11976">
        <ele>331</ele>
        <time>2013-09-14T14:34:02Z</time>
      </trkpt>
      <trkpt lat="43.3758" lon="6.11969">
        <ele>330.20001220703</ele>
        <time>2013-09-14T14:34:03Z</time>
      </trkpt>
      <trkpt lat="43.37591" lon="6.11957">
        <ele>328.60000610352</ele>
        <time>2013-09-14T14:34:05Z</time>
      </trkpt>
      <trkpt lat="43.37595" lon="6.11952">
        <ele>327.79998779297</ele>
        <time>2013-09-14T14:34:06Z</time>
      </trkpt>
      <trkpt lat="43.376" lon="6.11945">
        <ele>327</ele>
        <time>2013-09-14T14:34:07Z</time>
      </trkpt>
      <trkpt lat="43.37605" lon="6.11938">
        <ele>326.39999389648</ele>
        <time>2013-09-14T14:34:08Z</time>
      </trkpt>
      <trkpt lat="43.37609" lon="6.11931">
        <ele>325</ele>
        <time>2013-09-14T14:34:09Z</time>
      </trkpt>
      <trkpt lat="43.37614" lon="6.11923">
        <ele>324.20001220703</ele>
        <time>2013-09-14T14:34:10Z</time>
      </trkpt>
      <trkpt lat="43.37619" lon="6.11913">
        <ele>323.39999389648</ele>
        <time>2013-09-14T14:34:11Z</time>
      </trkpt>
      <trkpt lat="43.37624" lon="6.11904">
        <ele>322.39999389648</ele>
        <time>2013-09-14T14:34:12Z</time>
      </trkpt>
      <trkpt lat="43.37631" lon="6.11895">
        <ele>321.60000610352</ele>
        <time>2013-09-14T14:34:13Z</time>
      </trkpt>
      <trkpt lat="43.37661" lon="6.11852">
        <ele>317.20001220703</ele>
        <time>2013-09-14T14:34:18Z</time>
      </trkpt>
      <trkpt lat="43.37671" lon="6.11838">
        <ele>316</ele>
        <time>2013-09-14T14:34:20Z</time>
      </trkpt>
      <trkpt lat="43.37674" lon="6.11831">
        <ele>315.39999389648</ele>
        <time>2013-09-14T14:34:21Z</time>
      </trkpt>
      <trkpt lat="43.37682" lon="6.1181">
        <ele>313.60000610352</ele>
        <time>2013-09-14T14:34:24Z</time>
      </trkpt>
      <trkpt lat="43.37685" lon="6.11802">
        <ele>313</ele>
        <time>2013-09-14T14:34:25Z</time>
      </trkpt>
      <trkpt lat="43.37689" lon="6.11793">
        <ele>312.39999389648</ele>
        <time>2013-09-14T14:34:26Z</time>
      </trkpt>
      <trkpt lat="43.37693" lon="6.11783">
        <ele>311.60000610352</ele>
        <time>2013-09-14T14:34:27Z</time>
      </trkpt>
      <trkpt lat="43.37698" lon="6.11774">
        <ele>311</ele>
        <time>2013-09-14T14:34:28Z</time>
      </trkpt>
      <trkpt lat="43.37701" lon="6.11766">
        <ele>310.20001220703</ele>
        <time>2013-09-14T14:34:29Z</time>
      </trkpt>
      <trkpt lat="43.37711" lon="6.1175">
        <ele>309</ele>
        <time>2013-09-14T14:34:31Z</time>
      </trkpt>
      <trkpt lat="43.3772" lon="6.11733">
        <ele>308.20001220703</ele>
        <time>2013-09-14T14:34:33Z</time>
      </trkpt>
      <trkpt lat="43.37747" lon="6.11682">
        <ele>305.60000610352</ele>
        <time>2013-09-14T14:34:39Z</time>
      </trkpt>
      <trkpt lat="43.3775" lon="6.11673">
        <ele>305</ele>
        <time>2013-09-14T14:34:40Z</time>
      </trkpt>
      <trkpt lat="43.37762" lon="6.11645">
        <ele>304.20001220703</ele>
        <time>2013-09-14T14:34:43Z</time>
      </trkpt>
      <trkpt lat="43.37767" lon="6.11636">
        <ele>303.79998779297</ele>
        <time>2013-09-14T14:34:44Z</time>
      </trkpt>
      <trkpt lat="43.37772" lon="6.11627">
        <ele>303.39999389648</ele>
        <time>2013-09-14T14:34:45Z</time>
      </trkpt>
      <trkpt lat="43.37784" lon="6.11611">
        <ele>302.39999389648</ele>
        <time>2013-09-14T14:34:47Z</time>
      </trkpt>
      <trkpt lat="43.3779" lon="6.11602">
        <ele>301.79998779297</ele>
        <time>2013-09-14T14:34:48Z</time>
      </trkpt>
      <trkpt lat="43.37803" lon="6.11587">
        <ele>300.60000610352</ele>
        <time>2013-09-14T14:34:50Z</time>
      </trkpt>
      <trkpt lat="43.37814" lon="6.11573">
        <ele>300.60000610352</ele>
        <time>2013-09-14T14:34:52Z</time>
      </trkpt>
      <trkpt lat="43.37825" lon="6.11549">
        <ele>300.20001220703</ele>
        <time>2013-09-14T14:34:55Z</time>
      </trkpt>
      <trkpt lat="43.37829" lon="6.1154">
        <ele>299.79998779297</ele>
        <time>2013-09-14T14:34:56Z</time>
      </trkpt>
      <trkpt lat="43.37836" lon="6.11521">
        <ele>298.60000610352</ele>
        <time>2013-09-14T14:34:58Z</time>
      </trkpt>
      <trkpt lat="43.37843" lon="6.11503">
        <ele>298.20001220703</ele>
        <time>2013-09-14T14:35:00Z</time>
      </trkpt>
      <trkpt lat="43.3785" lon="6.11487">
        <ele>297.39999389648</ele>
        <time>2013-09-14T14:35:02Z</time>
      </trkpt>
      <trkpt lat="43.37855" lon="6.1148">
        <ele>297</ele>
        <time>2013-09-14T14:35:03Z</time>
      </trkpt>
      <trkpt lat="43.3786" lon="6.11476">
        <ele>296.60000610352</ele>
        <time>2013-09-14T14:35:04Z</time>
      </trkpt>
      <trkpt lat="43.37866" lon="6.11474">
        <ele>296</ele>
        <time>2013-09-14T14:35:05Z</time>
      </trkpt>
      <trkpt lat="43.37877" lon="6.11473">
        <ele>295.20001220703</ele>
        <time>2013-09-14T14:35:07Z</time>
      </trkpt>
      <trkpt lat="43.37888" lon="6.11469">
        <ele>294.20001220703</ele>
        <time>2013-09-14T14:35:09Z</time>
      </trkpt>
      <trkpt lat="43.37903" lon="6.11456">
        <ele>294.20001220703</ele>
        <time>2013-09-14T14:35:13Z</time>
      </trkpt>
      <trkpt lat="43.37911" lon="6.11448">
        <ele>294.20001220703</ele>
        <time>2013-09-14T14:35:15Z</time>
      </trkpt>
      <trkpt lat="43.37918" lon="6.11441">
        <ele>294.20001220703</ele>
        <time>2013-09-14T14:35:17Z</time>
      </trkpt>
      <trkpt lat="43.37925" lon="6.11431">
        <ele>294.20001220703</ele>
        <time>2013-09-14T14:35:20Z</time>
      </trkpt>
      <trkpt lat="43.37938" lon="6.11412">
        <ele>294.20001220703</ele>
        <time>2013-09-14T14:35:25Z</time>
      </trkpt>
      <trkpt lat="43.37953" lon="6.11394">
        <ele>294.20001220703</ele>
        <time>2013-09-14T14:35:30Z</time>
      </trkpt>
      <trkpt lat="43.37968" lon="6.11377">
        <ele>294.20001220703</ele>
        <time>2013-09-14T14:35:35Z</time>
      </trkpt>
      <trkpt lat="43.37979" lon="6.11364">
        <ele>294.20001220703</ele>
        <time>2013-09-14T14:35:39Z</time>
      </trkpt>
      <trkpt lat="43.37986" lon="6.11354">
        <ele>294.20001220703</ele>
        <time>2013-09-14T14:35:42Z</time>
      </trkpt>
      <trkpt lat="43.37998" lon="6.11332">
        <ele>294.20001220703</ele>
        <time>2013-09-14T14:35:48Z</time>
      </trkpt>
      <trkpt lat="43.38008" lon="6.11311">
        <ele>294.20001220703</ele>
        <time>2013-09-14T14:35:54Z</time>
      </trkpt>
      <trkpt lat="43.38025" lon="6.11268">
        <ele>294.20001220703</ele>
        <time>2013-09-14T14:36:04Z</time>
      </trkpt>
      <trkpt lat="43.38037" lon="6.11244">
        <ele>294.20001220703</ele>
        <time>2013-09-14T14:36:10Z</time>
      </trkpt>
      <trkpt lat="43.3805" lon="6.11219">
        <ele>294.20001220703</ele>
        <time>2013-09-14T14:36:17Z</time>
      </trkpt>
      <trkpt lat="43.38062" lon="6.11204">
        <ele>294.20001220703</ele>
        <time>2013-09-14T14:36:21Z</time>
      </trkpt>
      <trkpt lat="43.38068" lon="6.11197">
        <ele>294.20001220703</ele>
        <time>2013-09-14T14:36:23Z</time>
      </trkpt>
      <trkpt lat="43.3809" lon="6.11174">
        <ele>294.20001220703</ele>
        <time>2013-09-14T14:36:29Z</time>
      </trkpt>
      <trkpt lat="43.38103" lon="6.11157">
        <ele>294.20001220703</ele>
        <time>2013-09-14T14:36:32Z</time>
      </trkpt>
      <trkpt lat="43.38108" lon="6.11151">
        <ele>293.79998779297</ele>
        <time>2013-09-14T14:36:33Z</time>
      </trkpt>
      <trkpt lat="43.38124" lon="6.11134">
        <ele>292</ele>
        <time>2013-09-14T14:36:36Z</time>
      </trkpt>
      <trkpt lat="43.38139" lon="6.11118">
        <ele>292</ele>
        <time>2013-09-14T14:36:39Z</time>
      </trkpt>
      <trkpt lat="43.38144" lon="6.11113">
        <ele>291.60000610352</ele>
        <time>2013-09-14T14:36:40Z</time>
      </trkpt>
      <trkpt lat="43.38148" lon="6.11106">
        <ele>291.20001220703</ele>
        <time>2013-09-14T14:36:41Z</time>
      </trkpt>
      <trkpt lat="43.38155" lon="6.11092">
        <ele>290.20001220703</ele>
        <time>2013-09-14T14:36:43Z</time>
      </trkpt>
      <trkpt lat="43.38162" lon="6.11068">
        <ele>289.79998779297</ele>
        <time>2013-09-14T14:36:46Z</time>
      </trkpt>
      <trkpt lat="43.38167" lon="6.11051">
        <ele>289.39999389648</ele>
        <time>2013-09-14T14:36:48Z</time>
      </trkpt>
      <trkpt lat="43.38173" lon="6.11016">
        <ele>287.79998779297</ele>
        <time>2013-09-14T14:36:52Z</time>
      </trkpt>
      <trkpt lat="43.38184" lon="6.10961">
        <ele>287.39999389648</ele>
        <time>2013-09-14T14:36:58Z</time>
      </trkpt>
      <trkpt lat="43.38186" lon="6.10952">
        <ele>287</ele>
        <time>2013-09-14T14:36:59Z</time>
      </trkpt>
      <trkpt lat="43.38188" lon="6.10943">
        <ele>286.60000610352</ele>
        <time>2013-09-14T14:37:00Z</time>
      </trkpt>
      <trkpt lat="43.3819" lon="6.10934">
        <ele>285.60000610352</ele>
        <time>2013-09-14T14:37:01Z</time>
      </trkpt>
      <trkpt lat="43.38194" lon="6.10907">
        <ele>285.20001220703</ele>
        <time>2013-09-14T14:37:04Z</time>
      </trkpt>
      <trkpt lat="43.38195" lon="6.10899">
        <ele>284.79998779297</ele>
        <time>2013-09-14T14:37:05Z</time>
      </trkpt>
      <trkpt lat="43.38196" lon="6.10893">
        <ele>284.39999389648</ele>
        <time>2013-09-14T14:37:06Z</time>
      </trkpt>
      <trkpt lat="43.38198" lon="6.10889">
        <ele>284</ele>
        <time>2013-09-14T14:37:07Z</time>
      </trkpt>
      <trkpt lat="43.38199" lon="6.10886">
        <ele>283.60000610352</ele>
        <time>2013-09-14T14:37:08Z</time>
      </trkpt>
      <trkpt lat="43.38202" lon="6.10886">
        <ele>283.60000610352</ele>
        <time>2013-09-14T14:37:09Z</time>
      </trkpt>
      <trkpt lat="43.38211" lon="6.10889">
        <ele>283.60000610352</ele>
        <time>2013-09-14T14:37:12Z</time>
      </trkpt>
      <trkpt lat="43.38214" lon="6.1089">
        <ele>283.60000610352</ele>
        <time>2013-09-14T14:37:13Z</time>
      </trkpt>
      <trkpt lat="43.38241" lon="6.109">
        <ele>283.60000610352</ele>
        <time>2013-09-14T14:37:20Z</time>
      </trkpt>
      <trkpt lat="43.38271" lon="6.1091">
        <ele>283.20001220703</ele>
        <time>2013-09-14T14:37:28Z</time>
      </trkpt>
      <trkpt lat="43.38274" lon="6.10911">
        <ele>282.79998779297</ele>
        <time>2013-09-14T14:37:29Z</time>
      </trkpt>
      <trkpt lat="43.38308" lon="6.1092">
        <ele>281.60000610352</ele>
        <time>2013-09-14T14:37:38Z</time>
      </trkpt>
      <trkpt lat="43.38332" lon="6.10929">
        <ele>281.60000610352</ele>
        <time>2013-09-14T14:37:45Z</time>
      </trkpt>
      <trkpt lat="43.3835" lon="6.10935">
        <ele>281.60000610352</ele>
        <time>2013-09-14T14:37:51Z</time>
      </trkpt>
      <trkpt lat="43.38367" lon="6.1094">
        <ele>281.60000610352</ele>
        <time>2013-09-14T14:37:56Z</time>
      </trkpt>
      <trkpt lat="43.3839" lon="6.10947">
        <ele>282.39999389648</ele>
        <time>2013-09-14T14:38:03Z</time>
      </trkpt>
      <trkpt lat="43.384" lon="6.10949">
        <ele>283.60000610352</ele>
        <time>2013-09-14T14:38:06Z</time>
      </trkpt>
      <trkpt lat="43.38419" lon="6.10952">
        <ele>283.60000610352</ele>
        <time>2013-09-14T14:38:12Z</time>
      </trkpt>
      <trkpt lat="43.38443" lon="6.10958">
        <ele>283.60000610352</ele>
        <time>2013-09-14T14:38:20Z</time>
      </trkpt>
      <trkpt lat="43.38459" lon="6.1096">
        <ele>284.39999389648</ele>
        <time>2013-09-14T14:38:26Z</time>
      </trkpt>
      <trkpt lat="43.38467" lon="6.10961">
        <ele>285.60000610352</ele>
        <time>2013-09-14T14:38:31Z</time>
      </trkpt>
      <trkpt lat="43.38475" lon="6.10959">
        <ele>285.60000610352</ele>
        <time>2013-09-14T14:38:37Z</time>
      </trkpt>
      <trkpt lat="43.38499" lon="6.10964">
        <ele>285.60000610352</ele>
        <time>2013-09-14T14:38:47Z</time>
      </trkpt>
      <trkpt lat="43.38501" lon="6.10965">
        <ele>286</ele>
        <time>2013-09-14T14:38:48Z</time>
      </trkpt>
      <trkpt lat="43.38504" lon="6.10967">
        <ele>286.39999389648</ele>
        <time>2013-09-14T14:38:49Z</time>
      </trkpt>
      <trkpt lat="43.38507" lon="6.10967">
        <ele>287</ele>
        <time>2013-09-14T14:38:50Z</time>
      </trkpt>
      <trkpt lat="43.38513" lon="6.10968">
        <ele>287.79998779297</ele>
        <time>2013-09-14T14:38:52Z</time>
      </trkpt>
      <trkpt lat="43.38519" lon="6.10969">
        <ele>287.79998779297</ele>
        <time>2013-09-14T14:38:54Z</time>
      </trkpt>
      <trkpt lat="43.38525" lon="6.10971">
        <ele>288.39999389648</ele>
        <time>2013-09-14T14:38:57Z</time>
      </trkpt>
      <trkpt lat="43.38527" lon="6.10971">
        <ele>288.79998779297</ele>
        <time>2013-09-14T14:38:58Z</time>
      </trkpt>
      <trkpt lat="43.3853" lon="6.10973">
        <ele>289.60000610352</ele>
        <time>2013-09-14T14:39:00Z</time>
      </trkpt>
      <trkpt lat="43.38542" lon="6.10978">
        <ele>290.20001220703</ele>
        <time>2013-09-14T14:39:07Z</time>
      </trkpt>
      <trkpt lat="43.38549" lon="6.10982">
        <ele>290.20001220703</ele>
        <time>2013-09-14T14:39:11Z</time>
      </trkpt>
      <trkpt lat="43.38558" lon="6.10988">
        <ele>291</ele>
        <time>2013-09-14T14:39:17Z</time>
      </trkpt>
      <trkpt lat="43.38562" lon="6.10988">
        <ele>291.79998779297</ele>
        <time>2013-09-14T14:39:19Z</time>
      </trkpt>
      <trkpt lat="43.38579" lon="6.10986">
        <ele>292.20001220703</ele>
        <time>2013-09-14T14:39:31Z</time>
      </trkpt>
      <trkpt lat="43.38587" lon="6.10985">
        <ele>292.20001220703</ele>
        <time>2013-09-14T14:39:37Z</time>
      </trkpt>
      <trkpt lat="43.3859" lon="6.10986">
        <ele>292.60000610352</ele>
        <time>2013-09-14T14:39:39Z</time>
      </trkpt>
      <trkpt lat="43.38593" lon="6.10986">
        <ele>293.39999389648</ele>
        <time>2013-09-14T14:39:41Z</time>
      </trkpt>
      <trkpt lat="43.38594" lon="6.10986">
        <ele>293.79998779297</ele>
        <time>2013-09-14T14:39:42Z</time>
      </trkpt>
      <trkpt lat="43.38597" lon="6.10986">
        <ele>294.20001220703</ele>
        <time>2013-09-14T14:39:44Z</time>
      </trkpt>
      <trkpt lat="43.38602" lon="6.10986">
        <ele>294.20001220703</ele>
        <time>2013-09-14T14:39:49Z</time>
      </trkpt>
      <trkpt lat="43.38602" lon="6.10986">
        <ele>294.20001220703</ele>
        <time>2013-09-14T14:39:50Z</time>
      </trkpt>
      <trkpt lat="43.38602" lon="6.10986">
        <ele>294.20001220703</ele>
        <time>2013-09-14T14:39:56Z</time>
      </trkpt>
      <trkpt lat="43.38602" lon="6.10987">
        <ele>294.20001220703</ele>
        <time>2013-09-14T14:39:59Z</time>
      </trkpt>
      <trkpt lat="43.38608" lon="6.10991">
        <ele>294.20001220703</ele>
        <time>2013-09-14T14:40:04Z</time>
      </trkpt>
      <trkpt lat="43.3861" lon="6.10992">
        <ele>294.20001220703</ele>
        <time>2013-09-14T14:40:06Z</time>
      </trkpt>
      <trkpt lat="43.38613" lon="6.10993">
        <ele>294.20001220703</ele>
        <time>2013-09-14T14:40:08Z</time>
      </trkpt>
      <trkpt lat="43.38614" lon="6.10994">
        <ele>294.20001220703</ele>
        <time>2013-09-14T14:40:13Z</time>
      </trkpt>
      <trkpt lat="43.38614" lon="6.10994">
        <ele>294.20001220703</ele>
        <time>2013-09-14T14:40:17Z</time>
      </trkpt>
      <trkpt lat="43.38618" lon="6.10997">
        <ele>294.20001220703</ele>
        <time>2013-09-14T14:40:21Z</time>
      </trkpt>
      <trkpt lat="43.38627" lon="6.11008">
        <ele>294.20001220703</ele>
        <time>2013-09-14T14:40:26Z</time>
      </trkpt>
      <trkpt lat="43.38642" lon="6.11016">
        <ele>294.20001220703</ele>
        <time>2013-09-14T14:40:31Z</time>
      </trkpt>
      <trkpt lat="43.38655" lon="6.11028">
        <ele>294.20001220703</ele>
        <time>2013-09-14T14:40:35Z</time>
      </trkpt>
      <trkpt lat="43.38657" lon="6.11031">
        <ele>293.79998779297</ele>
        <time>2013-09-14T14:40:36Z</time>
      </trkpt>
      <trkpt lat="43.38665" lon="6.11037">
        <ele>293</ele>
        <time>2013-09-14T14:40:38Z</time>
      </trkpt>
      <trkpt lat="43.38668" lon="6.11039">
        <ele>292.60000610352</ele>
        <time>2013-09-14T14:40:39Z</time>
      </trkpt>
      <trkpt lat="43.38672" lon="6.11042">
        <ele>292.20001220703</ele>
        <time>2013-09-14T14:40:40Z</time>
      </trkpt>
      <trkpt lat="43.38675" lon="6.11045">
        <ele>292.20001220703</ele>
        <time>2013-09-14T14:40:41Z</time>
      </trkpt>
      <trkpt lat="43.38694" lon="6.11063">
        <ele>292.20001220703</ele>
        <time>2013-09-14T14:40:47Z</time>
      </trkpt>
      <trkpt lat="43.38698" lon="6.11064">
        <ele>291.79998779297</ele>
        <time>2013-09-14T14:40:48Z</time>
      </trkpt>
      <trkpt lat="43.387" lon="6.11065">
        <ele>291.39999389648</ele>
        <time>2013-09-14T14:40:49Z</time>
      </trkpt>
      <trkpt lat="43.38702" lon="6.11065">
        <ele>291</ele>
        <time>2013-09-14T14:40:50Z</time>
      </trkpt>
      <trkpt lat="43.38704" lon="6.11065">
        <ele>290.60000610352</ele>
        <time>2013-09-14T14:40:51Z</time>
      </trkpt>
      <trkpt lat="43.38704" lon="6.11066">
        <ele>290.20001220703</ele>
        <time>2013-09-14T14:40:52Z</time>
      </trkpt>
      <trkpt lat="43.38706" lon="6.11064">
        <ele>290.20001220703</ele>
        <time>2013-09-14T14:40:57Z</time>
      </trkpt>
      <trkpt lat="43.38706" lon="6.11064">
        <ele>290.20001220703</ele>
        <time>2013-09-14T14:41:07Z</time>
      </trkpt>
      <trkpt lat="43.38706" lon="6.11064">
        <ele>290.20001220703</ele>
        <time>2013-09-14T14:41:10Z</time>
      </trkpt>
      <trkpt lat="43.38708" lon="6.11062">
        <ele>290.20001220703</ele>
        <time>2013-09-14T14:41:13Z</time>
      </trkpt>
      <trkpt lat="43.38708" lon="6.11058">
        <ele>290.20001220703</ele>
        <time>2013-09-14T14:41:15Z</time>
      </trkpt>
      <trkpt lat="43.38708" lon="6.11038">
        <ele>290.20001220703</ele>
        <time>2013-09-14T14:41:21Z</time>
      </trkpt>
      <trkpt lat="43.38712" lon="6.11009">
        <ele>290.20001220703</ele>
        <time>2013-09-14T14:41:28Z</time>
      </trkpt>
      <trkpt lat="43.38716" lon="6.10976">
        <ele>290.20001220703</ele>
        <time>2013-09-14T14:41:35Z</time>
      </trkpt>
      <trkpt lat="43.38719" lon="6.10937">
        <ele>290.20001220703</ele>
        <time>2013-09-14T14:41:43Z</time>
      </trkpt>
      <trkpt lat="43.38725" lon="6.10895">
        <ele>289.79998779297</ele>
        <time>2013-09-14T14:41:52Z</time>
      </trkpt>
      <trkpt lat="43.38729" lon="6.10879">
        <ele>288.20001220703</ele>
        <time>2013-09-14T14:41:56Z</time>
      </trkpt>
      <trkpt lat="43.38732" lon="6.1087">
        <ele>288.20001220703</ele>
        <time>2013-09-14T14:41:58Z</time>
      </trkpt>
      <trkpt lat="43.38739" lon="6.1084">
        <ele>288.20001220703</ele>
        <time>2013-09-14T14:42:05Z</time>
      </trkpt>
      <trkpt lat="43.38747" lon="6.10813">
        <ele>288.20001220703</ele>
        <time>2013-09-14T14:42:11Z</time>
      </trkpt>
      <trkpt lat="43.38758" lon="6.10786">
        <ele>288.20001220703</ele>
        <time>2013-09-14T14:42:18Z</time>
      </trkpt>
      <trkpt lat="43.38768" lon="6.10766">
        <ele>288.20001220703</ele>
        <time>2013-09-14T14:42:24Z</time>
      </trkpt>
      <trkpt lat="43.38784" lon="6.10755">
        <ele>288.20001220703</ele>
        <time>2013-09-14T14:42:29Z</time>
      </trkpt>
      <trkpt lat="43.38805" lon="6.10756">
        <ele>287.79998779297</ele>
        <time>2013-09-14T14:42:33Z</time>
      </trkpt>
      <trkpt lat="43.38816" lon="6.10755">
        <ele>287</ele>
        <time>2013-09-14T14:42:35Z</time>
      </trkpt>
      <trkpt lat="43.38821" lon="6.10754">
        <ele>286.60000610352</ele>
        <time>2013-09-14T14:42:36Z</time>
      </trkpt>
      <trkpt lat="43.38826" lon="6.10754">
        <ele>286.20001220703</ele>
        <time>2013-09-14T14:42:37Z</time>
      </trkpt>
      <trkpt lat="43.38846" lon="6.10754">
        <ele>286.20001220703</ele>
        <time>2013-09-14T14:42:41Z</time>
      </trkpt>
      <trkpt lat="43.3886" lon="6.10754">
        <ele>286.20001220703</ele>
        <time>2013-09-14T14:42:44Z</time>
      </trkpt>
      <trkpt lat="43.38873" lon="6.10755">
        <ele>285</ele>
        <time>2013-09-14T14:42:47Z</time>
      </trkpt>
      <trkpt lat="43.3888" lon="6.10757">
        <ele>284.20001220703</ele>
        <time>2013-09-14T14:42:49Z</time>
      </trkpt>
      <trkpt lat="43.38895" lon="6.10762">
        <ele>284.20001220703</ele>
        <time>2013-09-14T14:42:53Z</time>
      </trkpt>
      <trkpt lat="43.38913" lon="6.10776">
        <ele>284.20001220703</ele>
        <time>2013-09-14T14:42:59Z</time>
      </trkpt>
      <trkpt lat="43.38919" lon="6.10798">
        <ele>284.20001220703</ele>
        <time>2013-09-14T14:43:04Z</time>
      </trkpt>
      <trkpt lat="43.3893" lon="6.10821">
        <ele>284.20001220703</ele>
        <time>2013-09-14T14:43:10Z</time>
      </trkpt>
      <trkpt lat="43.38944" lon="6.10829">
        <ele>284.20001220703</ele>
        <time>2013-09-14T14:43:14Z</time>
      </trkpt>
      <trkpt lat="43.38976" lon="6.10841">
        <ele>283.60000610352</ele>
        <time>2013-09-14T14:43:24Z</time>
      </trkpt>
      <trkpt lat="43.38982" lon="6.10843">
        <ele>282.79998779297</ele>
        <time>2013-09-14T14:43:26Z</time>
      </trkpt>
      <trkpt lat="43.38985" lon="6.10844">
        <ele>282.39999389648</ele>
        <time>2013-09-14T14:43:27Z</time>
      </trkpt>
      <trkpt lat="43.38988" lon="6.10844">
        <ele>282</ele>
        <time>2013-09-14T14:43:28Z</time>
      </trkpt>
      <trkpt lat="43.39025" lon="6.10832">
        <ele>282</ele>
        <time>2013-09-14T14:43:38Z</time>
      </trkpt>
      <trkpt lat="43.39054" lon="6.10823">
        <ele>282</ele>
        <time>2013-09-14T14:43:45Z</time>
      </trkpt>
      <trkpt lat="43.39075" lon="6.10811">
        <ele>282</ele>
        <time>2013-09-14T14:43:52Z</time>
      </trkpt>
      <trkpt lat="43.39089" lon="6.10795">
        <ele>282</ele>
        <time>2013-09-14T14:43:58Z</time>
      </trkpt>
      <trkpt lat="43.39104" lon="6.10779">
        <ele>282</ele>
        <time>2013-09-14T14:44:03Z</time>
      </trkpt>
      <trkpt lat="43.39123" lon="6.10768">
        <ele>281.60000610352</ele>
        <time>2013-09-14T14:44:08Z</time>
      </trkpt>
      <trkpt lat="43.39132" lon="6.10762">
        <ele>280.79998779297</ele>
        <time>2013-09-14T14:44:10Z</time>
      </trkpt>
      <trkpt lat="43.39149" lon="6.10752">
        <ele>280</ele>
        <time>2013-09-14T14:44:14Z</time>
      </trkpt>
      <trkpt lat="43.3916" lon="6.1074">
        <ele>279.39999389648</ele>
        <time>2013-09-14T14:44:18Z</time>
      </trkpt>
      <trkpt lat="43.39167" lon="6.10733">
        <ele>278.60000610352</ele>
        <time>2013-09-14T14:44:20Z</time>
      </trkpt>
      <trkpt lat="43.39171" lon="6.10724">
        <ele>277.79998779297</ele>
        <time>2013-09-14T14:44:22Z</time>
      </trkpt>
      <trkpt lat="43.39177" lon="6.10694">
        <ele>277.79998779297</ele>
        <time>2013-09-14T14:44:27Z</time>
      </trkpt>
      <trkpt lat="43.3918" lon="6.10683">
        <ele>277.79998779297</ele>
        <time>2013-09-14T14:44:29Z</time>
      </trkpt>
      <trkpt lat="43.39191" lon="6.10664">
        <ele>277.79998779297</ele>
        <time>2013-09-14T14:44:34Z</time>
      </trkpt>
      <trkpt lat="43.39196" lon="6.10655">
        <ele>277.79998779297</ele>
        <time>2013-09-14T14:44:37Z</time>
      </trkpt>
      <trkpt lat="43.39202" lon="6.1065">
        <ele>277.79998779297</ele>
        <time>2013-09-14T14:44:39Z</time>
      </trkpt>
      <trkpt lat="43.39216" lon="6.10632">
        <ele>277.79998779297</ele>
        <time>2013-09-14T14:44:45Z</time>
      </trkpt>
      <trkpt lat="43.3924" lon="6.10603">
        <ele>277.79998779297</ele>
        <time>2013-09-14T14:44:56Z</time>
      </trkpt>
      <trkpt lat="43.39251" lon="6.10594">
        <ele>277.79998779297</ele>
        <time>2013-09-14T14:45:01Z</time>
      </trkpt>
      <trkpt lat="43.39262" lon="6.10575">
        <ele>277.79998779297</ele>
        <time>2013-09-14T14:45:07Z</time>
      </trkpt>
      <trkpt lat="43.39269" lon="6.10559">
        <ele>277.79998779297</ele>
        <time>2013-09-14T14:45:12Z</time>
      </trkpt>
      <trkpt lat="43.39276" lon="6.10536">
        <ele>277.79998779297</ele>
        <time>2013-09-14T14:45:19Z</time>
      </trkpt>
      <trkpt lat="43.39287" lon="6.10512">
        <ele>277.79998779297</ele>
        <time>2013-09-14T14:45:25Z</time>
      </trkpt>
      <trkpt lat="43.39288" lon="6.10508">
        <ele>277.39999389648</ele>
        <time>2013-09-14T14:45:26Z</time>
      </trkpt>
      <trkpt lat="43.39293" lon="6.10493">
        <ele>276.20001220703</ele>
        <time>2013-09-14T14:45:29Z</time>
      </trkpt>
      <trkpt lat="43.39297" lon="6.10483">
        <ele>275.79998779297</ele>
        <time>2013-09-14T14:45:31Z</time>
      </trkpt>
      <trkpt lat="43.393" lon="6.10478">
        <ele>275.79998779297</ele>
        <time>2013-09-14T14:45:32Z</time>
      </trkpt>
      <trkpt lat="43.39307" lon="6.10468">
        <ele>275.39999389648</ele>
        <time>2013-09-14T14:45:34Z</time>
      </trkpt>
      <trkpt lat="43.39313" lon="6.10457">
        <ele>274.60000610352</ele>
        <time>2013-09-14T14:45:36Z</time>
      </trkpt>
      <trkpt lat="43.39319" lon="6.10447">
        <ele>273.60000610352</ele>
        <time>2013-09-14T14:45:38Z</time>
      </trkpt>
      <trkpt lat="43.39325" lon="6.10437">
        <ele>273.60000610352</ele>
        <time>2013-09-14T14:45:40Z</time>
      </trkpt>
      <trkpt lat="43.39339" lon="6.1042">
        <ele>273.60000610352</ele>
        <time>2013-09-14T14:45:44Z</time>
      </trkpt>
      <trkpt lat="43.39362" lon="6.10419">
        <ele>273.20001220703</ele>
        <time>2013-09-14T14:45:49Z</time>
      </trkpt>
      <trkpt lat="43.39368" lon="6.10408">
        <ele>272.20001220703</ele>
        <time>2013-09-14T14:45:51Z</time>
      </trkpt>
      <trkpt lat="43.39368" lon="6.10394">
        <ele>271.20001220703</ele>
        <time>2013-09-14T14:45:53Z</time>
      </trkpt>
      <trkpt lat="43.39375" lon="6.10377">
        <ele>271.20001220703</ele>
        <time>2013-09-14T14:45:56Z</time>
      </trkpt>
      <trkpt lat="43.39378" lon="6.10373">
        <ele>271.20001220703</ele>
        <time>2013-09-14T14:45:57Z</time>
      </trkpt>
      <trkpt lat="43.39401" lon="6.10335">
        <ele>270.39999389648</ele>
        <time>2013-09-14T14:46:05Z</time>
      </trkpt>
      <trkpt lat="43.39406" lon="6.10327">
        <ele>269.60000610352</ele>
        <time>2013-09-14T14:46:07Z</time>
      </trkpt>
      <trkpt lat="43.39408" lon="6.10323">
        <ele>269.20001220703</ele>
        <time>2013-09-14T14:46:08Z</time>
      </trkpt>
      <trkpt lat="43.39412" lon="6.10319">
        <ele>269.20001220703</ele>
        <time>2013-09-14T14:46:09Z</time>
      </trkpt>
      <trkpt lat="43.39431" lon="6.10299">
        <ele>269.20001220703</ele>
        <time>2013-09-14T14:46:15Z</time>
      </trkpt>
      <trkpt lat="43.39442" lon="6.10291">
        <ele>269.20001220703</ele>
        <time>2013-09-14T14:46:18Z</time>
      </trkpt>
      <trkpt lat="43.39449" lon="6.10284">
        <ele>269.20001220703</ele>
        <time>2013-09-14T14:46:20Z</time>
      </trkpt>
      <trkpt lat="43.3947" lon="6.10263">
        <ele>268.79998779297</ele>
        <time>2013-09-14T14:46:25Z</time>
      </trkpt>
      <trkpt lat="43.39478" lon="6.10253">
        <ele>267.79998779297</ele>
        <time>2013-09-14T14:46:27Z</time>
      </trkpt>
      <trkpt lat="43.39482" lon="6.10249">
        <ele>267.39999389648</ele>
        <time>2013-09-14T14:46:28Z</time>
      </trkpt>
      <trkpt lat="43.39485" lon="6.10243">
        <ele>267</ele>
        <time>2013-09-14T14:46:29Z</time>
      </trkpt>
      <trkpt lat="43.39493" lon="6.10225">
        <ele>267</ele>
        <time>2013-09-14T14:46:32Z</time>
      </trkpt>
      <trkpt lat="43.395" lon="6.10208">
        <ele>266</ele>
        <time>2013-09-14T14:46:35Z</time>
      </trkpt>
      <trkpt lat="43.39504" lon="6.1019">
        <ele>264.79998779297</ele>
        <time>2013-09-14T14:46:38Z</time>
      </trkpt>
      <trkpt lat="43.3951" lon="6.10166">
        <ele>264.79998779297</ele>
        <time>2013-09-14T14:46:42Z</time>
      </trkpt>
      <trkpt lat="43.39523" lon="6.10121">
        <ele>264.39999389648</ele>
        <time>2013-09-14T14:46:49Z</time>
      </trkpt>
      <trkpt lat="43.39526" lon="6.10109">
        <ele>263.60000610352</ele>
        <time>2013-09-14T14:46:51Z</time>
      </trkpt>
      <trkpt lat="43.39531" lon="6.10097">
        <ele>262.79998779297</ele>
        <time>2013-09-14T14:46:53Z</time>
      </trkpt>
      <trkpt lat="43.3954" lon="6.1008">
        <ele>262.79998779297</ele>
        <time>2013-09-14T14:46:56Z</time>
      </trkpt>
      <trkpt lat="43.39542" lon="6.10074">
        <ele>262.20001220703</ele>
        <time>2013-09-14T14:46:57Z</time>
      </trkpt>
      <trkpt lat="43.39544" lon="6.10067">
        <ele>261.79998779297</ele>
        <time>2013-09-14T14:46:58Z</time>
      </trkpt>
      <trkpt lat="43.39547" lon="6.10055">
        <ele>261</ele>
        <time>2013-09-14T14:47:00Z</time>
      </trkpt>
      <trkpt lat="43.39549" lon="6.10049">
        <ele>260.60000610352</ele>
        <time>2013-09-14T14:47:01Z</time>
      </trkpt>
      <trkpt lat="43.39555" lon="6.10025">
        <ele>260.60000610352</ele>
        <time>2013-09-14T14:47:05Z</time>
      </trkpt>
      <trkpt lat="43.39554" lon="6.10019">
        <ele>260.60000610352</ele>
        <time>2013-09-14T14:47:06Z</time>
      </trkpt>
      <trkpt lat="43.3955" lon="6.10005">
        <ele>260.60000610352</ele>
        <time>2013-09-14T14:47:09Z</time>
      </trkpt>
      <trkpt lat="43.39549" lon="6.09997">
        <ele>260.60000610352</ele>
        <time>2013-09-14T14:47:11Z</time>
      </trkpt>
      <trkpt lat="43.3955" lon="6.09993">
        <ele>260.60000610352</ele>
        <time>2013-09-14T14:47:12Z</time>
      </trkpt>
      <trkpt lat="43.39552" lon="6.09984">
        <ele>260.60000610352</ele>
        <time>2013-09-14T14:47:15Z</time>
      </trkpt>
      <trkpt lat="43.39552" lon="6.0997">
        <ele>260.60000610352</ele>
        <time>2013-09-14T14:47:19Z</time>
      </trkpt>
      <trkpt lat="43.39553" lon="6.09948">
        <ele>260.60000610352</ele>
        <time>2013-09-14T14:47:24Z</time>
      </trkpt>
      <trkpt lat="43.39551" lon="6.09936">
        <ele>260.60000610352</ele>
        <time>2013-09-14T14:47:27Z</time>
      </trkpt>
      <trkpt lat="43.39548" lon="6.0993">
        <ele>260.60000610352</ele>
        <time>2013-09-14T14:47:29Z</time>
      </trkpt>
      <trkpt lat="43.39547" lon="6.09926">
        <ele>261</ele>
        <time>2013-09-14T14:47:30Z</time>
      </trkpt>
      <trkpt lat="43.39544" lon="6.09917">
        <ele>262.39999389648</ele>
        <time>2013-09-14T14:47:33Z</time>
      </trkpt>
      <trkpt lat="43.39544" lon="6.09915">
        <ele>263</ele>
        <time>2013-09-14T14:47:34Z</time>
      </trkpt>
      <trkpt lat="43.39545" lon="6.09905">
        <ele>263</ele>
        <time>2013-09-14T14:47:38Z</time>
      </trkpt>
      <trkpt lat="43.39546" lon="6.09902">
        <ele>263</ele>
        <time>2013-09-14T14:47:40Z</time>
      </trkpt>
      <trkpt lat="43.3955" lon="6.09895">
        <ele>263</ele>
        <time>2013-09-14T14:47:45Z</time>
      </trkpt>
      <trkpt lat="43.39552" lon="6.09891">
        <ele>263</ele>
        <time>2013-09-14T14:47:47Z</time>
      </trkpt>
      <trkpt lat="43.39553" lon="6.09882">
        <ele>263</ele>
        <time>2013-09-14T14:47:52Z</time>
      </trkpt>
      <trkpt lat="43.39556" lon="6.09874">
        <ele>263</ele>
        <time>2013-09-14T14:47:57Z</time>
      </trkpt>
      <trkpt lat="43.39555" lon="6.09868">
        <ele>263</ele>
        <time>2013-09-14T14:48:03Z</time>
      </trkpt>
      <trkpt lat="43.39555" lon="6.09867">
        <ele>263</ele>
        <time>2013-09-14T14:48:09Z</time>
      </trkpt>
      <trkpt lat="43.39555" lon="6.09867">
        <ele>263</ele>
        <time>2013-09-14T14:48:12Z</time>
      </trkpt>
      <trkpt lat="43.39556" lon="6.09865">
        <ele>263</ele>
        <time>2013-09-14T14:48:15Z</time>
      </trkpt>
      <trkpt lat="43.39556" lon="6.09861">
        <ele>263</ele>
        <time>2013-09-14T14:48:18Z</time>
      </trkpt>
      <trkpt lat="43.39557" lon="6.09857">
        <ele>263</ele>
        <time>2013-09-14T14:48:21Z</time>
      </trkpt>
      <trkpt lat="43.39557" lon="6.09854">
        <ele>263</ele>
        <time>2013-09-14T14:48:23Z</time>
      </trkpt>
      <trkpt lat="43.39558" lon="6.09843">
        <ele>263</ele>
        <time>2013-09-14T14:48:29Z</time>
      </trkpt>
      <trkpt lat="43.39559" lon="6.09836">
        <ele>263</ele>
        <time>2013-09-14T14:48:33Z</time>
      </trkpt>
      <trkpt lat="43.3956" lon="6.09831">
        <ele>263</ele>
        <time>2013-09-14T14:48:36Z</time>
      </trkpt>
      <trkpt lat="43.39562" lon="6.0982">
        <ele>263</ele>
        <time>2013-09-14T14:48:43Z</time>
      </trkpt>
      <trkpt lat="43.39565" lon="6.09809">
        <ele>263</ele>
        <time>2013-09-14T14:48:50Z</time>
      </trkpt>
      <trkpt lat="43.39567" lon="6.09796">
        <ele>263</ele>
        <time>2013-09-14T14:48:58Z</time>
      </trkpt>
      <trkpt lat="43.39568" lon="6.09785">
        <ele>263</ele>
        <time>2013-09-14T14:49:04Z</time>
      </trkpt>
      <trkpt lat="43.39576" lon="6.09758">
        <ele>263</ele>
        <time>2013-09-14T14:49:17Z</time>
      </trkpt>
      <trkpt lat="43.39586" lon="6.09725">
        <ele>263</ele>
        <time>2013-09-14T14:49:31Z</time>
      </trkpt>
      <trkpt lat="43.3959" lon="6.09709">
        <ele>263</ele>
        <time>2013-09-14T14:49:37Z</time>
      </trkpt>
      <trkpt lat="43.39594" lon="6.09686">
        <ele>263</ele>
        <time>2013-09-14T14:49:44Z</time>
      </trkpt>
      <trkpt lat="43.39599" lon="6.09664">
        <ele>263</ele>
        <time>2013-09-14T14:49:50Z</time>
      </trkpt>
      <trkpt lat="43.39606" lon="6.09634">
        <ele>263</ele>
        <time>2013-09-14T14:49:58Z</time>
      </trkpt>
      <trkpt lat="43.39614" lon="6.09598">
        <ele>263</ele>
        <time>2013-09-14T14:50:08Z</time>
      </trkpt>
      <trkpt lat="43.39622" lon="6.09572">
        <ele>263</ele>
        <time>2013-09-14T14:50:16Z</time>
      </trkpt>
      <trkpt lat="43.39629" lon="6.09551">
        <ele>263</ele>
        <time>2013-09-14T14:50:21Z</time>
      </trkpt>
      <trkpt lat="43.3964" lon="6.09536">
        <ele>263</ele>
        <time>2013-09-14T14:50:26Z</time>
      </trkpt>
      <trkpt lat="43.39649" lon="6.09524">
        <ele>262.39999389648</ele>
        <time>2013-09-14T14:50:29Z</time>
      </trkpt>
      <trkpt lat="43.39652" lon="6.09519">
        <ele>262</ele>
        <time>2013-09-14T14:50:30Z</time>
      </trkpt>
      <trkpt lat="43.39655" lon="6.09513">
        <ele>261.60000610352</ele>
        <time>2013-09-14T14:50:31Z</time>
      </trkpt>
      <trkpt lat="43.39657" lon="6.09508">
        <ele>261.20001220703</ele>
        <time>2013-09-14T14:50:32Z</time>
      </trkpt>
      <trkpt lat="43.3966" lon="6.09503">
        <ele>260.60000610352</ele>
        <time>2013-09-14T14:50:33Z</time>
      </trkpt>
      <trkpt lat="43.39662" lon="6.09497">
        <ele>260.20001220703</ele>
        <time>2013-09-14T14:50:34Z</time>
      </trkpt>
      <trkpt lat="43.39664" lon="6.09491">
        <ele>259.60000610352</ele>
        <time>2013-09-14T14:50:35Z</time>
      </trkpt>
      <trkpt lat="43.39666" lon="6.09485">
        <ele>259.20001220703</ele>
        <time>2013-09-14T14:50:36Z</time>
      </trkpt>
      <trkpt lat="43.39668" lon="6.09481">
        <ele>258.20001220703</ele>
        <time>2013-09-14T14:50:37Z</time>
      </trkpt>
      <trkpt lat="43.39669" lon="6.09476">
        <ele>257.60000610352</ele>
        <time>2013-09-14T14:50:38Z</time>
      </trkpt>
      <trkpt lat="43.3967" lon="6.09472">
        <ele>257.20001220703</ele>
        <time>2013-09-14T14:50:39Z</time>
      </trkpt>
      <trkpt lat="43.39672" lon="6.09468">
        <ele>256.60000610352</ele>
        <time>2013-09-14T14:50:40Z</time>
      </trkpt>
      <trkpt lat="43.39674" lon="6.09463">
        <ele>256.20001220703</ele>
        <time>2013-09-14T14:50:43Z</time>
      </trkpt>
      <trkpt lat="43.39675" lon="6.09462">
        <ele>255.80000305176</ele>
        <time>2013-09-14T14:50:44Z</time>
      </trkpt>
      <trkpt lat="43.39675" lon="6.09461">
        <ele>255.39999389648</ele>
        <time>2013-09-14T14:50:45Z</time>
      </trkpt>
      <trkpt lat="43.39676" lon="6.0946">
        <ele>255</ele>
        <time>2013-09-14T14:50:46Z</time>
      </trkpt>
      <trkpt lat="43.39676" lon="6.0946">
        <ele>254.60000610352</ele>
        <time>2013-09-14T14:50:50Z</time>
      </trkpt>
      <trkpt lat="43.39676" lon="6.0946">
        <ele>254.60000610352</ele>
        <time>2013-09-14T14:51:02Z</time>
      </trkpt>
      <trkpt lat="43.39678" lon="6.09452">
        <ele>254.60000610352</ele>
        <time>2013-09-14T14:51:06Z</time>
      </trkpt>
      <trkpt lat="43.39682" lon="6.09445">
        <ele>254.60000610352</ele>
        <time>2013-09-14T14:51:10Z</time>
      </trkpt>
      <trkpt lat="43.39683" lon="6.09443">
        <ele>254.19999694824</ele>
        <time>2013-09-14T14:51:13Z</time>
      </trkpt>
      <trkpt lat="43.39683" lon="6.09442">
        <ele>253.19999694824</ele>
        <time>2013-09-14T14:51:15Z</time>
      </trkpt>
      <trkpt lat="43.39683" lon="6.09439">
        <ele>252.39999389648</ele>
        <time>2013-09-14T14:51:17Z</time>
      </trkpt>
      <trkpt lat="43.39683" lon="6.09438">
        <ele>252.39999389648</ele>
        <time>2013-09-14T14:51:19Z</time>
      </trkpt>
      <trkpt lat="43.39683" lon="6.09437">
        <ele>252.39999389648</ele>
        <time>2013-09-14T14:51:20Z</time>
      </trkpt>
      <trkpt lat="43.3968" lon="6.09439">
        <ele>252.39999389648</ele>
        <time>2013-09-14T14:51:23Z</time>
      </trkpt>
      <trkpt lat="43.39688" lon="6.09443">
        <ele>252.39999389648</ele>
        <time>2013-09-14T14:51:31Z</time>
      </trkpt>
      <trkpt lat="43.39696" lon="6.09446">
        <ele>252.39999389648</ele>
        <time>2013-09-14T14:51:34Z</time>
      </trkpt>
      <trkpt lat="43.39702" lon="6.09443">
        <ele>251.39999389648</ele>
        <time>2013-09-14T14:51:36Z</time>
      </trkpt>
      <trkpt lat="43.39706" lon="6.09436">
        <ele>250</ele>
        <time>2013-09-14T14:51:39Z</time>
      </trkpt>
      <trkpt lat="43.3971" lon="6.09432">
        <ele>250</ele>
        <time>2013-09-14T14:51:41Z</time>
      </trkpt>
      <trkpt lat="43.39712" lon="6.09429">
        <ele>250</ele>
        <time>2013-09-14T14:51:42Z</time>
      </trkpt>
      <trkpt lat="43.39734" lon="6.09396">
        <ele>249.60000610352</ele>
        <time>2013-09-14T14:51:53Z</time>
      </trkpt>
      <trkpt lat="43.39738" lon="6.0939">
        <ele>248.80000305176</ele>
        <time>2013-09-14T14:51:55Z</time>
      </trkpt>
      <trkpt lat="43.3975" lon="6.0937">
        <ele>248</ele>
        <time>2013-09-14T14:52:01Z</time>
      </trkpt>
      <trkpt lat="43.39761" lon="6.09349">
        <ele>248</ele>
        <time>2013-09-14T14:52:07Z</time>
      </trkpt>
      <trkpt lat="43.39772" lon="6.09325">
        <ele>248</ele>
        <time>2013-09-14T14:52:13Z</time>
      </trkpt>
      <trkpt lat="43.39783" lon="6.09297">
        <ele>248</ele>
        <time>2013-09-14T14:52:20Z</time>
      </trkpt>
      <trkpt lat="43.39789" lon="6.09271">
        <ele>248</ele>
        <time>2013-09-14T14:52:27Z</time>
      </trkpt>
      <trkpt lat="43.39793" lon="6.09247">
        <ele>248</ele>
        <time>2013-09-14T14:52:34Z</time>
      </trkpt>
      <trkpt lat="43.39796" lon="6.09225">
        <ele>248</ele>
        <time>2013-09-14T14:52:40Z</time>
      </trkpt>
      <trkpt lat="43.39797" lon="6.09198">
        <ele>248</ele>
        <time>2013-09-14T14:52:48Z</time>
      </trkpt>
      <trkpt lat="43.39798" lon="6.09177">
        <ele>248</ele>
        <time>2013-09-14T14:52:54Z</time>
      </trkpt>
      <trkpt lat="43.39798" lon="6.09165">
        <ele>248</ele>
        <time>2013-09-14T14:52:58Z</time>
      </trkpt>
      <trkpt lat="43.39801" lon="6.09142">
        <ele>248</ele>
        <time>2013-09-14T14:53:05Z</time>
      </trkpt>
      <trkpt lat="43.39804" lon="6.09121">
        <ele>250</ele>
        <time>2013-09-14T14:53:12Z</time>
      </trkpt>
      <trkpt lat="43.39809" lon="6.09108">
        <ele>250</ele>
        <time>2013-09-14T14:53:16Z</time>
      </trkpt>
      <trkpt lat="43.39809" lon="6.09105">
        <ele>250</ele>
        <time>2013-09-14T14:53:17Z</time>
      </trkpt>
      <trkpt lat="43.39816" lon="6.09083">
        <ele>250</ele>
        <time>2013-09-14T14:53:24Z</time>
      </trkpt>
      <trkpt lat="43.3983" lon="6.09054">
        <ele>250</ele>
        <time>2013-09-14T14:53:33Z</time>
      </trkpt>
      <trkpt lat="43.39836" lon="6.09046">
        <ele>250</ele>
        <time>2013-09-14T14:53:35Z</time>
      </trkpt>
      <trkpt lat="43.39839" lon="6.09043">
        <ele>250</ele>
        <time>2013-09-14T14:53:36Z</time>
      </trkpt>
      <trkpt lat="43.39855" lon="6.09027">
        <ele>250</ele>
        <time>2013-09-14T14:53:40Z</time>
      </trkpt>
      <trkpt lat="43.39859" lon="6.09023">
        <ele>250</ele>
        <time>2013-09-14T14:53:41Z</time>
      </trkpt>
      <trkpt lat="43.39884" lon="6.08997">
        <ele>249.19999694824</ele>
        <time>2013-09-14T14:53:47Z</time>
      </trkpt>
      <trkpt lat="43.39889" lon="6.08995">
        <ele>248.80000305176</ele>
        <time>2013-09-14T14:53:48Z</time>
      </trkpt>
      <trkpt lat="43.39893" lon="6.08993">
        <ele>248.19999694824</ele>
        <time>2013-09-14T14:53:49Z</time>
      </trkpt>
      <trkpt lat="43.39908" lon="6.08991">
        <ele>247.80000305176</ele>
        <time>2013-09-14T14:53:52Z</time>
      </trkpt>
      <trkpt lat="43.39925" lon="6.08989">
        <ele>247.80000305176</ele>
        <time>2013-09-14T14:53:55Z</time>
      </trkpt>
      <trkpt lat="43.39931" lon="6.08988">
        <ele>247.39999389648</ele>
        <time>2013-09-14T14:53:56Z</time>
      </trkpt>
      <trkpt lat="43.39937" lon="6.08987">
        <ele>246.80000305176</ele>
        <time>2013-09-14T14:53:57Z</time>
      </trkpt>
      <trkpt lat="43.39949" lon="6.08983">
        <ele>245.80000305176</ele>
        <time>2013-09-14T14:53:59Z</time>
      </trkpt>
      <trkpt lat="43.39962" lon="6.0898">
        <ele>245.39999389648</ele>
        <time>2013-09-14T14:54:01Z</time>
      </trkpt>
      <trkpt lat="43.39974" lon="6.08977">
        <ele>245</ele>
        <time>2013-09-14T14:54:03Z</time>
      </trkpt>
      <trkpt lat="43.3998" lon="6.08976">
        <ele>244.39999389648</ele>
        <time>2013-09-14T14:54:04Z</time>
      </trkpt>
      <trkpt lat="43.39985" lon="6.08974">
        <ele>244</ele>
        <time>2013-09-14T14:54:05Z</time>
      </trkpt>
      <trkpt lat="43.39995" lon="6.08973">
        <ele>243.19999694824</ele>
        <time>2013-09-14T14:54:07Z</time>
      </trkpt>
      <trkpt lat="43.40004" lon="6.08969">
        <ele>243.19999694824</ele>
        <time>2013-09-14T14:54:09Z</time>
      </trkpt>
      <trkpt lat="43.40017" lon="6.08963">
        <ele>243.19999694824</ele>
        <time>2013-09-14T14:54:12Z</time>
      </trkpt>
      <trkpt lat="43.40028" lon="6.08948">
        <ele>243.19999694824</ele>
        <time>2013-09-14T14:54:16Z</time>
      </trkpt>
      <trkpt lat="43.40032" lon="6.08935">
        <ele>243.19999694824</ele>
        <time>2013-09-14T14:54:19Z</time>
      </trkpt>
      <trkpt lat="43.40034" lon="6.08927">
        <ele>243.19999694824</ele>
        <time>2013-09-14T14:54:21Z</time>
      </trkpt>
      <trkpt lat="43.40039" lon="6.08902">
        <ele>243.19999694824</ele>
        <time>2013-09-14T14:54:27Z</time>
      </trkpt>
      <trkpt lat="43.40046" lon="6.08876">
        <ele>243.19999694824</ele>
        <time>2013-09-14T14:54:33Z</time>
      </trkpt>
      <trkpt lat="43.4005" lon="6.08857">
        <ele>243.19999694824</ele>
        <time>2013-09-14T14:54:38Z</time>
      </trkpt>
      <trkpt lat="43.40057" lon="6.08838">
        <ele>243.19999694824</ele>
        <time>2013-09-14T14:54:43Z</time>
      </trkpt>
      <trkpt lat="43.40067" lon="6.08811">
        <ele>243.19999694824</ele>
        <time>2013-09-14T14:54:50Z</time>
      </trkpt>
      <trkpt lat="43.40075" lon="6.08791">
        <ele>243.19999694824</ele>
        <time>2013-09-14T14:54:56Z</time>
      </trkpt>
      <trkpt lat="43.40077" lon="6.08787">
        <ele>243.19999694824</ele>
        <time>2013-09-14T14:54:57Z</time>
      </trkpt>
      <trkpt lat="43.40081" lon="6.08775">
        <ele>243.19999694824</ele>
        <time>2013-09-14T14:55:00Z</time>
      </trkpt>
      <trkpt lat="43.40092" lon="6.08738">
        <ele>243.19999694824</ele>
        <time>2013-09-14T14:55:08Z</time>
      </trkpt>
      <trkpt lat="43.40099" lon="6.08702">
        <ele>243.19999694824</ele>
        <time>2013-09-14T14:55:15Z</time>
      </trkpt>
      <trkpt lat="43.40099" lon="6.08673">
        <ele>242.80000305176</ele>
        <time>2013-09-14T14:55:21Z</time>
      </trkpt>
      <trkpt lat="43.40096" lon="6.08648">
        <ele>241</ele>
        <time>2013-09-14T14:55:25Z</time>
      </trkpt>
      <trkpt lat="43.40099" lon="6.08636">
        <ele>240.60000610352</ele>
        <time>2013-09-14T14:55:27Z</time>
      </trkpt>
      <trkpt lat="43.40107" lon="6.08629">
        <ele>239.80000305176</ele>
        <time>2013-09-14T14:55:29Z</time>
      </trkpt>
      <trkpt lat="43.40115" lon="6.08621">
        <ele>239</ele>
        <time>2013-09-14T14:55:31Z</time>
      </trkpt>
      <trkpt lat="43.40118" lon="6.08618">
        <ele>239</ele>
        <time>2013-09-14T14:55:32Z</time>
      </trkpt>
      <trkpt lat="43.40125" lon="6.08611">
        <ele>239</ele>
        <time>2013-09-14T14:55:34Z</time>
      </trkpt>
      <trkpt lat="43.40141" lon="6.08598">
        <ele>239</ele>
        <time>2013-09-14T14:55:38Z</time>
      </trkpt>
      <trkpt lat="43.40144" lon="6.08595">
        <ele>239</ele>
        <time>2013-09-14T14:55:39Z</time>
      </trkpt>
      <trkpt lat="43.40165" lon="6.08579">
        <ele>238.60000610352</ele>
        <time>2013-09-14T14:55:45Z</time>
      </trkpt>
      <trkpt lat="43.40166" lon="6.08575">
        <ele>238.19999694824</ele>
        <time>2013-09-14T14:55:46Z</time>
      </trkpt>
      <trkpt lat="43.40168" lon="6.0857">
        <ele>237.80000305176</ele>
        <time>2013-09-14T14:55:47Z</time>
      </trkpt>
      <trkpt lat="43.40168" lon="6.08561">
        <ele>237</ele>
        <time>2013-09-14T14:55:49Z</time>
      </trkpt>
      <trkpt lat="43.40168" lon="6.08544">
        <ele>237</ele>
        <time>2013-09-14T14:55:53Z</time>
      </trkpt>
      <trkpt lat="43.40167" lon="6.08526">
        <ele>237</ele>
        <time>2013-09-14T14:55:58Z</time>
      </trkpt>
      <trkpt lat="43.40167" lon="6.08523">
        <ele>237</ele>
        <time>2013-09-14T14:55:59Z</time>
      </trkpt>
      <trkpt lat="43.40168" lon="6.08498">
        <ele>237</ele>
        <time>2013-09-14T14:56:06Z</time>
      </trkpt>
      <trkpt lat="43.40171" lon="6.08479">
        <ele>237</ele>
        <time>2013-09-14T14:56:11Z</time>
      </trkpt>
      <trkpt lat="43.40172" lon="6.08466">
        <ele>237</ele>
        <time>2013-09-14T14:56:14Z</time>
      </trkpt>
      <trkpt lat="43.40174" lon="6.08456">
        <ele>237.39999389648</ele>
        <time>2013-09-14T14:56:17Z</time>
      </trkpt>
      <trkpt lat="43.40175" lon="6.08448">
        <ele>238.19999694824</ele>
        <time>2013-09-14T14:56:19Z</time>
      </trkpt>
      <trkpt lat="43.40176" lon="6.08443">
        <ele>238.60000610352</ele>
        <time>2013-09-14T14:56:20Z</time>
      </trkpt>
      <trkpt lat="43.40176" lon="6.08425">
        <ele>239</ele>
        <time>2013-09-14T14:56:23Z</time>
      </trkpt>
      <trkpt lat="43.40178" lon="6.08395">
        <ele>239</ele>
        <time>2013-09-14T14:56:29Z</time>
      </trkpt>
      <trkpt lat="43.40178" lon="6.08367">
        <ele>239</ele>
        <time>2013-09-14T14:56:35Z</time>
      </trkpt>
      <trkpt lat="43.40179" lon="6.08333">
        <ele>239</ele>
        <time>2013-09-14T14:56:42Z</time>
      </trkpt>
      <trkpt lat="43.4018" lon="6.0831">
        <ele>239</ele>
        <time>2013-09-14T14:56:47Z</time>
      </trkpt>
      <trkpt lat="43.40184" lon="6.08279">
        <ele>239</ele>
        <time>2013-09-14T14:56:54Z</time>
      </trkpt>
      <trkpt lat="43.40184" lon="6.08266">
        <ele>239</ele>
        <time>2013-09-14T14:56:58Z</time>
      </trkpt>
      <trkpt lat="43.40183" lon="6.08263">
        <ele>239</ele>
        <time>2013-09-14T14:57:03Z</time>
      </trkpt>
      <trkpt lat="43.40182" lon="6.08245">
        <ele>238.60000610352</ele>
        <time>2013-09-14T14:57:08Z</time>
      </trkpt>
      <trkpt lat="43.40182" lon="6.08241">
        <ele>238.19999694824</ele>
        <time>2013-09-14T14:57:09Z</time>
      </trkpt>
      <trkpt lat="43.40182" lon="6.08237">
        <ele>237.80000305176</ele>
        <time>2013-09-14T14:57:10Z</time>
      </trkpt>
      <trkpt lat="43.40183" lon="6.0823">
        <ele>237</ele>
        <time>2013-09-14T14:57:12Z</time>
      </trkpt>
      <trkpt lat="43.40185" lon="6.0822">
        <ele>237</ele>
        <time>2013-09-14T14:57:15Z</time>
      </trkpt>
      <trkpt lat="43.40191" lon="6.08197">
        <ele>237</ele>
        <time>2013-09-14T14:57:21Z</time>
      </trkpt>
      <trkpt lat="43.40195" lon="6.08166">
        <ele>237</ele>
        <time>2013-09-14T14:57:28Z</time>
      </trkpt>
      <trkpt lat="43.40197" lon="6.08142">
        <ele>237</ele>
        <time>2013-09-14T14:57:32Z</time>
      </trkpt>
      <trkpt lat="43.40196" lon="6.0813">
        <ele>237</ele>
        <time>2013-09-14T14:57:34Z</time>
      </trkpt>
      <trkpt lat="43.40192" lon="6.08118">
        <ele>236.19999694824</ele>
        <time>2013-09-14T14:57:37Z</time>
      </trkpt>
      <trkpt lat="43.40191" lon="6.08114">
        <ele>235.80000305176</ele>
        <time>2013-09-14T14:57:38Z</time>
      </trkpt>
      <trkpt lat="43.4019" lon="6.08109">
        <ele>235.39999389648</ele>
        <time>2013-09-14T14:57:39Z</time>
      </trkpt>
      <trkpt lat="43.40191" lon="6.08093">
        <ele>235</ele>
        <time>2013-09-14T14:57:42Z</time>
      </trkpt>
      <trkpt lat="43.40192" lon="6.08087">
        <ele>235</ele>
        <time>2013-09-14T14:57:43Z</time>
      </trkpt>
      <trkpt lat="43.402" lon="6.08067">
        <ele>235</ele>
        <time>2013-09-14T14:57:48Z</time>
      </trkpt>
      <trkpt lat="43.40207" lon="6.08059">
        <ele>234.60000610352</ele>
        <time>2013-09-14T14:57:51Z</time>
      </trkpt>
      <trkpt lat="43.40212" lon="6.08052">
        <ele>233.80000305176</ele>
        <time>2013-09-14T14:57:53Z</time>
      </trkpt>
      <trkpt lat="43.40218" lon="6.08044">
        <ele>233</ele>
        <time>2013-09-14T14:57:55Z</time>
      </trkpt>
      <trkpt lat="43.40233" lon="6.08025">
        <ele>233</ele>
        <time>2013-09-14T14:57:59Z</time>
      </trkpt>
      <trkpt lat="43.40261" lon="6.07988">
        <ele>232.39999389648</ele>
        <time>2013-09-14T14:58:06Z</time>
      </trkpt>
      <trkpt lat="43.40269" lon="6.07975">
        <ele>231.60000610352</ele>
        <time>2013-09-14T14:58:08Z</time>
      </trkpt>
      <trkpt lat="43.40276" lon="6.0796">
        <ele>230.60000610352</ele>
        <time>2013-09-14T14:58:10Z</time>
      </trkpt>
      <trkpt lat="43.40284" lon="6.07945">
        <ele>230.60000610352</ele>
        <time>2013-09-14T14:58:12Z</time>
      </trkpt>
      <trkpt lat="43.40292" lon="6.07912">
        <ele>230.60000610352</ele>
        <time>2013-09-14T14:58:16Z</time>
      </trkpt>
      <trkpt lat="43.40298" lon="6.07861">
        <ele>229.39999389648</ele>
        <time>2013-09-14T14:58:22Z</time>
      </trkpt>
      <trkpt lat="43.403" lon="6.07845">
        <ele>228.39999389648</ele>
        <time>2013-09-14T14:58:24Z</time>
      </trkpt>
      <trkpt lat="43.40306" lon="6.07788">
        <ele>228</ele>
        <time>2013-09-14T14:58:31Z</time>
      </trkpt>
      <trkpt lat="43.4031" lon="6.07753">
        <ele>226.39999389648</ele>
        <time>2013-09-14T14:58:35Z</time>
      </trkpt>
      <trkpt lat="43.40321" lon="6.07709">
        <ele>226.39999389648</ele>
        <time>2013-09-14T14:58:40Z</time>
      </trkpt>
      <trkpt lat="43.4034" lon="6.07682">
        <ele>226.39999389648</ele>
        <time>2013-09-14T14:58:44Z</time>
      </trkpt>
      <trkpt lat="43.4035" lon="6.07672">
        <ele>225.60000610352</ele>
        <time>2013-09-14T14:58:46Z</time>
      </trkpt>
      <trkpt lat="43.40359" lon="6.07661">
        <ele>224.80000305176</ele>
        <time>2013-09-14T14:58:48Z</time>
      </trkpt>
      <trkpt lat="43.40366" lon="6.07648">
        <ele>224.19999694824</ele>
        <time>2013-09-14T14:58:50Z</time>
      </trkpt>
      <trkpt lat="43.40371" lon="6.07622">
        <ele>224.19999694824</ele>
        <time>2013-09-14T14:58:54Z</time>
      </trkpt>
      <trkpt lat="43.40373" lon="6.07591">
        <ele>224.19999694824</ele>
        <time>2013-09-14T14:58:59Z</time>
      </trkpt>
      <trkpt lat="43.40373" lon="6.07579">
        <ele>224.19999694824</ele>
        <time>2013-09-14T14:59:01Z</time>
      </trkpt>
      <trkpt lat="43.40374" lon="6.07528">
        <ele>224.19999694824</ele>
        <time>2013-09-14T14:59:10Z</time>
      </trkpt>
      <trkpt lat="43.4038" lon="6.07479">
        <ele>224.19999694824</ele>
        <time>2013-09-14T14:59:19Z</time>
      </trkpt>
      <trkpt lat="43.40386" lon="6.07442">
        <ele>224.19999694824</ele>
        <time>2013-09-14T14:59:26Z</time>
      </trkpt>
      <trkpt lat="43.40389" lon="6.07398">
        <ele>224.19999694824</ele>
        <time>2013-09-14T14:59:34Z</time>
      </trkpt>
      <trkpt lat="43.40381" lon="6.07328">
        <ele>224.19999694824</ele>
        <time>2013-09-14T14:59:46Z</time>
      </trkpt>
      <trkpt lat="43.4038" lon="6.07316">
        <ele>224.19999694824</ele>
        <time>2013-09-14T14:59:48Z</time>
      </trkpt>
      <trkpt lat="43.40379" lon="6.073">
        <ele>224.19999694824</ele>
        <time>2013-09-14T14:59:51Z</time>
      </trkpt>
      <trkpt lat="43.40384" lon="6.0729">
        <ele>223.80000305176</ele>
        <time>2013-09-14T14:59:53Z</time>
      </trkpt>
      <trkpt lat="43.40388" lon="6.07278">
        <ele>223</ele>
        <time>2013-09-14T14:59:55Z</time>
      </trkpt>
      <trkpt lat="43.40388" lon="6.07262">
        <ele>222.19999694824</ele>
        <time>2013-09-14T14:59:57Z</time>
      </trkpt>
      <trkpt lat="43.40387" lon="6.07247">
        <ele>222.19999694824</ele>
        <time>2013-09-14T14:59:59Z</time>
      </trkpt>
      <trkpt lat="43.40385" lon="6.07232">
        <ele>222.19999694824</ele>
        <time>2013-09-14T15:00:01Z</time>
      </trkpt>
      <trkpt lat="43.40387" lon="6.07204">
        <ele>222.19999694824</ele>
        <time>2013-09-14T15:00:05Z</time>
      </trkpt>
      <trkpt lat="43.40388" lon="6.07197">
        <ele>222.19999694824</ele>
        <time>2013-09-14T15:00:06Z</time>
      </trkpt>
      <trkpt lat="43.40391" lon="6.07165">
        <ele>222.19999694824</ele>
        <time>2013-09-14T15:00:12Z</time>
      </trkpt>
      <trkpt lat="43.40398" lon="6.07112">
        <ele>222.19999694824</ele>
        <time>2013-09-14T15:00:22Z</time>
      </trkpt>
      <trkpt lat="43.40404" lon="6.07076">
        <ele>222.19999694824</ele>
        <time>2013-09-14T15:00:30Z</time>
      </trkpt>
      <trkpt lat="43.40406" lon="6.07061">
        <ele>222.19999694824</ele>
        <time>2013-09-14T15:00:34Z</time>
      </trkpt>
      <trkpt lat="43.40408" lon="6.07049">
        <ele>222.19999694824</ele>
        <time>2013-09-14T15:00:37Z</time>
      </trkpt>
      <trkpt lat="43.40412" lon="6.07022">
        <ele>222.19999694824</ele>
        <time>2013-09-14T15:00:45Z</time>
      </trkpt>
      <trkpt lat="43.40419" lon="6.06984">
        <ele>224.19999694824</ele>
        <time>2013-09-14T15:00:56Z</time>
      </trkpt>
      <trkpt lat="43.40422" lon="6.06964">
        <ele>224.19999694824</ele>
        <time>2013-09-14T15:01:02Z</time>
      </trkpt>
      <trkpt lat="43.40429" lon="6.06944">
        <ele>224.19999694824</ele>
        <time>2013-09-14T15:01:08Z</time>
      </trkpt>
      <trkpt lat="43.4044" lon="6.06921">
        <ele>224.19999694824</ele>
        <time>2013-09-14T15:01:15Z</time>
      </trkpt>
      <trkpt lat="43.40442" lon="6.06918">
        <ele>224.19999694824</ele>
        <time>2013-09-14T15:01:16Z</time>
      </trkpt>
      <trkpt lat="43.40447" lon="6.0691">
        <ele>224.19999694824</ele>
        <time>2013-09-14T15:01:19Z</time>
      </trkpt>
      <trkpt lat="43.40451" lon="6.06905">
        <ele>224.19999694824</ele>
        <time>2013-09-14T15:01:22Z</time>
      </trkpt>
      <trkpt lat="43.40451" lon="6.06904">
        <ele>224.19999694824</ele>
        <time>2013-09-14T15:01:26Z</time>
      </trkpt>
      <trkpt lat="43.40452" lon="6.06903">
        <ele>224.19999694824</ele>
        <time>2013-09-14T15:01:31Z</time>
      </trkpt>
      <trkpt lat="43.40453" lon="6.06898">
        <ele>224.19999694824</ele>
        <time>2013-09-14T15:01:33Z</time>
      </trkpt>
      <trkpt lat="43.40454" lon="6.06892">
        <ele>224.19999694824</ele>
        <time>2013-09-14T15:01:35Z</time>
      </trkpt>
      <trkpt lat="43.40456" lon="6.06878">
        <ele>224.19999694824</ele>
        <time>2013-09-14T15:01:39Z</time>
      </trkpt>
      <trkpt lat="43.40461" lon="6.06846">
        <ele>224.19999694824</ele>
        <time>2013-09-14T15:01:47Z</time>
      </trkpt>
      <trkpt lat="43.40464" lon="6.06814">
        <ele>224.19999694824</ele>
        <time>2013-09-14T15:01:55Z</time>
      </trkpt>
      <trkpt lat="43.40462" lon="6.06776">
        <ele>224.19999694824</ele>
        <time>2013-09-14T15:02:04Z</time>
      </trkpt>
      <trkpt lat="43.40462" lon="6.06748">
        <ele>224.19999694824</ele>
        <time>2013-09-14T15:02:11Z</time>
      </trkpt>
      <trkpt lat="43.40464" lon="6.06719">
        <ele>224.19999694824</ele>
        <time>2013-09-14T15:02:18Z</time>
      </trkpt>
      <trkpt lat="43.40467" lon="6.06699">
        <ele>224.19999694824</ele>
        <time>2013-09-14T15:02:23Z</time>
      </trkpt>
      <trkpt lat="43.40476" lon="6.06668">
        <ele>224.19999694824</ele>
        <time>2013-09-14T15:02:31Z</time>
      </trkpt>
      <trkpt lat="43.40484" lon="6.06635">
        <ele>224.19999694824</ele>
        <time>2013-09-14T15:02:40Z</time>
      </trkpt>
      <trkpt lat="43.40489" lon="6.06613">
        <ele>224.19999694824</ele>
        <time>2013-09-14T15:02:46Z</time>
      </trkpt>
      <trkpt lat="43.40485" lon="6.06589">
        <ele>224.19999694824</ele>
        <time>2013-09-14T15:02:52Z</time>
      </trkpt>
      <trkpt lat="43.40472" lon="6.06581">
        <ele>224.19999694824</ele>
        <time>2013-09-14T15:02:57Z</time>
      </trkpt>
      <trkpt lat="43.4046" lon="6.06578">
        <ele>224.19999694824</ele>
        <time>2013-09-14T15:03:01Z</time>
      </trkpt>
      <trkpt lat="43.40448" lon="6.06575">
        <ele>224.19999694824</ele>
        <time>2013-09-14T15:03:05Z</time>
      </trkpt>
      <trkpt lat="43.40438" lon="6.06572">
        <ele>224.19999694824</ele>
        <time>2013-09-14T15:03:08Z</time>
      </trkpt>
      <trkpt lat="43.40425" lon="6.06568">
        <ele>224.19999694824</ele>
        <time>2013-09-14T15:03:12Z</time>
      </trkpt>
      <trkpt lat="43.40421" lon="6.06566">
        <ele>224.19999694824</ele>
        <time>2013-09-14T15:03:13Z</time>
      </trkpt>
      <trkpt lat="43.40412" lon="6.06563">
        <ele>224.60000610352</ele>
        <time>2013-09-14T15:03:16Z</time>
      </trkpt>
      <trkpt lat="43.40407" lon="6.06562">
        <ele>225.39999389648</ele>
        <time>2013-09-14T15:03:18Z</time>
      </trkpt>
      <trkpt lat="43.40404" lon="6.06561">
        <ele>225.80000305176</ele>
        <time>2013-09-14T15:03:19Z</time>
      </trkpt>
      <trkpt lat="43.40402" lon="6.0656">
        <ele>226.39999389648</ele>
        <time>2013-09-14T15:03:20Z</time>
      </trkpt>
      <trkpt lat="43.404" lon="6.06558">
        <ele>226.39999389648</ele>
        <time>2013-09-14T15:03:21Z</time>
      </trkpt>
      <trkpt lat="43.40399" lon="6.06552">
        <ele>226.39999389648</ele>
        <time>2013-09-14T15:03:23Z</time>
      </trkpt>
      <trkpt lat="43.40401" lon="6.06542">
        <ele>226.39999389648</ele>
        <time>2013-09-14T15:03:28Z</time>
      </trkpt>
      <trkpt lat="43.40404" lon="6.0654">
        <ele>226.39999389648</ele>
        <time>2013-09-14T15:03:31Z</time>
      </trkpt>
      <trkpt lat="43.40405" lon="6.0654">
        <ele>226.39999389648</ele>
        <time>2013-09-14T15:03:33Z</time>
      </trkpt>
      <trkpt lat="43.40407" lon="6.06539">
        <ele>226.39999389648</ele>
        <time>2013-09-14T15:03:37Z</time>
      </trkpt>
      <trkpt lat="43.40407" lon="6.06494">
        <ele>228.19999694824</ele>
        <time>2013-09-14T15:19:22Z</time>
      </trkpt>
      <trkpt lat="43.40407" lon="6.06494">
        <ele>228.19999694824</ele>
        <time>2013-09-14T15:19:23Z</time>
      </trkpt>
      <trkpt lat="43.40407" lon="6.06494">
        <ele>229.19999694824</ele>
        <time>2013-09-14T15:19:34Z</time>
      </trkpt>
      <trkpt lat="43.40408" lon="6.0649">
        <ele>230.39999389648</ele>
        <time>2013-09-14T15:19:37Z</time>
      </trkpt>
      <trkpt lat="43.40408" lon="6.0649">
        <ele>229.80000305176</ele>
        <time>2013-09-14T15:19:40Z</time>
      </trkpt>
      <trkpt lat="43.40408" lon="6.0649">
        <ele>228.60000610352</ele>
        <time>2013-09-14T15:19:50Z</time>
      </trkpt>
    </trkseg>
  </trk>
</gpx>